# Wetter Temperatur Luftdruck Luftfeuchtigkeit Sichtweite Windgeschwindigkeit Windrichtung Zeit
1 Clear 12 1028 44 10000 4.45 44 15:45 23.01.2022
2 Clear 13 1022 43 10000 0.45 3 14:34 23.01.2022
3 Clear 13 1022 49 10000 1.34 17 13:43 23.01.2022
4 Clouds 13 1022 55 10000 0.89 357 12:40 23.01.2022
5 Clouds 13 1023 58 10000 0.45 338 12:18 23.01.2022
6 Clear 12 1026 72 10000 0.45 330 11:25 23.01.2022
7 Clear 11 1026 73 10000 1.34 315 10:57 23.01.2022
8 Clear 11 1023 77 10000 0.89 352 10:24 23.01.2022
9 Clear 9 1023 78 10000 0.83 13 09:25 23.01.2022
10 Clear 6 1022 77 10000 1.14 105 06:18 23.01.2022
11 Clear 7 1021 74 10000 1.38 95 03:20 23.01.2022
12 Clear 7 1021 71 10000 1.62 89 01:36 23.01.2022
13 Clear 7 1021 70 10000 2.3 82 00:46 23.01.2022
14 Clear 7 1021 69 10000 2.67 71 23:58 22.01.2022
15 Clear 8 1021 69 10000 2.91 64 22:48 22.01.2022
16 Clear 8 1021 68 10000 2.67 55 22:19 22.01.2022
17 Clear 8 1021 63 10000 2.6 50 20:33 22.01.2022
18 Clear 9 1020 59 10000 2.75 46 19:41 22.01.2022
19 Clear 9 1020 58 10000 2.72 47 18:37 22.01.2022
20 Clear 10 1019 55 10000 2.55 45 17:46 22.01.2022
21 Clear 10 1019 55 10000 2.54 41 17:24 22.01.2022
22 Clear 11 1018 56 10000 2.54 41 16:54 22.01.2022
23 Clear 12 1025 61 10000 2.56 43 15:45 22.01.2022
24 Clear 12 1025 60 10000 2.15 55 14:52 22.01.2022
25 Clear 12 1018 65 10000 3.29 52 13:30 22.01.2022
26 Clouds 12 1018 70 10000 0.45 8 12:40 22.01.2022
27 Clouds 12 1018 70 10000 4.04 45 12:20 22.01.2022
28 Clouds 12 1018 81 10000 3.42 56 10:54 22.01.2022
29 Clouds 11 1018 87 10000 3.34 62 10:25 22.01.2022
30 Clouds 10 1017 93 10000 3.76 56 08:59 22.01.2022
31 Clouds 10 1017 93 10000 3.76 56 08:39 22.01.2022
32 Clouds 9 1018 91 10000 0.89 270 06:46 22.01.2022
33 Clouds 9 1017 85 10000 5.81 315 02:40 22.01.2022
34 Clouds 10 1015 84 10000 4.34 297 23:52 21.01.2022
35 Clouds 10 1015 84 10000 0.45 323 23:21 21.01.2022
36 Clouds 11 1014 76 10000 3.16 270 21:45 21.01.2022
37 Clouds 11 1013 65 10000 4.57 248 19:48 21.01.2022
38 Clouds 12 1013 59 10000 4.85 254 17:53 21.01.2022
39 Clouds 12 1013 63 10000 5.74 278 16:37 21.01.2022
40 Clouds 13 1012 61 10000 6.54 268 15:23 21.01.2022
41 Clouds 13 1013 63 10000 5.46 279 12:51 21.01.2022
42 Clouds 13 1014 64 10000 5.85 268 11:29 21.01.2022
43 Clouds 13 1014 67 10000 0.89 341 10:51 21.01.2022
44 Clouds 11 1014 77 10000 5.55 259 09:24 21.01.2022
45 Clouds 11 1014 76 10000 5.28 256 08:20 21.01.2022
46 Clouds 12 1013 67 10000 5.01 245 04:36 21.01.2022
47 Clouds 11 1018 69 10000 2.68 292 22:52 20.01.2022
48 Clouds 11 1018 70 10000 0.89 270 21:49 20.01.2022
49 Clouds 11 1018 69 10000 1.34 270 21:27 20.01.2022
50 Clouds 12 1018 68 10000 0.89 45 19:55 20.01.2022
51 Clouds 12 1018 66 10000 0.89 270 19:19 20.01.2022
52 Clouds 13 1016 58 10000 3.7 233 17:38 20.01.2022
53 Clouds 14 1016 55 10000 0.89 324 16:35 20.01.2022
54 Clouds 15 1016 54 10000 3.55 241 15:40 20.01.2022
55 Clouds 15 1016 55 10000 3.65 242 14:40 20.01.2022
56 Clouds 15 1017 59 10000 3.31 233 13:18 20.01.2022
57 Clouds 15 1017 58 10000 1.34 237 12:30 20.01.2022
58 Clouds 14 1019 60 10000 0.89 223 11:20 20.01.2022
59 Clouds 13 1022 63 10000 5.36 270 10:19 20.01.2022
60 Clouds 11 1022 73 10000 3.58 315 09:19 20.01.2022
61 Clouds 9 1022 75 10000 1.79 270 07:24 20.01.2022
62 Clouds 10 1023 75 10000 4.02 292 00:41 20.01.2022
63 Clouds 10 1024 79 10000 0.98 207 22:50 19.01.2022
64 Clouds 11 1022 78 10000 0.93 190 21:44 19.01.2022
65 Clouds 11 1024 79 10000 0.45 270 21:22 19.01.2022
66 Clouds 12 1022 78 10000 0.96 175 20:45 19.01.2022
67 Clouds 12 1023 77 10000 0.95 134 19:26 19.01.2022
68 Clouds 12 1023 74 10000 0.67 72 17:51 19.01.2022
69 Clouds 13 1022 74 10000 0.67 72 17:32 19.01.2022
70 Clouds 14 1022 67 10000 1.32 4 15:44 19.01.2022
71 Clouds 15 1023 61 10000 0.84 344 13:38 19.01.2022
72 Clear 14 1027 62 10000 0.89 225 12:24 19.01.2022
73 Clear 14 1028 64 10000 1.34 180 11:38 19.01.2022
74 Clear 13 1025 73 10000 0.93 124 10:20 19.01.2022
75 Clear 12 1028 82 10000 0.89 90 09:33 19.01.2022
76 Clear 9 1028 87 10000 0.45 270 06:34 19.01.2022
77 Clear 10 1028 82 10000 0.45 270 01:55 19.01.2022
78 Clouds 11 1028 81 10000 1.79 315 23:19 18.01.2022
79 Clouds 10 1028 81 10000 0.45 315 21:56 18.01.2022
80 Clouds 11 1025 78 10000 1.17 359 20:55 18.01.2022
81 Clouds 11 1025 76 10000 1.51 358 19:54 18.01.2022
82 Clouds 12 1025 75 10000 0.7 336 19:35 18.01.2022
83 Clouds 12 1025 74 10000 0.91 350 18:36 18.01.2022
84 Clouds 12 1024 73 10000 1.73 358 17:51 18.01.2022
85 Clouds 13 1023 71 10000 2.19 351 16:35 18.01.2022
86 Clouds 14 1023 67 10000 2.54 347 15:39 18.01.2022
87 Clouds 14 1023 66 10000 1.34 3 15:19 18.01.2022
88 Clouds 14 1024 62 10000 2.11 332 11:53 18.01.2022
89 Clouds 14 1024 64 10000 2.1 330 10:43 18.01.2022
90 Clouds 11 1023 73 10000 1.56 300 08:49 18.01.2022
91 Clouds 10 1025 74 10000 1.34 315 07:46 18.01.2022
92 Clouds 12 1021 70 10000 2.5 312 02:31 18.01.2022
93 Clouds 12 1021 72 10000 2.96 325 23:22 17.01.2022
94 Clouds 12 1023 76 10000 0.45 335 22:23 17.01.2022
95 Clouds 11 1023 75 10000 2.68 270 21:33 17.01.2022
96 Clouds 12 1020 75 10000 3.07 303 19:56 17.01.2022
97 Clear 12 1020 74 10000 3.06 322 18:29 17.01.2022
98 Clear 12 1022 75 10000 0.45 349 17:24 17.01.2022
99 Clear 13 1019 70 10000 2.6 327 16:35 17.01.2022
100 Clear 15 1019 66 10000 2.63 307 14:59 17.01.2022
101 Clear 15 1019 64 10000 1.34 311 14:33 17.01.2022
102 Clear 14 1022 64 10000 2.24 225 13:20 17.01.2022
103 Clear 14 1023 64 10000 1.34 3 12:54 17.01.2022
104 Clear 14 1023 64 10000 0.45 90 11:48 17.01.2022
105 Clear 13 1021 71 10000 1.22 262 10:21 17.01.2022
106 Clear 11 1021 80 10000 1.51 233 08:51 17.01.2022
107 Clouds 10 1021 81 10000 1.18 229 07:22 17.01.2022
108 Clouds 12 1021 77 10000 1.65 275 02:54 17.01.2022
109 Clouds 12 1021 76 10000 2.08 275 00:54 17.01.2022
110 Clouds 12 1021 76 10000 2.04 267 21:44 16.01.2022
111 Clouds 12 1021 75 10000 1.8 260 20:33 16.01.2022
112 Clouds 12 1021 75 10000 1.8 260 20:33 16.01.2022
113 Clouds 12 1020 76 10000 1.68 276 18:50 16.01.2022
114 Clouds 13 1020 74 10000 1.54 294 17:57 16.01.2022
115 Clouds 13 1020 74 10000 1.77 313 16:59 16.01.2022
116 Clouds 13 1019 73 10000 2.35 324 16:20 16.01.2022
117 Clouds 14 1019 72 10000 2.53 331 14:30 16.01.2022
118 Clouds 14 1019 73 10000 0.89 4 13:34 16.01.2022
119 Clouds 14 1020 74 10000 1.7 330 12:27 16.01.2022
120 Clouds 14 1020 76 10000 1.7 330 11:40 16.01.2022
121 Clouds 14 1020 81 10000 1.35 334 10:46 16.01.2022
122 Clouds 12 1023 87 10000 0.89 90 09:59 16.01.2022
123 Clouds 12 1020 89 10000 1.18 337 09:40 16.01.2022
124 Clouds 11 1023 90 10000 0.92 336 09:21 16.01.2022
125 Clouds 10 1022 91 10000 1.79 315 07:23 16.01.2022
126 Clear 9 1021 87 10000 0.89 292 00:38 16.01.2022
127 Clear 9 1019 85 10000 0.45 270 23:22 15.01.2022
128 Clear 10 1018 83 10000 0.62 343 21:23 15.01.2022
129 Clear 10 1018 83 10000 0.62 343 20:56 15.01.2022
130 Clear 10 1018 82 10000 0.62 343 20:36 15.01.2022
131 Clear 11 1017 80 10000 0.89 16 19:28 15.01.2022
132 Clear 11 1017 78 10000 1.64 25 18:28 15.01.2022
133 Clear 13 1017 73 10000 2 18 16:49 15.01.2022
134 Clear 14 1017 68 10000 1.34 340 15:38 15.01.2022
135 Clear 13 1017 68 10000 1.34 9 13:35 15.01.2022
136 Clear 13 1018 68 10000 0.89 8 11:46 15.01.2022
137 Clear 11 1019 81 10000 2.11 344 09:49 15.01.2022
138 Clear 8 1020 80 10000 2.24 315 05:26 15.01.2022
139 Clouds 9 1022 75 10000 1.34 315 23:40 14.01.2022
140 Clear 9 1023 70 10000 1.34 270 21:29 14.01.2022
141 Clear 9 1024 68 10000 0.45 315 20:37 14.01.2022
142 Clear 9 1022 65 10000 2.18 22 19:56 14.01.2022
143 Clear 9 1022 60 10000 2.19 17 18:43 14.01.2022
144 Clear 10 1022 57 10000 2.34 14 17:53 14.01.2022
145 Clear 11 1022 54 10000 2.71 10 16:47 14.01.2022
146 Clear 12 1028 49 10000 2.76 2 15:33 14.01.2022
147 Clear 13 1029 49 10000 2.01 355 14:29 14.01.2022
148 Clear 12 1023 48 10000 0.45 357 12:59 14.01.2022
149 Clear 12 1023 52 10000 0.45 351 11:59 14.01.2022
150 Clear 11 1024 54 10000 0.89 358 10:46 14.01.2022
151 Clear 9 1024 73 10000 0.91 118 08:54 14.01.2022
152 Clear 8 1026 70 10000 1.24 129 07:46 14.01.2022
153 Clouds 9 1024 68 10000 1.68 73 03:19 14.01.2022
154 Clouds 10 1024 65 10000 1.57 79 00:35 14.01.2022
155 Clouds 11 1024 67 10000 1.78 79 21:57 13.01.2022
156 Clouds 11 1024 67 10000 1.78 79 21:30 13.01.2022
157 Clouds 11 1023 70 10000 1.71 82 20:33 13.01.2022
158 Clouds 11 1023 73 10000 1.85 85 19:32 13.01.2022
159 Clouds 11 1022 74 10000 2.81 77 18:51 13.01.2022
160 Clouds 12 1022 74 10000 3.11 69 17:23 13.01.2022
161 Clouds 12 1021 71 10000 0.45 355 16:18 13.01.2022
162 Clouds 13 1021 71 10000 3.29 59 15:31 13.01.2022
163 Clouds 12 1020 75 10000 0.89 15 13:42 13.01.2022
164 Clouds 12 1021 91 10000 4.19 50 11:43 13.01.2022
165 Clouds 10 1020 91 10000 4.94 47 09:38 13.01.2022
166 Clouds 9 1020 91 10000 4.46 46 08:54 13.01.2022
167 Clouds 9 1019 91 10000 0.45 238 08:22 13.01.2022
168 Clouds 10 1019 90 10000 4 42 07:21 13.01.2022
169 Clouds 9 1018 90 10000 4.68 44 05:56 13.01.2022
170 Clouds 9 1018 90 10000 4.07 51 05:18 13.01.2022
171 Clouds 9 1016 89 10000 0.35 123 01:46 13.01.2022
172 Clouds 8 1016 89 10000 0.89 189 23:54 12.01.2022
173 Clouds 9 1016 89 10000 0.89 189 23:35 12.01.2022
174 Clouds 8 1016 89 10000 1.07 143 22:56 12.01.2022
175 Clouds 8 1016 89 10000 1 104 21:56 12.01.2022
176 Clouds 8 1015 88 10000 0.95 126 21:21 12.01.2022
177 Clouds 8 1015 87 10000 0.95 126 20:56 12.01.2022
178 Clouds 8 1015 85 10000 0.83 213 19:35 12.01.2022
179 Clouds 8 1014 84 10000 0.95 324 18:29 12.01.2022
180 Clouds 9 1013 80 10000 1.33 302 16:59 12.01.2022
181 Clouds 9 1012 76 10000 1.9 272 15:58 12.01.2022
182 Clouds 10 1012 72 10000 2.35 275 14:47 12.01.2022
183 Clouds 10 1012 80 10000 4.07 307 12:58 12.01.2022
184 Clouds 10 1011 85 10000 0.64 210 09:59 12.01.2022
185 Clouds 10 1009 81 10000 0.75 225 08:36 12.01.2022
186 Clouds 9 1009 80 10000 0.74 256 07:34 12.01.2022
187 Clouds 10 1008 77 10000 1.38 347 06:21 12.01.2022
188 Clouds 12 1008 72 10000 3.65 11 23:31 11.01.2022
189 Clouds 12 1007 73 10000 3.75 13 22:49 11.01.2022
190 Clouds 12 1007 73 10000 3.9 19 22:21 11.01.2022
191 Clouds 12 1007 75 10000 4.85 24 20:51 11.01.2022
192 Clouds 12 1006 71 10000 5.82 21 19:45 11.01.2022
193 Clouds 12 1006 70 10000 0.89 349 18:31 11.01.2022
194 Clouds 12 1005 69 10000 0.89 1 17:24 11.01.2022
195 Clouds 12 1005 69 10000 0.45 16 16:37 11.01.2022
196 Clouds 12 1004 70 10000 0.45 5 15:34 11.01.2022
197 Clouds 12 1004 70 10000 0.89 28 14:41 11.01.2022
198 Clouds 12 1003 70 10000 6.31 17 13:54 11.01.2022
199 Clouds 12 1003 68 10000 1.34 8 13:32 11.01.2022
200 Clouds 12 1003 68 10000 1.34 34 12:42 11.01.2022
201 Clouds 12 1003 69 10000 1.34 6 11:40 11.01.2022
202 Clouds 12 1002 69 10000 1.34 19 09:28 11.01.2022
203 Clouds 11 999 69 10000 1.34 19 06:36 11.01.2022
204 Clouds 9 997 75 10000 0.89 358 00:31 11.01.2022
205 Clouds 9 999 74 10000 1.34 270 23:41 10.01.2022
206 Clouds 9 998 71 10000 0.89 270 22:51 10.01.2022
207 Clouds 9 998 75 10000 0.45 306 22:19 10.01.2022
208 Clouds 9 998 74 10000 1.34 315 21:54 10.01.2022
209 Clouds 9 998 74 10000 0.45 307 21:20 10.01.2022
210 Clouds 9 996 73 10000 5.37 355 20:56 10.01.2022
211 Clouds 9 996 74 10000 0.45 331 20:28 10.01.2022
212 Clouds 9 995 74 10000 0.45 280 19:42 10.01.2022
213 Clouds 9 995 75 10000 0.45 298 19:20 10.01.2022
214 Clouds 10 995 72 10000 0.45 279 18:48 10.01.2022
215 Clouds 8 997 84 10000 3.58 270 17:41 10.01.2022
216 Clouds 9 1001 75 10000 6.45 347 16:42 10.01.2022
217 Clouds 9 993 78 10000 2.68 1 15:45 10.01.2022
218 Clouds 10 992 76 10000 2.24 2 14:26 10.01.2022
219 Clouds 8 992 88 6926 0.89 6 11:58 10.01.2022
220 Clouds 8 991 88 5913 8.86 341 11:25 10.01.2022
221 Clouds 8 992 89 10000 1.79 38 09:50 10.01.2022
222 Clouds 9 990 70 10000 0.45 333 07:18 10.01.2022
223 Clouds 9 991 75 10000 0.45 352 05:49 10.01.2022
224 Clouds 9 991 75 10000 0.45 352 05:49 10.01.2022
225 Clouds 9 994 79 10000 0.45 5 01:30 10.01.2022
226 Clouds 12 995 65 10000 0.45 346 00:25 10.01.2022
227 Clouds 12 995 63 10000 1.34 293 23:33 09.01.2022
228 Clouds 11 996 68 10000 1.79 41 22:38 09.01.2022
229 Clouds 13 996 59 10000 1.79 312 21:46 09.01.2022
230 Clouds 13 996 55 10000 1.34 13 21:23 09.01.2022
231 Clouds 13 997 52 10000 0.89 96 20:52 09.01.2022
232 Clear 13 997 53 10000 0.45 286 20:34 09.01.2022
233 Clear 13 997 55 10000 2.68 330 19:45 09.01.2022
234 Clouds 13 997 55 10000 1.34 273 19:23 09.01.2022
235 Clouds 13 997 54 10000 1.34 340 18:56 09.01.2022
236 Clouds 13 997 52 10000 0.89 347 18:35 09.01.2022
237 Clouds 14 997 45 10000 0.45 331 17:45 09.01.2022
238 Clouds 14 998 57 10000 2.24 352 17:21 09.01.2022
239 Clouds 14 998 62 10000 2.24 340 15:59 09.01.2022
240 Clouds 14 998 62 10000 1.34 356 15:36 09.01.2022
241 Clouds 14 998 64 10000 1.34 253 14:41 09.01.2022
242 Clouds 14 999 63 10000 1.34 354 13:56 09.01.2022
243 Clouds 14 1000 64 10000 3.13 328 13:36 09.01.2022
244 Clouds 14 1001 61 10000 1.79 163 11:56 09.01.2022
245 Clouds 14 1002 64 10000 1.34 312 11:19 09.01.2022
246 Clouds 12 1006 69 10000 1.34 294 09:51 09.01.2022
247 Clouds 11 1006 72 10000 0.45 317 08:54 09.01.2022
248 Clouds 10 1006 71 10000 3.58 292 05:54 09.01.2022
249 Clouds 10 1005 66 10000 5.61 315 01:26 09.01.2022
250 Clouds 10 1007 66 10000 4.92 270 00:37 09.01.2022
251 Clouds 10 1007 70 10000 1.79 315 23:27 08.01.2022
252 Clouds 11 1005 68 10000 4.64 322 22:35 08.01.2022
253 Clouds 11 1005 72 10000 5.35 327 21:27 08.01.2022
254 Clouds 10 1005 73 10000 0.45 325 20:43 08.01.2022
255 Clouds 10 1006 69 10000 5.6 336 20:21 08.01.2022
256 Clouds 11 1005 64 10000 5.06 340 18:46 08.01.2022
257 Clouds 11 1008 66 10000 0.45 1 17:24 08.01.2022
258 Clouds 11 1005 64 10000 5.68 342 16:40 08.01.2022
259 Clouds 11 1005 69 10000 1.34 17 14:52 08.01.2022
260 Clouds 11 1008 72 10000 0.45 354 13:56 08.01.2022
261 Clouds 10 1008 86 10000 0.45 2 11:30 08.01.2022
262 Clouds 10 1008 86 10000 3.13 315 10:33 08.01.2022
263 Clouds 10 1008 88 10000 1.34 328 09:57 08.01.2022
264 Clouds 10 1008 90 10000 0.89 353 09:30 08.01.2022
265 Clouds 10 1007 89 8206 1.79 315 05:39 08.01.2022
266 Clouds 12 1007 84 10000 0.89 318 00:59 08.01.2022
267 Clouds 12 1005 85 6744 0.89 332 23:30 07.01.2022
268 Clouds 12 1005 84 10000 0.89 330 23:30 07.01.2022
269 Clouds 13 1005 80 10000 4.17 344 21:47 07.01.2022
270 Clouds 12 1008 80 10000 1.34 356 20:26 07.01.2022
271 Clouds 12 1009 79 10000 0.89 334 19:26 07.01.2022
272 Clouds 12 1008 81 10000 3.13 315 18:46 07.01.2022
273 Clouds 12 1008 80 10000 1.79 45 18:18 07.01.2022
274 Clouds 12 1008 76 10000 0.89 348 17:23 07.01.2022
275 Clouds 12 1008 78 10000 1.79 0 14:55 07.01.2022
276 Clouds 13 1008 79 10000 1.34 90 13:52 07.01.2022
277 Clouds 12 1008 79 10000 1.34 90 12:51 07.01.2022
278 Clouds 12 1007 89 10000 2.49 62 10:21 07.01.2022
279 Clouds 11 1008 82 10000 1.79 315 02:59 07.01.2022
280 Clouds 11 1008 82 10000 1.79 315 02:59 07.01.2022
281 Clouds 11 1008 81 10000 1.79 292 02:22 07.01.2022
282 Clouds 11 1007 82 10000 2.68 292 01:48 07.01.2022
283 Clouds 11 1005 83 10000 2.03 314 01:25 07.01.2022
284 Clouds 12 1006 82 10000 1.44 316 00:30 07.01.2022
285 Clouds 11 1008 78 10000 0.89 338 22:33 06.01.2022
286 Clouds 12 1007 76 10000 3.13 315 20:43 06.01.2022
287 Clouds 12 1007 76 10000 2.24 315 20:18 06.01.2022
288 Clouds 12 1005 73 10000 2.34 297 19:36 06.01.2022
289 Clouds 13 1004 70 10000 2.68 302 17:51 06.01.2022
290 Clouds 13 1003 69 10000 3.27 303 17:23 06.01.2022
291 Clouds 13 1003 67 10000 3.27 303 16:32 06.01.2022
292 Clouds 14 1003 65 10000 0.45 344 15:44 06.01.2022
293 Clouds 15 1003 63 10000 3.74 297 15:21 06.01.2022
294 Clouds 14 1002 64 10000 0.89 315 14:20 06.01.2022
295 Clouds 15 1002 64 10000 0.45 246 13:39 06.01.2022
296 Clouds 15 1003 62 10000 0.45 1 12:20 06.01.2022
297 Clouds 15 1003 63 10000 0.45 258 11:30 06.01.2022
298 Clouds 14 1003 66 10000 3.99 263 10:50 06.01.2022
299 Clouds 13 1003 75 10000 3.51 259 06:38 06.01.2022
300 Clouds 14 1003 70 10000 4.67 225 00:34 06.01.2022
301 Clouds 14 1003 70 10000 4.69 215 23:33 05.01.2022
302 Clouds 14 1003 69 10000 4.71 213 22:48 05.01.2022
303 Clouds 14 1003 69 10000 4.6 217 22:28 05.01.2022
304 Clouds 14 1004 67 10000 0.45 244 21:43 05.01.2022
305 Clouds 15 1003 65 10000 0.45 256 20:44 05.01.2022
306 Clouds 15 1004 63 10000 4.66 215 19:46 05.01.2022
307 Clear 16 1003 62 10000 1.34 351 18:27 05.01.2022
308 Clear 17 1002 58 10000 1.34 207 16:58 05.01.2022
309 Clear 17 1002 52 10000 0.45 306 16:21 05.01.2022
310 Clear 18 1009 48 10000 4.34 244 15:20 05.01.2022
311 Clear 19 1002 49 10000 1.34 229 13:35 05.01.2022
312 Clear 19 1002 43 10000 2.68 356 12:46 05.01.2022
313 Clear 14 1010 39 10000 2.59 191 08:47 05.01.2022
314 Clear 13 1010 40 10000 2.81 169 07:20 05.01.2022
315 Clear 12 1013 86 10000 2.59 161 01:58 05.01.2022
316 Clear 13 1014 69 10000 2.39 172 23:44 04.01.2022
317 Clear 13 1015 69 10000 2.37 176 23:26 04.01.2022
318 Clear 12 1015 89 10000 2.41 172 22:21 04.01.2022
319 Clear 12 1008 92 10000 2.36 166 20:50 04.01.2022
320 Clear 12 1009 87 10000 2.46 165 18:46 04.01.2022
321 Clear 13 1012 77 10000 1.79 248 17:37 04.01.2022
322 Clear 13 1010 81 10000 2.39 173 16:39 04.01.2022
323 Clear 14 1010 80 10000 1.87 173 16:20 04.01.2022
324 Clear 17 1010 69 10000 1.65 188 14:51 04.01.2022
325 Clear 17 1010 71 10000 1.65 188 14:33 04.01.2022
326 Clear 15 1011 76 10000 1.51 222 13:26 04.01.2022
327 Clear 13 1013 89 10000 1.53 186 10:29 04.01.2022
328 Clear 10 1021 97 10000 0.45 90 08:59 04.01.2022
329 Clear 10 1021 86 10000 1.87 192 08:23 04.01.2022
330 Clouds 11 1015 86 10000 1.41 235 01:19 04.01.2022
331 Clouds 11 1015 85 10000 1.14 233 00:40 04.01.2022
332 Clouds 12 1015 82 10000 1.57 176 22:41 03.01.2022
333 Clouds 12 1016 80 10000 2.07 171 21:42 03.01.2022
334 Clouds 12 1016 79 10000 0.5 78 21:23 03.01.2022
335 Clouds 12 1018 79 10000 0.44 168 19:47 03.01.2022
336 Clouds 13 1019 78 10000 0.89 225 18:33 03.01.2022
337 Clouds 13 1019 76 10000 0.68 198 17:40 03.01.2022
338 Clouds 13 1019 76 10000 0.68 198 17:40 03.01.2022
339 Clear 14 1016 73 10000 0.23 29 16:58 03.01.2022
340 Clear 14 1025 69 10000 1.34 315 14:55 03.01.2022
341 Clear 14 1025 68 10000 0.89 90 14:29 03.01.2022
342 Clouds 14 1020 69 10000 0.89 352 12:35 03.01.2022
343 Clouds 14 1021 69 10000 0.45 90 11:33 03.01.2022
344 Clouds 13 1022 71 10000 1.79 90 10:25 03.01.2022
345 Clouds 12 1019 77 10000 0.63 142 08:46 03.01.2022
346 Clouds 12 1022 79 10000 0.56 39 07:32 03.01.2022
347 Clouds 12 1024 81 10000 0.89 270 23:54 02.01.2022
348 Clouds 12 1021 79 10000 0.52 22 23:18 02.01.2022
349 Clouds 12 1021 79 10000 0.52 22 22:43 02.01.2022
350 Clouds 12 1021 80 10000 0.97 347 21:38 02.01.2022
351 Clouds 13 1021 80 10000 0.7 3 20:31 02.01.2022
352 Clouds 13 1021 80 10000 0.68 359 19:53 02.01.2022
353 Clouds 13 1021 79 10000 0.62 346 19:26 02.01.2022
354 Clear 13 1021 79 10000 0.53 127 18:33 02.01.2022
355 Clear 13 1021 79 10000 0.64 88 17:43 02.01.2022
356 Clear 13 1021 79 10000 0.91 61 17:21 02.01.2022
357 Clear 13 1021 78 10000 0.92 62 16:53 02.01.2022
358 Clear 13 1024 79 10000 0.89 90 16:23 02.01.2022
359 Clear 14 1024 75 10000 0.89 90 14:19 02.01.2022
360 Clouds 14 1024 77 10000 0.45 90 12:34 02.01.2022
361 Clouds 14 1022 76 10000 1.55 28 11:56 02.01.2022
362 Clouds 14 1022 77 10000 1.29 33 11:20 02.01.2022
363 Clouds 13 1022 79 10000 1.29 33 10:37 02.01.2022
364 Clouds 11 1024 85 10000 0.89 90 08:27 02.01.2022
365 Clouds 12 1022 83 10000 1.77 61 03:22 02.01.2022
366 Clouds 12 1022 84 10000 1.58 46 23:58 01.01.2022
367 Clouds 12 1022 84 10000 1.58 46 23:39 01.01.2022
368 Clouds 12 1022 84 10000 1.35 58 22:45 01.01.2022
369 Clouds 12 1024 87 10000 0.89 90 22:19 01.01.2022
370 Clouds 13 1022 85 10000 1.75 51 21:43 01.01.2022
371 Clouds 13 1021 86 10000 1.29 47 20:52 01.01.2022
372 Clouds 13 1022 86 10000 1.58 41 19:55 01.01.2022
373 Clouds 13 1022 86 10000 1.12 59 18:58 01.01.2022
374 Clouds 13 1021 87 10000 0.49 107 17:56 01.01.2022
375 Clouds 13 1020 86 10000 1.25 40 16:35 01.01.2022
376 Clear 13 1021 85 10000 0.45 1 15:57 01.01.2022
377 Clear 14 1020 84 10000 0.89 2 14:57 01.01.2022
378 Clear 14 1020 84 10000 1.88 302 13:42 01.01.2022
379 Clear 14 1021 84 10000 1.7 331 12:49 01.01.2022
380 Clear 14 1021 85 10000 1.46 327 11:47 01.01.2022
381 Clear 13 1024 88 10000 0.89 90 11:21 01.01.2022
382 Clear 13 1022 92 10000 1.04 236 10:26 01.01.2022
383 Clear 13 1026 75 10000 1.04 236 09:41 01.01.2022
384 Clear 12 1026 84 10000 0.7 315 08:25 01.01.2022
385 Clear 11 1026 84 10000 0.7 315 07:43 01.01.2022
386 Clear 11 1026 83 10000 0.99 284 06:46 01.01.2022
387 Clear 12 1025 83 10000 1.04 248 05:26 01.01.2022
388 Clear 12 1025 83 10000 1.04 248 04:37 01.01.2022
389 Clear 13 1026 81 10000 1.23 263 00:53 01.01.2022
390 Clear 12 1029 78 10000 0.89 292 23:35 31.12.2021
391 Clear 13 1027 77 10000 1.12 280 21:52 31.12.2021
392 Clear 13 1027 79 10000 1.02 249 20:33 31.12.2021
393 Clear 13 1027 84 10000 0.83 271 19:30 31.12.2021
394 Clear 15 1026 83 10000 1.2 276 18:32 31.12.2021
395 Clear 14 1028 75 10000 3.13 315 17:38 31.12.2021
396 Clear 14 1028 77 10000 3.13 315 17:18 31.12.2021
397 Clear 14 1027 83 10000 0.89 270 16:24 31.12.2021
398 Clear 15 1027 82 10000 0.89 90 15:56 31.12.2021
399 Clear 15 1027 81 10000 0.45 90 15:28 31.12.2021
400 Clear 16 1027 79 10000 0.89 90 14:52 31.12.2021
401 Clear 16 1027 78 10000 1.34 90 14:29 31.12.2021
402 Clear 16 1027 78 10000 1.34 90 13:36 31.12.2021
403 Clear 16 1027 75 10000 1.79 90 12:45 31.12.2021
404 Clear 16 1027 69 10000 3.58 90 11:47 31.12.2021
405 Clear 16 1027 73 10000 0.89 90 11:29 31.12.2021
406 Clear 15 1027 68 10000 0.89 90 10:35 31.12.2021
407 Clear 15 1027 70 10000 1.34 180 09:54 31.12.2021
408 Clear 14 1027 73 10000 0.89 90 09:32 31.12.2021
409 Clear 12 1026 76 10000 0.45 270 08:27 31.12.2021
410 Clear 13 1024 79 10000 1.3 86 07:31 31.12.2021
411 Clear 12 1023 80 10000 0.89 90 23:32 30.12.2021
412 Clear 12 1023 78 10000 0.45 90 22:33 30.12.2021
413 Clear 13 1022 78 10000 0.45 315 21:56 30.12.2021
414 Clear 13 1022 79 10000 2.68 292 21:37 30.12.2021
415 Clear 13 1022 79 10000 0.89 315 20:47 30.12.2021
416 Clear 13 1022 79 10000 1.34 292 20:27 30.12.2021
417 Clear 13 1021 81 10000 2.24 270 19:47 30.12.2021
418 Clear 13 1021 79 10000 1.34 270 18:48 30.12.2021
419 Clear 13 1021 83 10000 1.34 45 18:19 30.12.2021
420 Clear 15 1018 82 10000 1.99 341 16:20 30.12.2021
421 Clear 15 1018 80 10000 1.99 341 15:52 30.12.2021
422 Clear 16 1020 78 10000 3.13 315 14:40 30.12.2021
423 Clear 16 1019 77 10000 4.02 315 13:55 30.12.2021
424 Clouds 15 1019 80 10000 0.89 315 12:44 30.12.2021
425 Clouds 14 1019 88 10000 0.45 90 10:59 30.12.2021
426 Clouds 15 1017 86 10000 1.59 327 09:59 30.12.2021
427 Clouds 14 1016 84 10000 1.21 294 09:23 30.12.2021
428 Clouds 13 1016 78 10000 3.58 315 06:54 30.12.2021
429 Clouds 15 1014 82 10000 3.13 275 04:20 30.12.2021
430 Clouds 15 1014 82 10000 3.13 275 04:20 30.12.2021
431 Clouds 15 1014 81 10000 3.13 275 03:39 30.12.2021
432 Clouds 16 1013 78 10000 3.42 279 00:35 30.12.2021
433 Clouds 16 1013 77 10000 3.87 292 23:31 29.12.2021
434 Clouds 16 1013 78 10000 5.15 281 22:24 29.12.2021
435 Clouds 15 1013 78 10000 5.16 281 21:53 29.12.2021
436 Clouds 15 1013 77 10000 4.42 267 20:56 29.12.2021
437 Clouds 15 1013 76 10000 4.33 259 19:54 29.12.2021
438 Clouds 16 1013 75 10000 4.3 255 19:30 29.12.2021
439 Clouds 16 1006 77 10000 4.65 262 18:26 29.12.2021
440 Clouds 16 1006 78 10000 0.45 271 17:29 29.12.2021
441 Clouds 16 1006 77 10000 5.05 270 16:58 29.12.2021
442 Clouds 17 1006 75 10000 1.34 263 16:19 29.12.2021
443 Clouds 17 1005 71 10000 0.45 2 14:47 29.12.2021
444 Clouds 17 1005 72 10000 0.89 206 12:50 29.12.2021
445 Clouds 17 1005 71 10000 1.79 6 12:30 29.12.2021
446 Clouds 17 1006 72 10000 0.89 42 10:53 29.12.2021
447 Clouds 16 1008 74 10000 0.89 319 08:56 29.12.2021
448 Clouds 15 1014 71 10000 10.28 315 06:59 29.12.2021
449 Clouds 15 1013 72 10000 7.6 128 06:30 29.12.2021
450 Clouds 16 1012 73 10000 5.13 235 05:51 29.12.2021
451 Clouds 15 1009 75 10000 2.24 357 03:47 29.12.2021
452 Clouds 14 1009 77 10000 6.26 315 00:32 29.12.2021
453 Clouds 14 1009 78 10000 4.92 270 23:57 28.12.2021
454 Clouds 14 1009 79 10000 4.47 292 22:56 28.12.2021
455 Clouds 14 1009 79 10000 4.02 270 22:25 28.12.2021
456 Clouds 14 1009 79 10000 0.89 322 21:54 28.12.2021
457 Clouds 14 1009 80 10000 0.89 1 21:34 28.12.2021
458 Clouds 15 1006 77 10000 3.93 249 19:53 28.12.2021
459 Clouds 15 1006 78 10000 0.45 318 18:53 28.12.2021
460 Clouds 15 1006 77 10000 1.79 229 18:25 28.12.2021
461 Clouds 15 1005 75 10000 1.34 349 17:29 28.12.2021
462 Clouds 16 1005 73 10000 0.45 6 15:53 28.12.2021
463 Clouds 16 1005 72 10000 0.89 278 15:29 28.12.2021
464 Clouds 16 1005 70 10000 0.89 324 14:55 28.12.2021
465 Clouds 17 1004 68 10000 0.45 347 14:37 28.12.2021
466 Clouds 16 1004 69 10000 6.37 281 14:18 28.12.2021
467 Clouds 16 1005 70 10000 0.45 351 13:37 28.12.2021
468 Clouds 16 1005 67 10000 1.34 353 12:56 28.12.2021
469 Clouds 17 1004 65 10000 0.45 321 12:20 28.12.2021
470 Clear 16 1005 62 10000 0.89 325 10:19 28.12.2021
471 Clear 15 1004 71 10000 0.89 304 07:33 28.12.2021
472 Clouds 15 1003 74 10000 1.34 336 03:35 28.12.2021
473 Clouds 16 1001 81 10000 0.45 326 23:40 27.12.2021
474 Clouds 15 1003 84 10000 1.34 12 22:21 27.12.2021
475 Clouds 15 1004 83 10000 1.79 320 21:30 27.12.2021
476 Clouds 15 1004 80 10000 4.52 207 20:39 27.12.2021
477 Clouds 15 1005 77 10000 4.88 211 19:49 27.12.2021
478 Clouds 15 1005 76 10000 4.48 199 19:27 27.12.2021
479 Clouds 16 1005 75 10000 4.01 213 17:54 27.12.2021
480 Clouds 16 1005 75 10000 4.01 213 17:54 27.12.2021
481 Clouds 16 1005 76 10000 3.71 234 17:28 27.12.2021
482 Clouds 16 1005 78 10000 3.39 248 16:26 27.12.2021
483 Clouds 16 1005 77 10000 3.38 248 15:49 27.12.2021
484 Clouds 17 1005 74 10000 0.89 335 14:26 27.12.2021
485 Clouds 16 1008 74 10000 4.47 315 13:31 27.12.2021
486 Clouds 16 1006 79 10000 0.45 252 11:20 27.12.2021
487 Clouds 16 1006 80 10000 3.59 223 10:27 27.12.2021
488 Clouds 16 1006 82 10000 3.79 212 09:27 27.12.2021
489 Clouds 15 1005 84 10000 4.04 210 07:34 27.12.2021
490 Clouds 15 1005 82 10000 4.13 210 06:29 27.12.2021
491 Clouds 16 1004 72 10000 0.89 342 01:58 27.12.2021
492 Clouds 15 1005 74 10000 0.89 259 23:50 26.12.2021
493 Clouds 15 1005 74 10000 4.78 182 23:32 26.12.2021
494 Clouds 16 1006 69 10000 0.45 252 21:48 26.12.2021
495 Clouds 17 1005 61 10000 3.66 226 20:25 26.12.2021
496 Clouds 17 1005 57 10000 3.26 221 19:27 26.12.2021
497 Clouds 17 1008 60 10000 0.89 252 18:23 26.12.2021
498 Clouds 18 1006 56 10000 0.45 254 15:55 26.12.2021
499 Clouds 19 1007 52 10000 2.24 250 13:52 26.12.2021
500 Clouds 19 1007 50 10000 1.79 235 13:32 26.12.2021
501 Clouds 19 1007 52 10000 1.79 219 12:38 26.12.2021
502 Clouds 19 1008 52 10000 1.34 208 11:57 26.12.2021
503 Clouds 17 1006 56 10000 3.36 186 09:52 26.12.2021
504 Clear 17 1006 61 10000 3.62 188 09:18 26.12.2021
505 Clear 15 1009 60 10000 0.89 90 08:39 26.12.2021
506 Clouds 14 1009 61 10000 2.24 315 06:47 26.12.2021
507 Clouds 14 1009 65 10000 3.58 315 00:58 26.12.2021
508 Clouds 14 1009 64 10000 4.92 315 23:50 25.12.2021
509 Clouds 15 1006 66 10000 3.69 190 23:26 25.12.2021
510 Clouds 15 1006 65 10000 3.39 204 22:23 25.12.2021
511 Clouds 15 1009 62 10000 5.81 292 20:48 25.12.2021
512 Clouds 16 1006 61 10000 3.66 192 19:22 25.12.2021
513 Clouds 16 1006 60 10000 3.64 193 18:54 25.12.2021
514 Clouds 17 1013 59 10000 3.75 184 17:28 25.12.2021
515 Clouds 17 1013 56 10000 3.76 184 16:35 25.12.2021
516 Clouds 18 1005 52 10000 0.45 356 14:38 25.12.2021
517 Clouds 18 1009 54 10000 2.24 199 12:49 25.12.2021
518 Clouds 18 1009 58 10000 1.34 284 11:45 25.12.2021
519 Clouds 17 1011 61 10000 5.36 315 09:50 25.12.2021
520 Clouds 15 1016 67 10000 4.44 170 08:19 25.12.2021
521 Clouds 12 1010 73 10000 3.82 175 02:22 25.12.2021
522 Clouds 12 1014 71 10000 0.89 90 00:33 25.12.2021
523 Clouds 12 1014 71 10000 0.45 241 23:39 24.12.2021
524 Clear 12 1016 71 10000 0.89 270 19:40 24.12.2021
525 Clear 13 1013 71 10000 2.49 165 19:22 24.12.2021
526 Clear 14 1017 64 10000 1.79 135 16:50 24.12.2021
527 Clear 15 1017 62 10000 1.34 315 16:21 24.12.2021
528 Clear 15 1016 59 10000 0.45 354 15:46 24.12.2021
529 Clear 16 1022 56 10000 3.13 225 14:46 24.12.2021
530 Clear 16 1022 56 10000 2.24 248 14:23 24.12.2021
531 Clear 16 1017 56 10000 0.89 12 13:37 24.12.2021
532 Clear 16 1018 57 10000 3.58 225 12:48 24.12.2021
533 Clear 15 1018 60 10000 3.58 292 11:58 24.12.2021
534 Clear 15 1018 62 10000 1.79 270 11:27 24.12.2021
535 Clear 14 1019 66 10000 3.58 225 10:53 24.12.2021
536 Clear 13 1019 70 10000 0.45 358 10:22 24.12.2021
537 Clear 10 1020 78 10000 2.24 292 08:25 24.12.2021
538 Clear 10 1025 74 10000 2.24 292 07:50 24.12.2021
539 Clear 9 1020 78 10000 2.24 292 03:21 24.12.2021
540 Clear 9 1020 78 10000 0.89 225 00:19 24.12.2021
541 Clear 10 1020 78 10000 2.68 315 23:23 23.12.2021
542 Clear 9 1020 78 10000 1.34 270 22:39 23.12.2021
543 Clear 10 1020 77 10000 3.13 292 22:20 23.12.2021
544 Clear 10 1018 78 10000 1.6 226 21:33 23.12.2021
545 Clouds 10 1018 79 10000 1.37 197 20:20 23.12.2021
546 Clouds 11 1017 75 10000 1.23 193 18:37 23.12.2021
547 Clouds 11 1017 74 10000 0.29 216 17:57 23.12.2021
548 Clouds 12 1017 70 10000 0.64 343 16:57 23.12.2021
549 Clouds 13 1017 67 10000 1.32 350 16:25 23.12.2021
550 Clouds 13 1025 65 10000 0.45 90 15:31 23.12.2021
551 Clouds 13 1025 65 10000 0.45 90 15:31 23.12.2021
552 Clouds 14 1025 64 10000 0.45 90 14:54 23.12.2021
553 Clouds 14 1025 63 10000 0.89 90 14:36 23.12.2021
554 Clear 14 1020 61 10000 0.45 90 13:19 23.12.2021
555 Clear 13 1021 67 10000 0.89 90 10:53 23.12.2021
556 Clear 11 1021 75 10000 0.89 90 09:47 23.12.2021
557 Clear 10 1021 78 10000 0.89 90 09:19 23.12.2021
558 Clear 9 1017 81 10000 1.99 175 06:59 23.12.2021
559 Clear 9 1023 74 10000 1.83 143 04:35 23.12.2021
560 Clouds 10 1017 81 10000 0.45 228 23:26 22.12.2021
561 Clouds 10 1017 81 10000 2.42 112 22:48 22.12.2021
562 Clouds 11 1017 81 10000 2.53 105 21:57 22.12.2021
563 Clouds 10 1020 82 10000 0.45 90 21:29 22.12.2021
564 Clouds 11 1017 79 10000 2.46 106 20:50 22.12.2021
565 Clouds 11 1017 79 10000 2.46 106 20:30 22.12.2021
566 Clouds 11 1017 78 10000 2.37 104 19:35 22.12.2021
567 Clouds 12 1016 75 10000 2.19 101 18:18 22.12.2021
568 Clouds 12 1016 74 10000 2.18 101 17:35 22.12.2021
569 Clouds 14 1015 65 10000 1.91 63 15:46 22.12.2021
570 Clouds 15 1015 64 10000 0.45 6 13:44 22.12.2021
571 Clouds 15 1015 60 10000 0.77 60 12:41 22.12.2021
572 Clouds 14 1019 61 10000 1.79 90 10:46 22.12.2021
573 Clouds 12 1020 69 10000 0.89 90 09:40 22.12.2021
574 Clear 10 1019 74 10000 3.13 315 07:48 22.12.2021
575 Clear 10 1016 78 10000 2.36 199 05:51 22.12.2021
576 Clear 10 1019 78 10000 2.68 315 05:28 22.12.2021
577 Clear 10 1018 78 10000 3.13 292 04:54 22.12.2021
578 Clear 10 1016 79 10000 2.49 199 04:30 22.12.2021
579 Clear 10 1016 79 10000 2.49 199 04:30 22.12.2021
580 Clouds 10 1018 78 10000 1.79 315 03:34 22.12.2021
581 Clouds 10 1018 78 10000 3.13 292 01:37 22.12.2021
582 Clouds 10 1016 80 10000 2.99 209 23:33 21.12.2021
583 Clouds 11 1016 79 10000 2.43 225 22:29 21.12.2021
584 Clouds 11 1017 79 10000 2.43 225 21:51 21.12.2021
585 Clouds 11 1016 79 10000 1.87 235 21:24 21.12.2021
586 Clouds 11 1016 80 10000 1.48 235 20:23 21.12.2021
587 Clouds 11 1016 79 10000 1.48 235 19:46 21.12.2021
588 Clouds 12 1016 78 10000 1.32 238 19:19 21.12.2021
589 Clouds 12 1016 77 10000 0.81 263 18:22 21.12.2021
590 Clouds 12 1016 77 10000 0.81 263 17:47 21.12.2021
591 Clouds 13 1016 74 10000 0.86 303 16:35 21.12.2021
592 Clouds 14 1015 69 10000 0.45 355 15:29 21.12.2021
593 Clouds 14 1015 68 10000 0.45 2 13:51 21.12.2021
594 Clouds 15 1015 67 10000 0.45 5 13:31 21.12.2021
595 Clear 15 1016 68 10000 0.81 281 11:57 21.12.2021
596 Clear 13 1017 74 10000 0.42 200 10:37 21.12.2021
597 Clear 11 1016 82 10000 1.2 175 09:35 21.12.2021
598 Clear 9 1016 84 10000 1.2 175 08:30 21.12.2021
599 Clear 9 1022 75 10000 1.52 183 07:32 21.12.2021
600 Clear 10 1021 75 10000 1.64 183 06:54 21.12.2021
601 Clear 9 1015 83 10000 1.82 187 03:20 21.12.2021
602 Clear 9 1014 83 10000 1.63 197 01:18 21.12.2021
603 Clear 10 1014 82 10000 1.73 198 23:34 20.12.2021
604 Clear 10 1014 82 10000 1.74 198 22:34 20.12.2021
605 Clear 10 1014 80 10000 1.6 198 21:48 20.12.2021
606 Clear 11 1014 80 10000 1.23 210 21:24 20.12.2021
607 Clear 11 1014 79 10000 1.23 210 20:48 20.12.2021
608 Clear 11 1014 78 10000 1.8 236 19:55 20.12.2021
609 Clear 11 1014 78 10000 1.8 236 19:55 20.12.2021
610 Clear 11 1014 77 10000 1.8 236 19:34 20.12.2021
611 Clear 11 1013 75 10000 1.52 237 18:55 20.12.2021
612 Clear 12 1013 74 10000 1.47 262 18:25 20.12.2021
613 Clear 12 1013 73 10000 1.47 262 17:46 20.12.2021
614 Clear 13 1013 69 10000 1.83 279 16:44 20.12.2021
615 Clear 14 1012 64 10000 2.24 281 15:52 20.12.2021
616 Clear 14 1019 62 10000 2.38 280 14:58 20.12.2021
617 Clear 15 1012 61 10000 2.01 287 13:31 20.12.2021
618 Clear 14 1014 62 10000 1.78 264 11:36 20.12.2021
619 Clear 12 1015 74 10000 2.06 236 09:56 20.12.2021
620 Clear 12 1014 76 10000 2.06 236 09:32 20.12.2021
621 Clear 10 1014 81 10000 0.45 337 08:43 20.12.2021
622 Clear 8 1017 80 10000 4.47 315 07:59 20.12.2021
623 Clear 8 1017 80 10000 4.92 315 07:31 20.12.2021
624 Clear 9 1014 80 10000 2.81 236 06:32 20.12.2021
625 Clear 9 1015 78 10000 3.17 238 00:19 20.12.2021
626 Clear 9 1016 75 10000 2.78 242 22:56 19.12.2021
627 Clear 10 1016 73 10000 2.44 243 21:58 19.12.2021
628 Clear 10 1016 73 10000 2.44 243 21:32 19.12.2021
629 Clear 10 1017 72 10000 2.03 246 20:35 19.12.2021
630 Clear 10 1017 71 10000 1.66 262 19:53 19.12.2021
631 Clear 10 1017 71 10000 1.66 262 19:34 19.12.2021
632 Clear 11 1017 69 10000 1.77 270 18:35 19.12.2021
633 Clear 11 1017 68 10000 2.11 282 17:53 19.12.2021
634 Clear 11 1017 68 10000 1.95 303 17:28 19.12.2021
635 Clear 12 1017 63 10000 1.9 325 16:27 19.12.2021
636 Clear 12 1017 63 10000 1.9 325 16:27 19.12.2021
637 Clear 12 1017 61 10000 1.27 306 15:51 19.12.2021
638 Clear 13 1017 58 10000 1.15 334 15:23 19.12.2021
639 Clear 13 1017 57 10000 0.45 2 14:45 19.12.2021
640 Clouds 13 1018 56 10000 1.8 19 13:26 19.12.2021
641 Clouds 13 1018 55 10000 1.34 5 12:50 19.12.2021
642 Clouds 13 1018 56 10000 1.34 6 12:28 19.12.2021
643 Clouds 13 1019 56 10000 1.34 14 11:30 19.12.2021
644 Clouds 13 1019 57 10000 3.19 32 10:47 19.12.2021
645 Clear 12 1022 61 10000 1.79 90 10:21 19.12.2021
646 Clear 10 1020 64 10000 3.64 31 08:46 19.12.2021
647 Clear 10 1019 58 10000 4.22 38 05:37 19.12.2021
648 Clear 10 1020 54 10000 5.29 59 01:45 19.12.2021
649 Clear 11 1020 54 10000 6.28 58 00:54 19.12.2021
650 Clear 11 1020 54 10000 7.79 53 22:51 18.12.2021
651 Clear 11 1020 53 10000 8.89 53 22:24 18.12.2021
652 Clear 11 1020 49 10000 0.45 343 21:41 18.12.2021
653 Clear 11 1020 49 10000 0.45 338 21:22 18.12.2021
654 Clear 11 1020 45 10000 9.05 53 20:25 18.12.2021
655 Clear 11 1021 44 10000 9.05 53 19:34 18.12.2021
656 Clear 12 1020 46 10000 0.45 354 18:24 18.12.2021
657 Clear 12 1020 48 10000 6.57 48 17:49 18.12.2021
658 Clear 12 1020 45 10000 6.85 51 16:27 18.12.2021
659 Clear 13 1020 41 10000 0.89 31 15:48 18.12.2021
660 Clear 13 1025 43 10000 7.77 49 14:53 18.12.2021
661 Clear 14 1019 39 10000 2.68 346 13:44 18.12.2021
662 Clouds 14 1020 51 10000 0.89 356 11:55 18.12.2021
663 Clouds 13 1020 71 10000 8.48 44 09:54 18.12.2021
664 Clear 13 1020 80 10000 9.1 47 09:30 18.12.2021
665 Clear 13 1019 82 10000 8.98 46 08:36 18.12.2021
666 Clear 13 1019 82 10000 8.97 47 08:36 18.12.2021
667 Clouds 11 1021 84 10000 0.89 315 06:28 18.12.2021
668 Clouds 11 1021 81 10000 1.79 292 00:59 18.12.2021
669 Clear 11 1022 80 10000 1.34 270 23:49 17.12.2021
670 Clear 12 1020 77 10000 2.56 28 22:39 17.12.2021
671 Clouds 12 1020 75 10000 2.84 23 21:29 17.12.2021
672 Clouds 12 1020 75 10000 2.84 23 20:43 17.12.2021
673 Clouds 12 1020 72 10000 2.78 14 19:56 17.12.2021
674 Clouds 13 1021 70 10000 2.52 23 18:39 17.12.2021
675 Clouds 13 1021 70 10000 3.25 21 17:50 17.12.2021
676 Clouds 13 1020 68 10000 3.34 18 16:51 17.12.2021
677 Clouds 14 1020 67 10000 3.27 15 16:27 17.12.2021
678 Clouds 14 1020 63 10000 3.31 14 15:49 17.12.2021
679 Clouds 15 1020 62 10000 3.41 12 14:43 17.12.2021
680 Clouds 15 1020 65 10000 3.39 17 13:51 17.12.2021
681 Clouds 14 1021 66 10000 0.89 8 12:36 17.12.2021
682 Clouds 14 1022 74 10000 0.89 4 10:42 17.12.2021
683 Clouds 12 1025 81 10000 1.79 90 09:47 17.12.2021
684 Clouds 11 1022 83 10000 4.28 24 08:32 17.12.2021
685 Clouds 11 1021 83 10000 3.79 26 07:38 17.12.2021
686 Clouds 11 1020 84 10000 3.21 22 04:41 17.12.2021
687 Clouds 10 1020 82 10000 1.45 90 00:28 17.12.2021
688 Clouds 11 1020 80 10000 2 86 22:44 16.12.2021
689 Clouds 11 1020 79 10000 2.23 77 22:22 16.12.2021
690 Clouds 12 1020 77 10000 2.23 77 21:43 16.12.2021
691 Clouds 11 1020 77 10000 2.46 75 20:40 16.12.2021
692 Clouds 11 1020 76 10000 2.79 69 20:21 16.12.2021
693 Clouds 11 1020 76 10000 3.02 65 19:27 16.12.2021
694 Clouds 11 1019 73 10000 2.73 57 18:31 16.12.2021
695 Clouds 12 1019 68 10000 3.04 51 17:36 16.12.2021
696 Clouds 13 1018 64 10000 2.88 34 16:24 16.12.2021
697 Clouds 14 1018 61 10000 2.78 31 15:26 16.12.2021
698 Clouds 14 1018 67 10000 2.73 33 13:45 16.12.2021
699 Clouds 14 1019 70 10000 1.76 22 11:56 16.12.2021
700 Clouds 14 1022 70 10000 0.45 1 11:18 16.12.2021
701 Clouds 13 1022 73 10000 0.45 350 10:39 16.12.2021
702 Clouds 12 1019 81 10000 1.1 336 09:42 16.12.2021
703 Clouds 10 1018 83 10000 0.49 232 06:23 16.12.2021
704 Clouds 10 1018 83 10000 0.64 201 03:54 16.12.2021
705 Clouds 10 1019 79 10000 1.04 184 23:36 15.12.2021
706 Clouds 10 1019 79 10000 1.17 174 22:49 15.12.2021
707 Clouds 10 1019 79 10000 0.97 157 22:20 15.12.2021
708 Clouds 11 1019 77 10000 0.97 157 21:31 15.12.2021
709 Clear 12 1019 76 10000 0.96 122 20:41 15.12.2021
710 Clear 12 1019 74 10000 1.27 100 19:53 15.12.2021
711 Clear 11 1021 74 10000 1.32 79 18:50 15.12.2021
712 Clear 11 1021 72 10000 1.86 64 18:18 15.12.2021
713 Clear 13 1018 69 10000 1.83 65 17:43 15.12.2021
714 Clear 13 1018 67 10000 2.23 57 17:21 15.12.2021
715 Clear 14 1020 60 10000 2.22 55 15:48 15.12.2021
716 Clear 15 1017 56 10000 2.31 45 15:29 15.12.2021
717 Clear 15 1023 61 10000 2.31 45 14:44 15.12.2021
718 Clouds 15 1017 61 10000 1.35 54 13:28 15.12.2021
719 Clouds 14 1020 68 10000 0.89 90 11:41 15.12.2021
720 Clouds 14 1018 80 10000 2.25 51 10:18 15.12.2021
721 Clouds 11 1017 91 10000 2.64 48 07:55 15.12.2021
722 Clouds 11 1018 90 10000 1.34 270 04:22 15.12.2021
723 Clear 11 1018 88 10000 1.79 315 00:32 15.12.2021
724 Clear 11 1018 88 10000 2.24 292 23:21 14.12.2021
725 Clear 12 1016 88 10000 1.7 46 22:42 14.12.2021
726 Clear 11 1019 87 10000 1.34 292 21:38 14.12.2021
727 Clear 12 1019 85 10000 1.79 270 20:20 14.12.2021
728 Clear 12 1018 85 10000 2.24 315 19:26 14.12.2021
729 Clear 13 1018 84 10000 2.68 315 18:38 14.12.2021
730 Clear 13 1015 83 10000 2.42 352 17:53 14.12.2021
731 Clear 14 1015 82 10000 0.45 345 16:43 14.12.2021
732 Clear 14 1015 82 10000 0.45 345 16:43 14.12.2021
733 Clear 14 1015 81 10000 0.45 2 16:18 14.12.2021
734 Clear 16 1015 74 10000 0.89 29 13:58 14.12.2021
735 Clouds 15 1015 76 10000 0.89 13 12:48 14.12.2021
736 Clouds 15 1016 78 10000 1.34 12 11:25 14.12.2021
737 Clouds 15 1017 79 10000 0.45 7 10:45 14.12.2021
738 Clouds 14 1017 83 10000 0.89 349 09:54 14.12.2021
739 Clouds 13 1020 85 10000 0.89 0 08:49 14.12.2021
740 Clouds 12 1020 86 10000 1.34 315 08:21 14.12.2021
741 Clouds 12 1017 82 10000 3.38 322 07:23 14.12.2021
742 Clouds 12 1020 77 10000 4.02 315 23:51 13.12.2021
743 Clear 12 1020 76 10000 1.34 0 22:24 13.12.2021
744 Clear 12 1020 76 10000 2.68 292 21:39 13.12.2021
745 Clear 11 1021 73 10000 2.68 315 20:51 13.12.2021
746 Clear 11 1021 73 10000 2.68 315 20:51 13.12.2021
747 Clear 11 1021 71 10000 2.24 315 20:21 13.12.2021
748 Clear 11 1021 69 10000 3.58 292 19:49 13.12.2021
749 Clear 12 1018 71 10000 3.56 316 17:27 13.12.2021
750 Clear 12 1018 70 10000 3.56 316 16:32 13.12.2021
751 Clear 13 1017 65 10000 0.45 329 15:43 13.12.2021
752 Clear 14 1023 63 10000 3.86 315 14:42 13.12.2021
753 Clear 14 1017 65 10000 0.89 8 13:37 13.12.2021
754 Clear 14 1018 63 10000 2.87 343 12:39 13.12.2021
755 Clear 13 1021 66 10000 2.68 0 11:52 13.12.2021
756 Clear 13 1018 66 10000 3.48 5 11:29 13.12.2021
757 Clear 13 1019 67 10000 3.48 5 10:36 13.12.2021
758 Clouds 10 1021 80 10000 0.89 248 08:43 13.12.2021
759 Clouds 10 1021 81 10000 0.89 248 08:43 13.12.2021
760 Clouds 10 1017 85 10000 2.91 28 06:55 13.12.2021
761 Clouds 10 1017 90 10000 3.29 41 05:19 13.12.2021
762 Clouds 11 1016 83 10000 3.08 18 23:55 12.12.2021
763 Clouds 11 1015 81 10000 3.59 21 21:58 12.12.2021
764 Clouds 11 1015 82 10000 0.45 266 21:24 12.12.2021
765 Clouds 10 1017 81 10000 1.79 315 19:35 12.12.2021
766 Clouds 10 1016 82 10000 1.34 315 18:22 12.12.2021
767 Clouds 12 1012 75 10000 3.64 7 16:32 12.12.2021
768 Clouds 12 1012 74 10000 2.72 5 15:55 12.12.2021
769 Clouds 13 1011 73 10000 2.34 12 15:28 12.12.2021
770 Clouds 13 1011 74 10000 2.34 12 14:51 12.12.2021
771 Clouds 12 1011 72 10000 2.65 341 14:18 12.12.2021
772 Clouds 13 1011 66 10000 0.45 45 12:48 12.12.2021
773 Clouds 13 1011 68 10000 1.34 340 11:59 12.12.2021
774 Clouds 13 1011 68 10000 3.57 318 11:32 12.12.2021
775 Clouds 13 1010 68 10000 0.45 10 10:44 12.12.2021
776 Clouds 13 1010 67 10000 4.03 313 10:20 12.12.2021
777 Clouds 11 1011 73 10000 0.45 345 08:46 12.12.2021
778 Clouds 11 1010 78 10000 0.89 292 07:28 12.12.2021
779 Clouds 10 1009 80 10000 3.13 315 05:29 12.12.2021
780 Clouds 10 1008 82 10000 0.45 38 04:51 12.12.2021
781 Clouds 10 1004 83 10000 0.45 33 00:57 12.12.2021
782 Clouds 10 1005 78 10000 1.34 267 23:26 11.12.2021
783 Clouds 10 1005 75 10000 1.34 316 22:21 11.12.2021
784 Clouds 10 1004 79 10000 1.34 354 21:35 11.12.2021
785 Clouds 10 1003 82 10000 6.71 315 20:19 11.12.2021
786 Clouds 11 1002 76 10000 1.34 338 19:21 11.12.2021
787 Clouds 10 1002 78 10000 1.34 276 18:48 11.12.2021
788 Clouds 10 1001 85 10000 0.45 303 17:54 11.12.2021
789 Clouds 10 1000 81 10000 2.24 23 16:39 11.12.2021
790 Clouds 11 997 80 10000 3.13 215 15:46 11.12.2021
791 Clouds 11 998 75 10000 2.24 54 14:46 11.12.2021
792 Rain 9 996 87 2716 0.45 326 12:41 11.12.2021
793 Clouds 10 996 68 10000 3.13 336 10:58 11.12.2021
794 Clouds 8 996 75 10000 1.34 266 09:44 11.12.2021
795 Clouds 12 993 69 10000 1.79 19 05:36 11.12.2021
796 Clouds 11 995 70 10000 2.68 196 00:50 11.12.2021
797 Clouds 11 997 79 10000 0.45 202 23:44 10.12.2021
798 Clouds 10 998 89 10000 1.34 28 22:50 10.12.2021
799 Clouds 11 998 92 10000 3.6 276 21:51 10.12.2021
800 Clouds 12 998 92 8650 5.65 283 20:35 10.12.2021
801 Rain 13 1002 81 10000 8.82 264 19:19 10.12.2021
802 Clouds 13 996 90 2351 0.89 290 17:54 10.12.2021
803 Clouds 13 997 84 4221 0.89 258 16:55 10.12.2021
804 Clouds 13 998 80 2244 8.39 225 15:47 10.12.2021
805 Clouds 13 998 81 2794 6.75 208 15:29 10.12.2021
806 Clouds 12 999 84 2797 1.34 222 14:57 10.12.2021
807 Clouds 12 1000 80 4823 0.89 214 13:50 10.12.2021
808 Clouds 13 1001 76 10000 0.45 205 13:20 10.12.2021
809 Clouds 13 1010 73 10000 5.82 192 12:23 10.12.2021
810 Clouds 13 1004 69 10000 0.45 290 11:27 10.12.2021
811 Clouds 12 1008 64 10000 3.13 315 09:54 10.12.2021
812 Clouds 12 1005 63 10000 5.93 221 09:54 10.12.2021
813 Clouds 10 1008 67 10000 3.58 270 08:23 10.12.2021
814 Clouds 10 1007 69 10000 0.45 340 05:46 10.12.2021
815 Clouds 10 1006 68 10000 2.24 317 02:47 10.12.2021
816 Clouds 8 1006 81 10000 0.89 19 23:44 09.12.2021
817 Clouds 9 1004 83 10000 0.45 266 22:59 09.12.2021
818 Clouds 9 1003 81 9784 1.34 327 22:24 09.12.2021
819 Clouds 8 1004 84 9783 10.5 277 21:48 09.12.2021
820 Clouds 9 1011 74 10000 10.93 275 20:41 09.12.2021
821 Clouds 9 1010 74 10000 9.64 268 20:20 09.12.2021
822 Clouds 9 1010 73 10000 8.52 266 19:21 09.12.2021
823 Clouds 9 1003 78 10000 8.36 269 18:35 09.12.2021
824 Clouds 10 1002 71 10000 0.89 300 17:51 09.12.2021
825 Clouds 10 1002 68 10000 1.79 8 17:25 09.12.2021
826 Clouds 10 1002 68 10000 1.79 8 17:25 09.12.2021
827 Rain 11 1002 66 10000 0.89 264 16:53 09.12.2021
828 Clouds 12 1001 63 10000 1.34 65 15:31 09.12.2021
829 Clouds 12 1001 66 10000 1.34 319 14:44 09.12.2021
830 Clouds 12 1000 63 10000 0.89 28 13:19 09.12.2021
831 Clouds 13 1001 61 10000 2.24 13 12:35 09.12.2021
832 Clouds 12 1002 64 10000 1.34 359 10:58 09.12.2021
833 Clouds 10 1001 75 10000 5.75 237 08:49 09.12.2021
834 Clouds 9 1003 88 6369 0.45 321 06:21 09.12.2021
835 Clouds 12 1002 82 6527 0.89 326 02:58 09.12.2021
836 Clear 14 1004 68 10000 0.45 325 23:43 08.12.2021
837 Clear 14 1004 68 10000 5.81 180 23:21 08.12.2021
838 Clear 14 1005 68 10000 0.45 4 22:46 08.12.2021
839 Clear 14 1005 65 10000 4.02 180 21:40 08.12.2021
840 Clear 14 1006 63 10000 2.68 315 20:59 08.12.2021
841 Clear 15 1006 63 10000 3.13 225 19:58 08.12.2021
842 Clear 15 1006 63 10000 3.13 225 19:58 08.12.2021
843 Clouds 15 1006 63 10000 1.34 225 19:33 08.12.2021
844 Clouds 15 1007 60 10000 4.47 270 18:40 08.12.2021
845 Clouds 17 1003 56 10000 0.45 271 17:34 08.12.2021
846 Clouds 18 1006 50 10000 1.34 203 15:49 08.12.2021
847 Clouds 18 1006 48 10000 1.34 210 15:26 08.12.2021
848 Clouds 18 1012 50 10000 6.71 248 14:30 08.12.2021
849 Clouds 16 1009 66 10000 0.45 265 10:55 08.12.2021
850 Clouds 16 1006 75 10000 4.47 196 10:31 08.12.2021
851 Clouds 15 1009 70 10000 0.45 350 10:31 08.12.2021
852 Clouds 12 1010 83 10000 6.71 248 08:55 08.12.2021
853 Clear 11 1010 83 10000 3.13 248 07:25 08.12.2021
854 Clear 10 1008 86 10000 2.21 216 02:30 08.12.2021
855 Clouds 11 1011 81 10000 1.34 315 23:33 07.12.2021
856 Clouds 13 1009 77 10000 2.97 315 21:43 07.12.2021
857 Clouds 13 1009 78 10000 3.9 324 21:23 07.12.2021
858 Clear 13 1009 79 10000 0.45 329 20:20 07.12.2021
859 Clouds 13 1008 81 10000 6.03 324 18:43 07.12.2021
860 Clouds 13 1008 89 10000 8.56 315 17:52 07.12.2021
861 Clouds 13 1008 89 10000 9.16 304 17:19 07.12.2021
862 Clouds 12 1010 93 10000 4.92 315 16:31 07.12.2021
863 Clouds 12 1007 92 10000 9.06 301 15:33 07.12.2021
864 Clouds 12 1008 85 10000 0.45 336 14:18 07.12.2021
865 Clouds 12 1006 73 10000 0.89 314 12:49 07.12.2021
866 Clouds 13 1007 57 10000 8.69 300 11:29 07.12.2021
867 Clouds 13 1007 53 10000 2.24 296 10:33 07.12.2021
868 Clear 12 1009 63 10000 5.36 292 08:26 07.12.2021
869 Clouds 11 1008 64 10000 1.34 227 06:20 07.12.2021
870 Clouds 11 1007 63 10000 0.89 307 05:37 07.12.2021
871 Clouds 10 1002 90 10000 0.89 2 23:47 06.12.2021
872 Rain 9 1002 90 7304 0.89 356 22:57 06.12.2021
873 Clouds 10 1001 90 7304 3.58 315 22:35 06.12.2021
874 Clouds 9 1000 93 10000 1.34 341 21:51 06.12.2021
875 Clouds 9 999 91 10000 0.45 346 20:34 06.12.2021
876 Clouds 9 999 90 4983 0.45 29 19:56 06.12.2021
877 Clouds 9 997 86 6256 0.45 349 19:21 06.12.2021
878 Clouds 9 996 84 9315 5.51 262 18:28 06.12.2021
879 Clouds 9 996 86 9315 5.51 262 17:40 06.12.2021
880 Clouds 8 998 83 10000 4.47 315 16:48 06.12.2021
881 Clouds 10 998 71 10000 5.36 315 15:39 06.12.2021
882 Clouds 11 995 70 10000 1.34 68 13:46 06.12.2021
883 Clouds 12 995 71 10000 7.8 271 12:39 06.12.2021
884 Clouds 11 996 71 10000 8.44 281 11:38 06.12.2021
885 Clouds 10 996 78 10000 8.23 279 08:51 06.12.2021
886 Clouds 11 996 74 10000 0.89 229 06:43 06.12.2021
887 Clouds 11 1000 70 10000 0.89 270 23:44 05.12.2021
888 Clouds 11 999 76 10000 5.32 229 21:52 05.12.2021
889 Clouds 11 999 77 10000 5.5 228 21:19 05.12.2021
890 Clouds 10 1000 81 10000 5.39 240 20:19 05.12.2021
891 Clouds 11 1001 79 10000 5.39 240 19:36 05.12.2021
892 Clouds 11 1001 82 10000 1.34 230 19:18 05.12.2021
893 Clouds 12 1001 84 10000 1.34 349 18:20 05.12.2021
894 Clouds 11 1000 87 10000 0.45 343 17:48 05.12.2021
895 Clouds 12 1007 76 10000 9.34 232 16:50 05.12.2021
896 Clouds 12 1001 79 10000 0.45 348 16:27 05.12.2021
897 Clouds 13 1001 79 10000 0.45 14 15:49 05.12.2021
898 Clouds 13 1002 79 10000 1.34 265 14:43 05.12.2021
899 Clouds 15 1002 74 10000 2.24 345 14:25 05.12.2021
900 Clouds 15 1010 74 10000 5.81 216 13:22 05.12.2021
901 Clouds 15 1002 74 10000 1.34 21 12:40 05.12.2021
902 Clouds 15 1003 76 10000 0.45 205 12:18 05.12.2021
903 Clouds 15 1004 73 10000 0.89 269 11:34 05.12.2021
904 Clouds 15 1004 70 10000 6.75 217 10:18 05.12.2021
905 Clouds 14 1005 69 10000 0.45 259 08:29 05.12.2021
906 Clouds 14 1009 78 10000 5.36 292 03:39 05.12.2021
907 Clouds 14 1008 83 10000 4.45 221 00:48 05.12.2021
908 Clouds 14 1009 79 10000 3.77 223 22:18 04.12.2021
909 Clouds 13 1011 79 10000 4.92 315 21:18 04.12.2021
910 Clouds 13 1010 75 10000 3.31 234 20:27 04.12.2021
911 Clouds 12 1012 75 10000 3.58 292 19:32 04.12.2021
912 Clouds 13 1010 67 10000 3.91 261 18:22 04.12.2021
913 Clouds 13 1010 66 10000 3.91 261 17:42 04.12.2021
914 Clouds 14 1010 66 10000 4.69 270 17:19 04.12.2021
915 Clouds 14 1010 65 10000 0.45 246 16:42 04.12.2021
916 Clouds 14 1010 64 10000 0.45 323 16:23 04.12.2021
917 Clouds 15 1010 55 10000 6.3 308 11:55 04.12.2021
918 Clouds 15 1010 56 10000 6.3 308 11:33 04.12.2021
919 Clouds 14 1010 60 10000 6.52 311 10:56 04.12.2021
920 Clouds 14 1009 68 10000 0.45 2 08:52 04.12.2021
921 Clouds 13 1008 69 10000 7.26 327 07:22 04.12.2021
922 Clouds 13 1009 79 10000 0.45 15 04:42 04.12.2021
923 Clouds 12 1006 72 10000 4.92 315 00:47 04.12.2021
924 Clouds 12 1006 72 10000 0.45 330 23:27 03.12.2021
925 Clouds 12 1005 75 10000 0.89 309 22:48 03.12.2021
926 Clouds 11 1005 91 10000 1.34 16 21:42 03.12.2021
927 Clouds 10 1005 92 10000 0.45 330 20:55 03.12.2021
928 Clouds 10 1005 91 10000 4.47 315 20:26 03.12.2021
929 Clouds 10 1004 83 10000 4.02 315 18:49 03.12.2021
930 Clouds 11 1001 79 10000 0.45 352 18:20 03.12.2021
931 Clouds 10 1000 88 10000 4.84 286 16:43 03.12.2021
932 Rain 11 999 93 5062 0.45 344 13:34 03.12.2021
933 Clouds 12 998 89 7178 0.45 322 12:20 03.12.2021
934 Clouds 13 998 82 7797 4.61 289 10:58 03.12.2021
935 Clouds 14 997 77 10000 0.89 304 08:31 03.12.2021
936 Clouds 14 997 76 10000 0.45 294 07:43 03.12.2021
937 Clouds 14 996 78 10000 5.46 208 06:40 03.12.2021
938 Clouds 15 997 71 10000 5.53 193 00:49 03.12.2021
939 Clouds 15 998 69 10000 5.57 187 23:48 02.12.2021
940 Clouds 15 999 68 10000 5.77 183 22:48 02.12.2021
941 Clouds 15 999 67 10000 5.48 183 21:41 02.12.2021
942 Clouds 15 999 67 10000 5.48 183 21:41 02.12.2021
943 Clouds 15 999 66 10000 5.34 186 20:45 02.12.2021
944 Clouds 15 999 65 10000 5.35 189 20:22 02.12.2021
945 Clouds 15 999 65 10000 5.48 192 18:50 02.12.2021
946 Clouds 16 998 59 10000 6.75 197 16:53 02.12.2021
947 Clouds 17 999 51 10000 7.17 198 15:41 02.12.2021
948 Clouds 16 1007 51 10000 1.34 202 14:53 02.12.2021
949 Clear 18 999 51 10000 6.7 192 13:39 02.12.2021
950 Clouds 17 1000 54 10000 3.13 208 12:46 02.12.2021
951 Clouds 17 1001 55 10000 0.89 255 11:45 02.12.2021
952 Clouds 15 1003 64 10000 0.45 278 09:27 02.12.2021
953 Clouds 14 1006 67 10000 4.92 135 08:19 02.12.2021
954 Clear 13 1010 70 10000 0.45 225 01:38 02.12.2021
955 Clouds 13 1010 70 10000 0.45 273 00:50 02.12.2021
956 Clouds 13 1010 70 10000 4.7 203 22:33 01.12.2021
957 Clouds 13 1011 69 10000 4.39 207 21:54 01.12.2021
958 Clouds 13 1011 71 10000 3.95 209 20:35 01.12.2021
959 Clouds 13 1011 72 10000 0.45 328 19:47 01.12.2021
960 Clouds 14 1012 71 10000 4.28 226 18:55 01.12.2021
961 Clouds 14 1012 70 10000 0.45 251 17:32 01.12.2021
962 Clouds 14 1012 65 10000 0.45 225 16:36 01.12.2021
963 Clouds 15 1019 58 10000 3.93 260 14:48 01.12.2021
964 Clouds 15 1014 56 10000 0.45 262 13:38 01.12.2021
965 Clouds 14 1015 62 10000 1.34 240 11:26 01.12.2021
966 Clouds 14 1015 62 10000 0.45 219 10:40 01.12.2021
967 Clouds 12 1016 69 10000 3.93 234 08:53 01.12.2021
968 Clouds 12 1016 70 10000 4.09 228 08:26 01.12.2021
969 Clouds 11 1016 70 10000 4.25 232 07:32 01.12.2021
970 Clouds 10 1018 68 10000 2.68 315 04:18 01.12.2021
971 Clouds 10 1016 67 10000 3.65 231 03:38 01.12.2021
972 Clouds 10 1017 69 10000 3.64 214 00:48 01.12.2021
973 Clouds 11 1018 66 10000 1.34 331 23:35 30.11.2021
974 Clouds 11 1018 66 10000 1.34 357 22:42 30.11.2021
975 Clouds 11 1018 73 10000 4.29 229 20:53 30.11.2021
976 Clouds 11 1018 72 10000 3.88 239 20:34 30.11.2021
977 Clouds 11 1018 70 10000 3.78 238 19:51 30.11.2021
978 Clouds 11 1017 69 10000 0.45 333 19:27 30.11.2021
979 Clouds 11 1017 65 10000 3.54 272 18:24 30.11.2021
980 Clouds 12 1016 60 10000 3.94 279 16:34 30.11.2021
981 Clouds 13 1015 58 10000 4.71 291 14:35 30.11.2021
982 Clouds 14 1018 51 10000 3.58 315 13:52 30.11.2021
983 Clouds 14 1015 54 10000 4.4 295 13:24 30.11.2021
984 Clouds 14 1015 54 10000 4.4 295 13:24 30.11.2021
985 Clouds 13 1015 56 10000 4.32 308 12:44 30.11.2021
986 Clouds 13 1015 56 10000 0.89 14 11:27 30.11.2021
987 Clouds 13 1015 56 10000 0.45 349 10:53 30.11.2021
988 Clouds 13 1015 56 10000 6.54 320 10:30 30.11.2021
989 Clouds 12 1016 58 10000 0.89 67 08:51 30.11.2021
990 Clouds 11 1015 60 10000 4.92 315 08:20 30.11.2021
991 Clouds 10 1014 62 10000 0.89 346 07:40 30.11.2021
992 Clouds 10 1007 80 10000 1.34 4 01:58 30.11.2021
993 Rain 10 1006 78 10000 0.89 280 01:38 30.11.2021
994 Clouds 9 1007 69 10000 2.68 306 23:57 29.11.2021
995 Rain 9 1006 74 8891 0.45 298 23:22 29.11.2021
996 Clouds 10 1006 73 8891 0.45 339 22:48 29.11.2021
997 Clouds 10 1006 74 6281 0.45 30 22:29 29.11.2021
998 Rain 9 1004 75 10000 6.71 292 21:22 29.11.2021
999 Rain 9 1004 78 10000 1.79 19 20:56 29.11.2021
1000 Rain 9 1003 75 10000 1.79 13 20:23 29.11.2021
1001 Rain 9 1002 77 10000 1.34 282 19:54 29.11.2021
1002 Rain 9 1002 77 10000 3.13 359 19:33 29.11.2021
1003 Clouds 9 999 75 10000 0.45 268 18:48 29.11.2021
1004 Clouds 10 1003 76 10000 11.61 258 17:22 29.11.2021
1005 Clouds 10 1003 76 10000 11.62 258 16:59 29.11.2021
1006 Clouds 10 1003 83 4951 10.33 255 16:29 29.11.2021
1007 Clouds 10 1003 83 4947 10.32 255 15:45 29.11.2021
1008 Clouds 10 1003 80 10000 7.66 245 14:42 29.11.2021
1009 Clouds 10 1003 82 5781 10.74 243 13:32 29.11.2021
1010 Clouds 11 1003 73 10000 9.71 246 12:28 29.11.2021
1011 Clouds 11 1004 73 10000 10.93 250 11:35 29.11.2021
1012 Clouds 11 1004 73 10000 10.92 250 10:41 29.11.2021
1013 Clouds 11 1003 80 10000 9.18 232 09:25 29.11.2021
1014 Clouds 10 1001 80 10000 9.69 228 06:20 29.11.2021
1015 Clouds 10 1003 82 10000 5.79 223 01:40 29.11.2021
1016 Rain 11 1004 78 10000 6.93 235 00:39 29.11.2021
1017 Clouds 11 1004 77 10000 6.54 246 23:43 28.11.2021
1018 Clouds 12 1005 77 10000 7.05 253 22:49 28.11.2021
1019 Clouds 13 1004 74 10000 6.56 255 21:47 28.11.2021
1020 Clouds 13 1005 75 10000 6.17 252 21:20 28.11.2021
1021 Clouds 12 1004 74 10000 6.42 255 20:23 28.11.2021
1022 Clouds 14 1003 82 10000 5.84 265 18:46 28.11.2021
1023 Clouds 13 1002 84 10000 7.88 267 18:27 28.11.2021
1024 Clouds 14 1002 84 10000 7.88 267 17:54 28.11.2021
1025 Clouds 14 1002 84 10000 7.88 267 17:31 28.11.2021
1026 Clouds 15 1001 78 10000 8.21 241 16:37 28.11.2021
1027 Clouds 15 1001 71 10000 10.09 242 16:18 28.11.2021
1028 Clouds 16 1001 64 10000 9.42 233 15:31 28.11.2021
1029 Clouds 15 1001 64 10000 9.41 233 14:44 28.11.2021
1030 Clouds 17 1001 64 10000 9.8 222 13:18 28.11.2021
1031 Clouds 17 1001 66 10000 9.7 222 12:46 28.11.2021
1032 Clouds 16 1003 66 10000 9.83 213 10:58 28.11.2021
1033 Clouds 15 1003 65 10000 8.34 212 10:21 28.11.2021
1034 Clouds 15 1003 65 10000 8.34 212 09:37 28.11.2021
1035 Clouds 15 1003 68 10000 6.52 210 07:32 28.11.2021
1036 Clouds 15 1006 81 10000 4.32 199 23:58 27.11.2021
1037 Clouds 14 1006 81 10000 6.06 229 20:57 27.11.2021
1038 Clouds 15 1006 81 10000 6.1 233 19:23 27.11.2021
1039 Clouds 16 1004 77 10000 5.96 232 17:27 27.11.2021
1040 Clouds 16 1004 75 10000 6.03 235 15:57 27.11.2021
1041 Clouds 15 1004 76 10000 5.39 244 13:48 27.11.2021
1042 Clouds 14 1004 79 10000 6.23 243 12:57 27.11.2021
1043 Clouds 13 1005 83 10000 6.94 226 10:52 27.11.2021
1044 Clouds 12 1005 77 10000 7.33 229 09:53 27.11.2021
1045 Rain 16 1005 69 10000 8.66 227 08:43 27.11.2021
1046 Clouds 17 1003 73 10000 6.86 197 06:34 27.11.2021
1047 Clouds 17 1006 74 10000 4.55 188 01:58 27.11.2021
1048 Clouds 16 1007 76 10000 4.74 208 23:38 26.11.2021
1049 Clouds 16 1008 78 10000 6.11 221 22:25 26.11.2021
1050 Clouds 16 1008 78 10000 6.1 221 21:38 26.11.2021
1051 Clouds 15 1008 79 10000 6.65 230 21:18 26.11.2021
1052 Clouds 15 1008 78 10000 7.17 235 20:29 26.11.2021
1053 Clouds 15 1008 78 10000 7.17 235 19:49 26.11.2021
1054 Clouds 15 1007 78 10000 7.8 238 18:43 26.11.2021
1055 Clouds 15 1007 77 10000 7.5 235 17:24 26.11.2021
1056 Clouds 15 1007 77 10000 7.5 235 17:24 26.11.2021
1057 Clouds 17 1007 74 10000 8.35 237 16:29 26.11.2021
1058 Clouds 17 999 65 10000 2.68 310 13:37 26.11.2021
1059 Clouds 17 999 65 10000 2.68 310 12:55 26.11.2021
1060 Clouds 16 999 69 10000 1.34 327 10:42 26.11.2021
1061 Clouds 15 1000 71 10000 0.89 353 09:41 26.11.2021
1062 Clouds 15 999 73 10000 0.45 319 08:49 26.11.2021
1063 Clouds 14 999 76 10000 5.91 228 08:19 26.11.2021
1064 Clouds 13 1003 82 10000 1.34 179 06:29 26.11.2021
1065 Clear 12 999 83 10000 5.13 238 04:52 26.11.2021
1066 Clear 13 1000 83 10000 1.34 40 03:32 26.11.2021
1067 Clouds 13 999 88 10000 4.61 239 23:30 25.11.2021
1068 Clouds 13 1003 92 10000 1.79 338 22:19 25.11.2021
1069 Rain 14 1000 94 10000 0.45 1 20:41 25.11.2021
1070 Clouds 14 999 94 10000 0.45 348 19:21 25.11.2021
1071 Clouds 14 999 93 4898 2.89 253 18:19 25.11.2021
1072 Rain 15 1000 91 9078 2.56 225 17:27 25.11.2021
1073 Clouds 15 999 89 9398 2.53 226 16:44 25.11.2021
1074 Clouds 16 1000 82 10000 2.97 141 15:58 25.11.2021
1075 Clouds 17 1003 70 10000 0.89 225 14:30 25.11.2021
1076 Clouds 18 1004 64 10000 1.79 180 12:55 25.11.2021
1077 Clouds 18 1002 65 10000 3.64 148 11:56 25.11.2021
1078 Clouds 17 1004 70 10000 3.88 151 10:34 25.11.2021
1079 Clouds 15 1004 73 10000 3.53 164 08:21 25.11.2021
1080 Clouds 14 1009 69 10000 1.34 180 02:58 25.11.2021
1081 Clouds 14 1007 75 10000 2.71 175 00:37 25.11.2021
1082 Clouds 15 1008 78 10000 2.4 174 22:29 24.11.2021
1083 Clouds 15 1008 79 10000 2.41 174 21:48 24.11.2021
1084 Clear 15 1008 79 10000 2.3 166 21:22 24.11.2021
1085 Clear 15 1008 83 10000 2.19 162 20:27 24.11.2021
1086 Clouds 16 1009 81 10000 1.99 156 19:36 24.11.2021
1087 Clouds 17 1009 78 10000 1.81 126 18:19 24.11.2021
1088 Clouds 17 1012 77 10000 0.89 225 16:47 24.11.2021
1089 Clouds 19 1012 71 10000 0.45 359 14:58 24.11.2021
1090 Clouds 19 1008 70 10000 0.45 3 14:21 24.11.2021
1091 Clouds 19 1012 69 10000 0.89 315 13:35 24.11.2021
1092 Clouds 19 1012 66 10000 0.89 300 11:34 24.11.2021
1093 Clouds 18 1013 70 10000 1.79 225 10:58 24.11.2021
1094 Clouds 18 1013 74 10000 0.89 315 10:36 24.11.2021
1095 Clouds 17 1013 77 10000 1.79 225 09:33 24.11.2021
1096 Clouds 15 1013 83 10000 1.34 315 07:41 24.11.2021
1097 Clouds 15 1012 82 10000 3.58 248 05:41 24.11.2021
1098 Clouds 15 1012 81 10000 3.58 315 03:44 24.11.2021
1099 Clear 15 1010 81 10000 2.53 210 23:33 23.11.2021
1100 Clear 16 1010 79 10000 2.42 212 22:39 23.11.2021
1101 Clear 15 1009 79 10000 2.56 202 21:45 23.11.2021
1102 Clear 16 1009 78 10000 2.82 191 20:36 23.11.2021
1103 Clear 16 1008 77 10000 2.82 197 19:34 23.11.2021
1104 Clouds 16 1008 76 10000 3.04 219 18:34 23.11.2021
1105 Clouds 17 1008 75 10000 3.23 231 17:57 23.11.2021
1106 Clouds 18 1007 73 10000 3.41 246 16:37 23.11.2021
1107 Clouds 19 1007 65 10000 4.7 258 15:27 23.11.2021
1108 Clouds 17 1015 70 10000 2.68 225 14:56 23.11.2021
1109 Clouds 19 1007 67 10000 3.73 240 13:29 23.11.2021
1110 Clouds 18 1010 71 10000 0.45 338 10:40 23.11.2021
1111 Clouds 17 1007 78 10000 4.17 209 09:48 23.11.2021
1112 Clouds 16 1007 79 10000 4.13 197 08:43 23.11.2021
1113 Clouds 14 1008 82 10000 1.34 0 05:25 23.11.2021
1114 Clouds 16 1009 74 10000 0.45 311 03:37 23.11.2021
1115 Clear 15 1009 75 10000 1.34 225 23:42 22.11.2021
1116 Clear 16 1005 76 10000 3.11 185 23:20 22.11.2021
1117 Clear 15 1008 74 10000 1.79 270 22:31 22.11.2021
1118 Clear 16 1008 74 10000 4.02 180 21:45 22.11.2021
1119 Clear 16 1008 73 10000 2.24 180 21:21 22.11.2021
1120 Clear 16 1008 74 10000 3.58 135 20:43 22.11.2021
1121 Clear 17 1008 73 10000 1.79 180 19:24 22.11.2021
1122 Clear 17 1004 74 10000 2.61 195 18:41 22.11.2021
1123 Clear 17 1004 74 10000 2.61 195 18:41 22.11.2021
1124 Clear 17 1007 74 10000 0.89 90 18:22 22.11.2021
1125 Clear 18 1004 70 10000 2.16 199 16:45 22.11.2021
1126 Clear 20 1003 64 10000 1.95 204 15:39 22.11.2021
1127 Clouds 20 1006 64 10000 2.68 338 12:52 22.11.2021
1128 Clouds 19 1007 69 10000 2.24 270 11:39 22.11.2021
1129 Clouds 18 1007 76 10000 1.79 225 10:27 22.11.2021
1130 Clouds 15 1011 82 10000 3.67 184 08:44 22.11.2021
1131 Clouds 14 1007 87 10000 0.89 225 08:24 22.11.2021
1132 Rain 15 1004 80 10000 3.16 181 01:43 22.11.2021
1133 Clouds 16 1009 73 10000 2.68 270 23:22 21.11.2021
1134 Clouds 16 1009 73 10000 2.68 225 22:46 21.11.2021
1135 Clouds 16 1009 76 10000 1.79 225 21:33 21.11.2021
1136 Clouds 15 1010 77 10000 3.13 225 20:38 21.11.2021
1137 Clouds 16 1007 79 10000 2.84 156 19:43 21.11.2021
1138 Clouds 16 1007 79 10000 2.84 156 19:43 21.11.2021
1139 Clouds 16 1007 82 10000 2.66 150 17:59 21.11.2021
1140 Clouds 16 1007 82 10000 2.66 150 17:36 21.11.2021
1141 Clouds 18 1007 74 10000 2.74 244 15:21 21.11.2021
1142 Clouds 18 1008 71 10000 2.74 244 14:42 21.11.2021
1143 Clouds 18 1008 73 10000 2.83 256 13:31 21.11.2021
1144 Clouds 18 1009 74 10000 0.45 355 12:27 21.11.2021
1145 Clouds 18 1009 75 10000 2.44 248 11:39 21.11.2021
1146 Clouds 18 1010 78 10000 1.43 214 10:20 21.11.2021
1147 Clouds 17 1011 82 10000 1.43 214 09:59 21.11.2021
1148 Clear 14 1011 89 10000 1.2 192 08:35 21.11.2021
1149 Clear 13 1014 91 10000 2.68 315 07:57 21.11.2021
1150 Clear 12 1014 91 10000 0.89 315 07:39 21.11.2021
1151 Clear 13 1011 90 10000 1.02 180 05:47 21.11.2021
1152 Clear 14 1011 90 10000 0.95 194 04:37 21.11.2021
1153 Clear 14 1012 90 10000 1.03 196 03:18 21.11.2021
1154 Clear 14 1013 90 10000 1.03 196 02:42 21.11.2021
1155 Clear 14 1013 90 10000 1.16 187 00:53 21.11.2021
1156 Clear 15 1014 90 10000 1.23 168 23:22 20.11.2021
1157 Clear 15 1015 88 10000 1.13 145 21:39 20.11.2021
1158 Clear 15 1014 87 10000 0.71 129 20:50 20.11.2021
1159 Clear 16 1015 84 10000 0.8 81 18:46 20.11.2021
1160 Clear 16 1015 84 10000 0.8 81 18:46 20.11.2021
1161 Clear 17 1015 84 10000 0.91 54 18:25 20.11.2021
1162 Clear 17 1015 81 10000 1.17 28 17:22 20.11.2021
1163 Clear 17 1015 80 10000 1.17 28 17:22 20.11.2021
1164 Clear 18 1015 78 10000 1.17 28 16:41 20.11.2021
1165 Clear 18 1020 73 10000 0.89 356 14:40 20.11.2021
1166 Clear 17 1024 73 10000 0.89 90 14:21 20.11.2021
1167 Clear 18 1021 73 10000 1.34 6 11:56 20.11.2021
1168 Clear 18 1019 77 10000 1.96 27 10:29 20.11.2021
1169 Clear 16 1019 91 10000 1.7 23 08:57 20.11.2021
1170 Clear 14 1022 92 10000 1.79 315 07:22 20.11.2021
1171 Clear 14 1018 90 10000 1.36 355 05:26 20.11.2021
1172 Clear 15 1019 91 10000 1.38 355 04:50 20.11.2021
1173 Clear 15 1020 88 10000 1.14 15 01:48 20.11.2021
1174 Clear 15 1020 87 10000 1.29 35 00:40 20.11.2021
1175 Clear 15 1020 88 10000 1.67 40 22:55 19.11.2021
1176 Clear 16 1020 88 10000 1.96 36 21:58 19.11.2021
1177 Clear 16 1020 88 10000 2.04 34 20:58 19.11.2021
1178 Clear 16 1020 87 10000 2.04 34 20:36 19.11.2021
1179 Clear 16 1020 86 10000 2.59 33 19:50 19.11.2021
1180 Clouds 17 1020 84 10000 2.48 28 18:54 19.11.2021
1181 Clouds 17 1020 83 10000 2.67 28 18:22 19.11.2021
1182 Clouds 16 1023 82 10000 1.79 270 17:26 19.11.2021
1183 Clouds 18 1022 73 10000 1.34 315 15:32 19.11.2021
1184 Clouds 19 1019 73 10000 3.03 23 13:28 19.11.2021
1185 Clouds 17 1023 84 10000 0.89 90 10:27 19.11.2021
1186 Clouds 17 1022 88 10000 1.34 90 09:37 19.11.2021
1187 Clouds 16 1020 93 10000 2.15 32 08:20 19.11.2021
1188 Clouds 15 1018 93 10000 2.08 23 04:51 19.11.2021
1189 Clouds 15 1018 91 10000 1.84 359 02:35 19.11.2021
1190 Clouds 15 1018 87 10000 1.36 324 23:51 18.11.2021
1191 Clouds 15 1018 84 10000 1.12 279 21:56 18.11.2021
1192 Clouds 15 1017 83 10000 1.34 282 20:49 18.11.2021
1193 Clouds 15 1017 82 10000 1.34 282 20:31 18.11.2021
1194 Clouds 16 1017 81 10000 1.59 278 19:52 18.11.2021
1195 Clouds 16 1017 81 10000 1.59 278 19:33 18.11.2021
1196 Clouds 17 1016 78 10000 1.4 237 18:33 18.11.2021
1197 Clouds 17 1016 77 10000 1.66 264 17:51 18.11.2021
1198 Clouds 18 1015 74 10000 2.17 277 16:45 18.11.2021
1199 Clouds 19 1015 71 10000 2.58 288 15:49 18.11.2021
1200 Clouds 20 1014 64 10000 2.6 292 13:59 18.11.2021
1201 Clouds 19 1014 62 10000 2.29 279 12:34 18.11.2021
1202 Clouds 19 1017 65 10000 2.24 270 11:43 18.11.2021
1203 Clouds 19 1015 64 10000 2.46 228 11:24 18.11.2021
1204 Clouds 18 1014 75 10000 2.79 211 09:59 18.11.2021
1205 Clouds 15 1013 83 10000 2.73 195 07:35 18.11.2021
1206 Clouds 15 1015 83 10000 1.79 0 05:59 18.11.2021
1207 Clouds 15 1015 83 10000 3.13 315 05:39 18.11.2021
1208 Clear 15 1014 80 10000 2.68 315 01:24 18.11.2021
1209 Clear 15 1014 80 10000 1.34 0 01:24 18.11.2021
1210 Clear 15 1014 80 10000 1.79 292 23:25 17.11.2021
1211 Clear 15 1011 81 10000 3.55 209 22:34 17.11.2021
1212 Clear 15 1011 81 10000 3.74 209 21:54 17.11.2021
1213 Clear 15 1011 81 10000 3.74 209 21:34 17.11.2021
1214 Clouds 16 1009 79 10000 3.66 210 19:27 17.11.2021
1215 Clouds 17 1008 75 10000 3.77 220 17:31 17.11.2021
1216 Clouds 19 1006 68 10000 3.65 246 15:23 17.11.2021
1217 Clouds 19 1006 68 10000 2.85 185 12:51 17.11.2021
1218 Clouds 19 1006 65 10000 1.34 350 12:25 17.11.2021
1219 Clouds 18 1007 72 10000 4.16 145 10:51 17.11.2021
1220 Clouds 17 1014 69 10000 3.82 132 09:29 17.11.2021
1221 Clouds 14 1014 76 10000 1.79 45 07:46 17.11.2021
1222 Rain 14 1013 77 10000 1.79 90 06:42 17.11.2021
1223 Rain 14 1009 87 10000 2.54 171 02:47 17.11.2021
1224 Clouds 15 1015 75 10000 1.79 128 23:46 16.11.2021
1225 Clouds 15 1015 67 10000 1.34 225 22:20 16.11.2021
1226 -273 0 0 0 0 0 20:19 16.11.2021
1227 Clouds 15 1013 82 10000 3.59 155 20:18 16.11.2021
1228 Clouds 15 1013 85 10000 3.56 143 18:53 16.11.2021
1229 Clouds 15 1013 85 10000 3.56 143 18:30 16.11.2021
1230 Rain 15 1012 67 10000 3.63 141 17:38 16.11.2021
1231 Rain 16 1012 67 10000 3.64 133 16:37 16.11.2021
1232 Rain 18 1012 65 10000 3.51 142 15:50 16.11.2021
1233 Rain 17 1012 72 10000 2.76 152 15:26 16.11.2021
1234 Clear 20 1009 65 10000 2.68 90 11:29 16.11.2021
1235 Clear 18 1007 71 10000 2.65 145 09:46 16.11.2021
1236 Clear 15 1010 81 10000 0.89 248 08:27 16.11.2021
1237 Clear 15 1013 75 10000 2.66 152 07:32 16.11.2021
1238 Clear 14 1006 82 10000 1.79 160 02:20 16.11.2021
1239 Clouds 15 1007 81 10000 2.25 165 23:22 15.11.2021
1240 Clouds 16 1007 81 10000 2.18 149 22:33 15.11.2021
1241 Clouds 16 1007 80 10000 2.15 149 21:53 15.11.2021
1242 Clouds 16 1007 80 10000 2.07 141 21:28 15.11.2021
1243 Clouds 17 1007 77 10000 2.06 126 19:49 15.11.2021
1244 Clouds 17 1007 75 10000 1.99 109 18:47 15.11.2021
1245 Clouds 18 1006 71 10000 1.3 67 16:54 15.11.2021
1246 Clouds 19 1013 67 10000 1.32 37 15:42 15.11.2021
1247 Clouds 19 1013 65 10000 1.55 27 15:24 15.11.2021
1248 Clouds 20 1007 63 10000 1.14 44 13:32 15.11.2021
1249 Clouds 19 1010 63 10000 1.1 65 11:53 15.11.2021
1250 Clouds 18 1008 73 10000 0.73 184 09:28 15.11.2021
1251 Clouds 16 1010 79 10000 0.45 90 07:55 15.11.2021
1252 Clouds 15 1010 78 10000 0.89 270 05:23 15.11.2021
1253 Clear 16 1008 69 10000 2.65 192 00:18 15.11.2021
1254 Clear 17 1008 70 10000 2.56 191 22:38 14.11.2021
1255 Clear 17 1011 72 10000 3.58 180 20:32 14.11.2021
1256 Clear 18 1007 72 10000 2.38 150 19:18 14.11.2021
1257 Clear 17 1010 72 10000 0.89 225 18:54 14.11.2021
1258 Clear 17 1007 71 10000 2.38 150 18:36 14.11.2021
1259 Clear 18 1007 71 10000 2.18 140 18:18 14.11.2021
1260 Clear 18 1007 71 10000 2.18 140 17:57 14.11.2021
1261 Clear 18 1007 69 10000 2.18 140 17:39 14.11.2021
1262 Clear 18 1010 70 10000 0.89 90 17:21 14.11.2021
1263 Clear 19 1007 66 10000 1.89 134 16:49 14.11.2021
1264 Clear 19 1009 66 10000 1.76 122 16:21 14.11.2021
1265 Clear 20 1009 59 10000 1.76 122 15:46 14.11.2021
1266 Clear 19 1015 60 10000 0.89 90 15:18 14.11.2021
1267 Clear 20 1015 53 10000 0.45 90 14:32 14.11.2021
1268 Clear 21 1015 51 10000 0.89 315 13:59 14.11.2021
1269 Clear 21 1015 49 10000 0.45 0 13:40 14.11.2021
1270 Clear 21 1010 51 10000 0.92 114 12:45 14.11.2021
1271 Clear 20 1010 51 10000 0.45 225 12:18 14.11.2021
1272 Clear 20 1011 58 10000 1.34 90 10:50 14.11.2021
1273 Clear 19 1011 59 10000 1.34 90 10:27 14.11.2021
1274 Clear 17 1012 62 10000 0.89 225 08:57 14.11.2021
1275 Clear 16 1012 65 10000 0.89 225 08:23 14.11.2021
1276 Clear 16 1017 51 10000 3.13 270 02:20 14.11.2021
1277 Clouds 16 1017 58 10000 2.1 182 22:27 13.11.2021
1278 Clouds 15 1011 65 10000 2.1 182 21:57 13.11.2021
1279 Clouds 15 1011 66 10000 2.13 174 21:27 13.11.2021
1280 Clouds 16 1011 70 10000 2.02 168 20:24 13.11.2021
1281 Clear 16 1013 67 10000 0.45 90 18:48 13.11.2021
1282 Clear 16 1014 69 10000 0.89 270 18:26 13.11.2021
1283 Clear 18 1010 65 10000 0.74 140 16:48 13.11.2021
1284 Clear 20 1013 55 10000 0.89 90 15:42 13.11.2021
1285 Clear 21 1010 55 10000 0.22 330 14:36 13.11.2021
1286 Clear 21 1010 54 10000 0.52 292 13:46 13.11.2021
1287 Clouds 20 1014 52 10000 0.89 90 12:38 13.11.2021
1288 Clouds 20 1015 52 10000 0.89 270 11:45 13.11.2021
1289 Clouds 19 1015 56 10000 1.34 90 10:48 13.11.2021
1290 Clouds 19 1015 59 10000 1.34 90 10:29 13.11.2021
1291 Clouds 17 1015 66 10000 0.89 90 09:42 13.11.2021
1292 Clouds 16 1015 70 10000 0.89 90 09:18 13.11.2021
1293 Clouds 16 1018 67 10000 1.26 176 08:40 13.11.2021
1294 Clouds 15 1017 65 10000 1.43 184 06:55 13.11.2021
1295 Clouds 14 1019 64 10000 2.24 315 04:34 13.11.2021
1296 Clouds 14 1012 88 10000 1.55 168 01:55 13.11.2021
1297 Clouds 15 1011 87 10000 2.29 163 23:27 12.11.2021
1298 Clouds 15 1012 83 10000 2.43 152 21:51 12.11.2021
1299 Clouds 15 1012 80 10000 2.19 130 20:20 12.11.2021
1300 Clouds 16 1012 77 10000 2.19 130 19:31 12.11.2021
1301 Clouds 16 1012 76 10000 2.03 120 18:53 12.11.2021
1302 Clear 17 1011 71 10000 1.73 108 17:34 12.11.2021
1303 Clear 19 1011 61 10000 1.48 60 15:51 12.11.2021
1304 Clouds 20 1011 55 10000 0.69 15 13:26 12.11.2021
1305 Clouds 19 1014 50 10000 1.79 90 11:23 12.11.2021
1306 Clouds 17 1015 60 10000 0.89 225 09:54 12.11.2021
1307 Clouds 15 1020 57 10000 0.45 225 08:50 12.11.2021
1308 Clouds 13 1019 60 10000 1.34 270 06:35 12.11.2021
1309 Clear 15 1018 68 10000 2.07 206 23:55 11.11.2021
1310 Clear 14 1012 86 10000 2.15 204 22:49 11.11.2021
1311 Clear 15 1012 88 10000 2.15 199 21:43 11.11.2021
1312 Clear 15 1012 88 10000 2.14 182 20:52 11.11.2021
1313 Clear 16 1012 93 10000 2.61 158 19:48 11.11.2021
1314 Clouds 16 1011 94 10000 3.21 130 18:25 11.11.2021
1315 Clouds 17 1011 94 10000 3.2 130 17:40 11.11.2021
1316 Clouds 19 1010 93 10000 2.37 98 15:29 11.11.2021
1317 Clouds 18 1010 95 10000 0.45 223 14:39 11.11.2021
1318 Clouds 18 1011 95 10000 1.7 113 14:20 11.11.2021
1319 Clouds 17 1011 94 10000 1.7 113 13:35 11.11.2021
1320 Rain 16 1012 93 3086 2.16 231 12:26 11.11.2021
1321 Clouds 16 1013 93 5118 1.66 227 09:55 11.11.2021
1322 Rain 16 1013 92 10000 0.45 247 08:47 11.11.2021
1323 Clouds 16 1012 90 10000 2.21 135 06:55 11.11.2021
1324 Rain 17 1013 97 10000 2.76 140 00:38 11.11.2021
1325 Rain 17 1014 95 10000 2.45 168 22:42 10.11.2021
1326 Rain 17 1014 97 10000 2.72 171 21:53 10.11.2021
1327 Rain 17 1013 97 10000 2.48 170 20:55 10.11.2021
1328 Rain 17 1012 95 10000 1.77 161 20:18 10.11.2021
1329 Rain 17 1020 94 10000 2.59 165 19:39 10.11.2021
1330 Rain 17 1018 77 10000 3.24 90 17:22 10.11.2021
1331 Rain 16 1018 71 10000 3.86 103 15:46 10.11.2021
1332 Rain 18 1018 69 10000 4.86 103 14:24 10.11.2021
1333 Clouds 19 1012 94 10000 4.86 103 13:37 10.11.2021
1334 Clouds 19 1019 83 10000 4.51 116 12:24 10.11.2021
1335 Clouds 18 1014 89 10000 4.19 127 09:21 10.11.2021
1336 Clouds 18 1019 82 10000 4.19 127 08:41 10.11.2021
1337 Clouds 16 1012 92 10000 4.58 131 06:50 10.11.2021
1338 Clouds 17 1012 92 10000 4.41 133 05:58 10.11.2021
1339 Clouds 17 1013 93 10000 5.06 135 04:58 10.11.2021
1340 Clouds 17 1018 87 10000 2.47 132 22:29 09.11.2021
1341 Clouds 17 1012 94 10000 2.64 144 20:50 09.11.2021
1342 Clouds 17 1012 95 10000 3.56 121 19:36 09.11.2021
1343 Clouds 17 1012 96 10000 3.5 117 18:50 09.11.2021
1344 Clouds 17 1012 95 10000 2.84 125 17:22 09.11.2021
1345 Rain 18 1011 96 10000 3.19 134 15:37 09.11.2021
1346 Rain 18 1010 96 10000 3.32 119 13:53 09.11.2021
1347 Rain 18 1010 95 10000 2.61 142 12:49 09.11.2021
1348 Rain 18 1009 94 10000 2.48 152 11:33 09.11.2021
1349 Rain 18 1010 94 10000 2.36 156 10:30 09.11.2021
1350 Rain 18 1009 92 10000 1.5 113 09:21 09.11.2021
1351 Clouds 18 1008 91 10000 1.45 92 07:55 09.11.2021
1352 Clouds 17 1007 90 10000 1.69 60 03:45 09.11.2021
1353 Clouds 17 1007 91 10000 1.84 27 01:58 09.11.2021
1354 Clouds 17 1007 91 10000 1.84 27 01:36 09.11.2021
1355 Clouds 17 1006 93 8376 1.18 331 23:32 08.11.2021
1356 Clouds 17 1006 93 8030 1.14 332 22:47 08.11.2021
1357 Clouds 17 1006 93 9793 1.43 295 21:45 08.11.2021
1358 Clouds 17 1006 93 10000 1.93 343 20:36 08.11.2021
1359 Clouds 18 1006 94 10000 1.89 344 19:43 08.11.2021
1360 Clouds 18 1005 95 10000 2.61 325 17:48 08.11.2021
1361 Clouds 18 1004 96 10000 2.91 298 15:58 08.11.2021
1362 Clouds 18 1004 96 10000 2.84 283 14:57 08.11.2021
1363 Clouds 18 1003 96 10000 2.84 283 14:34 08.11.2021
1364 Clouds 18 1004 96 10000 1.34 248 13:20 08.11.2021
1365 Clouds 17 1004 96 10000 0.76 183 11:55 08.11.2021
1366 Clouds 17 1005 94 10000 1.29 110 10:50 08.11.2021
1367 Clouds 18 1005 93 10000 2.85 114 09:31 08.11.2021
1368 Clouds 17 1005 94 10000 2.79 115 08:52 08.11.2021
1369 Clouds 16 1005 95 10000 0.45 357 06:57 08.11.2021
1370 Clouds 17 1006 96 10000 3.42 40 03:38 08.11.2021
1371 Clouds 17 1006 96 10000 1.49 318 03:19 08.11.2021
1372 Clouds 20 1007 93 10000 0.71 86 23:43 07.11.2021
1373 Rain 20 1008 92 10000 1.08 199 21:42 07.11.2021
1374 Clouds 20 1007 91 10000 0.61 328 20:51 07.11.2021
1375 Clouds 21 1006 83 10000 0.45 249 19:22 07.11.2021
1376 Clouds 22 1006 79 10000 2.56 199 17:49 07.11.2021
1377 Clouds 23 1015 67 10000 1.79 45 16:49 07.11.2021
1378 Clouds 23 1015 63 10000 3.58 135 15:44 07.11.2021
1379 Clouds 24 1014 61 10000 0.89 225 14:28 07.11.2021
1380 Clouds 24 1015 59 10000 1.79 135 12:57 07.11.2021
1381 Clouds 24 1015 57 10000 1.79 90 11:42 07.11.2021
1382 Clouds 24 1009 51 10000 0.89 246 09:26 07.11.2021
1383 Clear 22 1005 50 10000 3.36 166 06:46 07.11.2021
1384 Clear 22 1008 49 10000 4.02 68 02:32 07.11.2021
1385 Clear 22 1006 65 10000 4.62 150 23:22 06.11.2021
1386 Clear 21 1005 75 10000 4.59 150 22:42 06.11.2021
1387 Clear 20 1009 74 10000 0.89 338 21:32 06.11.2021
1388 Clear 20 1008 78 10000 2.24 315 20:50 06.11.2021
1389 Clouds 19 1009 89 10000 0.89 270 18:56 06.11.2021
1390 Rain 20 1007 90 10000 3.48 93 16:44 06.11.2021
1391 Clouds 21 1008 94 10000 4.79 78 14:37 06.11.2021
1392 Rain 20 1011 95 10000 0.45 90 13:38 06.11.2021
1393 Rain 20 1011 95 10000 0.45 90 13:38 06.11.2021
1394 Clouds 20 1012 94 10000 2.68 90 11:25 06.11.2021
1395 Clouds 19 1009 95 10000 3.05 121 09:22 06.11.2021
1396 Clouds 19 1008 94 10000 1.78 76 04:57 06.11.2021
1397 Clouds 19 1008 94 10000 2.52 66 01:27 06.11.2021
1398 Clouds 19 1008 93 10000 2.45 97 23:34 05.11.2021
1399 Clouds 19 1008 93 10000 2.64 84 22:33 05.11.2021
1400 Clouds 19 1008 92 10000 2.43 67 20:50 05.11.2021
1401 Clouds 19 1008 92 10000 2.97 62 20:19 05.11.2021
1402 Clouds 19 1008 92 10000 3.09 50 19:37 05.11.2021
1403 Clouds 19 1007 92 10000 2.34 45 18:39 05.11.2021
1404 Clouds 20 1007 92 10000 3.21 66 17:26 05.11.2021
1405 Clouds 21 1007 89 10000 2.25 75 15:20 05.11.2021
1406 Clouds 21 1007 86 10000 2.33 67 13:35 05.11.2021
1407 Clouds 21 1007 83 10000 1.67 40 10:37 05.11.2021
1408 Clouds 19 1007 91 10000 1 140 08:39 05.11.2021
1409 Clouds 18 1007 92 10000 0.76 84 07:21 05.11.2021
1410 Clouds 18 1006 92 10000 0.67 340 04:43 05.11.2021
1411 Clouds 18 1006 92 10000 2.42 152 02:24 05.11.2021
1412 Clouds 18 1006 93 10000 2.79 135 00:40 05.11.2021
1413 Clouds 18 1006 92 10000 2.04 94 22:59 04.11.2021
1414 Clouds 18 1006 92 10000 1.98 68 22:19 04.11.2021
1415 Clouds 18 1006 93 10000 2.42 48 21:32 04.11.2021
1416 Clouds 18 1006 93 10000 2.37 48 20:40 04.11.2021
1417 Clouds 18 1006 93 10000 2.74 41 20:20 04.11.2021
1418 Clouds 18 1005 92 10000 2.74 41 19:40 04.11.2021
1419 Clouds 18 1005 91 10000 2.81 50 18:44 04.11.2021
1420 Clouds 19 1005 86 10000 2.9 49 17:37 04.11.2021
1421 Clouds 19 1004 83 10000 2.69 44 16:41 04.11.2021
1422 Clouds 20 1006 80 10000 0.45 90 14:28 04.11.2021
1423 Clouds 21 1004 75 10000 2.36 38 12:32 04.11.2021
1424 Clouds 21 1005 72 10000 1.86 52 09:31 04.11.2021
1425 Clouds 20 1005 70 10000 1.78 73 08:30 04.11.2021
1426 Clouds 20 1004 70 10000 0.82 342 07:34 04.11.2021
1427 Clouds 24 1007 62 10000 6.97 173 23:59 03.11.2021
1428 Clouds 24 1007 59 10000 7.26 172 22:50 03.11.2021
1429 Clouds 23 1007 62 10000 7.33 174 21:48 03.11.2021
1430 Clouds 24 1007 63 10000 7.26 168 21:28 03.11.2021
1431 Clouds 24 1007 63 10000 6.78 168 20:35 03.11.2021
1432 Clouds 23 1007 63 10000 5.89 170 19:58 03.11.2021
1433 Clear 23 1007 64 10000 5.67 167 18:56 03.11.2021
1434 Clear 24 1003 59 10000 2.68 270 18:21 03.11.2021
1435 Clear 24 1003 60 10000 0.89 234 17:35 03.11.2021
1436 Clear 24 1003 61 10000 1.34 223 16:25 03.11.2021
1437 Clear 24 1010 60 10000 7.15 248 15:42 03.11.2021
1438 Clear 25 1004 61 10000 0.89 244 13:55 03.11.2021
1439 Clear 24 1005 65 10000 1.79 212 11:54 03.11.2021
1440 Clear 24 1005 66 10000 1.34 222 11:25 03.11.2021
1441 Clear 23 1006 67 10000 1.34 220 10:41 03.11.2021
1442 Clear 23 1006 65 10000 1.79 224 09:30 03.11.2021
1443 Clear 22 1006 67 10000 1.79 197 08:22 03.11.2021
1444 Clear 21 1006 70 10000 0.45 265 07:39 03.11.2021
1445 Clouds 19 1007 79 10000 4.47 180 04:45 03.11.2021
1446 Clouds 19 1008 72 10000 1.79 248 02:28 03.11.2021
1447 Clouds 19 1009 76 10000 4.47 292 23:47 02.11.2021
1448 Clouds 19 1006 73 10000 3.49 194 22:35 02.11.2021
1449 Clouds 19 1009 72 10000 2.68 180 21:25 02.11.2021
1450 Clouds 19 1009 68 10000 1.79 315 20:32 02.11.2021
1451 Clouds 19 1009 67 10000 1.79 270 19:51 02.11.2021
1452 Clouds 19 1009 67 10000 2.22 195 18:59 02.11.2021
1453 Clouds 20 1006 62 10000 1.8 227 17:59 02.11.2021
1454 Clear 19 1009 62 10000 2.24 315 17:38 02.11.2021
1455 Clear 22 1006 56 10000 3.14 274 16:30 02.11.2021
1456 Clear 22 1012 58 10000 3.14 274 15:30 02.11.2021
1457 Clear 22 1012 57 10000 4.21 275 14:22 02.11.2021
1458 Clear 22 1006 56 10000 0.45 336 13:27 02.11.2021
1459 Clear 22 1006 59 10000 0.45 26 12:39 02.11.2021
1460 Clear 21 1006 60 10000 0.45 60 11:33 02.11.2021
1461 Clear 21 1006 61 10000 0.45 334 10:52 02.11.2021
1462 Clear 21 1006 60 10000 0.89 310 10:26 02.11.2021
1463 Clear 20 1006 63 10000 0.45 256 08:43 02.11.2021
1464 Clouds 19 1005 68 10000 5.53 263 06:53 02.11.2021
1465 Clouds 20 1002 67 10000 1.34 335 03:49 02.11.2021
1466 Clouds 21 1002 71 10000 1.79 314 02:21 02.11.2021
1467 Clouds 22 1001 76 8869 1.79 292 22:47 01.11.2021
1468 Clouds 22 1001 82 10000 1.34 6 21:23 01.11.2021
1469 Clouds 22 1001 79 10000 0.45 208 20:38 01.11.2021
1470 Clouds 22 1008 78 10000 5.63 206 19:55 01.11.2021
1471 Clouds 22 1001 79 10000 1.34 216 19:29 01.11.2021
1472 Clouds 22 1000 82 10000 0.45 348 18:21 01.11.2021
1473 Clouds 22 1004 81 10000 1.34 328 17:21 01.11.2021
1474 Clouds 22 1004 79 10000 1.34 247 16:50 01.11.2021
1475 Clouds 22 1004 72 10000 3.58 315 15:47 01.11.2021
1476 Clouds 23 1004 70 10000 0.45 90 15:21 01.11.2021
1477 Clouds 23 1004 70 10000 0.45 234 15:21 01.11.2021
1478 Clouds 22 1009 72 10000 2.24 270 14:42 01.11.2021
1479 Clouds 22 1009 70 10000 5.36 225 14:20 01.11.2021
1480 Clouds 22 1010 70 10000 3.13 315 13:25 01.11.2021
1481 Clouds 23 1005 72 10000 2.24 225 12:25 01.11.2021
1482 Clouds 22 1006 82 10000 2.68 315 10:33 01.11.2021
1483 Clouds 20 1007 89 10000 1.79 270 09:25 01.11.2021
1484 Clouds 18 1006 90 10000 2.24 315 07:49 01.11.2021
1485 Clouds 17 1006 90 10000 3.13 248 05:57 01.11.2021
1486 Clouds 17 1006 91 10000 1.79 270 03:44 01.11.2021
1487 Clouds 17 1006 93 10000 2.89 148 00:27 01.11.2021
1488 Clouds 17 1009 92 10000 2.55 165 21:55 31.10.2021
1489 Clouds 17 1007 94 10000 0.45 352 20:36 31.10.2021
1490 Rain 17 1008 92 9537 2.72 170 18:57 31.10.2021
1491 Rain 17 1008 92 9537 2.72 170 18:35 31.10.2021
1492 Rain 17 1008 89 10000 2.5 184 16:53 31.10.2021
1493 Rain 18 1009 81 10000 2.08 209 15:41 31.10.2021
1494 Clouds 20 1011 73 10000 1.79 135 13:38 31.10.2021
1495 Clouds 21 1009 70 10000 1.83 216 12:44 31.10.2021
1496 Clouds 20 1011 76 10000 2.35 220 10:57 31.10.2021
1497 Clouds 20 1011 78 10000 2.35 220 10:36 31.10.2021
1498 Clouds 19 1011 86 10000 3 222 09:19 31.10.2021
1499 Clouds 17 1011 88 10000 2.03 240 06:59 31.10.2021
1500 Clouds 17 1014 88 10000 0.89 315 00:48 31.10.2021
1501 Clouds 18 1012 89 10000 0.38 45 22:33 30.10.2021
1502 Clouds 18 1012 88 10000 0.32 122 21:33 30.10.2021
1503 Clouds 19 1011 92 10000 0.91 99 20:21 30.10.2021
1504 Clouds 19 1011 81 10000 0.58 47 18:36 30.10.2021
1505 Clouds 21 1010 72 10000 1.6 65 16:42 30.10.2021
1506 Clouds 20 1018 70 10000 3.13 90 14:43 30.10.2021
1507 Clouds 20 1013 69 10000 1.79 135 13:39 30.10.2021
1508 Clouds 20 1013 70 10000 1.79 112 13:21 30.10.2021
1509 Clouds 20 1012 74 10000 0.45 347 11:51 30.10.2021
1510 Clouds 20 1011 74 10000 1.97 73 11:32 30.10.2021
1511 Clouds 19 1014 78 10000 0.89 90 10:24 30.10.2021
1512 Clouds 17 1011 90 10000 2.06 52 08:48 30.10.2021
1513 Clouds 16 1010 90 10000 2.31 32 06:26 30.10.2021
1514 Clouds 17 1010 90 10000 2.31 32 05:39 30.10.2021
1515 Clouds 16 1010 92 10000 3.96 45 00:43 30.10.2021
1516 Clouds 16 1010 92 10000 1.98 83 22:37 29.10.2021
1517 Clouds 16 1010 91 10000 2.3 76 21:52 29.10.2021
1518 Rain 16 1010 92 10000 2.44 52 20:44 29.10.2021
1519 Rain 16 1010 93 2316 4.68 16 19:49 29.10.2021
1520 Rain 16 1009 93 8905 3.17 351 18:27 29.10.2021
1521 Rain 16 1009 92 10000 2.42 352 16:51 29.10.2021
1522 Clouds 16 1016 94 4024 1.34 90 14:32 29.10.2021
1523 Clouds 17 1016 82 8350 3.16 41 10:57 29.10.2021
1524 Clouds 17 1010 91 8350 3.16 41 10:34 29.10.2021
1525 Clouds 16 1009 91 10000 3.81 40 08:19 29.10.2021
1526 Clouds 18 1010 81 10000 1.77 80 00:36 29.10.2021
1527 Clouds 17 1010 82 10000 1.76 80 00:36 29.10.2021
1528 Clouds 18 1011 80 10000 0.97 99 22:54 28.10.2021
1529 Clouds 18 1011 78 10000 1.24 73 21:55 28.10.2021
1530 Clouds 18 1011 77 10000 1.39 55 20:29 28.10.2021
1531 Clouds 19 1011 75 10000 1.87 73 19:46 28.10.2021
1532 Clouds 19 1011 70 10000 2.04 46 18:18 28.10.2021
1533 Clouds 20 1011 62 10000 1.73 23 16:58 28.10.2021
1534 Clouds 20 1019 72 10000 1.79 90 15:20 28.10.2021
1535 Clouds 21 1011 74 10000 1.73 15 13:45 28.10.2021
1536 Clouds 21 1012 74 10000 1.28 12 13:21 28.10.2021
1537 Clouds 21 1012 76 10000 1.28 12 12:39 28.10.2021
1538 Clouds 20 1012 85 10000 0.86 46 10:54 28.10.2021
1539 Clouds 18 1012 88 10000 0.67 51 09:38 28.10.2021
1540 Clouds 17 1012 88 10000 0.39 59 08:58 28.10.2021
1541 Clouds 17 1012 88 10000 0.39 59 08:34 28.10.2021
1542 Clouds 17 1012 87 10000 0.69 116 04:48 28.10.2021
1543 Clouds 18 1013 89 10000 1.7 119 23:50 27.10.2021
1544 Clouds 19 1013 83 10000 1.81 128 22:31 27.10.2021
1545 Clouds 19 1013 82 10000 1.8 128 21:33 27.10.2021
1546 Clouds 19 1013 80 10000 2.3 122 20:53 27.10.2021
1547 Clouds 19 1013 79 10000 0.58 235 19:57 27.10.2021
1548 Clouds 19 1013 79 10000 0.58 235 19:38 27.10.2021
1549 Clouds 20 1013 78 10000 1.16 167 18:39 27.10.2021
1550 Clouds 21 1012 71 10000 2 136 16:27 27.10.2021
1551 Clouds 22 1017 71 10000 1.98 136 15:32 27.10.2021
1552 Clouds 22 1012 73 10000 2.4 123 14:40 27.10.2021
1553 Clouds 21 1014 76 10000 2.15 116 12:32 27.10.2021
1554 Clouds 21 1013 84 10000 1.67 120 10:58 27.10.2021
1555 Clouds 20 1014 89 10000 2.18 89 09:51 27.10.2021
1556 Clouds 18 1013 92 10000 3.38 79 08:22 27.10.2021
1557 Clouds 18 1013 91 10000 3.62 81 07:22 27.10.2021
1558 Clouds 18 1012 92 10000 3.51 66 02:24 27.10.2021
1559 Rain 18 1013 93 10000 4.75 64 00:56 27.10.2021
1560 Rain 18 1012 93 8232 4.59 67 00:28 27.10.2021
1561 Rain 18 1012 93 8232 4.59 67 00:28 27.10.2021
1562 Clouds 18 1012 91 8232 4.59 67 23:41 26.10.2021
1563 Clouds 18 1012 92 10000 4.25 75 22:38 26.10.2021
1564 Clouds 18 1012 92 10000 4.06 85 21:59 26.10.2021
1565 Clouds 19 1012 92 10000 3.48 90 20:36 26.10.2021
1566 Clouds 19 1012 91 10000 0.65 91 19:30 26.10.2021
1567 Clouds 19 1011 91 10000 0.83 72 18:41 26.10.2021
1568 Clouds 20 1010 88 10000 2.51 61 16:28 26.10.2021
1569 Clouds 21 1009 87 10000 0.89 358 14:30 26.10.2021
1570 Clouds 21 1010 83 10000 4.66 57 11:34 26.10.2021
1571 Clouds 20 1010 89 10000 5.06 76 10:20 26.10.2021
1572 Rain 18 1009 91 10000 4.16 66 07:25 26.10.2021
1573 Rain 18 1009 91 10000 4.16 66 06:40 26.10.2021
1574 Clouds 19 1009 92 10000 2.54 42 23:50 25.10.2021
1575 Clouds 19 1009 91 10000 3.59 64 22:54 25.10.2021
1576 Clouds 19 1009 89 10000 4.52 69 22:19 25.10.2021
1577 Clouds 19 1012 89 10000 1.34 45 21:39 25.10.2021
1578 Clouds 20 1008 86 10000 3.6 80 19:53 25.10.2021
1579 Clouds 20 1011 86 10000 4.68 86 19:25 25.10.2021
1580 Clouds 20 1010 86 10000 4.68 86 18:54 25.10.2021
1581 Clouds 21 1007 82 10000 4.32 76 18:19 25.10.2021
1582 Rain 21 1007 78 10000 3.93 55 16:18 25.10.2021
1583 Clouds 22 1007 78 8126 0.89 4 14:28 25.10.2021
1584 Clouds 22 1008 81 10000 5 69 12:30 25.10.2021
1585 Clouds 20 1008 89 10000 5.37 90 10:20 25.10.2021
1586 Clouds 19 1007 90 10000 5.97 87 08:34 25.10.2021
1587 Clouds 19 1007 88 10000 4.58 93 06:24 25.10.2021
1588 Clouds 18 1012 80 10000 3 113 00:58 25.10.2021
1589 Rain 18 1012 80 10000 3 113 00:37 25.10.2021
1590 Rain 18 1012 81 10000 3.95 109 23:47 24.10.2021
1591 Rain 18 1012 81 10000 3.95 109 23:47 24.10.2021
1592 Rain 18 1013 79 10000 3.45 103 22:56 24.10.2021
1593 Clouds 18 1013 79 10000 3.45 103 22:31 24.10.2021
1594 Rain 18 1012 77 10000 2.86 103 21:57 24.10.2021
1595 Rain 17 1015 80 10000 1.79 292 20:45 24.10.2021
1596 Rain 16 1015 84 10000 4.02 315 20:23 24.10.2021
1597 Rain 22 1006 79 10000 2.97 91 18:52 24.10.2021
1598 Clouds 22 1006 76 10000 3.07 101 17:57 24.10.2021
1599 Clouds 23 1006 71 10000 3.19 100 16:52 24.10.2021
1600 Clouds 23 1007 74 10000 1.89 94 15:37 24.10.2021
1601 Clouds 24 1007 75 10000 2.64 62 13:49 24.10.2021
1602 Clouds 24 1008 77 10000 2.42 69 12:41 24.10.2021
1603 Clouds 23 1008 77 10000 2.68 81 11:40 24.10.2021
1604 Clouds 23 1008 83 10000 2.71 112 10:43 24.10.2021
1605 Clouds 22 1009 90 10000 2.45 126 09:38 24.10.2021
1606 Clouds 20 1008 89 10000 2.4 86 05:35 24.10.2021
1607 Clouds 21 1011 94 10000 2.41 84 00:40 24.10.2021
1608 Clouds 21 1012 93 10000 3.35 65 23:24 23.10.2021
1609 Clouds 22 1011 90 10000 3.05 86 21:45 23.10.2021
1610 Clouds 22 1011 88 10000 2.8 91 19:39 23.10.2021
1611 Clouds 22 1011 83 10000 2.77 96 18:46 23.10.2021
1612 Clouds 22 1011 83 10000 2.77 96 18:46 23.10.2021
1613 Clouds 23 1011 76 10000 2.71 92 17:48 23.10.2021
1614 Clouds 23 1011 75 10000 2.72 94 17:26 23.10.2021
1615 Clouds 24 1011 70 10000 2.67 96 16:18 23.10.2021
1616 Clouds 24 1014 68 10000 2.24 90 13:51 23.10.2021
1617 Clouds 20 1014 78 10000 1.61 165 02:36 23.10.2021
1618 Clouds 20 1015 77 10000 0.89 315 23:41 22.10.2021
1619 Clouds 22 1011 71 10000 2.42 189 21:39 22.10.2021
1620 Clouds 23 1014 66 10000 0.89 45 19:49 22.10.2021
1621 Clouds 24 1013 63 10000 0.89 0 18:33 22.10.2021
1622 Clouds 25 1013 56 10000 3.58 270 17:19 22.10.2021
1623 Clouds 25 1018 53 10000 2.24 315 14:58 22.10.2021
1624 Clouds 25 1019 52 10000 3.58 180 12:53 22.10.2021
1625 Clouds 25 1014 58 10000 0.89 234 10:58 22.10.2021
1626 Clouds 24 1014 58 10000 0.45 214 10:36 22.10.2021
1627 Clouds 23 1014 62 10000 0.45 265 09:36 22.10.2021
1628 Clouds 22 1010 66 10000 0.45 223 07:46 22.10.2021
1629 Clouds 22 1010 66 10000 0.45 213 07:21 22.10.2021
1630 Clouds 21 1012 69 10000 3.39 183 02:37 22.10.2021
1631 Clouds 22 1011 68 10000 0.45 207 02:37 22.10.2021
1632 Clouds 21 1012 69 10000 3.39 183 02:37 22.10.2021
1633 Clear 20 1016 72 10000 5.36 225 23:51 21.10.2021
1634 Clear 20 1013 70 10000 3.28 180 22:47 21.10.2021
1635 Clear 20 1016 68 10000 3.13 225 21:39 21.10.2021
1636 Clear 20 1016 65 10000 2.68 270 20:26 21.10.2021
1637 Clear 20 1016 64 10000 1.34 158 19:56 21.10.2021
1638 Clear 21 1016 63 10000 0.45 225 19:26 21.10.2021
1639 Clear 22 1016 58 10000 2.02 146 18:34 21.10.2021
1640 Clear 22 1016 54 10000 0.89 225 17:53 21.10.2021
1641 Clear 23 1017 49 10000 1.79 180 17:18 21.10.2021
1642 Clear 24 1022 46 10000 1.79 68 15:33 21.10.2021
1643 Clear 24 1017 45 10000 0.89 90 14:57 21.10.2021
1644 Clear 24 1017 47 10000 0.45 193 14:37 21.10.2021
1645 Clear 23 1018 51 10000 0.89 249 12:37 21.10.2021
1646 Clear 20 1020 64 10000 0.45 337 09:55 21.10.2021
1647 Clear 18 1020 74 10000 0.45 315 08:20 21.10.2021
1648 Clear 17 1020 76 10000 1.34 315 06:54 21.10.2021
1649 Clear 17 1022 87 10000 2.19 199 00:51 21.10.2021
1650 Clear 18 1020 87 10000 1.85 177 22:41 20.10.2021
1651 Clear 18 1020 84 10000 1.69 166 21:51 20.10.2021
1652 Clear 19 1021 83 10000 1.33 152 21:18 20.10.2021
1653 Clear 19 1021 81 10000 1.33 152 20:39 20.10.2021
1654 Clouds 18 1023 83 10000 0.76 122 20:21 20.10.2021
1655 Clouds 18 1023 81 10000 0.45 90 19:26 20.10.2021
1656 Clouds 20 1021 77 10000 0.88 75 18:45 20.10.2021
1657 Clouds 19 1021 77 10000 0.88 74 18:45 20.10.2021
1658 Clouds 20 1021 76 10000 1.45 348 17:36 20.10.2021
1659 Clouds 21 1024 71 10000 0.89 90 15:26 20.10.2021
1660 Clear 20 1023 79 10000 0.75 210 10:21 20.10.2021
1661 Clouds 15 1028 81 10000 0.82 204 07:43 20.10.2021
1662 Clear 16 1023 90 10000 1.39 189 02:38 20.10.2021
1663 Clear 16 1023 89 10000 1.21 167 00:34 20.10.2021
1664 Clear 17 1023 90 10000 1.46 162 23:32 19.10.2021
1665 Clear 17 1023 85 10000 1.2 115 21:40 19.10.2021
1666 Clear 18 1023 83 10000 1.36 97 20:36 19.10.2021
1667 Clouds 18 1023 82 10000 1.71 67 20:18 19.10.2021
1668 Clouds 19 1023 80 10000 1.76 66 19:37 19.10.2021
1669 Clouds 19 1022 77 10000 1.95 58 18:45 19.10.2021
1670 Clouds 20 1022 75 10000 1.8 69 17:56 19.10.2021
1671 Clouds 21 1022 71 10000 2.65 35 15:31 19.10.2021
1672 Clouds 21 1022 73 10000 0.45 21 14:46 19.10.2021
1673 Clouds 21 1022 73 10000 0.45 21 14:46 19.10.2021
1674 Clouds 21 1024 75 10000 0.89 180 13:56 19.10.2021
1675 Clouds 21 1023 84 10000 2.01 62 12:24 19.10.2021
1676 Clouds 19 1023 90 10000 2.18 58 11:30 19.10.2021
1677 Clouds 18 1022 93 10000 2.16 73 09:55 19.10.2021
1678 Clouds 18 1022 93 10000 2.13 60 08:57 19.10.2021
1679 Clouds 17 1022 92 10000 1.65 78 04:25 19.10.2021
1680 Clear 17 1022 89 10000 0.45 90 00:22 19.10.2021
1681 Clear 17 1022 88 10000 1.34 90 23:49 18.10.2021
1682 Clear 17 1022 87 10000 0.45 90 22:59 18.10.2021
1683 Clear 18 1019 85 10000 1.78 96 22:31 18.10.2021
1684 Clear 18 1018 82 10000 2.31 83 20:53 18.10.2021
1685 Clear 18 1018 80 10000 2.26 83 20:32 18.10.2021
1686 Clouds 18 1017 79 10000 2.86 71 19:49 18.10.2021
1687 Clouds 18 1017 77 10000 2.79 58 19:22 18.10.2021
1688 Clouds 19 1017 76 10000 2.79 58 18:49 18.10.2021
1689 Clear 21 1016 68 10000 0.89 10 14:58 18.10.2021
1690 Clear 21 1017 65 10000 0.45 334 12:53 18.10.2021
1691 Clear 20 1017 76 10000 1.23 284 10:26 18.10.2021
1692 Clear 18 1016 87 10000 1.12 266 09:26 18.10.2021
1693 Clear 17 1015 88 10000 1.07 283 01:35 18.10.2021
1694 Clear 17 1014 89 10000 0.88 262 23:20 17.10.2021
1695 Clear 18 1014 90 10000 0.51 264 21:46 17.10.2021
1696 Clear 18 1014 90 10000 0.29 349 20:59 17.10.2021
1697 Clouds 18 1013 89 10000 0.88 8 20:31 17.10.2021
1698 Rain 19 1013 88 10000 0.57 7 19:39 17.10.2021
1699 Rain 19 1013 86 10000 0.99 355 18:57 17.10.2021
1700 Rain 19 1012 80 10000 1.25 333 17:32 17.10.2021
1701 Clouds 21 1017 65 10000 2.52 321 15:19 17.10.2021
1702 Clouds 22 1011 65 10000 2.23 306 14:24 17.10.2021
1703 Clouds 21 1012 66 10000 0.89 16 13:38 17.10.2021
1704 Clouds 21 1012 63 10000 1.47 251 11:55 17.10.2021
1705 Clouds 20 1013 69 10000 1.86 224 10:34 17.10.2021
1706 Clouds 19 1012 80 10000 2.43 208 09:30 17.10.2021
1707 Clouds 17 1011 87 10000 2.56 229 07:19 17.10.2021
1708 Clouds 18 1011 77 10000 2.76 214 00:53 17.10.2021
1709 Clouds 18 1011 79 10000 2.75 210 00:22 17.10.2021
1710 Clouds 18 1011 82 10000 2.47 219 21:49 16.10.2021
1711 Clouds 18 1011 79 10000 2.35 250 20:32 16.10.2021
1712 Clouds 18 1011 76 10000 2.35 250 19:46 16.10.2021
1713 Clouds 19 1011 74 10000 2.61 269 19:23 16.10.2021
1714 Clouds 19 1011 72 10000 2.61 269 18:56 16.10.2021
1715 Clouds 19 1011 70 10000 2.61 269 18:37 16.10.2021
1716 Clouds 20 1011 69 10000 3.29 283 18:18 16.10.2021
1717 Clouds 20 1010 69 10000 3.58 288 17:25 16.10.2021
1718 Clouds 21 1010 64 10000 4.57 287 15:25 16.10.2021
1719 Clouds 21 1011 61 10000 4.62 265 11:55 16.10.2021
1720 Clouds 20 1011 62 10000 0.89 12 10:47 16.10.2021
1721 Clouds 18 1010 68 10000 3.83 297 08:23 16.10.2021
1722 Clouds 17 1010 65 10000 5.89 320 01:25 16.10.2021
1723 Clouds 17 1010 65 10000 5.89 320 01:25 16.10.2021
1724 Clouds 16 1010 66 10000 5.76 325 23:57 15.10.2021
1725 Clouds 16 1010 65 10000 6.32 333 23:24 15.10.2021
1726 Clouds 17 1010 62 10000 7.49 338 22:19 15.10.2021
1727 Clouds 17 1009 61 10000 1.34 19 21:29 15.10.2021
1728 Clouds 17 1009 60 10000 0.45 7 20:49 15.10.2021
1729 Clouds 17 1008 60 10000 0.89 44 19:37 15.10.2021
1730 Clouds 17 1008 64 10000 0.89 340 18:41 15.10.2021
1731 Clouds 18 1007 57 10000 0.45 333 16:43 15.10.2021
1732 Clouds 19 1007 54 10000 0.45 350 15:36 15.10.2021
1733 Clear 17 1008 80 10000 4.72 317 13:31 15.10.2021
1734 Clouds 17 1008 60 10000 0.89 22 11:40 15.10.2021
1735 Clouds 17 1008 58 10000 5.36 336 10:58 15.10.2021
1736 Clear 17 1008 56 10000 0.89 7 09:59 15.10.2021
1737 Clear 15 1008 56 10000 1.34 358 05:44 15.10.2021
1738 Clouds 16 1009 57 10000 0.45 15 01:48 15.10.2021
1739 Clouds 16 1010 55 10000 0.45 3 00:22 15.10.2021
1740 Clouds 16 1010 52 10000 0.45 4 22:52 14.10.2021
1741 Clouds 16 1010 54 10000 1.34 349 21:45 14.10.2021
1742 Clouds 16 1010 54 10000 1.34 33 20:50 14.10.2021
1743 Clouds 16 1010 54 10000 0.45 33 20:50 14.10.2021
1744 Clouds 16 1010 54 10000 1.34 30 20:19 14.10.2021
1745 Clouds 16 1009 56 10000 1.34 46 19:38 14.10.2021
1746 Clouds 16 1008 75 10000 0.45 33 17:39 14.10.2021
1747 Clouds 15 1008 88 10000 9 21 16:56 14.10.2021
1748 Clouds 16 1014 81 10000 8.37 26 16:21 14.10.2021
1749 Clouds 15 1008 90 10000 7.59 24 14:43 14.10.2021
1750 Clouds 15 1014 80 10000 7.98 27 14:24 14.10.2021
1751 Clouds 14 1014 84 10000 6.7 45 11:50 14.10.2021
1752 Clouds 15 1014 86 10000 6.71 45 10:43 14.10.2021
1753 Clouds 13 1013 71 10000 5.91 47 07:37 14.10.2021
1754 Clouds 16 1006 85 10000 6.61 38 02:41 14.10.2021
1755 Clouds 15 1007 93 10000 7.07 49 00:29 14.10.2021
1756 Clouds 16 1006 96 8854 4.9 44 22:32 13.10.2021
1757 Clouds 16 1006 95 8790 4.91 44 21:34 13.10.2021
1758 Clouds 15 1006 95 2920 3.92 52 20:22 13.10.2021
1759 Clouds 16 1005 94 7163 3.66 69 19:19 13.10.2021
1760 Clouds 16 1005 94 7163 3.66 69 18:37 13.10.2021
1761 Clouds 18 1004 90 7645 0.45 6 15:53 13.10.2021
1762 Clouds 19 1004 78 8552 0.89 308 14:46 13.10.2021
1763 Clouds 20 1004 79 10000 0.45 352 14:22 13.10.2021
1764 Clouds 22 1005 54 10000 0.89 291 12:23 13.10.2021
1765 Clouds 22 1005 58 10000 4.06 255 11:35 13.10.2021
1766 Clouds 22 1005 58 10000 4.06 255 11:35 13.10.2021
1767 Clouds 19 1005 68 10000 3.21 215 08:57 13.10.2021
1768 Clouds 18 1005 77 10000 3.54 214 07:43 13.10.2021
1769 Clouds 17 1007 78 10000 3.08 218 02:51 13.10.2021
1770 Clouds 17 1007 77 10000 3.52 230 02:19 13.10.2021
1771 Clouds 18 1007 73 10000 3.21 245 23:31 12.10.2021
1772 Clouds 18 1008 71 10000 3.19 251 22:48 12.10.2021
1773 Clouds 18 1008 70 10000 3.09 261 22:23 12.10.2021
1774 Clouds 19 1008 68 10000 2.81 262 20:48 12.10.2021
1775 Clouds 19 1008 68 10000 3.04 276 20:19 12.10.2021
1776 Clouds 20 1008 69 10000 3.48 288 18:57 12.10.2021
1777 Clouds 20 1007 68 10000 3.66 301 18:18 12.10.2021
1778 Clouds 21 1007 63 10000 0.89 303 16:47 12.10.2021
1779 Clouds 21 1007 62 10000 0.45 335 16:18 12.10.2021
1780 Clouds 21 1008 61 10000 0.45 303 14:51 12.10.2021
1781 Clouds 21 1008 60 10000 0.45 9 13:45 12.10.2021
1782 Clouds 20 1009 60 10000 2.71 311 12:40 12.10.2021
1783 Clouds 20 1009 60 10000 2.71 311 12:40 12.10.2021
1784 Clouds 20 1010 62 10000 0.45 351 10:38 12.10.2021
1785 Clouds 19 1010 65 10000 2.47 314 08:49 12.10.2021
1786 Clouds 18 1009 66 10000 2.6 313 08:00 12.10.2021
1787 Clouds 17 1012 67 10000 1.34 315 06:42 12.10.2021
1788 Clouds 18 1010 69 10000 0.45 351 04:35 12.10.2021
1789 Clouds 19 1011 67 10000 0.45 1 01:30 12.10.2021
1790 Clouds 18 1011 66 10000 5.62 325 23:41 11.10.2021
1791 Clouds 17 1014 71 10000 0.89 15 22:59 11.10.2021
1792 Clouds 18 1011 69 10000 6.72 324 22:30 11.10.2021
1793 Clouds 18 1013 64 10000 0.45 18 21:19 11.10.2021
1794 Clouds 17 1013 73 10000 2.68 315 19:46 11.10.2021
1795 Clouds 17 1013 72 10000 4.92 315 19:22 11.10.2021
1796 Clouds 17 1011 74 10000 8.55 305 18:18 11.10.2021
1797 Clouds 18 1011 70 10000 0.45 342 16:39 11.10.2021
1798 Clouds 20 1011 63 10000 1.79 12 16:19 11.10.2021
1799 Clouds 20 1016 60 10000 8.35 297 15:37 11.10.2021
1800 Clouds 21 1011 47 10000 0.45 51 14:53 11.10.2021
1801 Clouds 21 1011 49 10000 1.34 276 13:39 11.10.2021
1802 Clouds 20 1012 50 10000 0.89 324 12:20 11.10.2021
1803 Clouds 19 1012 54 10000 0.89 37 10:49 11.10.2021
1804 Clouds 19 1012 55 10000 8.99 308 09:45 11.10.2021
1805 Clouds 18 1013 61 10000 0.45 6 07:56 11.10.2021
1806 Clear 18 1013 56 10000 0.89 323 01:42 11.10.2021
1807 Clear 18 1011 58 10000 7.16 302 00:53 11.10.2021
1808 Clear 18 1011 58 10000 7.16 302 00:31 11.10.2021
1809 Clear 18 1011 60 10000 6.52 303 22:22 10.10.2021
1810 Clear 19 1011 58 10000 0.89 13 21:35 10.10.2021
1811 Clear 19 1010 57 10000 6.43 307 20:48 10.10.2021
1812 Clear 19 1010 56 10000 6.98 307 20:22 10.10.2021
1813 Clear 19 1010 57 10000 0.45 335 20:00 10.10.2021
1814 Clear 19 1010 57 10000 0.45 286 19:38 10.10.2021
1815 Clear 19 1010 59 10000 7.08 305 18:41 10.10.2021
1816 Clear 20 1009 57 10000 7.69 305 17:50 10.10.2021
1817 Clear 21 1015 55 10000 8.45 303 15:47 10.10.2021
1818 Clear 21 1009 56 10000 0.89 270 14:44 10.10.2021
1819 Clouds 22 1009 59 10000 2.68 302 13:34 10.10.2021
1820 Clouds 21 1009 64 10000 1.34 325 12:41 10.10.2021
1821 Clouds 21 1009 72 9522 4.62 285 11:29 10.10.2021
1822 Clouds 21 1009 72 9522 4.62 285 11:29 10.10.2021
1823 Clouds 19 1009 87 10000 4.31 280 09:51 10.10.2021
1824 Clouds 18 1008 87 10000 4.01 273 08:54 10.10.2021
1825 Clouds 18 1008 88 10000 3.8 275 07:56 10.10.2021
1826 Clouds 19 1008 77 10000 3.21 220 03:47 10.10.2021
1827 Clouds 19 1009 81 10000 2.84 216 01:39 10.10.2021
1828 Clouds 19 1008 84 10000 2.57 208 00:37 10.10.2021
1829 Clouds 19 1009 85 10000 2.33 194 23:22 09.10.2021
1830 Clouds 19 1009 85 10000 2.03 180 21:52 09.10.2021
1831 Clouds 19 1009 85 10000 1.56 167 21:29 09.10.2021
1832 Clouds 19 1009 86 10000 1.4 277 19:47 09.10.2021
1833 Clouds 19 1009 85 10000 1.4 295 19:22 09.10.2021
1834 Clouds 20 1009 85 10000 1.4 295 18:34 09.10.2021
1835 Clear 20 1009 84 10000 2 314 17:43 09.10.2021
1836 Clear 20 1009 83 10000 2.84 312 16:19 09.10.2021
1837 Clear 22 1009 65 10000 2.21 303 13:47 09.10.2021
1838 Clear 22 1009 64 10000 1.69 291 13:24 09.10.2021
1839 Clear 22 1010 66 10000 0.45 351 11:56 09.10.2021
1840 Clear 21 1010 75 10000 1.31 279 10:43 09.10.2021
1841 Clear 20 1010 86 10000 1.36 265 09:54 09.10.2021
1842 Clear 18 1015 78 10000 0.9 228 08:33 09.10.2021
1843 Clear 17 1014 79 10000 1.15 223 07:49 09.10.2021
1844 Clear 17 1008 88 10000 1.08 238 05:55 09.10.2021
1845 Clear 16 1008 90 10000 0.98 250 04:18 09.10.2021
1846 Clear 17 1008 89 10000 1.18 263 02:43 09.10.2021
1847 Clouds 18 1014 81 10000 1.72 260 23:55 08.10.2021
1848 Clouds 18 1014 82 10000 1.72 260 23:31 08.10.2021
1849 Clouds 18 1009 84 10000 2.28 268 22:25 08.10.2021
1850 Clouds 19 1008 80 10000 2.28 268 21:35 08.10.2021
1851 Clouds 19 1007 77 10000 0.45 335 19:44 08.10.2021
1852 Clouds 20 1006 73 10000 2.88 284 17:36 08.10.2021
1853 Clouds 20 1006 69 10000 0.45 293 16:53 08.10.2021
1854 Clouds 20 1012 70 10000 3.17 284 16:53 08.10.2021
1855 Clouds 20 1012 69 10000 3.47 293 16:24 08.10.2021
1856 Clouds 20 1006 76 10000 0.89 295 14:18 08.10.2021
1857 Clouds 20 1006 79 10000 3.97 313 13:36 08.10.2021
1858 Clouds 19 1006 86 10000 0.45 304 11:40 08.10.2021
1859 Clouds 19 1006 86 10000 1.34 358 10:41 08.10.2021
1860 Clouds 18 1006 85 10000 4.09 263 09:46 08.10.2021
1861 Clouds 17 1004 82 10000 0.45 329 00:35 08.10.2021
1862 Clouds 17 1004 76 10000 5.57 265 23:22 07.10.2021
1863 Rain 18 1005 72 10000 0.89 295 21:46 07.10.2021
1864 Rain 19 1005 69 10000 0.45 264 21:27 07.10.2021
1865 Clouds 18 1006 73 10000 5.36 315 20:28 07.10.2021
1866 Clouds 18 1006 78 10000 0.45 339 19:31 07.10.2021
1867 Clouds 18 1009 67 10000 7.89 282 18:27 07.10.2021
1868 Clouds 20 1004 64 10000 0.45 256 17:27 07.10.2021
1869 Clouds 19 1004 70 10000 0.89 4 15:55 07.10.2021
1870 Clouds 21 1004 63 10000 1.34 355 14:24 07.10.2021
1871 Clouds 21 1004 56 10000 1.34 8 13:43 07.10.2021
1872 Clouds 21 1004 63 10000 0.89 227 12:48 07.10.2021
1873 Clouds 21 1004 50 10000 1.34 242 10:57 07.10.2021
1874 Clouds 20 1006 53 10000 4.47 315 10:20 07.10.2021
1875 Clouds 20 1007 55 10000 0.45 329 09:34 07.10.2021
1876 Clouds 20 1005 56 10000 0.89 339 08:52 07.10.2021
1877 Clouds 20 1005 53 10000 0.89 295 07:56 07.10.2021
1878 Clouds 20 1005 53 10000 1.34 328 07:36 07.10.2021
1879 Clouds 20 1006 54 10000 1.79 324 04:24 07.10.2021
1880 Clouds 21 1011 64 10000 1.34 325 00:29 07.10.2021
1881 Clouds 21 1011 71 10000 0.45 346 22:55 06.10.2021
1882 Clouds 21 1011 70 10000 0.45 12 22:23 06.10.2021
1883 Clouds 21 1009 65 10000 4.04 257 20:51 06.10.2021
1884 Clouds 21 1012 66 10000 3.13 315 20:26 06.10.2021
1885 Clouds 23 1009 63 10000 3.24 282 18:43 06.10.2021
1886 Clouds 24 1010 65 10000 0.45 321 16:58 06.10.2021
1887 Clouds 24 1010 65 10000 0.45 321 16:58 06.10.2021
1888 Clouds 25 1010 62 10000 0.45 313 15:33 06.10.2021
1889 Clouds 24 1011 67 10000 0.45 246 14:30 06.10.2021
1890 Clouds 25 1011 68 10000 3.25 281 13:23 06.10.2021
1891 Clouds 24 1012 69 10000 3.26 281 12:45 06.10.2021
1892 Clouds 24 1012 69 10000 2.5 275 12:22 06.10.2021
1893 Clouds 23 1015 74 10000 1.79 225 10:36 06.10.2021
1894 Clouds 22 1016 87 10000 1.34 270 09:39 06.10.2021
1895 Clouds 21 1015 88 10000 2.24 292 08:57 06.10.2021
1896 Clouds 21 1015 90 10000 1.34 292 07:53 06.10.2021
1897 Clouds 21 1015 84 10000 0.89 344 05:37 06.10.2021
1898 Clouds 21 1016 76 10000 2.24 270 01:23 06.10.2021
1899 Clouds 21 1014 73 10000 2.9 246 00:20 06.10.2021
1900 Clouds 21 1014 73 10000 2.9 246 00:20 06.10.2021
1901 Clouds 21 1014 72 10000 2.9 246 23:48 05.10.2021
1902 Clouds 21 1017 71 10000 4.02 315 23:29 05.10.2021
1903 Clouds 21 1014 69 10000 2.43 223 22:30 05.10.2021
1904 Clouds 21 1016 70 10000 3.13 0 21:50 05.10.2021
1905 Clouds 21 1015 69 10000 1.34 270 20:51 05.10.2021
1906 Clouds 21 1015 69 10000 2.68 315 20:25 05.10.2021
1907 Clouds 21 1015 75 10000 3.58 315 19:50 05.10.2021
1908 Clouds 21 1011 79 10000 2.6 190 19:21 05.10.2021
1909 Clouds 20 1011 85 10000 4.44 166 17:23 05.10.2021
1910 Rain 20 1014 90 9501 6.02 149 15:22 05.10.2021
1911 Rain 19 1015 93 2504 4.59 328 13:43 05.10.2021
1912 Rain 19 1019 71 7715 5.95 289 12:57 05.10.2021
1913 Rain 19 1019 71 7715 5.95 289 12:32 05.10.2021
1914 Rain 20 1019 58 10000 0.98 116 11:22 05.10.2021
1915 Clouds 25 1014 66 10000 0.68 152 09:50 05.10.2021
1916 Clouds 24 1010 59 10000 0.45 8 05:56 05.10.2021
1917 Clouds 23 1014 72 10000 2.18 212 00:37 05.10.2021
1918 Clouds 24 1013 70 10000 2.01 181 22:49 04.10.2021
1919 Clouds 24 1015 70 10000 0.45 270 20:45 04.10.2021
1920 Clouds 25 1012 70 10000 1.73 140 18:47 04.10.2021
1921 Clouds 26 1020 63 10000 0.45 90 16:44 04.10.2021
1922 Clear 27 1020 55 10000 1.17 121 15:32 04.10.2021
1923 Clouds 28 1015 53 10000 0.89 135 14:44 04.10.2021
1924 Clouds 28 1015 49 10000 0.89 135 13:58 04.10.2021
1925 Clouds 28 1016 48 10000 0.45 90 13:31 04.10.2021
1926 Clouds 27 1016 50 10000 0.89 135 12:31 04.10.2021
1927 Clouds 26 1016 53 10000 1.79 90 11:32 04.10.2021
1928 Clouds 25 1016 56 10000 0.89 135 10:41 04.10.2021
1929 Clear 23 1016 63 10000 0.45 90 09:26 04.10.2021
1930 Clear 21 1013 73 10000 1.9 175 07:52 04.10.2021
1931 Clear 20 1015 77 10000 0.89 225 03:44 04.10.2021
1932 Clear 22 1013 75 10000 2.5 145 22:48 03.10.2021
1933 Clear 22 1013 73 10000 2.23 139 21:43 03.10.2021
1934 Clear 23 1013 73 10000 2 126 21:24 03.10.2021
1935 Clear 23 1013 75 10000 2 126 20:43 03.10.2021
1936 Clouds 24 1012 73 10000 2.03 116 19:33 03.10.2021
1937 Clouds 24 1012 70 10000 2.3 102 18:28 03.10.2021
1938 Clouds 25 1012 67 10000 2.3 102 17:31 03.10.2021
1939 Clouds 26 1015 60 10000 0.89 135 14:49 03.10.2021
1940 Clouds 26 1015 60 10000 2.24 90 14:28 03.10.2021
1941 Clouds 26 1012 58 10000 0.45 1 13:35 03.10.2021
1942 Clouds 26 1015 57 10000 0.89 90 12:43 03.10.2021
1943 Clouds 24 1015 63 10000 0.45 90 10:57 03.10.2021
1944 Clear 21 1015 77 10000 2.24 315 09:34 03.10.2021
1945 Clouds 20 1012 87 10000 1.84 173 05:25 03.10.2021
1946 Clouds 20 1013 89 10000 1.67 106 22:49 02.10.2021
1947 Rain 20 1015 88 10000 2.24 270 21:35 02.10.2021
1948 Clouds 20 1012 91 10000 1.74 28 20:18 02.10.2021
1949 Clouds 20 1012 91 10000 1.74 28 20:18 02.10.2021
1950 Clouds 21 1018 84 10000 1.61 9 18:56 02.10.2021
1951 Clouds 21 1018 84 10000 1.61 9 18:56 02.10.2021
1952 Clouds 22 1017 85 10000 1.41 0 18:18 02.10.2021
1953 Clouds 21 1017 82 10000 1.41 0 17:36 02.10.2021
1954 Clouds 24 1012 75 10000 1.19 357 16:22 02.10.2021
1955 Clouds 21 1011 81 10000 1.86 200 06:39 02.10.2021
1956 Clouds 25 1013 70 10000 0.89 12 15:37 30.09.2021
1957 Clouds 25 1014 69 10000 1.34 7 13:54 30.09.2021
1958 Clouds 25 1015 77 10000 1.34 28 11:43 30.09.2021
1959 Clouds 24 1015 80 10000 2.65 9 10:52 30.09.2021
1960 Clouds 23 1017 81 10000 3.29 13 10:20 30.09.2021
1961 Clouds 23 1016 78 10000 1.79 45 08:30 30.09.2021
1962 Clouds 22 1016 79 10000 0.89 338 07:34 30.09.2021
1963 Clouds 23 1015 77 10000 0.45 33 05:23 30.09.2021
1964 Clear 23 1016 79 10000 4.02 270 01:41 30.09.2021
1965 Clear 23 1016 82 10000 2.24 315 00:29 30.09.2021
1966 Clear 24 1014 78 10000 0.45 299 22:38 29.09.2021
1967 Clear 23 1016 80 10000 1.79 270 21:27 29.09.2021
1968 Clear 24 1013 75 10000 2.08 342 20:28 29.09.2021
1969 Clear 24 1013 74 10000 2.08 342 19:55 29.09.2021
1970 Clear 25 1013 72 10000 2.55 341 18:52 29.09.2021
1971 Clear 25 1012 68 10000 3 345 17:52 29.09.2021
1972 Clear 26 1012 65 10000 3.26 344 16:51 29.09.2021
1973 Clear 27 1012 63 10000 0.45 34 16:21 29.09.2021
1974 Clear 27 1012 61 10000 0.89 320 14:39 29.09.2021
1975 Clouds 27 1012 61 10000 0.89 322 13:58 29.09.2021
1976 Clouds 27 1013 62 10000 0.45 304 13:22 29.09.2021
1977 Clouds 27 1013 59 10000 3.2 327 12:36 29.09.2021
1978 Clouds 26 1013 69 10000 1.85 320 10:50 29.09.2021
1979 Clouds 26 1013 69 10000 1.85 320 10:50 29.09.2021
1980 Clouds 25 1013 73 10000 1.06 299 09:58 29.09.2021
1981 Clouds 25 1013 75 10000 1.06 299 09:35 29.09.2021
1982 Clouds 22 1012 84 10000 0.52 260 07:39 29.09.2021
1983 Clouds 23 1012 83 10000 0.75 319 04:39 29.09.2021
1984 Clouds 23 1013 88 10000 1.54 5 23:29 28.09.2021
1985 Clouds 24 1013 89 10000 1.92 0 22:24 28.09.2021
1986 Clouds 24 1013 89 10000 1.92 0 21:45 28.09.2021
1987 Clouds 24 1012 89 10000 2.58 358 20:43 28.09.2021
1988 Clouds 24 1012 89 10000 2.97 353 19:46 28.09.2021
1989 Clouds 25 1011 88 10000 1.34 4 18:51 28.09.2021
1990 Clouds 25 1011 87 10000 1.34 354 18:18 28.09.2021
1991 Clouds 26 1011 80 10000 1.79 5 16:38 28.09.2021
1992 Clear 26 1011 84 10000 4.03 328 14:37 28.09.2021
1993 Clear 26 1012 79 10000 3.83 316 13:19 28.09.2021
1994 Clouds 27 1011 70 10000 0.45 334 12:21 28.09.2021
1995 Clouds 27 1011 68 10000 0.45 300 11:47 28.09.2021
1996 Clouds 27 1011 68 10000 0.89 318 11:22 28.09.2021
1997 Clouds 26 1011 69 10000 3.24 304 10:21 28.09.2021
1998 Clouds 26 1011 69 10000 3.24 304 10:21 28.09.2021
1999 Clouds 26 1012 69 10000 0.89 13 10:21 28.09.2021
2000 Clouds 25 1011 74 10000 3.11 306 09:18 28.09.2021
2001 Clouds 25 1011 78 10000 3.11 306 08:39 28.09.2021
2002 Clouds 24 1011 80 10000 2.59 305 07:49 28.09.2021
2003 Clouds 24 1011 77 10000 0.45 281 05:41 28.09.2021
2004 Clouds 26 1011 75 10000 3.41 280 01:26 28.09.2021
2005 Clouds 26 1011 79 10000 3.09 248 00:26 28.09.2021
2006 Clouds 26 1012 75 10000 3.09 248 23:42 27.09.2021
2007 Clouds 26 1012 74 10000 0.45 353 23:22 27.09.2021
2008 Clouds 26 1011 69 10000 1.69 252 22:19 27.09.2021
2009 Clouds 26 1013 74 10000 1.79 248 20:45 27.09.2021
2010 Clouds 26 1013 74 10000 1.79 225 20:23 27.09.2021
2011 Clouds 26 1013 78 10000 2.24 315 19:30 27.09.2021
2012 Clouds 26 1013 78 10000 2.24 270 18:52 27.09.2021
2013 Clouds 27 1011 76 10000 0.51 267 17:33 27.09.2021
2014 Clouds 27 1011 75 10000 0.59 291 16:51 27.09.2021
2015 Clouds 28 1014 70 10000 0.89 180 15:46 27.09.2021
2016 Clouds 28 1014 71 10000 0.89 180 15:27 27.09.2021
2017 Clouds 28 1015 64 10000 0.45 90 13:35 27.09.2021
2018 Clouds 27 1015 69 10000 1.34 1 12:20 27.09.2021
2019 Clouds 26 1015 72 10000 1.34 90 10:42 27.09.2021
2020 Clouds 26 1012 86 10000 1.03 247 09:31 27.09.2021
2021 Clouds 23 1015 85 10000 1.97 136 06:33 27.09.2021
2022 Clouds 24 1016 81 10000 0.89 270 03:29 27.09.2021
2023 Clouds 25 1014 80 10000 2.66 225 23:41 26.09.2021
2024 Clouds 25 1015 78 10000 1.98 290 21:55 26.09.2021
2025 Clouds 25 1017 80 10000 0.45 90 21:26 26.09.2021
2026 Clouds 25 1017 79 10000 0.89 90 20:24 26.09.2021
2027 Clouds 25 1017 79 10000 1.34 90 19:53 26.09.2021
2028 Clouds 26 1017 79 10000 0.89 45 18:52 26.09.2021
2029 Clouds 26 1018 77 10000 0.45 15 17:59 26.09.2021
2030 Clouds 26 1015 76 10000 1.34 22 17:37 26.09.2021
2031 Clouds 27 1015 73 10000 1.34 4 17:18 26.09.2021
2032 Clouds 28 1017 67 10000 0.45 14 16:22 26.09.2021
2033 Clouds 28 1017 64 10000 0.89 2 15:22 26.09.2021
2034 Clouds 28 1018 66 10000 1.34 359 14:18 26.09.2021
2035 Clouds 28 1018 66 10000 1.79 2 13:42 26.09.2021
2036 Clouds 28 1018 64 10000 1.34 352 12:26 26.09.2021
2037 Clouds 28 1018 63 10000 0.45 90 11:53 26.09.2021
2038 Clouds 27 1018 68 10000 0.45 90 10:59 26.09.2021
2039 Clouds 26 1018 75 10000 0.89 90 09:38 26.09.2021
2040 Clouds 24 1018 80 10000 0.89 90 08:41 26.09.2021
2041 Clouds 25 1016 77 10000 1.7 134 00:29 26.09.2021
2042 Clouds 25 1015 77 10000 1.7 134 23:43 25.09.2021
2043 Clouds 25 1016 78 10000 2.07 130 22:39 25.09.2021
2044 Clear 25 1016 78 10000 1.44 118 22:18 25.09.2021
2045 Clear 25 1016 78 10000 1.44 118 22:18 25.09.2021
2046 Clear 25 1016 77 10000 1.44 118 21:40 25.09.2021
2047 Clouds 26 1015 75 10000 2 118 20:52 25.09.2021
2048 Clear 26 1015 74 10000 1.69 115 19:40 25.09.2021
2049 Clear 27 1015 71 10000 1.35 81 18:28 25.09.2021
2050 Clear 28 1014 68 10000 1.94 72 17:23 25.09.2021
2051 Clear 29 1017 64 10000 0.89 135 14:38 25.09.2021
2052 Clear 29 1017 62 10000 0.89 90 13:55 25.09.2021
2053 Clear 28 1017 62 10000 0.89 135 12:45 25.09.2021
2054 Clear 27 1017 64 10000 0.89 135 11:27 25.09.2021
2055 Clear 26 1017 69 10000 0.89 90 10:18 25.09.2021
2056 Clear 24 1017 77 10000 0.45 90 08:55 25.09.2021
2057 Clouds 23 1014 81 10000 2.04 131 07:47 25.09.2021
2058 Clear 23 1014 79 10000 2.1 123 00:52 25.09.2021
2059 Clear 24 1014 76 10000 2.91 122 22:18 24.09.2021
2060 Clear 24 1014 75 10000 2.91 122 21:32 24.09.2021
2061 Clear 24 1014 75 10000 3.04 115 20:32 24.09.2021
2062 Clear 25 1014 73 10000 2.65 106 19:31 24.09.2021
2063 Clear 26 1013 69 10000 1.62 79 18:20 24.09.2021
2064 Clear 26 1013 67 10000 1.63 79 17:50 24.09.2021
2065 Clear 27 1013 66 10000 1.63 79 17:31 24.09.2021
2066 Clear 27 1016 65 10000 0.45 90 15:39 24.09.2021
2067 Clear 27 1016 64 10000 1.34 90 13:27 24.09.2021
2068 Clear 26 1016 66 10000 0.89 135 12:43 24.09.2021
2069 Clear 26 1016 66 10000 0.89 90 12:25 24.09.2021
2070 Clear 25 1022 66 10000 0.89 135 10:53 24.09.2021
2071 Clear 24 1022 69 10000 1.34 180 09:55 24.09.2021
2072 Clear 22 1020 72 10000 1.86 137 08:21 24.09.2021
2073 Clear 20 1021 78 10000 0.45 270 06:59 24.09.2021
2074 Clear 20 1020 78 10000 2.06 113 05:57 24.09.2021
2075 Clear 20 1020 78 10000 0.45 270 05:57 24.09.2021
2076 Clear 22 1020 70 10000 1.56 144 03:56 24.09.2021
2077 Clear 22 1022 70 10000 2.04 124 22:38 23.09.2021
2078 Clear 22 1022 69 10000 2.65 103 21:59 23.09.2021
2079 Clear 22 1022 69 10000 2.65 103 21:59 23.09.2021
2080 Clear 22 1022 68 10000 0.89 90 21:20 23.09.2021
2081 Clear 22 1022 68 10000 0.89 90 21:20 23.09.2021
2082 Clear 24 1020 63 10000 2.75 86 20:32 23.09.2021
2083 Clear 24 1021 64 10000 1.79 90 18:36 23.09.2021
2084 Clear 25 1021 60 10000 1.34 135 16:39 23.09.2021
2085 Clear 26 1021 58 10000 0.89 180 15:19 23.09.2021
2086 Clear 26 1021 59 10000 2.68 180 14:52 23.09.2021
2087 Clear 26 1021 62 10000 3.58 135 13:27 23.09.2021
2088 Clear 25 1021 63 10000 4.02 135 12:57 23.09.2021
2089 Clear 26 1021 63 10000 3.58 90 12:37 23.09.2021
2090 Clear 26 1021 61 10000 2.68 180 12:18 23.09.2021
2091 Clear 26 1019 65 10000 1.27 27 10:31 23.09.2021
2092 Clear 24 1021 72 10000 1.79 90 09:57 23.09.2021
2093 Clear 25 1019 71 10000 1.16 32 09:38 23.09.2021
2094 Clouds 22 1019 82 10000 1.28 87 06:24 23.09.2021
2095 Clouds 22 1019 77 10000 1.31 36 00:21 23.09.2021
2096 Clouds 24 1018 74 10000 1.1 181 22:52 22.09.2021
2097 Clouds 24 1018 75 10000 1.99 151 22:20 22.09.2021
2098 Clouds 24 1018 76 10000 1.99 151 21:44 22.09.2021
2099 Clouds 24 1018 76 10000 2.53 92 20:58 22.09.2021
2100 Clouds 25 1018 74 10000 2.69 70 19:53 22.09.2021
2101 Clouds 25 1018 72 10000 2.24 60 19:27 22.09.2021
2102 Clouds 24 1019 78 10000 2.68 90 18:34 22.09.2021
2103 Clouds 26 1019 69 10000 3.58 292 17:33 22.09.2021
2104 Clouds 27 1018 65 10000 0.45 225 15:51 22.09.2021
2105 Clouds 28 1019 66 10000 0.89 90 14:28 22.09.2021
2106 Clouds 27 1020 72 10000 0.45 90 13:19 22.09.2021
2107 Clouds 27 1020 72 10000 0.45 90 13:19 22.09.2021
2108 Clouds 25 1021 76 10000 1.79 135 11:20 22.09.2021
2109 Clouds 26 1019 73 10000 3.18 98 09:32 22.09.2021
2110 Clouds 24 1020 79 10000 0.89 90 08:45 22.09.2021
2111 Clouds 24 1020 79 10000 0.89 90 08:45 22.09.2021
2112 Clouds 24 1019 76 10000 1.86 104 07:34 22.09.2021
2113 Clouds 23 1020 81 10000 1.36 103 06:51 22.09.2021
2114 Clouds 23 1020 81 10000 1.96 81 05:48 22.09.2021
2115 Clouds 24 1019 74 10000 2.08 76 04:20 22.09.2021
2116 Clouds 24 1019 73 10000 2.67 82 03:23 22.09.2021
2117 Clouds 23 1021 77 10000 2.69 103 23:54 21.09.2021
2118 Clouds 24 1021 76 10000 0.89 90 22:26 21.09.2021
2119 Clouds 25 1020 72 10000 4.19 105 20:43 21.09.2021
2120 Clouds 24 1020 73 10000 2.24 90 19:37 21.09.2021
2121 Clouds 26 1019 69 10000 3.39 95 19:18 21.09.2021
2122 Clear 27 1019 66 10000 3.61 68 16:48 21.09.2021
2123 Clear 26 1021 70 10000 2.68 135 15:57 21.09.2021
2124 Clear 27 1021 68 10000 0.89 135 14:59 21.09.2021
2125 Clear 27 1021 66 10000 1.34 135 14:40 21.09.2021
2126 Clear 27 1021 67 10000 0.89 90 13:40 21.09.2021
2127 Clear 27 1021 67 10000 0.89 135 12:45 21.09.2021
2128 Clear 26 1019 54 10000 2.42 80 10:44 21.09.2021
2129 Clear 25 1019 60 10000 2.29 90 09:28 21.09.2021
2130 Clear 23 1019 64 10000 2.33 89 07:40 21.09.2021
2131 Clear 21 1017 63 10000 1.65 70 05:18 21.09.2021
2132 Clouds 25 1018 61 10000 2.26 99 23:51 20.09.2021
2133 Clouds 25 1019 63 10000 1.98 27 21:52 20.09.2021
2134 Clouds 25 1019 63 10000 1.98 27 21:32 20.09.2021
2135 Clouds 25 1018 70 10000 2.32 27 19:55 20.09.2021
2136 Clouds 26 1017 70 10000 2.73 67 18:37 20.09.2021
2137 Clouds 25 1018 73 10000 3.03 49 17:30 20.09.2021
2138 Clouds 25 1018 72 10000 0.89 270 16:26 20.09.2021
2139 Clouds 26 1018 73 10000 0.89 270 15:47 20.09.2021
2140 Clouds 26 1018 73 10000 0.45 90 14:50 20.09.2021
2141 Clouds 27 1018 70 10000 0.89 315 12:53 20.09.2021
2142 Clouds 26 1018 71 10000 0.89 315 12:29 20.09.2021
2143 Clear 26 1018 76 10000 1.34 315 10:57 20.09.2021
2144 Clear 26 1018 63 10000 2.73 292 09:52 20.09.2021
2145 Clear 26 1018 62 10000 0.45 315 09:33 20.09.2021
2146 Clear 25 1017 62 10000 1.34 225 08:55 20.09.2021
2147 Clear 23 1016 63 10000 1.79 315 06:34 20.09.2021
2148 Clear 24 1017 82 10000 3.13 315 23:28 19.09.2021
2149 Clear 25 1016 81 10000 2.43 274 21:53 19.09.2021
2150 Clear 26 1016 81 10000 2.11 284 21:21 19.09.2021
2151 Clear 26 1016 82 10000 2.11 284 20:32 19.09.2021
2152 Clear 27 1014 79 10000 2.39 302 18:54 19.09.2021
2153 Clear 27 1014 80 10000 2.99 309 17:57 19.09.2021
2154 Clear 27 1016 80 10000 1.79 270 16:52 19.09.2021
2155 Clear 28 1015 73 10000 1.34 270 15:44 19.09.2021
2156 Clear 29 1015 69 10000 0.89 135 14:49 19.09.2021
2157 Clear 29 1015 67 10000 0.45 90 14:24 19.09.2021
2158 Clear 28 1015 69 10000 0.89 68 12:56 19.09.2021
2159 Clear 28 1015 70 10000 0.89 135 12:30 19.09.2021
2160 Clear 28 1015 67 10000 0.89 180 11:25 19.09.2021
2161 Clear 27 1015 67 10000 1.34 270 09:52 19.09.2021
2162 Clear 27 1015 70 10000 0.89 225 09:26 19.09.2021
2163 Clouds 24 1015 87 10000 0.45 315 06:49 19.09.2021
2164 Clouds 26 1015 72 10000 1.22 191 01:39 19.09.2021
2165 Clouds 27 1015 63 10000 2.68 270 23:25 18.09.2021
2166 Clouds 26 1014 60 10000 0.45 270 21:58 18.09.2021
2167 Clouds 27 1014 63 10000 0.89 45 20:48 18.09.2021
2168 Clouds 28 1013 61 10000 1.87 81 19:58 18.09.2021
2169 Clouds 27 1014 75 10000 1.87 81 19:37 18.09.2021
2170 Clouds 27 1014 75 10000 3.05 343 19:19 18.09.2021
2171 Clouds 27 1015 71 10000 3.05 343 18:30 18.09.2021
2172 Clouds 28 1014 67 10000 0.89 270 17:22 18.09.2021
2173 Clouds 29 1015 57 10000 2.68 0 15:45 18.09.2021
2174 Clouds 30 1014 57 10000 1.61 152 13:46 18.09.2021
2175 Clouds 31 1014 58 10000 1.16 150 13:24 18.09.2021
2176 Clouds 30 1015 48 10000 0.89 158 12:23 18.09.2021
2177 Clouds 29 1016 49 10000 1.79 270 11:31 18.09.2021
2178 Clouds 29 1016 49 10000 1.79 270 11:30 18.09.2021
2179 Clouds 28 1015 65 10000 0.89 112 10:31 18.09.2021
2180 Clouds 27 1015 60 10000 0.89 45 09:24 18.09.2021
2181 Clouds 26 1014 71 10000 2.38 146 08:28 18.09.2021
2182 Clouds 29 1014 44 10000 2.68 221 00:53 18.09.2021
2183 Clouds 29 1014 45 10000 2.14 200 23:56 17.09.2021
2184 Clouds 28 1015 45 10000 0.45 248 22:54 17.09.2021
2185 Clouds 28 1014 40 10000 2.5 155 22:25 17.09.2021
2186 Clouds 28 1016 47 10000 0.45 270 21:33 17.09.2021
2187 Clouds 27 1016 60 10000 3.91 154 19:52 17.09.2021
2188 Clouds 28 1016 59 10000 0.45 90 18:42 17.09.2021
2189 Clouds 30 1015 47 10000 0.45 90 16:47 17.09.2021
2190 Clouds 31 1015 42 10000 1.1 353 15:25 17.09.2021
2191 Clouds 31 1017 42 10000 0.45 180 11:53 17.09.2021
2192 Clouds 29 1017 45 10000 0.38 253 10:23 17.09.2021
2193 Clouds 29 1015 27 10000 1.13 269 07:48 17.09.2021
2194 Clouds 27 1014 41 10000 3.76 176 06:27 17.09.2021
2195 Clouds 27 1017 41 10000 4.53 167 00:33 17.09.2021
2196 Clouds 25 1019 60 10000 0.45 90 22:42 16.09.2021
2197 Clouds 25 1019 60 10000 2.14 152 22:24 16.09.2021
2198 Clouds 25 1020 58 10000 0.45 315 21:35 16.09.2021
2199 Clouds 26 1018 67 10000 2.12 145 20:30 16.09.2021
2200 Clouds 27 1020 55 10000 1.22 146 18:52 16.09.2021
2201 Clouds 29 1020 47 10000 0.89 270 18:19 16.09.2021
2202 Clouds 29 1020 52 10000 1.34 156 16:47 16.09.2021
2203 Clouds 29 1020 41 10000 0.89 158 14:51 16.09.2021
2204 Clouds 29 1020 40 10000 0.89 135 13:40 16.09.2021
2205 Clouds 29 1020 42 10000 1.34 135 12:46 16.09.2021
2206 Clouds 28 1020 43 10000 0.89 180 11:50 16.09.2021
2207 Clouds 28 1021 44 10000 0.89 90 10:56 16.09.2021
2208 Clouds 27 1021 46 10000 0.89 90 10:23 16.09.2021
2209 Clouds 27 1021 48 10000 0.45 90 09:31 16.09.2021
2210 Clouds 23 1021 50 10000 2.14 128 07:59 16.09.2021
2211 Clouds 23 1019 56 10000 1.45 154 06:58 16.09.2021
2212 Clouds 23 1019 57 10000 1.45 154 06:38 16.09.2021
2213 Clouds 22 1021 58 10000 0.45 292 03:22 16.09.2021
2214 Clouds 23 1020 63 10000 2.09 120 00:58 16.09.2021
2215 Clouds 23 1022 60 10000 0.45 270 23:30 15.09.2021
2216 Clouds 24 1021 66 10000 0.74 142 22:39 15.09.2021
2217 Clouds 24 1020 66 10000 1.29 164 21:31 15.09.2021
2218 Clouds 24 1020 68 10000 0.9 143 20:49 15.09.2021
2219 Clouds 24 1021 74 10000 0.87 107 19:33 15.09.2021
2220 Clouds 25 1021 71 10000 0.45 90 18:53 15.09.2021
2221 Clouds 26 1021 60 10000 0.45 315 17:42 15.09.2021
2222 Clouds 27 1021 55 10000 2.05 322 16:43 15.09.2021
2223 Clouds 27 1021 55 10000 2.05 322 16:43 15.09.2021
2224 Clouds 27 1020 56 10000 0.89 90 15:22 15.09.2021
2225 Clouds 28 1020 57 10000 0.89 90 14:42 15.09.2021
2226 Clouds 27 1021 62 10000 0.45 315 13:47 15.09.2021
2227 Clouds 27 1021 62 10000 0.89 180 13:28 15.09.2021
2228 Clouds 27 1021 58 10000 0.89 135 12:33 15.09.2021
2229 Clouds 26 1022 62 10000 1.34 135 11:51 15.09.2021
2230 Clouds 26 1022 62 10000 1.34 135 11:51 15.09.2021
2231 Clouds 26 1022 62 10000 0.45 90 10:58 15.09.2021
2232 Clouds 26 1022 63 10000 0.89 90 10:35 15.09.2021
2233 Clouds 24 1022 62 10000 0.89 90 08:51 15.09.2021
2234 Clouds 22 1022 63 10000 0.89 180 07:26 15.09.2021
2235 Clouds 23 1019 72 10000 1.81 138 02:21 15.09.2021
2236 Clouds 23 1020 73 10000 2.45 116 22:26 14.09.2021
2237 Clouds 23 1021 76 10000 1.73 99 21:26 14.09.2021
2238 Clouds 24 1019 71 10000 1.79 85 20:21 14.09.2021
2239 Clouds 25 1019 70 10000 2.06 61 19:23 14.09.2021
2240 Clouds 26 1018 66 10000 2.6 48 17:33 14.09.2021
2241 Clouds 26 1020 66 10000 2.24 135 16:43 14.09.2021
2242 Clear 26 1020 63 10000 0.45 90 15:24 14.09.2021
2243 Clear 27 1020 59 10000 1.34 90 14:19 14.09.2021
2244 Clear 26 1021 61 10000 0.89 180 11:47 14.09.2021
2245 Clear 25 1021 66 10000 2.24 90 10:44 14.09.2021
2246 Clear 25 1019 68 10000 1.33 85 09:49 14.09.2021
2247 Clear 21 1020 84 10000 0.45 90 07:53 14.09.2021
2248 Clear 23 1019 75 10000 0.91 59 02:20 14.09.2021
2249 Clear 24 1019 74 10000 0.24 317 23:29 13.09.2021
2250 Clear 24 1019 77 10000 0.47 13 22:28 13.09.2021
2251 Clear 24 1019 77 10000 0.47 13 21:56 13.09.2021
2252 Clear 23 1020 80 10000 0.45 315 21:32 13.09.2021
2253 Clear 24 1017 74 10000 1.56 1 19:38 13.09.2021
2254 Clear 25 1017 72 10000 1.92 16 18:45 13.09.2021
2255 Clear 26 1017 71 10000 2.72 3 17:28 13.09.2021
2256 Clear 26 1017 71 10000 2.72 3 16:49 13.09.2021
2257 Clear 26 1019 69 10000 2.68 315 14:45 13.09.2021
2258 Clear 26 1019 70 10000 2.68 225 11:44 13.09.2021
2259 Clear 25 1019 70 10000 2.24 270 10:40 13.09.2021
2260 Clear 23 1018 79 10000 2.24 225 08:23 13.09.2021
2261 Clear 23 1017 78 10000 1.79 270 00:34 13.09.2021
2262 Clear 23 1018 78 10000 0.45 315 22:51 12.09.2021
2263 Clear 23 1017 78 10000 0.45 248 22:22 12.09.2021
2264 Clear 23 1017 76 10000 1.79 270 20:53 12.09.2021
2265 Clear 23 1017 76 10000 1.34 315 20:19 12.09.2021
2266 Clear 25 1015 71 10000 2.42 344 19:30 12.09.2021
2267 Clear 25 1015 70 10000 2.77 346 18:55 12.09.2021
2268 Clear 26 1014 69 10000 3.71 353 17:18 12.09.2021
2269 Clear 25 1016 69 10000 2.24 315 15:54 12.09.2021
2270 Clear 27 1015 67 10000 4.22 345 14:39 12.09.2021
2271 Clear 26 1015 70 10000 3.84 335 12:39 12.09.2021
2272 Clear 26 1015 69 10000 2.81 334 10:30 12.09.2021
2273 Clear 23 1016 80 10000 1.79 315 08:39 12.09.2021
2274 Clouds 21 1016 81 10000 0.89 315 07:26 12.09.2021
2275 Clouds 22 1016 78 10000 5.2 28 00:47 12.09.2021
2276 Clouds 22 1016 86 10000 0.45 0 22:39 11.09.2021
2277 Clouds 22 1016 81 10000 1.79 270 21:39 11.09.2021
2278 Clouds 23 1013 73 10000 2.84 17 19:39 11.09.2021
2279 Clouds 24 1012 76 10000 1.79 11 17:57 11.09.2021
2280 Clouds 23 1014 81 10000 1.34 45 17:27 11.09.2021
2281 Clouds 24 1013 80 10000 0.45 90 15:35 11.09.2021
2282 Clouds 26 1013 78 10000 2.33 236 13:22 11.09.2021
2283 Rain 23 1013 63 10000 2.53 226 11:41 11.09.2021
2284 Clouds 26 1014 73 10000 3.63 211 10:27 11.09.2021
2285 Clear 24 1015 78 10000 0.89 90 08:42 11.09.2021
2286 Clouds 23 1014 80 10000 3.46 202 07:43 11.09.2021
2287 Clouds 22 1016 84 10000 0.89 292 04:23 11.09.2021
2288 Rain 23 1016 84 10000 3.51 118 22:37 10.09.2021
2289 Rain 22 1018 86 10000 0.45 0 21:57 10.09.2021
2290 Rain 23 1016 82 10000 3.49 115 21:36 10.09.2021
2291 Clouds 25 1016 72 10000 3.01 88 19:30 10.09.2021
2292 Clouds 25 1016 72 10000 3.01 88 19:30 10.09.2021
2293 Clouds 25 1015 71 10000 1.41 43 17:54 10.09.2021
2294 Clouds 24 1016 79 10000 3.58 90 16:27 10.09.2021
2295 Clouds 29 1015 49 10000 1.76 20 13:26 10.09.2021
2296 Clouds 24 1018 64 10000 0.45 45 10:32 10.09.2021
2297 Clouds 23 1016 64 10000 1.68 151 07:52 10.09.2021
2298 Clouds 23 1015 65 10000 1.74 130 06:37 10.09.2021
2299 Clouds 24 1016 63 10000 2.71 117 23:59 09.09.2021
2300 Clouds 24 1018 66 10000 2.58 130 21:49 09.09.2021
2301 Clear 25 1016 61 10000 2.4 128 20:48 09.09.2021
2302 Clouds 25 1015 61 10000 2.57 112 20:26 09.09.2021
2303 Clouds 26 1015 57 10000 1.63 128 18:41 09.09.2021
2304 Clouds 27 1015 58 10000 1.29 114 17:47 09.09.2021
2305 Clouds 26 1017 58 10000 2.24 90 16:28 09.09.2021
2306 Clouds 27 1016 56 10000 1.13 166 15:24 09.09.2021
2307 Clouds 26 1018 47 10000 0.45 90 12:24 09.09.2021
2308 Clouds 27 1016 50 10000 2.98 95 11:22 09.09.2021
2309 Clouds 25 1017 57 10000 1.05 74 09:35 09.09.2021
2310 Clear 21 1018 66 10000 1.46 185 07:45 09.09.2021
2311 Clear 21 1017 67 10000 1.9 194 05:47 09.09.2021
2312 Clouds 22 1019 70 10000 0.45 90 00:33 09.09.2021
2313 Clouds 23 1017 65 10000 2.04 91 21:49 08.09.2021
2314 Clouds 23 1019 69 10000 0.89 90 20:49 08.09.2021
2315 Clouds 24 1017 61 10000 0.58 320 19:46 08.09.2021
2316 Clouds 25 1017 60 10000 0.34 292 18:47 08.09.2021
2317 Clouds 26 1017 63 10000 1.48 337 18:25 08.09.2021
2318 Clouds 26 1017 65 10000 1.48 337 17:40 08.09.2021
2319 Clouds 26 1017 61 10000 3.05 10 15:35 08.09.2021
2320 Clouds 26 1020 56 10000 1.34 90 13:45 08.09.2021
2321 Clouds 26 1020 52 10000 0.89 315 12:41 08.09.2021
2322 Clouds 26 1020 55 10000 1.34 135 12:23 08.09.2021
2323 Clouds 25 1020 58 10000 0.89 90 11:26 08.09.2021
2324 Clouds 26 1019 57 10000 0.5 140 10:31 08.09.2021
2325 Clouds 26 1019 61 10000 0.5 140 09:56 08.09.2021
2326 Clouds 21 1020 74 10000 1.25 196 07:45 08.09.2021
2327 Clouds 21 1020 75 10000 0.89 248 07:19 08.09.2021
2328 Clouds 22 1021 74 10000 0.45 90 23:32 07.09.2021
2329 Clear 23 1021 73 10000 2.01 86 22:19 07.09.2021
2330 Clear 23 1020 70 10000 2.34 72 20:42 07.09.2021
2331 Clear 25 1018 62 10000 3.55 52 19:26 07.09.2021
2332 Clear 26 1018 59 10000 3.55 52 18:37 07.09.2021
2333 Clear 26 1018 58 10000 3.94 48 17:35 07.09.2021
2334 Clear 27 1018 53 10000 4.39 36 15:57 07.09.2021
2335 Clear 27 1018 57 10000 4.01 34 14:53 07.09.2021
2336 Clear 27 1019 61 10000 3.69 34 13:52 07.09.2021
2337 Clear 25 1021 68 10000 0.89 90 12:20 07.09.2021
2338 Clear 26 1019 68 10000 1.63 47 10:59 07.09.2021
2339 Clear 25 1019 70 10000 1.59 51 10:18 07.09.2021
2340 Clear 22 1020 80 10000 0.45 90 07:47 07.09.2021
2341 Clear 23 1018 72 10000 0.86 31 06:20 07.09.2021
2342 Clear 23 1019 75 10000 1.65 18 02:39 07.09.2021
2343 Clear 22 1020 80 10000 1.79 359 02:19 07.09.2021
2344 Clear 23 1021 78 10000 1.65 17 23:52 06.09.2021
2345 Clear 23 1021 78 10000 1.17 29 23:31 06.09.2021
2346 Clear 24 1019 74 10000 1.17 29 22:51 06.09.2021
2347 Clear 23 1020 76 10000 1.49 38 22:21 06.09.2021
2348 Clear 24 1020 78 10000 1.95 44 20:36 06.09.2021
2349 Clear 25 1019 75 10000 3.01 24 19:20 06.09.2021
2350 Clear 26 1018 71 10000 3.01 24 18:36 06.09.2021
2351 Clear 27 1017 68 10000 3.26 12 17:52 06.09.2021
2352 Clear 27 1017 67 10000 3.35 360 16:23 06.09.2021
2353 Clear 27 1019 67 10000 1.34 315 15:25 06.09.2021
2354 Clear 27 1018 65 10000 3.21 0 13:44 06.09.2021
2355 Clear 27 1018 66 10000 3.05 1 12:45 06.09.2021
2356 Clear 25 1018 75 10000 2.27 4 10:36 06.09.2021
2357 Clear 23 1018 84 10000 2.03 4 07:48 06.09.2021
2358 Clear 23 1018 84 10000 2.24 270 04:36 06.09.2021
2359 Clear 24 1019 80 10000 2.34 13 23:23 05.09.2021
2360 Clear 25 1017 76 10000 2.34 13 22:33 05.09.2021
2361 Clear 24 1018 79 10000 0.89 315 21:56 05.09.2021
2362 Clear 24 1018 78 10000 0.89 315 21:21 05.09.2021
2363 Clear 25 1015 74 10000 3.34 349 19:45 05.09.2021
2364 Clear 27 1015 73 10000 3.97 336 17:53 05.09.2021
2365 Clear 26 1016 73 10000 4.92 315 16:33 05.09.2021
2366 Clear 26 1016 73 10000 1.79 315 15:21 05.09.2021
2367 Clear 27 1017 75 10000 0.89 315 12:45 05.09.2021
2368 Clear 28 1015 73 10000 3.14 329 11:44 05.09.2021
2369 Clear 27 1015 69 10000 2.74 322 10:42 05.09.2021
2370 Clear 27 1015 72 10000 2.5 311 09:35 05.09.2021
2371 Clear 26 1015 76 10000 2.57 296 08:35 05.09.2021
2372 Clear 24 1014 79 10000 2.53 266 06:33 05.09.2021
2373 Clear 23 1015 87 10000 2.68 315 00:41 05.09.2021
2374 Clear 23 1016 88 10000 0.89 315 23:59 04.09.2021
2375 Clear 25 1015 79 10000 0.03 151 23:25 04.09.2021
2376 Clear 25 1015 77 10000 0.03 151 22:35 04.09.2021
2377 Clear 24 1016 81 10000 0.89 90 21:18 04.09.2021
2378 Clouds 27 1014 73 10000 0.9 164 19:33 04.09.2021
2379 Clouds 28 1013 69 10000 0.64 122 17:25 04.09.2021
2380 Clouds 29 1013 63 10000 0.38 350 15:41 04.09.2021
2381 Clouds 27 1015 62 10000 1.13 219 11:54 04.09.2021
2382 Clouds 25 1015 66 10000 2.24 315 10:55 04.09.2021
2383 Rain 18 1019 97 10000 2.68 135 08:18 04.09.2021
2384 Clouds 25 1018 71 10000 1.79 135 00:50 04.09.2021
2385 Clouds 25 1018 69 10000 0.89 90 00:19 04.09.2021
2386 Clouds 26 1019 69 10000 1.98 219 23:22 03.09.2021
2387 Clear 26 1017 67 10000 1.76 150 21:43 03.09.2021
2388 Clouds 26 1016 67 10000 0.89 90 21:23 03.09.2021
2389 Clouds 26 1017 68 10000 0.89 90 20:30 03.09.2021
2390 Clear 26 1016 68 10000 1.34 45 19:38 03.09.2021
2391 Clear 28 1016 62 10000 2.15 73 18:33 03.09.2021
2392 Clear 28 1018 66 10000 0.89 135 17:21 03.09.2021
2393 Clear 29 1018 64 10000 0.89 135 15:42 03.09.2021
2394 Clear 29 1019 62 10000 1.79 90 14:40 03.09.2021
2395 Clouds 30 1019 48 10000 0.86 43 11:21 03.09.2021
2396 Clouds 27 1018 65 10000 0.45 90 10:18 03.09.2021
2397 Clouds 25 1018 76 10000 1.39 136 08:22 03.09.2021
2398 Clouds 24 1018 75 10000 0.59 218 06:50 03.09.2021
2399 Clear 26 1020 68 10000 2.2 137 23:58 02.09.2021
2400 Clear 26 1020 66 10000 1.95 116 22:21 02.09.2021
2401 Clear 26 1020 66 10000 2.23 109 20:59 02.09.2021
2402 Clear 28 1019 59 10000 1.6 57 18:52 02.09.2021
2403 Clear 29 1019 56 10000 2.33 27 16:57 02.09.2021
2404 Clear 28 1021 61 10000 0.89 90 15:32 02.09.2021
2405 Clear 28 1021 60 10000 3.13 135 13:42 02.09.2021
2406 Clear 28 1019 59 10000 1.94 56 11:46 02.09.2021
2407 Clear 28 1020 60 10000 2.1 83 11:24 02.09.2021
2408 Clear 26 1021 70 10000 1.34 90 09:20 02.09.2021
2409 Clouds 24 1019 71 10000 1.68 123 07:36 02.09.2021
2410 Clouds 23 1021 77 10000 3.47 120 06:40 02.09.2021
2411 Clear 24 1020 74 10000 0.89 90 02:38 02.09.2021
2412 Clear 24 1020 73 10000 2.65 113 01:50 02.09.2021
2413 Clear 24 1021 70 10000 3.67 113 23:41 01.09.2021
2414 Clear 25 1020 70 10000 0.45 90 23:23 01.09.2021
2415 Clear 25 1020 70 10000 3.41 107 22:30 01.09.2021
2416 Clear 25 1020 70 10000 3.41 107 22:30 01.09.2021
2417 Clear 25 1020 68 10000 3.19 104 21:32 01.09.2021
2418 Clouds 26 1019 62 10000 1.79 90 19:37 01.09.2021
2419 Clouds 28 1019 52 10000 2.68 180 17:55 01.09.2021
2420 Clouds 28 1019 52 10000 1.79 135 16:59 01.09.2021
2421 Clouds 28 1019 52 10000 4.02 135 16:36 01.09.2021
2422 Clear 29 1019 51 10000 3.13 135 15:18 01.09.2021
2423 Clouds 28 1020 48 10000 1.79 45 11:48 01.09.2021
2424 Clouds 28 1019 54 10000 2.84 94 10:39 01.09.2021
2425 Clouds 26 1018 68 10000 3.11 87 08:42 01.09.2021
2426 Clouds 23 1018 71 10000 1.76 100 06:59 01.09.2021
2427 Clear 25 1017 70 10000 1.29 141 23:33 31.08.2021
2428 Clear 25 1017 69 10000 1.58 117 22:23 31.08.2021
2429 Clear 26 1016 66 10000 1.44 50 20:19 31.08.2021
2430 Clear 26 1016 65 10000 1.66 60 19:43 31.08.2021
2431 Clear 27 1017 63 10000 1.34 135 17:52 31.08.2021
2432 Clear 27 1017 62 10000 0.89 315 17:26 31.08.2021
2433 Clear 27 1017 62 10000 1.79 270 16:41 31.08.2021
2434 Clear 28 1017 54 10000 2.97 332 15:39 31.08.2021
2435 Clear 27 1018 53 10000 3.58 292 12:43 31.08.2021
2436 Clear 27 1018 52 10000 0.89 90 11:20 31.08.2021
2437 Clear 27 1018 52 10000 3.58 90 10:43 31.08.2021
2438 Clear 25 1017 57 10000 0.54 97 09:41 31.08.2021
2439 Clear 23 1018 65 10000 1.01 174 07:57 31.08.2021
2440 Clear 23 1016 66 10000 0.6 223 05:57 31.08.2021
2441 Clear 24 1016 62 10000 0.71 193 23:36 30.08.2021
2442 Clear 23 1018 64 10000 0.89 90 22:52 30.08.2021
2443 Clear 24 1017 63 10000 0.49 114 21:38 30.08.2021
2444 Clear 25 1016 59 10000 0.6 82 20:41 30.08.2021
2445 Clear 26 1015 57 10000 0.96 354 19:54 30.08.2021
2446 Clear 27 1014 56 10000 1.65 343 19:24 30.08.2021
2447 Clear 26 1016 53 10000 1.79 90 17:51 30.08.2021
2448 Clear 27 1015 51 10000 0.45 90 16:29 30.08.2021
2449 Clear 27 1015 51 10000 1.34 292 15:45 30.08.2021
2450 Clouds 27 1015 49 10000 0.89 315 13:59 30.08.2021
2451 Clouds 27 1015 49 10000 0.45 45 13:21 30.08.2021
2452 Clouds 27 1016 51 10000 3.13 90 11:29 30.08.2021
2453 Clear 22 1013 64 10000 0.35 41 04:57 30.08.2021
2454 Clear 23 1014 66 10000 0.89 292 21:57 29.08.2021
2455 Clear 25 1012 62 10000 2.35 358 20:54 29.08.2021
2456 Clouds 25 1011 61 10000 3.96 339 19:28 29.08.2021
2457 Clear 27 1011 61 10000 4.44 335 18:28 29.08.2021
2458 Clear 26 1012 60 10000 1.79 315 15:58 29.08.2021
2459 Clear 27 1012 59 10000 3.58 315 14:29 29.08.2021
2460 Clear 27 1011 59 10000 2.68 270 13:55 29.08.2021
2461 Clear 26 1011 60 10000 2.68 90 12:58 29.08.2021
2462 Clear 27 1012 62 10000 4.02 292 12:18 29.08.2021
2463 Clear 27 1012 62 10000 4.02 292 12:18 29.08.2021
2464 Clear 27 1012 64 10000 3.58 315 11:40 29.08.2021
2465 Clear 27 1010 65 10000 4.76 313 10:48 29.08.2021
2466 Clear 27 1010 65 10000 4.48 302 10:29 29.08.2021
2467 Clear 27 1010 62 10000 4.48 302 09:32 29.08.2021
2468 Clear 26 1009 58 10000 4.2 224 04:19 29.08.2021
2469 Clear 26 1012 65 10000 0.89 315 22:57 28.08.2021
2470 Clear 27 1011 67 10000 0.89 270 20:33 28.08.2021
2471 Clear 28 1011 60 10000 2.24 315 19:29 28.08.2021
2472 Clear 28 1011 64 10000 4.02 292 18:24 28.08.2021
2473 Clear 28 1011 66 10000 4.92 315 17:46 28.08.2021
2474 Clear 28 1011 65 10000 5.36 315 16:44 28.08.2021
2475 Clear 29 1011 60 10000 3.13 292 15:20 28.08.2021
2476 Clear 28 1012 60 10000 4.47 315 13:58 28.08.2021
2477 Clear 29 1012 58 10000 3.58 315 13:39 28.08.2021
2478 Clear 30 1012 46 10000 3.13 315 12:30 28.08.2021
2479 Clear 29 1012 50 10000 4.2 271 10:47 28.08.2021
2480 Clear 28 1012 56 10000 3.78 258 09:48 28.08.2021
2481 Clear 26 1012 66 10000 3.35 234 07:56 28.08.2021
2482 Clouds 24 1015 59 10000 2.68 315 23:49 27.08.2021
2483 Clouds 25 1014 65 10000 3.58 315 21:29 27.08.2021
2484 Clouds 25 1014 67 10000 4.47 315 20:52 27.08.2021
2485 Clear 27 1012 62 10000 3.55 291 19:34 27.08.2021
2486 Clear 27 1012 60 10000 3.45 292 18:39 27.08.2021
2487 Clear 27 1014 58 10000 3.58 315 17:54 27.08.2021
2488 Clear 28 1013 51 10000 3.13 292 16:35 27.08.2021
2489 Clear 28 1013 59 10000 3.13 315 14:46 27.08.2021
2490 Clear 28 1013 58 10000 3.13 270 13:30 27.08.2021
2491 Clear 28 1013 54 10000 2.68 270 11:58 27.08.2021
2492 Clear 29 1013 46 10000 5.38 281 10:58 27.08.2021
2493 Clear 29 1013 49 10000 5.38 281 10:36 27.08.2021
2494 Clear 27 1012 60 10000 3.41 238 08:57 27.08.2021
2495 Clear 25 1013 66 10000 3.13 315 08:35 27.08.2021
2496 Clear 24 1012 66 10000 1.79 0 05:37 27.08.2021
2497 Clear 25 1013 70 10000 2.68 292 00:47 27.08.2021
2498 Clear 25 1013 71 10000 1.79 315 00:28 27.08.2021
2499 Clear 26 1013 75 10000 1.79 315 22:26 26.08.2021
2500 Clear 26 1013 76 10000 2.24 292 21:47 26.08.2021
2501 Clear 28 1011 68 10000 3.79 287 19:42 26.08.2021
2502 Clouds 28 1011 71 10000 3.58 315 18:26 26.08.2021
2503 Clouds 28 1011 67 10000 3.58 315 17:25 26.08.2021
2504 Clouds 29 1012 65 10000 2.68 315 16:27 26.08.2021
2505 Clouds 29 1012 64 10000 4.92 315 14:46 26.08.2021
2506 Clouds 31 1011 63 10000 1.79 270 13:20 26.08.2021
2507 Clouds 30 1011 68 10000 3.58 135 12:33 26.08.2021
2508 Clouds 30 1012 56 10000 0.45 0 11:38 26.08.2021
2509 Clouds 29 1011 57 10000 3.58 248 08:50 26.08.2021
2510 Clouds 28 1012 65 10000 0.89 270 08:19 26.08.2021
2511 Clouds 27 1013 71 10000 1.34 90 23:43 25.08.2021
2512 Clear 27 1013 72 10000 1.79 90 22:40 25.08.2021
2513 Clear 27 1014 73 10000 0.89 90 22:22 25.08.2021
2514 Clear 27 1013 72 10000 1.79 90 20:57 25.08.2021
2515 Clear 27 1013 73 10000 2.24 90 20:29 25.08.2021
2516 Clear 29 1012 67 10000 1.08 340 18:58 25.08.2021
2517 Clouds 29 1013 68 10000 1.79 90 17:53 25.08.2021
2518 Clear 30 1012 62 10000 2.24 135 15:53 25.08.2021
2519 Clear 30 1013 61 10000 4.02 135 15:32 25.08.2021
2520 Clear 30 1013 60 10000 3.58 135 14:46 25.08.2021
2521 Clear 31 1013 56 10000 1.79 90 13:53 25.08.2021
2522 Clear 30 1014 54 10000 1.34 270 11:42 25.08.2021
2523 Clear 30 1014 55 10000 1.79 90 11:18 25.08.2021
2524 Clear 29 1013 50 10000 2.68 90 09:59 25.08.2021
2525 Clear 28 1013 51 10000 2.68 90 09:35 25.08.2021
2526 Clear 28 1013 49 10000 0.89 315 08:35 25.08.2021
2527 Clouds 25 1013 47 10000 0.45 270 06:37 25.08.2021
2528 Clear 26 1013 62 10000 3.58 315 01:20 25.08.2021
2529 Clear 27 1013 54 10000 1.79 315 23:19 24.08.2021
2530 Clear 27 1013 65 10000 0.89 90 21:18 24.08.2021
2531 Clear 29 1012 61 10000 1.06 112 19:55 24.08.2021
2532 Clear 29 1012 60 10000 0.95 37 19:31 24.08.2021
2533 Clear 31 1012 56 10000 0.92 322 17:54 24.08.2021
2534 Clear 31 1012 55 10000 1.92 315 17:22 24.08.2021
2535 Clear 31 1013 45 10000 3.58 315 15:56 24.08.2021
2536 Clear 32 1013 38 10000 0.45 22 13:51 24.08.2021
2537 Clear 32 1014 38 10000 1.39 352 12:45 24.08.2021
2538 Clear 31 1015 37 10000 0.89 90 11:21 24.08.2021
2539 Clear 31 1015 39 10000 1.34 315 10:46 24.08.2021
2540 Clear 30 1015 36 10000 1.79 292 09:53 24.08.2021
2541 Clear 27 1014 32 10000 1.27 201 07:41 24.08.2021
2542 Clear 26 1014 35 10000 0.89 180 05:50 24.08.2021
2543 Clear 26 1015 37 10000 2.24 292 03:31 24.08.2021
2544 Clear 25 1016 56 10000 1.34 338 23:52 23.08.2021
2545 Clear 27 1014 61 10000 1.92 154 22:46 23.08.2021
2546 Clear 27 1015 66 10000 2.09 139 21:36 23.08.2021
2547 Clear 27 1015 65 10000 0.89 90 19:41 23.08.2021
2548 Clear 29 1015 61 10000 0.89 90 17:49 23.08.2021
2549 Clear 30 1016 51 10000 2.24 135 15:45 23.08.2021
2550 Clear 30 1017 50 10000 2.68 225 13:56 23.08.2021
2551 Clear 30 1017 47 10000 2.24 90 12:32 23.08.2021
2552 Clear 29 1018 51 10000 2.24 90 10:50 23.08.2021
2553 Clear 28 1018 54 10000 1.34 90 10:21 23.08.2021
2554 Clear 26 1018 55 10000 0.45 90 08:49 23.08.2021
2555 Clear 24 1018 59 10000 1.81 115 07:41 23.08.2021
2556 Clear 24 1017 64 10000 1.18 112 06:41 23.08.2021
2557 Clear 24 1018 72 10000 1.53 134 01:57 23.08.2021
2558 Clear 25 1018 74 10000 1.69 130 00:46 23.08.2021
2559 Clear 26 1019 73 10000 1.45 105 22:42 22.08.2021
2560 Clear 26 1019 73 10000 1.45 105 22:42 22.08.2021
2561 Clear 26 1019 73 10000 1.36 79 21:30 22.08.2021
2562 Clear 27 1018 71 10000 1.83 37 20:19 22.08.2021
2563 Clear 28 1017 64 10000 2.74 26 18:33 22.08.2021
2564 Clear 29 1019 60 10000 3.58 45 15:56 22.08.2021
2565 Clear 29 1019 58 10000 3.58 90 14:54 22.08.2021
2566 Clear 29 1019 60 10000 3.13 45 13:50 22.08.2021
2567 Clear 29 1019 61 10000 0.89 90 13:19 22.08.2021
2568 Clear 29 1020 62 10000 1.79 90 12:48 22.08.2021
2569 Clear 29 1019 60 10000 2.96 43 11:45 22.08.2021
2570 Clear 29 1019 61 10000 2.65 48 11:20 22.08.2021
2571 Clear 27 1019 70 10000 2.07 60 08:44 22.08.2021
2572 Clear 26 1018 75 10000 1.51 67 07:53 22.08.2021
2573 Clear 25 1018 77 10000 1.31 82 04:32 22.08.2021
2574 Clear 26 1019 71 10000 1.93 102 22:38 21.08.2021
2575 Clear 27 1019 70 10000 2.02 91 21:41 21.08.2021
2576 Clear 28 1017 63 10000 2.91 49 18:58 21.08.2021
2577 Clear 29 1017 62 10000 2.91 49 18:39 21.08.2021
2578 Clear 30 1017 60 10000 3.61 34 16:58 21.08.2021
2579 Clear 30 1017 60 10000 3.61 34 16:32 21.08.2021
2580 Clear 30 1017 59 10000 3.79 30 15:39 21.08.2021
2581 Clear 30 1018 59 10000 3.88 30 15:21 21.08.2021
2582 Clear 30 1018 57 10000 3.65 34 13:43 21.08.2021
2583 Clear 30 1018 59 10000 3.37 41 12:40 21.08.2021
2584 Clear 29 1018 60 10000 3.2 47 11:36 21.08.2021
2585 Clear 27 1017 68 10000 2.52 55 08:54 21.08.2021
2586 Clear 25 1018 73 10000 0.45 90 00:46 21.08.2021
2587 Clear 27 1017 68 10000 2.23 82 22:31 20.08.2021
2588 Clear 27 1017 68 10000 0.89 68 19:49 20.08.2021
2589 Clear 27 1016 65 10000 0.89 90 17:45 20.08.2021
2590 Clear 29 1015 56 10000 0.89 315 14:35 20.08.2021
2591 Clouds 29 1015 59 10000 1.79 180 12:44 20.08.2021
2592 Clear 28 1015 59 10000 2.24 135 11:29 20.08.2021
2593 Clear 29 1014 62 10000 2.93 86 10:23 20.08.2021
2594 Clear 28 1014 66 10000 2.94 92 09:28 20.08.2021
2595 Clear 27 1014 70 10000 2.94 92 08:36 20.08.2021
2596 Clouds 25 1013 77 10000 1.45 80 04:46 20.08.2021
2597 Clouds 25 1014 76 10000 0.84 64 04:20 20.08.2021
2598 Clouds 25 1015 76 10000 0.45 90 23:40 19.08.2021
2599 Clouds 25 1015 76 10000 0.89 90 22:38 19.08.2021
2600 Clouds 25 1015 74 10000 1.34 90 21:55 19.08.2021
2601 Clear 27 1013 69 10000 1.73 43 20:20 19.08.2021
2602 Clear 27 1014 70 10000 0.89 0 18:24 19.08.2021
2603 Clear 27 1014 70 10000 4.02 315 16:55 19.08.2021
2604 Clear 28 1014 62 10000 3.58 315 14:37 19.08.2021
2605 Clear 29 1014 61 10000 1.79 315 13:18 19.08.2021
2606 Clear 28 1014 62 10000 1.79 315 12:29 19.08.2021
2607 Clear 28 1014 60 10000 2.68 90 10:56 19.08.2021
2608 Clear 27 1014 64 10000 1.79 112 09:49 19.08.2021
2609 Clear 28 1013 64 10000 1.14 110 09:28 19.08.2021
2610 Clear 27 1013 71 10000 1.14 110 08:33 19.08.2021
2611 Clear 24 1014 82 10000 0.45 270 03:53 19.08.2021
2612 Clear 25 1014 79 10000 0.89 315 02:20 19.08.2021
2613 Clear 26 1014 74 10000 1.17 285 23:29 18.08.2021
2614 Clear 26 1014 72 10000 1.17 285 22:36 18.08.2021
2615 Clear 27 1014 72 10000 0.93 332 21:34 18.08.2021
2616 Clouds 26 1013 75 10000 3.13 315 20:20 18.08.2021
2617 Clear 28 1013 69 10000 2.77 352 19:26 18.08.2021
2618 Clear 27 1014 74 10000 3.58 315 18:34 18.08.2021
2619 Clear 28 1013 71 10000 2.24 315 16:56 18.08.2021
2620 Clear 29 1013 65 10000 4.5 342 15:40 18.08.2021
2621 Clear 28 1013 69 10000 6.26 0 15:21 18.08.2021
2622 Clear 30 1013 59 10000 4.65 314 13:21 18.08.2021
2623 Clear 30 1013 58 10000 4.65 314 12:38 18.08.2021
2624 Clear 30 1013 56 10000 4.43 291 12:19 18.08.2021
2625 Clear 28 1012 62 10000 3.47 261 08:50 18.08.2021
2626 Clear 27 1013 64 10000 3.16 232 02:37 18.08.2021
2627 Clear 27 1013 71 10000 3.17 256 22:40 17.08.2021
2628 Clear 27 1013 71 10000 3.23 270 21:59 17.08.2021
2629 Clear 28 1013 70 10000 3.62 280 21:22 17.08.2021
2630 Clear 28 1012 70 10000 4.49 283 20:24 17.08.2021
2631 Clear 31 1012 46 10000 6.23 281 17:54 17.08.2021
2632 Clear 31 1012 49 10000 7.23 282 17:26 17.08.2021
2633 Clear 34 1012 35 10000 8.18 280 15:54 17.08.2021
2634 Clear 34 1012 32 10000 8.18 280 15:35 17.08.2021
2635 Clouds 35 1012 25 10000 7.76 272 12:45 17.08.2021
2636 Clouds 34 1012 32 10000 4.46 244 10:59 17.08.2021
2637 Clouds 32 1012 32 10000 4.55 214 09:20 17.08.2021
2638 Clouds 31 1012 33 10000 4.08 208 07:30 17.08.2021
2639 Clear 30 1014 45 10000 2.25 162 23:28 16.08.2021
2640 Clear 29 1014 49 10000 2.25 162 22:54 16.08.2021
2641 Clear 30 1014 54 10000 2.25 162 22:35 16.08.2021
2642 Clear 29 1014 48 10000 2.06 161 21:47 16.08.2021
2643 Clear 29 1014 55 10000 1.59 155 20:52 16.08.2021
2644 Clouds 30 1013 58 10000 1.46 327 19:29 16.08.2021
2645 Clouds 32 1013 56 10000 1.46 327 18:50 16.08.2021
2646 Clear 32 1013 51 10000 1.94 329 17:55 16.08.2021
2647 Clear 32 1015 41 10000 2.68 292 16:57 16.08.2021
2648 Clear 31 1015 47 10000 1.34 90 15:28 16.08.2021
2649 Clear 32 1015 51 10000 1.79 135 14:27 16.08.2021
2650 Clear 32 1015 47 10000 0.89 90 13:21 16.08.2021
2651 Clear 32 1016 47 10000 0.89 180 12:29 16.08.2021
2652 Clear 31 1017 43 10000 1.79 90 10:36 16.08.2021
2653 Clear 29 1015 46 10000 1.43 292 08:43 16.08.2021
2654 Clear 28 1017 27 10000 1 248 07:30 16.08.2021
2655 Clear 27 1017 30 10000 0.89 292 06:21 16.08.2021
2656 Clear 26 1018 42 10000 0.89 270 01:44 16.08.2021
2657 Clear 28 1017 69 10000 0.99 100 21:37 15.08.2021
2658 Clear 28 1016 77 10000 0.59 10 20:27 15.08.2021
2659 Clear 30 1016 69 10000 1.79 135 18:42 15.08.2021
2660 Clear 30 1016 68 10000 1.34 90 17:50 15.08.2021
2661 Clear 31 1016 68 10000 1.79 90 17:22 15.08.2021
2662 Clear 31 1016 62 10000 3.13 90 15:58 15.08.2021
2663 Clear 31 1016 53 10000 0.89 90 14:42 15.08.2021
2664 Clear 32 1017 50 10000 3.13 225 13:37 15.08.2021
2665 Clear 31 1018 49 10000 1.34 180 10:54 15.08.2021
2666 Clear 29 1018 43 10000 1.34 90 08:45 15.08.2021
2667 Clear 27 1019 54 10000 0.45 90 01:23 15.08.2021
2668 Clear 27 1019 64 10000 0.45 90 00:33 15.08.2021
2669 Clear 28 1019 54 10000 1.62 98 21:38 14.08.2021
2670 Clear 29 1018 42 10000 1.43 54 20:29 14.08.2021
2671 Clear 30 1018 43 10000 0.45 90 19:34 14.08.2021
2672 Clear 33 1018 29 10000 0.89 90 18:37 14.08.2021
2673 Clear 32 1018 40 10000 1.79 135 16:50 14.08.2021
2674 Clear 32 1018 50 10000 1.79 180 15:37 14.08.2021
2675 Clear 32 1019 54 10000 1.79 225 14:24 14.08.2021
2676 Clear 32 1020 47 10000 2.68 90 11:45 14.08.2021
2677 Clear 30 1020 55 10000 1.34 90 09:54 14.08.2021
2678 Clear 27 1020 49 10000 0.89 270 05:35 14.08.2021
2679 Clear 27 1021 68 10000 0.45 270 23:52 13.08.2021
2680 Clear 28 1021 61 10000 0.89 270 22:18 13.08.2021
2681 Clear 29 1020 62 10000 1.43 80 20:24 13.08.2021
2682 Clear 31 1020 54 10000 0.89 90 18:46 13.08.2021
2683 Clear 32 1020 44 10000 1.79 90 17:23 13.08.2021
2684 Clear 32 1020 48 10000 3.13 180 15:57 13.08.2021
2685 Clear 32 1021 44 10000 0.45 248 11:58 13.08.2021
2686 Clear 31 1021 44 10000 0.89 90 11:18 13.08.2021
2687 Clear 29 1020 57 10000 0.74 46 08:41 13.08.2021
2688 Clear 29 1019 54 10000 0.26 30 08:21 13.08.2021
2689 Clear 27 1020 49 10000 0.89 270 06:40 13.08.2021
2690 Clear 27 1020 69 10000 0.45 270 02:29 13.08.2021
2691 Clear 28 1020 69 10000 0.45 90 21:53 12.08.2021
2692 Clear 29 1018 76 10000 1.59 100 20:43 12.08.2021
2693 Clear 30 1018 75 10000 0.45 90 19:54 12.08.2021
2694 Clear 31 1018 66 10000 0.89 90 18:41 12.08.2021
2695 Clear 32 1018 64 10000 0.89 180 16:57 12.08.2021
2696 Clear 32 1018 65 10000 1.34 135 16:28 12.08.2021
2697 Clear 31 1017 74 10000 2.68 112 13:53 12.08.2021
2698 Clear 31 1018 72 10000 3.13 135 11:42 12.08.2021
2699 Clear 31 1017 75 10000 2.21 20 09:43 12.08.2021
2700 Clear 29 1017 60 10000 1.52 40 07:53 12.08.2021
2701 Clear 29 1017 61 10000 0.45 90 00:30 12.08.2021
2702 Clear 29 1017 77 10000 0.84 282 21:56 11.08.2021
2703 Clouds 32 1015 61 10000 2.76 309 19:36 11.08.2021
2704 Clouds 32 1015 55 10000 2.04 334 18:27 11.08.2021
2705 Clouds 32 1015 55 10000 2.04 334 18:27 11.08.2021
2706 Clouds 32 1015 60 10000 0.45 90 15:38 11.08.2021
2707 Clouds 32 1015 60 10000 2.5 321 15:20 11.08.2021
2708 Clouds 33 1016 52 10000 0.89 90 14:20 11.08.2021
2709 Clouds 37 1016 34 10000 6.71 315 12:30 11.08.2021
2710 Clouds 37 1016 37 10000 4.01 306 11:46 11.08.2021
2711 Clear 37 1016 29 10000 3.37 287 11:21 11.08.2021
2712 Clear 33 1016 27 10000 2.24 315 09:43 11.08.2021
2713 Clear 29 1016 60 10000 0.89 225 07:23 11.08.2021
2714 Clear 35 1016 32 10000 3.32 195 22:53 10.08.2021
2715 Clear 37 1016 15 10000 2.85 178 22:28 10.08.2021
2716 Clear 33 1016 35 10000 2.65 166 20:57 10.08.2021
2717 Clear 33 1016 52 10000 2.26 147 19:33 10.08.2021
2718 Clear 34 1017 40 10000 0.89 90 18:29 10.08.2021
2719 Clear 37 1018 38 10000 1.34 90 15:48 10.08.2021
2720 Clear 36 1018 32 10000 1.79 90 14:41 10.08.2021
2721 Clouds 34 1019 46 10000 1.79 90 11:53 10.08.2021
2722 Clouds 32 1018 51 10000 1.2 85 09:48 10.08.2021
2723 Clouds 30 1019 33 10000 0.45 90 06:47 10.08.2021
2724 Clouds 28 1017 59 10000 3.44 152 04:58 10.08.2021
2725 Clear 29 1020 41 10000 0.89 270 23:41 09.08.2021
2726 Clear 30 1020 36 10000 0.89 270 21:54 09.08.2021
2727 Clear 31 1020 34 10000 0.45 315 21:32 09.08.2021
2728 Clear 32 1018 34 10000 1.96 124 19:35 09.08.2021
2729 Clear 33 1019 32 10000 0.89 90 17:19 09.08.2021
2730 Clear 33 1019 37 10000 1.79 90 15:33 09.08.2021
2731 Clear 33 1020 47 10000 1.34 90 13:37 09.08.2021
2732 Clear 32 1020 54 10000 1.79 90 12:51 09.08.2021
2733 Clear 32 1019 44 10000 2.24 135 10:43 09.08.2021
2734 Clouds 28 1018 57 10000 0.89 90 08:26 09.08.2021
2735 Clouds 29 1017 45 10000 4.08 130 23:26 08.08.2021
2736 Clear 30 1017 49 10000 3.67 70 21:25 08.08.2021
2737 Clear 31 1017 48 10000 1.79 90 19:29 08.08.2021
2738 Clear 32 1016 50 10000 1.79 158 16:54 08.08.2021
2739 Clear 33 1015 37 10000 3.13 135 15:31 08.08.2021
2740 Clear 34 1014 38 10000 2.54 347 13:23 08.08.2021
2741 Clear 36 1013 27 10000 0.4 350 11:25 08.08.2021
2742 Clear 29 1014 25 10000 1.34 225 06:45 08.08.2021
2743 Clear 28 1013 25 10000 0.89 270 05:37 08.08.2021
2744 Clear 30 1013 31 10000 0.89 270 00:31 08.08.2021
2745 Clear 29 1011 48 10000 2.74 131 22:20 07.08.2021
2746 Clear 29 1012 50 10000 0.89 270 21:41 07.08.2021
2747 Clear 30 1012 48 10000 0.89 90 20:35 07.08.2021
2748 Clear 31 1012 52 10000 1.79 135 17:37 07.08.2021
2749 Clear 31 1012 47 10000 2.68 135 16:42 07.08.2021
2750 Clear 31 1012 48 10000 0.89 90 14:27 07.08.2021
2751 Clear 31 1012 48 10000 3.58 90 13:31 07.08.2021
2752 Clear 30 1013 36 10000 1.34 90 10:24 07.08.2021
2753 Clear 24 1013 40 10000 0.45 270 05:45 07.08.2021
2754 Clear 26 1010 57 10000 0.45 270 23:55 06.08.2021
2755 Clear 28 1008 64 10000 1.77 84 21:25 06.08.2021
2756 Clear 28 1008 64 10000 1.51 27 20:27 06.08.2021
2757 Clear 29 1008 60 10000 1.51 27 19:56 06.08.2021
2758 Clear 29 1009 54 10000 0.45 357 18:30 06.08.2021
2759 Clear 29 1012 51 10000 5.81 315 15:19 06.08.2021
2760 Clear 30 1010 39 10000 1.34 13 10:41 06.08.2021
2761 Clear 29 1010 36 10000 1.34 315 09:26 06.08.2021
2762 Clouds 26 1008 41 10000 1.79 256 07:19 06.08.2021
2763 Clear 26 1009 69 10000 1.31 166 23:31 05.08.2021
2764 Clear 27 1010 66 10000 0.4 87 21:32 05.08.2021
2765 Clear 28 1009 64 10000 0.45 5 19:59 05.08.2021
2766 Clouds 29 1009 57 10000 1.34 10 18:58 05.08.2021
2767 Clouds 29 1014 42 10000 4.47 270 16:21 05.08.2021
2768 Clouds 31 1011 44 10000 0.89 42 14:18 05.08.2021
2769 Clouds 29 1012 72 10000 0.45 358 10:56 05.08.2021
2770 Clear 29 1009 75 10000 0.45 355 08:32 05.08.2021
2771 Clouds 30 1008 59 10000 3.76 242 04:34 05.08.2021
2772 Clear 30 1008 69 10000 2.69 283 23:19 04.08.2021
2773 Clear 33 1013 43 10000 2.31 165 21:43 04.08.2021
2774 Clear 34 1012 34 10000 3.72 146 21:18 04.08.2021
2775 Clouds 40 1013 32 10000 2.51 203 17:25 04.08.2021
2776 Clouds 40 1013 32 10000 2.51 203 17:25 04.08.2021
2777 Clouds 41 1013 31 10000 2.68 214 15:35 04.08.2021
2778 Clouds 39 1013 33 10000 3.02 221 14:41 04.08.2021
2779 Clear 33 1010 39 10000 0.89 8 09:51 04.08.2021
2780 Clouds 30 1010 44 10000 0.89 20 23:32 03.08.2021
2781 Clear 31 1013 43 10000 1.79 45 20:33 03.08.2021
2782 Clouds 32 1013 38 10000 1.79 90 19:46 03.08.2021
2783 Clouds 33 1014 37 10000 0.89 90 17:38 03.08.2021
2784 Clouds 33 1018 39 10000 5.36 158 14:58 03.08.2021
2785 Clouds 29 1017 54 10000 3.58 135 11:44 03.08.2021
2786 Clouds 29 1015 58 10000 4.95 74 10:39 03.08.2021
2787 Clouds 28 1012 79 10000 3.34 115 23:48 02.08.2021
2788 Clear 30 1012 69 10000 4.47 135 17:32 02.08.2021
2789 Clear 31 1013 66 10000 2.68 135 15:47 02.08.2021
2790 Clear 30 1013 68 10000 0.45 271 13:39 02.08.2021
2791 Clear 30 1013 71 10000 0.45 358 11:58 02.08.2021
2792 Clear 29 1013 72 10000 0.45 351 10:58 02.08.2021
2793 Clear 29 1012 70 10000 3.13 135 09:47 02.08.2021
2794 Clouds 30 1015 46 10000 2.29 162 21:43 01.08.2021
2795 Clouds 33 1012 31 10000 3.3 288 18:18 01.08.2021
2796 Clouds 37 1012 26 10000 0.89 315 13:18 01.08.2021
2797 Clouds 37 1013 19 10000 1.79 90 11:37 01.08.2021
2798 Clouds 30 1010 43 10000 0.89 315 04:53 01.08.2021
2799 Clouds 30 1010 48 10000 5.36 315 03:47 01.08.2021
2800 Clear 30 1009 65 10000 2.01 211 22:45 31.07.2021
2801 Clear 31 1008 63 10000 1 50 19:59 31.07.2021
2802 Clear 33 1008 49 10000 0.89 13 16:40 31.07.2021
2803 Clear 33 1011 52 10000 1.79 135 15:38 31.07.2021
2804 Clear 33 1009 53 10000 3.58 135 12:21 31.07.2021
2805 Clear 26 1009 80 10000 0.45 270 06:18 31.07.2021
2806 Clear 26 1009 80 10000 0.45 270 06:18 31.07.2021
2807 Clear 29 1009 71 10000 1.42 215 23:27 30.07.2021
2808 Clear 29 1012 67 10000 1.33 277 20:26 30.07.2021
2809 Clear 33 1012 32 10000 2.24 135 16:33 30.07.2021
2810 Clear 31 1012 30 10000 2.28 147 22:26 29.07.2021
2811 Clear 31 1012 34 10000 0.13 247 08:44 29.07.2021
2812 Clear 28 1013 41 10000 1.79 270 04:53 29.07.2021
2813 Clear 28 1013 43 10000 0.89 270 04:28 29.07.2021
2814 Clear 30 1012 65 10000 1.29 72 19:55 28.07.2021
2815 Clear 31 1016 55 10000 2.35 355 17:18 28.07.2021
2816 Clear 30 1015 49 10000 1.34 90 09:56 28.07.2021
2817 Clear 28 1015 52 10000 0.45 315 23:56 27.07.2021
2818 Clear 29 1016 51 10000 2.07 144 21:36 27.07.2021
2819 Clear 30 1018 50 10000 0.89 90 18:26 27.07.2021
2820 Clear 32 1016 55 10000 2.24 112 14:51 27.07.2021
2821 Clear 30 1016 62 10000 2.68 90 10:36 27.07.2021
2822 Clear 28 1014 35 10000 1.34 270 03:46 27.07.2021
2823 Clouds 34 1016 28 10000 1.79 135 15:34 26.07.2021
2824 Clouds 34 1016 28 10000 1.79 135 15:34 26.07.2021
2825 Clouds 33 1014 23 10000 0.89 225 10:59 26.07.2021
2826 Clear 28 1012 59 10000 2.06 144 21:44 25.07.2021
2827 Clear 29 1012 64 10000 0.45 90 20:54 25.07.2021
2828 Clear 33 1012 41 10000 2.55 134 17:45 25.07.2021
2829 Clear 33 1012 40 10000 3.58 135 15:27 25.07.2021
2830 Clear 31 1012 37 10000 1.34 90 10:19 25.07.2021
2831 Clear 28 1010 42 10000 0.87 202 08:18 25.07.2021
2832 Clear 29 1012 63 10000 1.74 102 20:23 24.07.2021
2833 Clear 29 1013 61 10000 0.45 90 19:36 24.07.2021
2834 Clear 30 1014 54 10000 1.79 90 11:27 24.07.2021
2835 Clear 28 1016 69 10000 1.79 90 17:36 23.07.2021
2836 Clear 30 1013 61 10000 1.34 8 14:35 23.07.2021
2837 Clear 29 1014 65 10000 1.34 10 12:40 23.07.2021
2838 Clear 29 1014 65 10000 1.34 10 12:40 23.07.2021
2839 Clear 27 1015 58 10000 1.79 315 22:51 22.07.2021
2840 Clear 30 1016 54 10000 1.79 19 14:58 22.07.2021
2841 Clear 29 1017 47 10000 0.89 5 11:19 22.07.2021
2842 Clear 27 1017 47 10000 1.34 90 08:34 22.07.2021
2843 Clear 27 1016 72 10000 1.71 102 22:35 21.07.2021
2844 Clear 26 1017 73 10000 1.77 93 21:42 21.07.2021
2845 Clear 26 1017 73 10000 1.4 83 21:22 21.07.2021
2846 Clear 29 1016 50 10000 3.58 158 11:27 21.07.2021
2847 Clear 27 1015 71 10000 1.99 68 09:19 21.07.2021
2848 Clear 25 1013 76 10000 0.67 92 05:45 21.07.2021
2849 Clear 27 1013 72 10000 0.85 86 21:47 20.07.2021
2850 Clear 28 1015 57 10000 1.79 90 16:36 20.07.2021
2851 Clear 30 1012 50 10000 0.89 12 15:27 20.07.2021
2852 Clear 28 1012 48 10000 1.34 90 11:23 20.07.2021
2853 Clear 25 1012 68 10000 0.89 90 07:57 20.07.2021
2854 Clear 24 1009 76 10000 0.85 88 03:19 20.07.2021
2855 Clear 27 1008 72 10000 0.89 13 18:37 19.07.2021
2856 Clear 28 1007 65 10000 1.34 4 12:50 19.07.2021
2857 Clear 24 1005 82 10000 1.38 249 07:27 19.07.2021
2858 Clear 26 1005 66 10000 0.45 16 17:21 18.07.2021
2859 Clouds 26 1004 74 10000 1.34 18 10:53 18.07.2021
2860 Clouds 24 1007 68 10000 0.45 8 22:58 17.07.2021
2861 Clouds 25 1007 69 10000 1.34 21 21:59 17.07.2021
2862 Clouds 25 1007 68 10000 0.89 342 21:41 17.07.2021
2863 Clouds 27 1007 58 10000 0.45 337 16:52 17.07.2021
2864 Clouds 27 1008 62 10000 1.34 295 11:31 17.07.2021
2865 Clear 22 1008 85 10000 3.67 300 04:48 17.07.2021
2866 Clear 27 1013 48 10000 5.59 304 17:41 16.07.2021
2867 Clear 29 1011 46 10000 0.45 294 13:19 16.07.2021
2868 Clear 24 1011 59 10000 0.81 182 07:25 16.07.2021
2869 Clear 26 1013 65 10000 1.93 86 20:39 15.07.2021
2870 Clear 27 1015 48 10000 1.34 28 13:51 15.07.2021
2871 Clear 26 1014 62 10000 0.45 351 09:52 15.07.2021
2872 Clouds 23 1015 68 10000 2.7 60 00:32 15.07.2021
2873 Clouds 25 1019 63 10000 1.34 90 16:56 14.07.2021
2874 Clouds 25 1015 68 10000 0.89 90 12:49 14.07.2021
2875 Clouds 26 1012 79 10000 0.89 350 04:44 14.07.2021
2876 Clouds 29 1010 51 10000 3.13 292 21:22 13.07.2021
2877 Clouds 30 1011 55 10000 0.99 130 19:54 13.07.2021
2878 Clouds 32 1008 37 10000 3.58 45 19:27 13.07.2021
2879 Clouds 32 1008 40 10000 3.13 315 18:45 13.07.2021
2880 Clouds 32 1008 47 10000 1.79 358 18:24 13.07.2021
2881 Clouds 31 1011 46 10000 3.58 292 17:39 13.07.2021
2882 Clear 32 1010 37 10000 1.79 180 09:50 13.07.2021
2883 Clear 27 1012 53 10000 0.89 270 01:45 13.07.2021
2884 Clear 29 1011 52 10000 2.18 99 19:59 12.07.2021
2885 Clear 32 1012 40 10000 1.79 90 15:21 12.07.2021
2886 Clear 28 1014 50 10000 1.34 135 09:57 12.07.2021
2887 Clear 26 1013 69 10000 1.24 124 21:59 11.07.2021
2888 Clear 27 1013 65 10000 0.45 27 19:46 11.07.2021
2889 Clear 23 1013 75 10000 0.45 315 04:42 11.07.2021
2890 Clear 27 1012 64 10000 0.45 14 19:57 10.07.2021
2891 Clear 28 1014 57 10000 3.13 135 10:43 10.07.2021
2892 Clear 25 1014 77 10000 1.97 69 07:24 10.07.2021
2893 Clear 26 1015 83 10000 1.39 74 22:36 09.07.2021
2894 Clear 28 1016 74 10000 1.34 23 18:19 09.07.2021
2895 Clear 28 1017 81 10000 2.68 15 14:47 09.07.2021
2896 Clear 27 1015 83 10000 1.15 155 03:58 09.07.2021
2897 Clouds 28 1016 82 10000 2.46 312 23:48 08.07.2021
2898 Clouds 29 1015 66 10000 0.56 168 21:39 08.07.2021
2899 Clear 29 1018 60 10000 5.36 315 18:55 08.07.2021
2900 Clouds 32 1016 51 10000 2.24 135 13:59 08.07.2021
2901 Clouds 32 1016 53 10000 2.68 90 13:31 08.07.2021
2902 Clouds 31 1016 51 10000 0.89 90 12:38 08.07.2021
2903 Clouds 31 1016 48 10000 3.58 112 11:27 08.07.2021
2904 Clouds 28 1016 65 10000 1.79 315 07:45 08.07.2021
2905 Clear 26 1015 79 10000 2.55 142 04:41 08.07.2021
2906 Clear 28 1013 70 10000 3.3 143 23:45 07.07.2021
2907 Clear 28 1014 69 10000 0.45 90 22:20 07.07.2021
2908 Clear 28 1014 70 10000 1.87 109 21:46 07.07.2021
2909 Clear 28 1014 71 10000 0.45 90 21:26 07.07.2021
2910 Clear 28 1014 65 10000 0.45 90 20:21 07.07.2021
2911 Clear 30 1014 58 10000 0.89 90 19:31 07.07.2021
2912 Clear 31 1014 52 10000 1.79 180 18:58 07.07.2021
2913 Clear 32 1013 54 10000 1.34 90 16:30 07.07.2021
2914 Clear 32 1013 57 10000 0.89 135 15:24 07.07.2021
2915 Clear 31 1014 59 10000 1.79 90 12:24 07.07.2021
2916 Clear 27 1012 67 10000 0.89 0 07:37 07.07.2021
2917 Clear 25 1012 69 10000 0.89 270 05:56 07.07.2021
2918 Clear 26 1011 77 10000 1.47 131 02:59 07.07.2021
2919 Clear 28 1011 68 10000 3.15 115 20:55 06.07.2021
2920 Clear 28 1012 64 10000 0.45 135 19:18 06.07.2021
2921 Clear 29 1012 61 10000 0.89 90 18:44 06.07.2021
2922 Clear 29 1012 59 10000 0.89 135 18:22 06.07.2021
2923 Clear 30 1012 57 10000 1.79 90 13:37 06.07.2021
2924 Clear 28 1013 63 10000 2.68 90 10:27 06.07.2021
2925 Clear 27 1013 66 10000 0.45 90 09:39 06.07.2021
2926 Clear 26 1012 70 10000 2.54 76 08:32 06.07.2021
2927 Clear 24 1011 62 10000 1.12 103 04:50 06.07.2021
2928 Clear 25 1013 67 10000 1.01 42 23:58 05.07.2021
2929 Clear 26 1012 74 10000 0.76 348 21:59 05.07.2021
2930 Clear 27 1014 66 10000 4.47 315 17:22 05.07.2021
2931 Clear 29 1011 57 10000 1.34 26 14:29 05.07.2021
2932 Clouds 27 1011 39 10000 4.33 250 06:21 05.07.2021
2933 Clouds 27 1011 33 10000 4.21 250 05:42 05.07.2021
2934 Clouds 27 1010 44 10000 0.45 346 02:48 05.07.2021
2935 Clouds 28 1010 60 10000 1.91 213 21:52 04.07.2021
2936 Clouds 30 1010 53 10000 0.89 90 18:51 04.07.2021
2937 Clear 32 1012 39 10000 2.44 297 15:39 04.07.2021
2938 Clear 33 1011 32 10000 1.5 289 11:43 04.07.2021
2939 Clear 29 1011 43 10000 0.55 208 09:23 04.07.2021
2940 Clear 26 1014 61 10000 1.46 119 23:31 03.07.2021
2941 Clear 26 1014 60 10000 0.45 90 22:34 03.07.2021
2942 Clear 30 1017 51 10000 3.58 180 14:19 03.07.2021
2943 Clear 29 1018 57 10000 0.89 90 12:38 03.07.2021
2944 Clear 26 1013 58 10000 1.79 90 09:29 03.07.2021
2945 Clear 26 1014 61 10000 1.34 90 08:46 03.07.2021
2946 Clear 25 1013 51 10000 0.89 315 02:46 03.07.2021
2947 Clouds 31 1016 30 10000 4.92 315 12:51 02.07.2021
2948 Clouds 26 1012 47 10000 1.34 90 07:40 02.07.2021
2949 Clouds 24 1011 47 10000 0.89 292 04:38 02.07.2021
2950 Clouds 26 1010 66 10000 2.44 136 22:33 01.07.2021
2951 Clouds 26 1010 70 10000 2.46 119 21:51 01.07.2021
2952 Clouds 27 1010 67 10000 2.71 110 20:45 01.07.2021
2953 Clouds 28 1012 56 10000 0.89 90 19:21 01.07.2021
2954 Clouds 27 1017 57 10000 1.34 90 18:49 01.07.2021
2955 Clouds 28 1016 57 10000 1.79 135 17:52 01.07.2021
2956 Clear 28 1017 59 10000 3.13 158 17:18 01.07.2021
2957 Clear 29 1017 55 10000 3.58 135 15:25 01.07.2021
2958 Clouds 30 1012 55 10000 1.79 135 14:23 01.07.2021
2959 Clouds 29 1012 44 10000 3.58 90 10:55 01.07.2021
2960 Clouds 26 1009 92 10000 1.89 73 06:56 01.07.2021
2961 Clouds 26 1009 91 10000 0.45 9 23:23 30.06.2021
2962 Clouds 26 1009 92 10000 0.89 31 22:20 30.06.2021
2963 Clouds 26 1008 93 10000 0.45 54 21:22 30.06.2021
2964 Clouds 27 1008 87 10000 0.89 29 20:27 30.06.2021
2965 Clouds 28 1006 80 10000 2.26 291 18:54 30.06.2021
2966 Clouds 31 1007 70 10000 1.71 1 14:26 30.06.2021
2967 Clouds 31 1007 73 10000 1.57 41 13:23 30.06.2021
2968 Clouds 26 1008 85 10000 1.53 290 08:18 30.06.2021
2969 Clouds 28 1007 74 10000 0.45 26 21:40 29.06.2021
2970 Clouds 29 1013 65 10000 1.34 308 18:36 29.06.2021
2971 Clouds 31 1013 61 10000 3.34 299 17:43 29.06.2021
2972 Clouds 32 1014 59 10000 4.28 286 16:36 29.06.2021
2973 Clouds 34 1014 42 10000 4.29 286 15:49 29.06.2021
2974 Clouds 33 1007 60 10000 3.76 172 13:59 29.06.2021
2975 Clouds 31 1010 69 10000 1.79 135 13:19 29.06.2021
2976 Clouds 27 1011 76 10000 4.02 0 00:41 29.06.2021
2977 Clouds 27 1009 80 10000 3.81 254 21:47 28.06.2021
2978 Clouds 29 1010 65 10000 0.92 339 19:53 28.06.2021
2979 Clouds 30 1015 56 10000 1.79 180 17:32 28.06.2021
2980 Clouds 34 1010 44 10000 1.34 225 15:22 28.06.2021
2981 Clouds 33 1011 50 10000 0.89 330 14:20 28.06.2021
2982 Clouds 29 1010 80 10000 1.79 90 09:36 28.06.2021
2983 Clouds 27 1010 77 10000 0.45 270 23:46 27.06.2021
2984 Clouds 28 1010 71 10000 1.76 137 21:51 27.06.2021
2985 Clouds 28 1015 67 10000 0.95 255 19:42 27.06.2021
2986 Clouds 29 1014 66 10000 0.89 225 16:54 27.06.2021
2987 Clouds 30 1014 60 10000 1.79 135 14:23 27.06.2021
2988 Clouds 30 1015 54 10000 0.89 90 09:33 27.06.2021
2989 Clouds 27 1009 81 10000 2.06 94 23:30 26.06.2021
2990 Clouds 27 1010 69 10000 1.83 174 21:24 26.06.2021
2991 Clouds 27 1010 66 10000 0.9 264 20:42 26.06.2021
2992 Clouds 29 1009 67 10000 0.45 90 19:25 26.06.2021
2993 Clouds 29 1011 75 10000 1.34 158 15:39 26.06.2021
2994 Clouds 28 1011 79 10000 1.34 90 12:57 26.06.2021
2995 Clouds 29 1012 72 10000 1.79 90 09:58 26.06.2021
2996 Clouds 27 1009 71 10000 2.49 266 06:20 26.06.2021
2997 Clouds 29 1017 55 10000 2.77 274 21:23 25.06.2021
2998 Clouds 32 1016 68 10000 2.03 108 19:56 25.06.2021
2999 Clouds 34 1015 29 10000 3.27 313 17:58 25.06.2021
3000 Clouds 36 1015 30 10000 3.48 307 16:56 25.06.2021
3001 Clouds 33 1018 33 10000 1.79 90 15:47 25.06.2021
3002 Clouds 34 1017 31 10000 1.4 58 13:19 25.06.2021
3003 Clouds 31 1014 53 10000 0.45 90 09:36 25.06.2021
3004 Clouds 27 1015 71 10000 1.34 348 07:22 25.06.2021
3005 Clouds 26 1012 72 10000 0.89 315 03:56 25.06.2021
3006 Clouds 28 1012 71 10000 1.77 227 22:52 24.06.2021
3007 Clouds 27 1020 51 10000 0.45 270 21:48 24.06.2021
3008 Clouds 29 1019 51 10000 2.04 141 20:41 24.06.2021
3009 Clouds 31 1018 48 10000 1.55 323 19:35 24.06.2021
3010 Clouds 32 1018 48 10000 2.88 344 17:21 24.06.2021
3011 Clouds 33 1013 47 10000 0.45 330 15:22 24.06.2021
3012 Rain 31 1014 53 10000 0.89 90 14:50 24.06.2021
3013 Clouds 30 1014 68 10000 0.89 90 12:30 24.06.2021
3014 Clouds 30 1015 61 10000 4.47 225 09:45 24.06.2021
3015 Clouds 27 1012 80 10000 4.93 266 08:26 24.06.2021
3016 Clouds 27 1011 66 10000 3.78 285 06:29 24.06.2021
3017 Clouds 28 1017 54 10000 4.05 136 23:31 23.06.2021
3018 Clouds 29 1018 50 10000 0.97 254 22:18 23.06.2021
3019 Clouds 30 1018 52 10000 3.09 269 20:58 23.06.2021
3020 Clouds 29 1012 56 10000 0.89 90 19:22 23.06.2021
3021 Clouds 31 1011 53 10000 1.34 90 18:27 23.06.2021
3022 Clouds 32 1010 52 10000 1.34 350 16:52 23.06.2021
3023 Clouds 32 1010 49 10000 3.13 225 14:30 23.06.2021
3024 Clouds 31 1010 52 10000 3.13 90 12:37 23.06.2021
3025 Clouds 28 1015 64 10000 1.79 135 10:49 23.06.2021
3026 Clouds 29 1010 58 10000 5.1 111 09:20 23.06.2021
3027 Clouds 27 1011 62 10000 0.89 90 08:38 23.06.2021
3028 Clouds 26 1011 69 10000 0.89 248 07:48 23.06.2021
3029 Clear 25 1009 71 10000 0.7 77 04:35 23.06.2021
3030 Clear 26 1010 63 10000 0.89 315 00:49 23.06.2021
3031 Clear 26 1014 59 10000 0.45 270 23:58 22.06.2021
3032 Clear 26 1014 58 10000 0.45 90 22:47 22.06.2021
3033 Clear 26 1014 58 10000 0.45 90 22:29 22.06.2021
3034 Clear 26 1014 59 10000 0.98 120 21:39 22.06.2021
3035 Clear 26 1012 83 10000 4.12 20 20:27 22.06.2021
3036 Clear 27 1013 69 10000 0.89 90 18:59 22.06.2021
3037 Clear 28 1013 57 10000 0.89 90 18:28 22.06.2021
3038 Clear 29 1013 57 10000 1.34 135 17:27 22.06.2021
3039 Clear 29 1013 60 10000 1.34 90 16:48 22.06.2021
3040 Clear 29 1013 56 10000 1.79 135 14:54 22.06.2021
3041 Clouds 28 1013 46 10000 2.24 225 14:25 22.06.2021
3042 Clouds 29 1013 43 10000 2.24 135 13:34 22.06.2021
3043 Clouds 32 1007 38 10000 2.68 135 11:53 22.06.2021
3044 Clouds 31 1007 43 10000 1.79 90 10:37 22.06.2021
3045 Clouds 28 1007 55 10000 1.74 281 08:28 22.06.2021
3046 Clouds 31 1005 40 10000 2.95 193 00:51 22.06.2021
3047 Clouds 29 1008 50 10000 0.45 90 23:36 21.06.2021
3048 Clouds 30 1006 51 10000 1.84 150 22:34 21.06.2021
3049 Clouds 28 1012 58 10000 2.72 133 21:29 21.06.2021
3050 Clouds 28 1012 59 10000 1.34 315 20:47 21.06.2021
3051 Clear 29 1008 55 10000 0.38 29 19:55 21.06.2021
3052 Clear 30 1007 54 10000 0.89 90 19:55 21.06.2021
3053 Clouds 31 1007 48 10000 1.34 90 18:58 21.06.2021
3054 Clouds 31 1012 45 10000 2.24 313 17:47 21.06.2021
3055 Clouds 31 1011 43 10000 0.22 312 16:49 21.06.2021
3056 Clouds 32 1011 43 10000 1.34 315 16:26 21.06.2021
3057 Clouds 32 1012 40 10000 4.47 0 15:46 21.06.2021
3058 Clouds 32 1012 48 10000 2.98 311 14:24 21.06.2021
3059 Clouds 36 1012 28 10000 2.57 293 13:35 21.06.2021
3060 Clouds 32 1012 45 10000 2.56 293 12:50 21.06.2021
3061 Clouds 36 1012 21 10000 2.14 300 12:19 21.06.2021
3062 Clouds 35 1006 24 10000 0.97 94 10:32 21.06.2021
3063 Clouds 32 1006 33 10000 1.94 155 09:37 21.06.2021
3064 Clouds 30 1008 32 10000 2.93 141 08:24 21.06.2021
3065 Clouds 29 1008 36 10000 2.93 141 07:44 21.06.2021
3066 Clouds 27 1011 46 10000 1.79 90 00:46 21.06.2021
3067 Clouds 28 1008 41 10000 3.72 127 23:37 20.06.2021
3068 Clouds 28 1008 43 10000 2.1 122 22:59 20.06.2021
3069 Clouds 28 1007 44 10000 0.64 257 22:20 20.06.2021
3070 Clouds 28 1008 47 10000 0.64 257 21:34 20.06.2021
3071 Clouds 30 1006 39 10000 0.82 269 19:55 20.06.2021
3072 Clouds 30 1009 36 10000 0.82 269 19:33 20.06.2021
3073 Clouds 30 1012 37 10000 2.28 282 18:35 20.06.2021
3074 Clouds 31 1012 35 10000 1.51 122 16:58 20.06.2021
3075 Clear 31 1012 37 10000 2.61 86 16:28 20.06.2021
3076 Clear 32 1012 34 10000 2.49 83 15:35 20.06.2021
3077 Clear 33 1013 23 10000 3.32 81 14:55 20.06.2021
3078 Clear 34 1008 38 10000 0.45 320 13:53 20.06.2021
3079 Clear 31 1010 42 10000 0.89 90 13:19 20.06.2021
3080 Clear 30 1012 47 10000 1.79 90 11:47 20.06.2021
3081 Clear 29 1013 50 10000 0.89 90 10:52 20.06.2021
3082 Clear 28 1013 54 10000 1.79 90 09:48 20.06.2021
3083 Clear 27 1011 59 10000 1.51 8 08:36 20.06.2021
3084 Clear 25 1013 63 10000 2.03 148 00:32 20.06.2021
3085 Clear 25 1013 63 10000 2.03 148 00:32 20.06.2021
3086 Clear 25 1013 67 10000 2.67 144 23:24 19.06.2021
3087 Clear 25 1014 68 10000 2.17 122 22:29 19.06.2021
3088 Clear 26 1013 69 10000 0.45 90 21:44 19.06.2021
3089 Clear 27 1013 60 10000 0.89 90 19:22 19.06.2021
3090 Clear 26 1018 60 10000 0.89 90 18:39 19.06.2021
3091 Clear 27 1018 54 10000 1.79 90 17:49 19.06.2021
3092 Clear 28 1018 56 10000 0.89 90 16:59 19.06.2021
3093 Clear 28 1018 53 10000 0.89 90 15:46 19.06.2021
3094 Clear 29 1013 48 10000 1.79 135 13:47 19.06.2021
3095 Clear 30 1014 47 10000 0.45 310 12:45 19.06.2021
3096 Clear 29 1014 46 10000 1.34 112 11:22 19.06.2021
3097 Clear 28 1015 49 10000 0.89 180 10:37 19.06.2021
3098 Clouds 28 1015 52 10000 0.89 90 10:18 19.06.2021
3099 Clouds 25 1015 62 10000 1.34 90 08:36 19.06.2021
3100 Clouds 24 1015 61 10000 1.53 102 07:41 19.06.2021
3101 Clouds 23 1013 70 10000 2.21 111 05:44 19.06.2021
3102 Clear 24 1013 71 10000 2.85 139 00:26 19.06.2021
3103 Clear 24 1013 73 10000 2.75 141 23:58 18.06.2021
3104 Clear 24 1013 73 10000 3.54 127 23:18 18.06.2021
3105 Clear 25 1013 72 10000 3.43 128 22:41 18.06.2021
3106 Clear 25 1013 71 10000 3.08 109 21:53 18.06.2021
3107 Clear 25 1013 70 10000 2.26 99 21:28 18.06.2021
3108 Clear 25 1012 68 10000 2.26 99 20:35 18.06.2021
3109 Clouds 26 1014 57 10000 1.34 90 18:57 18.06.2021
3110 Clouds 27 1014 55 10000 0.89 90 18:20 18.06.2021
3111 Clouds 26 1020 52 10000 1.34 90 16:52 18.06.2021
3112 Clouds 27 1020 49 10000 0.89 135 15:54 18.06.2021
3113 Clouds 28 1015 47 10000 1.79 90 14:55 18.06.2021
3114 Clouds 28 1015 44 10000 1.79 90 14:25 18.06.2021
3115 Clouds 28 1015 46 10000 1.34 90 13:27 18.06.2021
3116 Clouds 27 1015 44 10000 1.79 135 12:43 18.06.2021
3117 Clouds 28 1016 43 10000 2.68 135 11:55 18.06.2021
3118 Clouds 27 1016 44 10000 1.79 90 11:19 18.06.2021
3119 Clouds 27 1016 46 10000 1.79 90 10:51 18.06.2021
3120 Clouds 26 1015 49 10000 1.79 135 10:20 18.06.2021
3121 Clouds 25 1016 56 10000 0.45 90 09:27 18.06.2021
3122 Clouds 24 1013 62 10000 0.67 45 08:43 18.06.2021
3123 Clouds 24 1013 62 10000 0.53 204 07:48 18.06.2021
3124 Clouds 22 1013 69 10000 1.04 180 06:32 18.06.2021
3125 Clouds 24 1013 68 10000 0.71 150 00:40 18.06.2021
3126 Clouds 23 1015 71 10000 1.56 204 23:40 17.06.2021
3127 Clouds 24 1012 72 10000 1.61 156 22:44 17.06.2021
3128 Clouds 24 1012 71 10000 1.18 103 22:23 17.06.2021
3129 Clouds 24 1012 70 10000 1.18 103 21:37 17.06.2021
3130 Clouds 25 1012 66 10000 0.62 124 20:48 17.06.2021
3131 Clouds 25 1012 65 10000 0.45 353 20:23 17.06.2021
3132 Clouds 25 1012 63 10000 0.45 358 19:45 17.06.2021
3133 Clouds 26 1015 57 10000 2.24 315 18:24 17.06.2021
3134 Clouds 25 1019 59 10000 1.79 90 17:41 17.06.2021
3135 Clouds 25 1019 58 10000 2.24 135 17:18 17.06.2021
3136 Clouds 25 1019 60 10000 1.79 135 16:24 17.06.2021
3137 Clouds 26 1019 60 10000 1.79 135 14:54 17.06.2021
3138 Clouds 28 1015 56 10000 1.34 90 13:59 17.06.2021
3139 Clouds 26 1015 59 10000 0.45 39 12:41 17.06.2021
3140 Clouds 26 1015 60 10000 0.45 344 12:22 17.06.2021
3141 Clouds 26 1015 60 10000 3.58 135 10:52 17.06.2021
3142 Clouds 25 1015 60 10000 1.79 90 10:30 17.06.2021
3143 Clouds 25 1015 61 10000 1.34 225 09:51 17.06.2021
3144 Clouds 24 1015 61 10000 2.68 90 09:33 17.06.2021
3145 Clouds 23 1012 66 10000 0.17 208 08:20 17.06.2021
3146 Clouds 21 1012 63 10000 0.8 220 06:55 17.06.2021
3147 Clouds 21 1014 56 10000 0.89 270 04:20 17.06.2021
3148 Clear 22 1014 62 10000 2.54 143 23:50 16.06.2021
3149 Clear 23 1014 64 10000 0.45 90 23:29 16.06.2021
3150 Clear 23 1014 62 10000 2.58 138 22:37 16.06.2021
3151 Clear 23 1014 64 10000 2.42 137 21:47 16.06.2021
3152 Clear 25 1011 61 10000 2.25 121 21:23 16.06.2021
3153 Clear 25 1011 59 10000 2.7 121 20:46 16.06.2021
3154 Clear 25 1011 57 10000 2.72 95 20:19 16.06.2021
3155 Clear 26 1011 54 10000 2.72 95 19:43 16.06.2021
3156 Clear 26 1011 53 10000 2.59 76 19:18 16.06.2021
3157 Clear 26 1014 47 10000 1.79 135 18:32 16.06.2021
3158 Clear 25 1018 45 10000 0.89 90 17:55 16.06.2021
3159 Clear 25 1018 42 10000 1.34 90 17:27 16.06.2021
3160 Clear 26 1018 41 10000 0.45 90 16:45 16.06.2021
3161 Clear 25 1018 44 10000 1.79 90 16:22 16.06.2021
3162 Clear 25 1018 49 10000 3.58 135 15:39 16.06.2021
3163 Clear 25 1018 47 10000 1.79 90 14:57 16.06.2021
3164 Clear 27 1013 43 10000 3.13 180 14:39 16.06.2021
3165 Clear 27 1014 39 10000 2.24 135 14:20 16.06.2021
3166 Clear 27 1014 36 10000 1.79 135 13:40 16.06.2021
3167 Clear 27 1014 37 10000 0.45 90 13:21 16.06.2021
3168 Clear 26 1014 44 10000 1.34 314 12:34 16.06.2021
3169 Clear 26 1014 47 10000 1.34 90 11:54 16.06.2021
3170 Clear 26 1014 49 10000 3.58 135 11:19 16.06.2021
3171 Clear 25 1013 49 10000 1.34 90 10:40 16.06.2021
3172 Clear 24 1014 50 10000 1.79 90 09:46 16.06.2021
3173 Clear 24 1014 50 10000 1.34 90 08:48 16.06.2021
3174 Clouds 22 1014 48 10000 0.82 219 07:50 16.06.2021
3175 Clouds 22 1014 46 10000 0.45 90 07:30 16.06.2021
3176 Clouds 22 1011 56 10000 1.95 153 02:50 16.06.2021
3177 Clouds 22 1014 58 10000 2.03 128 00:37 16.06.2021
3178 Clear 23 1014 48 10000 0.45 270 23:43 15.06.2021
3179 Clear 23 1015 48 10000 0.45 340 23:19 15.06.2021
3180 Clear 23 1014 47 10000 0.45 270 22:38 15.06.2021
3181 Clear 23 1014 49 10000 1.93 129 21:45 15.06.2021
3182 Clear 24 1011 54 10000 1.75 115 20:51 15.06.2021
3183 Clear 25 1011 51 10000 1.98 89 19:44 15.06.2021
3184 Clear 26 1013 48 10000 1.34 90 18:32 15.06.2021
3185 Clear 25 1019 48 10000 2.68 90 16:54 15.06.2021
3186 Clear 25 1018 50 10000 3.13 90 16:29 15.06.2021
3187 Clear 26 1019 51 10000 2.68 135 15:40 15.06.2021
3188 Clear 26 1019 53 10000 4.02 135 14:50 15.06.2021
3189 Clear 27 1013 58 10000 3.58 112 13:46 15.06.2021
3190 Clear 27 1014 58 10000 2.68 135 13:27 15.06.2021
3191 Clear 27 1014 56 10000 1.79 90 12:46 15.06.2021
3192 Clear 27 1014 56 10000 2.24 90 11:51 15.06.2021
3193 Clear 27 1012 60 10000 3.18 46 11:19 15.06.2021
3194 Clear 26 1012 66 10000 3.18 46 10:53 15.06.2021
3195 Clear 26 1012 66 10000 3.17 47 10:34 15.06.2021
3196 Clear 24 1014 69 10000 2.24 90 09:40 15.06.2021
3197 Clear 24 1011 71 10000 0.78 323 08:29 15.06.2021
3198 Clear 24 1011 67 10000 0.78 323 07:46 15.06.2021
3199 Clear 23 1010 61 10000 1.03 275 06:38 15.06.2021
3200 Clear 22 1012 54 10000 1.34 315 04:32 15.06.2021
3201 Clear 24 1010 67 10000 1.43 112 00:49 15.06.2021
3202 Clear 24 1011 67 10000 1.22 131 23:59 14.06.2021
3203 Clear 24 1011 67 10000 1.31 147 23:26 14.06.2021
3204 Clear 25 1010 67 10000 1.31 147 22:43 14.06.2021
3205 Clear 25 1011 66 10000 1.15 141 22:21 14.06.2021
3206 Clear 25 1010 68 10000 1.15 141 21:47 14.06.2021
3207 Clear 25 1010 66 10000 1.04 65 21:24 14.06.2021
3208 Clear 25 1010 66 10000 0.72 63 20:55 14.06.2021
3209 Clear 25 1010 66 10000 1.04 65 20:55 14.06.2021
3210 Clear 26 1010 61 10000 1.43 23 20:23 14.06.2021
3211 Clear 26 1012 60 10000 1.43 23 19:39 14.06.2021
3212 Clear 26 1012 58 10000 0.45 90 19:18 14.06.2021
3213 Clear 25 1017 55 10000 1.34 135 18:42 14.06.2021
3214 Clear 26 1017 51 10000 1.34 90 18:18 14.06.2021
3215 Clear 26 1017 45 10000 1.79 158 17:30 14.06.2021
3216 Clear 27 1017 39 10000 0.89 135 16:43 14.06.2021
3217 Clear 27 1018 36 10000 1.79 135 15:51 14.06.2021
3218 Clear 27 1018 36 10000 1.79 45 15:33 14.06.2021
3219 Clear 27 1018 36 10000 1.79 202 14:51 14.06.2021
3220 Clear 28 1014 36 10000 0.45 316 13:44 14.06.2021
3221 Clear 29 1014 36 10000 0.45 14 12:56 14.06.2021
3222 Clear 28 1014 37 10000 0.89 342 12:37 14.06.2021
3223 Clear 28 1014 38 10000 1.79 90 11:56 14.06.2021
3224 Clear 28 1014 39 10000 0.45 279 11:19 14.06.2021
3225 Clear 27 1015 40 10000 1.79 90 10:19 14.06.2021
3226 Clear 26 1015 42 10000 2.24 135 09:25 14.06.2021
3227 Clear 25 1012 47 10000 1.53 51 08:43 14.06.2021
3228 Clear 24 1015 51 10000 1.36 98 07:54 14.06.2021
3229 Clear 23 1013 55 10000 1.56 127 07:19 14.06.2021
3230 Clear 21 1015 55 10000 1.02 129 04:59 14.06.2021
3231 Clear 22 1013 64 10000 0.49 31 02:37 14.06.2021
3232 Clear 23 1016 61 10000 0.45 315 23:56 13.06.2021
3233 Clear 23 1016 64 10000 0.45 270 23:24 13.06.2021
3234 Clear 24 1014 70 10000 0.46 178 22:41 13.06.2021
3235 Clear 24 1014 72 10000 0.47 166 22:20 13.06.2021
3236 Clear 24 1014 72 10000 0.47 166 21:50 13.06.2021
3237 Clear 25 1013 70 10000 0.58 132 21:32 13.06.2021
3238 Clear 25 1013 68 10000 0.58 132 20:47 13.06.2021
3239 Clear 25 1013 68 10000 1.61 70 20:29 13.06.2021
3240 Clear 26 1013 62 10000 1.62 70 19:46 13.06.2021
3241 Clear 25 1015 62 10000 0.45 90 19:25 13.06.2021
3242 Clear 25 1020 62 10000 1.34 90 18:52 13.06.2021
3243 Clear 25 1020 60 10000 1.79 90 18:20 13.06.2021
3244 Clear 25 1020 55 10000 1.79 135 17:27 13.06.2021
3245 Clear 26 1020 57 10000 1.34 90 16:37 13.06.2021
3246 Clear 26 1020 54 10000 1.79 90 15:39 13.06.2021
3247 Clear 26 1021 55 10000 1.79 112 14:46 13.06.2021
3248 Clouds 26 1021 59 10000 2.24 180 14:20 13.06.2021
3249 Clouds 26 1016 61 10000 0.89 358 13:25 13.06.2021
3250 Clouds 26 1016 61 10000 0.89 358 13:25 13.06.2021
3251 Clouds 27 1016 60 10000 0.89 9 12:52 13.06.2021
3252 Clouds 27 1016 58 10000 0.45 336 12:31 13.06.2021
3253 Clouds 26 1017 58 10000 3.58 135 11:45 13.06.2021
3254 Clouds 26 1017 58 10000 1.79 90 10:49 13.06.2021
3255 Clouds 25 1016 60 10000 1.79 180 10:31 13.06.2021
3256 Clouds 25 1016 62 10000 0.45 90 09:48 13.06.2021
3257 Clouds 24 1016 65 10000 1.34 90 09:26 13.06.2021
3258 Clouds 23 1017 70 10000 0.89 90 08:51 13.06.2021
3259 Clouds 23 1017 73 10000 0.89 90 08:32 13.06.2021
3260 Clouds 22 1016 74 10000 0.45 90 07:34 13.06.2021
3261 Clear 20 1015 83 10000 0.89 270 04:20 13.06.2021
3262 Clear 23 1014 82 10000 0.99 203 23:50 12.06.2021
3263 Clear 23 1014 78 10000 0.5 193 22:58 12.06.2021
3264 Clear 23 1014 78 10000 0.64 85 22:29 12.06.2021
3265 Clear 23 1013 78 10000 1.34 356 21:44 12.06.2021
3266 Clear 23 1012 75 10000 0.45 348 20:52 12.06.2021
3267 Clear 24 1012 73 10000 0.45 343 20:21 12.06.2021
3268 Clear 24 1012 71 10000 0.45 349 19:57 12.06.2021
3269 Clear 24 1015 58 10000 2.68 128 18:53 12.06.2021
3270 Clear 24 1019 57 10000 1.79 315 18:27 12.06.2021
3271 Clear 24 1019 55 10000 1.34 270 17:32 12.06.2021
3272 Clear 24 1019 55 10000 1.79 292 16:58 12.06.2021
3273 Clouds 24 1018 61 10000 3.58 0 15:40 12.06.2021
3274 Clouds 26 1014 64 10000 0.89 2 14:51 12.06.2021
3275 Clouds 25 1014 66 10000 2.24 3 14:31 12.06.2021
3276 Clouds 25 1014 65 10000 1.34 32 13:57 12.06.2021
3277 Clouds 24 1015 71 10000 2.68 9 12:40 12.06.2021
3278 Clouds 25 1014 70 10000 1.34 11 12:22 12.06.2021
3279 Clouds 24 1015 72 10000 0.89 315 11:34 12.06.2021
3280 Clouds 25 1015 61 10000 0.89 304 10:43 12.06.2021
3281 Clouds 25 1014 61 10000 1.34 270 10:25 12.06.2021
3282 Clouds 24 1014 61 10000 1.34 315 09:45 12.06.2021
3283 Clouds 23 1015 63 10000 1.79 315 08:25 12.06.2021
3284 Clouds 21 1014 65 10000 0.76 236 07:23 12.06.2021
3285 Clouds 20 1013 69 10000 0.89 270 05:36 12.06.2021
3286 Clear 22 1014 63 10000 0.45 270 00:23 12.06.2021
3287 Clear 23 1011 73 10000 0.98 95 22:26 11.06.2021
3288 Clear 23 1011 75 10000 0.98 95 21:54 11.06.2021
3289 Clear 23 1011 76 10000 0.98 95 21:34 11.06.2021
3290 Clear 24 1011 72 10000 0.89 334 20:51 11.06.2021
3291 Clouds 25 1010 66 10000 1.25 48 20:20 11.06.2021
3292 Clouds 25 1010 64 10000 1.7 51 19:19 11.06.2021
3293 Clouds 25 1012 55 10000 1.79 135 18:32 11.06.2021
3294 Clouds 24 1017 53 10000 1.79 135 17:47 11.06.2021
3295 Clouds 24 1017 51 10000 3.13 135 16:33 11.06.2021
3296 Clouds 25 1015 58 10000 3.72 10 15:25 11.06.2021
3297 Clouds 25 1018 55 10000 0.45 270 14:36 11.06.2021
3298 Clouds 26 1013 47 10000 1.34 2 13:34 11.06.2021
3299 Clear 25 1013 55 10000 0.89 2 12:28 11.06.2021
3300 Clear 26 1013 57 10000 2.24 14 11:40 11.06.2021
3301 Clear 25 1013 58 10000 2.68 180 11:21 11.06.2021
3302 Clear 23 1013 69 10000 2.24 90 09:34 11.06.2021
3303 Clear 23 1011 72 10000 1.56 357 08:49 11.06.2021
3304 Clear 21 1013 72 10000 0.45 90 07:48 11.06.2021
3305 Clear 20 1012 69 10000 2.68 315 04:46 11.06.2021
3306 Clouds 22 1011 75 10000 1.18 291 23:45 10.06.2021
3307 Clouds 22 1011 75 10000 0.65 273 22:42 10.06.2021
3308 Clouds 22 1011 75 10000 0.65 273 22:42 10.06.2021
3309 Clear 21 1013 75 10000 0.89 270 22:20 10.06.2021
3310 Clear 22 1011 76 10000 0.48 7 21:28 10.06.2021
3311 Clear 23 1011 75 10000 0.48 7 20:50 10.06.2021
3312 Clouds 23 1011 73 10000 0.45 350 19:47 10.06.2021
3313 Clouds 24 1010 72 10000 0.89 349 19:22 10.06.2021
3314 Clouds 24 1012 61 10000 1.79 1 18:30 10.06.2021
3315 Clouds 23 1017 61 10000 4.47 315 17:54 10.06.2021
3316 Clouds 24 1017 56 10000 3.13 315 17:21 10.06.2021
3317 Clouds 24 1017 57 10000 3.58 315 16:43 10.06.2021
3318 Clear 24 1017 61 10000 4.02 315 15:20 10.06.2021
3319 Clouds 24 1013 63 10000 0.45 352 13:37 10.06.2021
3320 Clouds 25 1013 63 10000 0.45 357 12:28 10.06.2021
3321 Clouds 24 1013 67 10000 0.45 2 11:26 10.06.2021
3322 Clouds 23 1013 71 10000 0.45 352 10:32 10.06.2021
3323 Clouds 21 1010 83 10000 1.43 59 07:34 10.06.2021
3324 Clear 21 1011 84 10000 0.45 339 00:26 10.06.2021
3325 Clear 21 1011 84 10000 1.86 306 23:59 09.06.2021
3326 Clear 21 1011 84 10000 2.25 301 22:50 09.06.2021
3327 Clear 21 1011 83 10000 1.79 14 21:43 09.06.2021
3328 Clear 21 1011 82 10000 0.45 349 21:24 09.06.2021
3329 Clear 22 1011 81 10000 0.45 358 20:36 09.06.2021
3330 Clear 22 1011 78 10000 2.68 352 19:49 09.06.2021
3331 Clear 23 1011 74 10000 0.45 6 19:19 09.06.2021
3332 Clear 23 1015 69 10000 4.49 326 16:35 09.06.2021
3333 Clear 22 1017 71 10000 7.6 292 15:32 09.06.2021
3334 Clear 24 1013 67 10000 0.89 266 14:34 09.06.2021
3335 Clear 24 1011 66 10000 0.89 15 13:34 09.06.2021
3336 Clear 23 1013 67 10000 0.45 341 12:54 09.06.2021
3337 Clear 23 1013 68 10000 0.45 19 12:35 09.06.2021
3338 Clear 23 1011 68 10000 0.45 356 11:20 09.06.2021
3339 Clear 22 1011 74 10000 1.34 341 09:28 09.06.2021
3340 Clear 22 1011 75 10000 0.45 20 08:45 09.06.2021
3341 Clear 21 1011 78 10000 1.31 272 06:59 09.06.2021
3342 Clear 20 1010 80 10000 0.45 335 05:38 09.06.2021
3343 Clear 21 1012 79 10000 0.89 358 22:55 08.06.2021
3344 Clear 21 1014 81 10000 0.89 45 22:36 08.06.2021
3345 Clear 22 1012 72 10000 1.95 311 21:18 08.06.2021
3346 Clear 22 1011 69 10000 2.72 313 19:46 08.06.2021
3347 Clear 23 1016 66 10000 4.16 321 17:53 08.06.2021
3348 Clear 23 1016 65 10000 4.16 321 17:34 08.06.2021
3349 Clear 23 1012 70 10000 1.79 9 15:29 08.06.2021
3350 Clear 24 1013 66 10000 0.89 345 13:33 08.06.2021
3351 Clear 24 1013 66 10000 0.89 345 13:33 08.06.2021
3352 Clear 24 1013 67 10000 1.34 348 11:55 08.06.2021
3353 Clear 22 1012 75 10000 0.45 4 08:19 08.06.2021
3354 Clear 19 1012 81 10000 0.37 249 04:26 08.06.2021
3355 Clear 19 1012 81 10000 0.37 249 04:26 08.06.2021
3356 Clear 20 1013 80 10000 1.14 289 23:53 07.06.2021
3357 Clouds 22 1012 79 10000 0.45 341 20:42 07.06.2021
3358 Clouds 23 1012 78 10000 0.89 8 18:56 07.06.2021
3359 Clouds 24 1012 73 10000 1.34 349 16:25 07.06.2021
3360 Clear 23 1018 68 10000 4.02 270 14:22 07.06.2021
3361 Clear 24 1014 54 10000 2.24 90 11:51 07.06.2021
3362 Clear 23 1014 56 10000 1.34 90 10:27 07.06.2021
3363 Clear 23 1014 59 10000 0.89 90 09:58 07.06.2021
3364 Clear 22 1014 62 10000 0.89 90 09:25 07.06.2021
3365 Clouds 21 1012 71 10000 1.47 198 07:41 07.06.2021
3366 Clouds 23 1013 59 10000 1.73 179 22:53 06.06.2021
3367 Clouds 22 1019 56 10000 1.56 159 20:47 06.06.2021
3368 Clouds 27 1012 49 10000 0.11 150 18:46 06.06.2021
3369 Clouds 26 1018 53 10000 1.34 90 17:35 06.06.2021
3370 Clouds 28 1013 43 10000 5.36 90 14:38 06.06.2021
3371 Clouds 28 1013 43 10000 5.36 90 14:38 06.06.2021
3372 Clouds 28 1018 35 10000 0.72 93 12:33 06.06.2021
3373 Clouds 28 1012 38 10000 0.72 93 11:50 06.06.2021
3374 Clouds 24 1016 58 10000 1.9 296 10:25 06.06.2021
3375 Clouds 21 1021 56 10000 0.89 90 09:31 06.06.2021
3376 Rain 21 1019 39 10000 1.05 212 08:57 06.06.2021
3377 Rain 23 1016 48 10000 1.41 170 08:24 06.06.2021
3378 Clouds 21 1015 47 10000 1.93 203 05:23 06.06.2021
3379 Clouds 22 1018 64 10000 2.64 144 23:19 05.06.2021
3380 Clouds 22 1018 66 10000 0.45 270 22:25 05.06.2021
3381 Clouds 24 1016 70 10000 1.85 134 20:43 05.06.2021
3382 Clouds 25 1016 60 10000 0.8 104 19:38 05.06.2021
3383 Clouds 25 1023 54 10000 1.34 90 17:20 05.06.2021
3384 Clouds 25 1023 50 10000 4.02 90 15:57 05.06.2021
3385 Clouds 28 1019 40 10000 0.45 304 13:53 05.06.2021
3386 Clouds 27 1020 39 10000 0.89 90 11:45 05.06.2021
3387 Clouds 24 1025 46 10000 1.95 101 10:53 05.06.2021
3388 Clouds 23 1020 60 10000 0.89 90 09:22 05.06.2021
3389 Rain 22 1019 69 10000 0.66 167 07:23 05.06.2021
3390 Clouds 22 1022 67 10000 3.58 270 23:35 04.06.2021
3391 Clouds 22 1021 73 10000 0.89 270 22:21 04.06.2021
3392 Clouds 23 1018 73 10000 1.91 147 21:25 04.06.2021
3393 Clouds 23 1020 67 10000 0.89 90 19:59 04.06.2021
3394 Clouds 25 1020 56 10000 0.45 90 18:27 04.06.2021
3395 Clouds 23 1025 60 10000 1.79 90 17:20 04.06.2021
3396 Clouds 24 1025 56 10000 1.79 225 15:39 04.06.2021
3397 Clear 26 1022 48 10000 1.79 90 11:59 04.06.2021
3398 Clouds 26 1022 48 10000 2.24 90 11:23 04.06.2021
3399 Clouds 22 1021 65 10000 0.89 90 07:50 04.06.2021
3400 Clouds 20 1019 72 10000 1.35 135 06:24 04.06.2021
3401 Clouds 21 1020 62 10000 0.89 248 23:50 03.06.2021
3402 Clear 22 1018 72 10000 2.13 157 21:39 03.06.2021
3403 Clear 23 1017 63 10000 2.05 92 20:28 03.06.2021
3404 Clear 24 1017 62 10000 2.05 92 19:50 03.06.2021
3405 Clear 23 1024 58 10000 1.79 90 18:22 03.06.2021
3406 Clear 24 1024 55 10000 2.24 135 15:50 03.06.2021
3407 Clear 25 1024 51 10000 2.68 90 14:44 03.06.2021
3408 Clouds 25 1019 51 10000 4.47 112 12:50 03.06.2021
3409 Clouds 23 1020 54 10000 1.34 90 09:55 03.06.2021
3410 Clouds 23 1020 54 10000 1.34 90 09:55 03.06.2021
3411 Clouds 23 1019 54 10000 1.79 45 09:55 03.06.2021
3412 Clouds 23 1020 55 10000 1.79 90 09:37 03.06.2021
3413 Clouds 21 1018 77 10000 2.2 131 07:53 03.06.2021
3414 Clouds 21 1016 66 10000 1.52 172 00:21 03.06.2021
3415 Clouds 22 1016 64 10000 1.32 122 22:30 02.06.2021
3416 Clouds 21 1017 65 10000 1.47 96 21:30 02.06.2021
3417 Clouds 22 1015 59 10000 0.96 129 20:48 02.06.2021
3418 Clouds 23 1014 56 10000 1.32 112 19:44 02.06.2021
3419 Clouds 23 1015 61 10000 1.34 180 16:58 02.06.2021
3420 Clouds 22 1016 66 10000 0.89 90 16:35 02.06.2021
3421 Clouds 24 1016 51 10000 0.45 90 13:51 02.06.2021
3422 Clouds 24 1015 49 10000 0.45 349 12:23 02.06.2021
3423 Clouds 24 1013 56 10000 2.24 79 10:42 02.06.2021
3424 Clouds 24 1013 56 10000 0.45 39 10:19 02.06.2021
3425 Clouds 23 1015 56 10000 2.68 90 09:41 02.06.2021
3426 Clouds 21 1013 57 10000 1.99 93 08:44 02.06.2021
3427 Clouds 20 1013 61 10000 1.93 134 07:21 02.06.2021
3428 Clouds 20 1012 56 10000 2.82 102 03:52 02.06.2021
3429 Clouds 20 1012 53 10000 2.26 138 00:34 02.06.2021
3430 Clouds 22 1012 54 10000 2.85 138 21:44 01.06.2021
3431 Clouds 22 1012 53 10000 2.9 118 20:49 01.06.2021
3432 Clouds 21 1018 45 10000 0.89 90 19:44 01.06.2021
3433 Clouds 25 1011 49 10000 3.62 61 17:18 01.06.2021
3434 Clouds 25 1012 52 10000 3.75 52 15:34 01.06.2021
3435 Clouds 24 1014 53 10000 2.68 135 13:19 01.06.2021
3436 Clouds 24 1014 52 10000 2.68 135 12:28 01.06.2021
3437 Clouds 23 1015 55 10000 3.13 135 11:30 01.06.2021
3438 Clouds 23 1014 57 10000 2.68 135 10:58 01.06.2021
3439 Clouds 22 1014 65 10000 1.79 135 09:58 01.06.2021
3440 Clouds 20 1013 78 10000 1.64 59 08:54 01.06.2021
3441 Clouds 20 1012 78 10000 1.46 88 07:43 01.06.2021
3442 Clouds 19 1012 79 10000 1.63 106 01:28 01.06.2021
3443 Clouds 20 1012 80 10000 1.59 109 23:40 31.05.2021
3444 Clouds 19 1014 83 10000 1.44 127 23:19 31.05.2021
3445 Clouds 20 1014 81 10000 0.89 90 22:24 31.05.2021
3446 Clouds 21 1011 77 10000 1.57 88 20:56 31.05.2021
3447 Clouds 21 1011 74 10000 1.94 53 20:19 31.05.2021
3448 Clouds 23 1011 67 10000 2.38 30 18:42 31.05.2021
3449 Clouds 22 1017 67 10000 1.79 158 17:44 31.05.2021
3450 Clouds 23 1013 64 10000 1.34 350 16:48 31.05.2021
3451 Clouds 23 1013 65 10000 1.79 7 15:41 31.05.2021
3452 Clouds 23 1013 67 10000 1.34 355 13:25 31.05.2021
3453 Clouds 23 1013 68 10000 2.68 135 12:54 31.05.2021
3454 Clouds 23 1013 71 10000 0.89 336 12:27 31.05.2021
3455 Clouds 22 1013 72 10000 0.45 343 11:47 31.05.2021
3456 Clouds 22 1013 74 10000 0.89 355 10:31 31.05.2021
3457 Clouds 22 1013 68 10000 0.45 345 09:32 31.05.2021
3458 Clouds 21 1012 76 10000 1.07 251 08:24 31.05.2021
3459 Clouds 20 1012 76 10000 1.07 251 07:41 31.05.2021
3460 Clouds 20 1012 71 10000 0.92 231 06:49 31.05.2021
3461 Clouds 20 1014 79 10000 0.89 315 23:56 30.05.2021
3462 Clouds 20 1012 81 10000 0.57 203 23:20 30.05.2021
3463 Clouds 21 1012 80 10000 0.57 203 22:34 30.05.2021
3464 Clouds 21 1011 80 10000 0.53 115 21:44 30.05.2021
3465 Clouds 21 1011 78 10000 0.49 108 21:25 30.05.2021
3466 Clouds 21 1013 77 10000 0.45 348 20:50 30.05.2021
3467 Clear 21 1013 77 10000 1.2 116 20:31 30.05.2021
3468 Clouds 22 1010 69 10000 1.39 56 19:49 30.05.2021
3469 Clouds 23 1010 67 10000 1.7 31 18:51 30.05.2021
3470 Clouds 22 1017 70 10000 2.68 90 17:46 30.05.2021
3471 Clouds 22 1017 67 10000 1.79 180 16:57 30.05.2021
3472 Clouds 22 1017 67 10000 1.34 225 16:31 30.05.2021
3473 Clouds 22 1017 67 10000 1.34 225 16:31 30.05.2021
3474 Clear 22 1017 61 10000 3.58 135 15:49 30.05.2021
3475 Clear 24 1012 56 10000 1.34 18 14:58 30.05.2021
3476 Clear 24 1013 58 10000 1.34 2 13:32 30.05.2021
3477 Clear 24 1013 62 10000 0.45 2 11:59 30.05.2021
3478 Clear 24 1013 62 10000 0.45 358 10:59 30.05.2021
3479 Clear 24 1013 63 10000 1.34 90 10:37 30.05.2021
3480 Clear 23 1013 66 10000 1.34 90 09:55 30.05.2021
3481 Clear 22 1013 69 10000 1.79 90 09:35 30.05.2021
3482 Clear 21 1013 74 10000 1.79 90 08:52 30.05.2021
3483 Clear 20 1014 76 10000 0.89 90 07:44 30.05.2021
3484 Clear 18 1013 71 10000 0.45 90 04:23 30.05.2021
3485 Clear 21 1012 67 10000 1.16 255 00:49 30.05.2021
3486 Clear 20 1014 64 10000 0.89 292 23:32 29.05.2021
3487 Clear 20 1014 69 10000 0.45 270 22:25 29.05.2021
3488 Clear 20 1014 72 10000 0.45 225 21:52 29.05.2021
3489 Clouds 22 1012 72 10000 1.16 166 21:18 29.05.2021
3490 Clouds 20 1018 75 10000 1.16 166 20:42 29.05.2021
3491 Clouds 23 1011 65 10000 0.9 98 20:22 29.05.2021
3492 Clouds 23 1011 66 10000 0.9 98 19:39 29.05.2021
3493 Clouds 23 1018 46 10000 1.34 180 17:55 29.05.2021
3494 Clouds 24 1018 41 10000 2.68 315 16:58 29.05.2021
3495 Clouds 24 1018 52 10000 3.13 135 15:52 29.05.2021
3496 Clouds 25 1013 57 10000 3.13 135 14:49 29.05.2021
3497 Clouds 24 1014 66 10000 2.24 135 13:52 29.05.2021
3498 Clouds 24 1014 66 10000 1.34 135 12:48 29.05.2021
3499 Clouds 24 1014 62 10000 0.89 90 12:28 29.05.2021
3500 Clouds 24 1014 51 10000 0.45 358 11:51 29.05.2021
3501 Clouds 24 1014 52 10000 0.89 5 11:24 29.05.2021
3502 Clouds 24 1014 53 10000 0.45 3 10:48 29.05.2021
3503 Clouds 22 1019 52 10000 4.92 248 10:25 29.05.2021
3504 Clouds 23 1012 64 10000 1.04 323 09:22 29.05.2021
3505 Clouds 22 1014 61 10000 0.89 315 08:50 29.05.2021
3506 Clouds 20 1013 74 10000 0.45 344 07:31 29.05.2021
3507 Clouds 20 1011 82 10000 2.78 120 06:48 29.05.2021
3508 Clouds 20 1015 76 10000 2.24 315 00:32 29.05.2021
3509 Clouds 20 1015 76 10000 0.89 292 23:21 28.05.2021
3510 Clouds 21 1012 73 10000 1.72 132 21:49 28.05.2021
3511 Clouds 21 1012 72 10000 2.51 117 21:30 28.05.2021
3512 Clouds 22 1011 71 10000 2.7 101 20:27 28.05.2021
3513 Clouds 22 1011 66 10000 2.7 101 19:46 28.05.2021
3514 Clouds 23 1011 62 10000 3.17 101 19:28 28.05.2021
3515 Clouds 22 1013 64 10000 1.34 135 18:42 28.05.2021
3516 Clouds 22 1013 62 10000 1.34 90 18:23 28.05.2021
3517 Clear 21 1017 68 10000 1.79 180 17:23 28.05.2021
3518 Clear 24 1013 58 10000 4.02 135 16:28 28.05.2021
3519 Clear 24 1014 60 10000 0.45 307 15:42 28.05.2021
3520 Clear 24 1014 58 10000 3.13 90 14:59 28.05.2021
3521 Clouds 24 1014 59 10000 3.58 135 14:36 28.05.2021
3522 Clouds 23 1014 63 10000 4.47 90 13:45 28.05.2021
3523 Clouds 22 1015 68 10000 1.79 135 12:57 28.05.2021
3524 Clouds 22 1015 69 10000 3.58 90 12:25 28.05.2021
3525 Clouds 22 1015 68 10000 1.79 90 11:32 28.05.2021
3526 Clouds 22 1015 68 10000 3.13 135 10:52 28.05.2021
3527 Clouds 21 1015 70 10000 1.34 90 10:24 28.05.2021
3528 Clouds 21 1013 73 10000 2.51 92 09:29 28.05.2021
3529 Clouds 21 1013 78 10000 2.51 92 08:47 28.05.2021
3530 Clouds 20 1013 79 10000 3.21 93 08:23 28.05.2021
3531 Clouds 20 1013 78 10000 3.21 93 07:38 28.05.2021
3532 Clouds 19 1013 77 10000 2.59 102 06:50 28.05.2021
3533 Clouds 18 1012 81 10000 2.42 91 05:57 28.05.2021
3534 Clouds 18 1013 77 10000 0.45 270 03:32 28.05.2021
3535 Clouds 20 1012 77 10000 1.96 133 23:42 27.05.2021
3536 Clouds 19 1017 72 10000 2.02 124 22:50 27.05.2021
3537 Clouds 21 1012 79 10000 2.27 128 22:20 27.05.2021
3538 Clouds 21 1012 77 10000 2.27 128 21:44 27.05.2021
3539 Clear 20 1017 74 10000 2.65 115 21:26 27.05.2021
3540 Clear 20 1015 77 10000 7.2 50 20:46 27.05.2021
3541 Clear 21 1011 70 10000 2.52 87 20:18 27.05.2021
3542 Clear 22 1011 69 10000 0.45 258 19:30 27.05.2021
3543 Clear 23 1011 65 10000 2.79 65 18:41 27.05.2021
3544 Clear 24 1011 62 10000 2.92 54 18:20 27.05.2021
3545 Clear 23 1016 58 10000 3.04 41 17:25 27.05.2021
3546 Clear 23 1016 57 10000 3.04 41 16:48 27.05.2021
3547 Clear 23 1016 53 10000 3.16 32 16:28 27.05.2021
3548 Clear 23 1016 45 10000 3.16 32 15:42 27.05.2021
3549 Clear 24 1015 68 10000 5.66 40 15:18 27.05.2021
3550 Clear 24 1011 47 10000 3.37 24 14:31 27.05.2021
3551 Clouds 24 1011 52 10000 3.08 18 13:54 27.05.2021
3552 Clouds 24 1012 53 10000 1.74 19 13:22 27.05.2021
3553 Clouds 24 1012 54 10000 1.74 19 12:59 27.05.2021
3554 Clouds 24 1012 53 10000 1.74 19 12:40 27.05.2021
3555 Clouds 24 1012 53 10000 1.42 69 12:22 27.05.2021
3556 Clouds 23 1012 53 10000 0.45 357 11:33 27.05.2021
3557 Clouds 24 1012 56 10000 1.66 104 10:54 27.05.2021
3558 Clouds 22 1012 61 10000 2.53 96 10:27 27.05.2021
3559 Clouds 21 1012 68 10000 2.53 96 09:54 27.05.2021
3560 Clouds 21 1013 60 10000 2.08 70 08:53 27.05.2021
3561 Clouds 20 1013 63 10000 1.8 78 08:26 27.05.2021
3562 Clouds 18 1012 66 10000 2.13 106 06:44 27.05.2021
3563 Clouds 18 1012 63 10000 0.76 143 01:54 27.05.2021
3564 Clouds 19 1013 59 10000 2.05 134 00:35 27.05.2021
3565 Clouds 19 1013 56 10000 1.88 161 23:33 26.05.2021
3566 Clouds 18 1015 57 10000 0.89 90 22:50 26.05.2021
3567 Clouds 18 1015 57 10000 0.45 90 22:32 26.05.2021
3568 Clear 17 1019 61 10000 2.09 117 21:43 26.05.2021
3569 Clear 19 1015 53 10000 2.39 98 21:24 26.05.2021
3570 Clear 20 1013 49 10000 2.39 98 20:59 26.05.2021
3571 Clouds 18 1019 58 10000 2.51 109 20:41 26.05.2021
3572 Clouds 21 1013 49 10000 2.98 82 20:20 26.05.2021
3573 Clouds 20 1017 56 10000 2.98 82 19:44 26.05.2021
3574 Clouds 20 1017 56 10000 2.98 82 19:44 26.05.2021
3575 Clouds 22 1013 43 10000 1.34 347 19:20 26.05.2021
3576 Clouds 22 1018 40 10000 2.78 61 18:43 26.05.2021
3577 Clouds 22 1020 41 10000 0.45 180 17:45 26.05.2021
3578 Clouds 22 1020 40 10000 0.89 180 16:56 26.05.2021
3579 Clouds 22 1020 41 10000 2.24 90 16:36 26.05.2021
3580 Clouds 22 1020 39 10000 2.24 135 16:18 26.05.2021
3581 Clouds 23 1020 36 10000 1.79 90 15:41 26.05.2021
3582 Clouds 23 1020 35 10000 1.79 135 15:23 26.05.2021
3583 Clouds 23 1021 33 10000 1.79 135 14:45 26.05.2021
3584 Clouds 23 1021 33 10000 3.13 90 14:19 26.05.2021
3585 Clouds 24 1016 28 10000 0.89 10 13:42 26.05.2021
3586 Clouds 24 1017 26 10000 1.79 270 12:51 26.05.2021
3587 Clear 24 1017 26 10000 2.24 45 12:28 26.05.2021
3588 Clear 23 1017 27 10000 3.37 54 11:40 26.05.2021
3589 Clear 23 1018 27 10000 0.45 295 11:21 26.05.2021
3590 Clear 23 1017 29 10000 1.79 90 10:38 26.05.2021
3591 Clear 22 1018 32 10000 0.89 180 09:59 26.05.2021
3592 Clear 21 1018 34 10000 1.79 158 09:41 26.05.2021
3593 Clear 21 1018 39 10000 2.24 90 08:59 26.05.2021
3594 Clear 20 1016 42 10000 2.35 71 08:35 26.05.2021
3595 Clouds 18 1018 47 10000 0.89 90 07:35 26.05.2021
3596 Clouds 16 1018 54 10000 0.45 90 06:25 26.05.2021
3597 Clouds 16 1018 54 10000 0.89 45 04:27 26.05.2021
3598 Clear 18 1017 56 10000 2.61 99 23:52 25.05.2021
3599 Clear 19 1017 58 10000 2.49 93 22:55 25.05.2021
3600 Clear 19 1017 61 10000 2.8 85 22:31 25.05.2021
3601 Clear 19 1017 63 10000 2.8 85 21:52 25.05.2021
3602 Clear 19 1017 63 10000 2.83 68 21:29 25.05.2021
3603 Clear 19 1022 68 10000 2.87 68 20:44 25.05.2021
3604 Clouds 20 1017 59 10000 3.21 55 20:26 25.05.2021
3605 Clouds 20 1019 55 10000 0.45 348 19:38 25.05.2021
3606 Clouds 20 1019 55 10000 0.45 346 19:20 25.05.2021
3607 Clouds 20 1018 58 10000 1.34 349 18:42 25.05.2021
3608 Clouds 21 1018 60 10000 2.24 90 18:24 25.05.2021
3609 Clouds 19 1022 75 10000 3.58 270 17:20 25.05.2021
3610 Clouds 21 1018 72 10000 1.34 6 16:38 25.05.2021
3611 Clouds 21 1018 75 10000 2.24 9 15:58 25.05.2021
3612 Clouds 21 1019 75 10000 1.34 17 15:35 25.05.2021
3613 Clouds 21 1018 74 10000 1.34 19 14:59 25.05.2021
3614 Clouds 22 1018 73 10000 1.34 356 14:41 25.05.2021
3615 Clouds 22 1018 71 10000 3.13 6 13:57 25.05.2021
3616 Clouds 22 1018 72 10000 1.34 359 13:38 25.05.2021
3617 Clouds 23 1019 71 10000 0.89 90 12:52 25.05.2021
3618 Clouds 23 1019 71 10000 0.89 90 12:51 25.05.2021
3619 Clouds 23 1019 69 10000 2.24 90 12:32 25.05.2021
3620 Clouds 22 1019 74 10000 1.79 90 11:45 25.05.2021
3621 Clouds 22 1019 74 10000 1.79 90 11:45 25.05.2021
3622 Clouds 22 1019 74 10000 1.79 90 11:45 25.05.2021
3623 Clouds 22 1019 74 10000 1.79 90 11:45 25.05.2021
3624 Clouds 22 1019 74 10000 1.79 90 11:45 25.05.2021
3625 Clouds 21 1019 78 10000 1.79 90 11:26 25.05.2021
3626 Clouds 20 1019 79 10000 0.89 354 10:57 25.05.2021
3627 Clouds 20 1019 82 10000 0.89 17 10:25 25.05.2021
3628 Clouds 19 1019 86 10000 0.45 355 09:33 25.05.2021
3629 Clouds 19 1017 85 10000 1.34 359 08:22 25.05.2021
3630 Clear 19 1016 87 10000 2.92 4 07:21 25.05.2021
3631 Clear 19 1015 81 10000 2.39 271 05:28 25.05.2021
3632 Clear 19 1015 80 10000 3.52 285 02:53 25.05.2021
3633 Clear 19 1017 80 10000 1.79 270 00:20 25.05.2021
3634 Clear 19 1017 78 10000 2.62 256 23:29 24.05.2021
3635 Clear 20 1017 77 10000 1.34 315 22:42 24.05.2021
3636 Clear 20 1017 75 10000 0.45 340 22:23 24.05.2021
3637 Clear 19 1020 76 10000 3.7 266 21:40 24.05.2021
3638 Clouds 19 1020 76 10000 0.45 315 21:18 24.05.2021
3639 Clouds 21 1018 76 10000 4.27 257 20:34 24.05.2021
3640 Clouds 20 1019 70 10000 3.13 315 19:57 24.05.2021
3641 Clouds 22 1018 70 10000 5.16 268 19:39 24.05.2021
3642 Clouds 22 1019 66 10000 3.58 180 19:20 24.05.2021
3643 Clouds 23 1018 45 10000 5.36 225 18:43 24.05.2021
3644 Clouds 24 1018 29 10000 4.02 225 18:23 24.05.2021
3645 Clouds 25 1016 43 10000 3.68 258 17:36 24.05.2021
3646 Clouds 25 1016 37 10000 3.94 239 17:18 24.05.2021
3647 Clouds 26 1016 37 10000 3.94 239 16:40 24.05.2021
3648 Clear 26 1018 28 10000 2.68 135 15:44 24.05.2021
3649 Clouds 26 1016 38 10000 3.38 270 14:57 24.05.2021
3650 Clouds 27 1016 38 10000 3.38 270 14:35 24.05.2021
3651 Clear 29 1011 21 10000 1.79 350 13:47 24.05.2021
3652 Clear 30 1013 20 10000 0.89 11 13:26 24.05.2021
3653 Clear 30 1013 21 10000 0.45 5 12:45 24.05.2021
3654 Clear 29 1013 21 10000 0.45 344 12:27 24.05.2021
3655 Clear 28 1013 24 10000 0.89 135 11:37 24.05.2021
3656 Clear 28 1013 25 10000 0.45 358 11:18 24.05.2021
3657 Clear 28 1013 30 10000 1.34 8 10:35 24.05.2021
3658 Clear 27 1013 38 10000 0.89 90 09:47 24.05.2021
3659 Clear 26 1013 40 10000 0.89 90 09:22 24.05.2021
3660 Clear 25 1013 44 10000 0.89 90 08:48 24.05.2021
3661 Clear 24 1011 52 10000 1.42 152 08:19 24.05.2021
3662 Clear 21 1011 58 10000 2.65 147 06:24 24.05.2021
3663 Clear 20 1011 57 10000 0.96 150 03:59 24.05.2021
3664 Clear 22 1011 55 10000 1.71 142 01:37 24.05.2021
3665 Clear 23 1012 52 10000 1.72 144 00:24 24.05.2021
3666 Clear 20 1018 59 10000 1.72 144 23:35 23.05.2021
3667 Clear 20 1018 62 10000 1.16 145 22:44 23.05.2021
3668 Clear 20 1018 65 10000 0.95 112 22:24 23.05.2021
3669 Clear 22 1018 65 10000 0.95 112 21:39 23.05.2021
3670 Clouds 22 1017 64 10000 1.74 10 21:19 23.05.2021
3671 Clouds 22 1017 64 10000 1.74 10 20:42 23.05.2021
3672 Clouds 23 1016 55 10000 2.13 2 20:21 23.05.2021
3673 Clouds 24 1016 56 10000 2.19 3 19:42 23.05.2021
3674 Clouds 27 1011 33 10000 1.86 101 19:22 23.05.2021
3675 Clouds 27 1010 30 10000 2.79 129 18:29 23.05.2021
3676 Clouds 24 1015 43 10000 2.79 129 17:45 23.05.2021
3677 Clouds 28 1010 32 10000 2.32 127 17:27 23.05.2021
3678 Clouds 27 1016 44 10000 2.32 127 16:48 23.05.2021
3679 Clouds 27 1016 45 10000 2.16 117 16:25 23.05.2021
3680 Clouds 27 1016 45 10000 2.16 117 15:58 23.05.2021
3681 Clouds 27 1016 45 10000 2.16 117 15:32 23.05.2021
3682 Clouds 27 1017 43 10000 0.86 70 14:52 23.05.2021
3683 Clouds 28 1013 28 10000 1.97 117 14:33 23.05.2021
3684 Clouds 28 1013 31 10000 1.44 98 13:42 23.05.2021
3685 Clouds 27 1013 41 10000 1.71 102 12:48 23.05.2021
3686 Clouds 27 1013 44 10000 0.93 68 12:24 23.05.2021
3687 Clouds 27 1013 41 10000 0.93 68 11:38 23.05.2021
3688 Clouds 27 1013 40 10000 0.91 35 11:18 23.05.2021
3689 Clouds 26 1012 42 10000 0.91 35 10:31 23.05.2021
3690 Clouds 25 1013 44 10000 0.45 351 09:55 23.05.2021
3691 Clear 25 1013 41 10000 0.78 65 09:19 23.05.2021
3692 Clear 23 1013 45 10000 0.73 146 08:19 23.05.2021
3693 Clear 22 1013 47 10000 0.73 146 07:43 23.05.2021
3694 Clear 21 1012 49 10000 1.15 153 07:23 23.05.2021
3695 Clear 20 1011 49 10000 1.93 191 02:45 23.05.2021
3696 Clear 22 1011 53 10000 2.78 197 00:40 23.05.2021
3697 Clear 21 1011 58 10000 2.51 176 23:29 22.05.2021
3698 Clear 21 1011 61 10000 2.45 175 22:59 22.05.2021
3699 Clear 21 1011 61 10000 2.51 176 22:40 22.05.2021
3700 Clear 22 1011 60 10000 2.76 157 22:21 22.05.2021
3701 Clear 22 1011 60 10000 2.76 157 21:42 22.05.2021
3702 Clear 22 1011 59 10000 2.76 157 21:42 22.05.2021
3703 Clouds 23 1011 60 10000 3.06 146 20:59 22.05.2021
3704 Clouds 24 1016 57 10000 3.06 146 20:36 22.05.2021
3705 Clouds 23 1016 55 10000 2.99 152 19:47 22.05.2021
3706 Clouds 24 1011 48 10000 2.62 154 19:28 22.05.2021
3707 Clouds 24 1011 46 10000 2.62 154 18:52 22.05.2021
3708 Clouds 24 1015 46 10000 2.19 146 18:26 22.05.2021
3709 Clouds 24 1015 46 10000 2.19 146 17:53 22.05.2021
3710 Clouds 24 1016 45 10000 2.06 136 17:28 22.05.2021
3711 Clouds 24 1016 45 10000 2.06 136 16:43 22.05.2021
3712 Clouds 25 1016 43 10000 1.85 130 15:45 22.05.2021
3713 Clouds 24 1016 42 10000 2.01 111 15:26 22.05.2021
3714 Clouds 26 1011 43 10000 0.89 1 14:29 22.05.2021
3715 Clouds 26 1011 45 10000 2.31 98 13:52 22.05.2021
3716 Clouds 26 1011 46 10000 1.34 347 13:31 22.05.2021
3717 Clouds 25 1012 37 10000 1.96 107 12:41 22.05.2021
3718 Clouds 25 1012 35 10000 0.45 2 12:22 22.05.2021
3719 Clouds 24 1012 34 10000 0.45 346 11:40 22.05.2021
3720 Clouds 23 1013 34 10000 0.45 355 10:40 22.05.2021
3721 Clouds 23 1013 36 10000 0.45 339 10:22 22.05.2021
3722 Clouds 21 1013 47 10000 0.45 343 08:56 22.05.2021
3723 Clouds 20 1013 52 10000 2 165 08:33 22.05.2021
3724 Clouds 18 1013 53 10000 2.07 158 07:42 22.05.2021
3725 Clouds 16 1012 51 10000 2.64 179 05:39 22.05.2021
3726 Clouds 16 1014 58 10000 2.74 185 02:31 22.05.2021
3727 Clouds 18 1016 60 10000 2.18 168 23:43 21.05.2021
3728 Clouds 19 1016 60 10000 2.01 180 22:50 21.05.2021
3729 Clouds 20 1016 63 10000 2.18 180 22:27 21.05.2021
3730 Clouds 16 1022 68 10000 0.45 90 21:49 21.05.2021
3731 Clouds 17 1022 68 10000 0.45 90 21:25 21.05.2021
3732 Clouds 19 1020 66 10000 2.23 167 20:50 21.05.2021
3733 Clouds 19 1020 67 10000 2.11 167 20:50 21.05.2021
3734 Clouds 20 1016 56 10000 1.76 133 20:29 21.05.2021
3735 Clouds 21 1016 54 10000 1.76 133 19:53 21.05.2021
3736 Clouds 21 1016 50 10000 1.25 103 19:28 21.05.2021
3737 Clouds 19 1022 61 10000 0.89 90 18:47 21.05.2021
3738 Clouds 21 1019 51 10000 1.79 90 18:25 21.05.2021
3739 Clouds 20 1022 54 10000 1.79 90 17:40 21.05.2021
3740 Clouds 20 1022 54 10000 1.79 90 17:40 21.05.2021
3741 Clouds 20 1022 52 10000 1.26 72 17:21 21.05.2021
3742 Clouds 21 1023 37 10000 1.79 135 16:40 21.05.2021
3743 Clouds 21 1023 36 10000 1.79 90 16:20 21.05.2021
3744 Clouds 21 1023 34 10000 4.02 90 15:44 21.05.2021
3745 Clouds 21 1023 35 10000 2.24 135 15:25 21.05.2021
3746 Clear 21 1021 49 10000 7.2 50 14:37 21.05.2021
3747 Clouds 23 1019 35 10000 0.89 45 13:44 21.05.2021
3748 Clouds 22 1019 35 10000 0.45 296 13:24 21.05.2021
3749 Clouds 22 1020 36 10000 4.02 135 12:23 21.05.2021
3750 Clouds 22 1020 44 10000 2.24 90 11:43 21.05.2021
3751 Clouds 21 1020 47 10000 0.45 337 11:24 21.05.2021
3752 Clouds 20 1020 51 10000 0.89 325 10:45 21.05.2021
3753 Clouds 20 1020 54 10000 3.13 90 10:18 21.05.2021
3754 Clouds 20 1018 62 10000 0.45 266 09:32 21.05.2021
3755 Clouds 19 1018 70 10000 1.97 102 08:46 21.05.2021
3756 Clouds 18 1018 76 10000 1.7 119 08:18 21.05.2021
3757 Clouds 16 1020 84 10000 1.27 115 07:26 21.05.2021
3758 Clear 15 1017 83 10000 0.1 213 05:20 21.05.2021
3759 Clear 15 1020 78 10000 0.89 315 00:43 21.05.2021
3760 Clear 15 1020 76 10000 0.45 270 23:57 20.05.2021
3761 Clear 15 1020 76 10000 0.45 315 23:25 20.05.2021
3762 Clear 16 1019 76 10000 0.89 270 22:58 20.05.2021
3763 Clear 16 1019 76 10000 1.34 292 22:36 20.05.2021
3764 Clouds 16 1019 75 10000 1.79 338 21:57 20.05.2021
3765 Clouds 16 1016 68 10000 1.23 21 21:36 20.05.2021
3766 Clear 17 1016 67 10000 1.65 352 21:18 20.05.2021
3767 Clouds 18 1016 73 10000 1.58 0 20:33 20.05.2021
3768 Clouds 18 1015 74 10000 2.39 357 19:53 20.05.2021
3769 Clouds 19 1015 70 10000 0.45 4 19:31 20.05.2021
3770 Clouds 19 1015 68 10000 0.45 3 18:54 20.05.2021
3771 Clouds 19 1015 65 10000 0.89 342 18:31 20.05.2021
3772 Clouds 21 1015 63 10000 2.68 349 17:47 20.05.2021
3773 Clouds 19 1018 56 10000 3.92 340 17:29 20.05.2021
3774 Clouds 20 1014 69 10000 1.79 359 16:48 20.05.2021
3775 Clouds 20 1014 66 10000 0.89 341 16:24 20.05.2021
3776 Clouds 20 1014 65 10000 1.34 7 15:41 20.05.2021
3777 Clouds 21 1014 63 10000 0.89 354 15:23 20.05.2021
3778 Clouds 19 1014 72 10000 1.34 6 14:39 20.05.2021
3779 Clouds 20 1014 70 10000 1.79 5 14:20 20.05.2021
3780 Clouds 20 1014 68 10000 1.34 358 13:37 20.05.2021
3781 Clouds 20 1014 67 10000 1.79 3 12:51 20.05.2021
3782 Clouds 20 1015 63 10000 1.34 7 12:21 20.05.2021
3783 Clouds 20 1015 63 10000 0.45 1 11:59 20.05.2021
3784 Clouds 20 1014 65 10000 5.4 306 11:21 20.05.2021
3785 Clouds 19 1014 67 10000 0.89 296 10:52 20.05.2021
3786 Clouds 19 1014 67 10000 0.45 325 10:28 20.05.2021
3787 Clouds 19 1014 67 10000 5.48 306 09:55 20.05.2021
3788 Clouds 18 1014 67 10000 5.55 306 09:37 20.05.2021
3789 Clear 19 1014 66 10000 1.34 253 09:18 20.05.2021
3790 Clear 19 1013 67 10000 0.45 19 08:50 20.05.2021
3791 Clouds 18 1013 66 10000 0.45 340 08:20 20.05.2021
3792 Clouds 18 1012 69 10000 0.89 234 07:46 20.05.2021
3793 Clouds 17 1012 69 10000 4.06 305 06:55 20.05.2021
3794 Clouds 17 1012 68 10000 1.34 347 06:37 20.05.2021
3795 Clouds 17 1012 72 10000 3.98 310 05:27 20.05.2021
3796 Clouds 18 1012 89 10000 3.66 308 03:24 20.05.2021
3797 Clouds 19 1017 57 10000 4.92 315 00:53 20.05.2021
3798 Clouds 20 1013 55 10000 4.02 315 23:56 19.05.2021
3799 Clouds 20 1013 58 10000 4.47 270 23:37 19.05.2021
3800 Clouds 20 1013 59 10000 1.79 270 23:19 19.05.2021
3801 Clouds 19 1013 58 10000 1.79 292 22:41 19.05.2021
3802 Clouds 20 1014 58 10000 1.79 292 22:18 19.05.2021
3803 Clouds 19 1018 56 10000 3.58 315 21:41 19.05.2021
3804 Clear 19 1015 68 10000 2.57 230 21:21 19.05.2021
3805 Clouds 20 1016 68 10000 2.86 255 20:58 19.05.2021
3806 Clouds 20 1016 66 10000 2.84 277 20:25 19.05.2021
3807 Clouds 21 1016 67 10000 2.97 276 19:49 19.05.2021
3808 Clouds 22 1010 40 10000 0.89 342 19:25 19.05.2021
3809 Clouds 21 1017 50 10000 1.79 270 18:50 19.05.2021
3810 Clouds 21 1017 50 10000 1.79 315 18:50 19.05.2021
3811 Clouds 21 1017 47 10000 1.79 315 18:31 19.05.2021
3812 Clouds 21 1017 55 10000 2.24 270 17:53 19.05.2021
3813 Clouds 21 1017 57 10000 4.92 315 17:21 19.05.2021
3814 Clouds 21 1017 44 10000 4.02 315 16:48 19.05.2021
3815 Clear 21 1017 43 10000 4.47 315 16:29 19.05.2021
3816 Clear 22 1018 51 10000 3.58 315 15:46 19.05.2021
3817 Clear 22 1018 47 10000 2.68 315 15:18 19.05.2021
3818 Clear 23 1014 53 10000 0.89 315 14:41 19.05.2021
3819 Clear 23 1014 52 10000 1.79 270 13:55 19.05.2021
3820 Clear 24 1014 46 10000 1.79 315 13:36 19.05.2021
3821 Clear 24 1013 39 10000 0.45 90 12:58 19.05.2021
3822 Clear 24 1013 43 10000 0.45 279 12:38 19.05.2021
3823 Clear 24 1013 42 10000 0.89 180 12:19 19.05.2021
3824 Clear 24 1014 40 10000 0.45 270 11:41 19.05.2021
3825 Clear 24 1014 40 10000 0.89 315 11:22 19.05.2021
3826 Clear 23 1014 44 10000 0.45 294 10:55 19.05.2021
3827 Clear 23 1014 44 10000 0.89 225 10:36 19.05.2021
3828 Clear 21 1014 40 10000 1.34 248 09:55 19.05.2021
3829 Clear 21 1014 48 10000 0.45 270 09:23 19.05.2021
3830 Clear 20 1014 49 10000 0.89 270 08:53 19.05.2021
3831 Clear 20 1014 49 10000 0.45 314 08:34 19.05.2021
3832 Clear 18 1014 53 10000 1.34 315 07:48 19.05.2021
3833 Clear 16 1014 56 10000 0.45 315 06:49 19.05.2021
3834 Clear 15 1014 56 10000 0.89 270 05:52 19.05.2021
3835 Clear 16 1012 75 10000 1.37 151 03:53 19.05.2021
3836 Clouds 16 1015 67 10000 0.83 134 00:48 19.05.2021
3837 Clouds 18 1013 75 10000 1.05 151 00:29 19.05.2021
3838 Clouds 18 1013 75 10000 1.22 156 23:29 18.05.2021
3839 Clouds 17 1015 67 10000 0.45 315 22:54 18.05.2021
3840 Clouds 17 1015 74 10000 0.89 270 22:27 18.05.2021
3841 Clouds 17 1015 76 10000 0.89 270 21:54 18.05.2021
3842 Clouds 17 1015 76 10000 0.69 133 21:35 18.05.2021
3843 Clouds 18 1015 73 10000 2.13 122 20:51 18.05.2021
3844 Clouds 18 1014 70 10000 1.71 69 20:20 18.05.2021
3845 Clouds 20 1012 62 10000 1.71 69 19:56 18.05.2021
3846 Clouds 16 1018 77 10000 1.71 69 19:38 18.05.2021
3847 Clouds 20 1014 63 10000 0.45 90 19:18 18.05.2021
3848 Clouds 21 1015 55 10000 1.34 135 18:41 18.05.2021
3849 Clouds 19 1018 64 10000 0.45 90 18:23 18.05.2021
3850 Clouds 20 1019 59 10000 0.89 90 17:38 18.05.2021
3851 Clouds 20 1019 55 10000 2.68 315 16:55 18.05.2021
3852 Clouds 20 1019 48 10000 2.24 292 16:28 18.05.2021
3853 Clouds 20 1019 44 10000 2.24 315 15:54 18.05.2021
3854 Clouds 20 1019 37 10000 2.68 315 15:31 18.05.2021
3855 Clouds 21 1020 28 10000 1.34 270 14:47 18.05.2021
3856 Clear 21 1020 33 10000 0.89 292 14:22 18.05.2021
3857 Clear 22 1015 28 10000 1.79 299 13:22 18.05.2021
3858 Clear 23 1016 28 10000 0.45 11 12:31 18.05.2021
3859 Clear 22 1016 38 10000 0.89 225 11:50 18.05.2021
3860 Clear 22 1015 43 10000 1.79 315 11:30 18.05.2021
3861 Clear 21 1015 43 10000 0.45 336 10:50 18.05.2021
3862 Clear 21 1015 41 10000 0.45 341 10:50 18.05.2021
3863 Clear 20 1015 50 10000 0.45 270 10:28 18.05.2021
3864 Clouds 20 1015 59 10000 0.45 353 09:50 18.05.2021
3865 Clouds 20 1013 61 10000 1.34 13 09:30 18.05.2021
3866 Clouds 20 1013 61 10000 0.89 4 09:30 18.05.2021
3867 Clouds 20 1013 68 10000 1.34 353 08:26 18.05.2021
3868 Clouds 19 1013 76 10000 2.04 30 07:54 18.05.2021
3869 Clouds 19 1013 75 10000 2.04 30 07:35 18.05.2021
3870 Clouds 18 1011 82 10000 1.9 321 04:44 18.05.2021
3871 Clouds 18 1011 84 10000 1.88 248 02:27 18.05.2021
3872 Clouds 19 1011 77 10000 1.88 248 01:45 18.05.2021
3873 Clear 20 1011 72 10000 1.85 238 00:28 18.05.2021
3874 Clear 20 1011 70 10000 1.85 238 23:59 17.05.2021
3875 Clear 18 1015 82 10000 3.6 220 23:23 17.05.2021
3876 Clear 18 1015 88 10000 2.06 240 22:59 17.05.2021
3877 Clear 18 1015 88 10000 2.06 240 22:39 17.05.2021
3878 Clear 20 1010 69 10000 1.12 276 22:20 17.05.2021
3879 Clear 18 1014 88 10000 3.09 30 21:47 17.05.2021
3880 Clear 19 1014 88 10000 3.09 50 21:19 17.05.2021
3881 Clear 19 1014 88 10000 1.54 10 20:39 17.05.2021
3882 Clear 21 1014 83 10000 1.03 0 20:20 17.05.2021
3883 Clear 22 1013 83 10000 2.06 360 19:41 17.05.2021
3884 Clear 21 1013 83 10000 1.03 0 19:21 17.05.2021
3885 Clear 21 1014 83 10000 1.54 350 18:45 17.05.2021
3886 Clear 22 1014 78 10000 2.06 10 18:27 17.05.2021
3887 Clear 22 1014 73 10000 2.57 340 17:45 17.05.2021
3888 Clear 22 1014 73 10000 3.6 340 17:27 17.05.2021
3889 Clear 22 1014 73 10000 2.57 350 16:47 17.05.2021
3890 Clear 22 1014 73 10000 1.54 350 16:20 17.05.2021
3891 Clear 23 1014 68 10000 3.6 340 15:28 17.05.2021
3892 Clear 22 1014 68 10000 2.57 340 14:56 17.05.2021
3893 Clear 23 1014 68 10000 2.57 340 14:36 17.05.2021
3894 Clear 23 1014 64 10000 3.6 330 14:18 17.05.2021
3895 Clear 24 1014 53 10000 5.14 290 13:30 17.05.2021
3896 Clear 24 1014 53 10000 3.09 250 12:42 17.05.2021
3897 Clouds 26 1008 33 10000 0.89 319 12:22 17.05.2021
3898 Clear 23 1013 60 10000 5.14 300 11:42 17.05.2021
3899 Clear 24 1013 53 10000 4.12 270 11:21 17.05.2021
3900 Clear 26 1012 28 10000 4.63 230 10:48 17.05.2021
3901 Clear 27 1012 28 10000 5.66 210 10:25 17.05.2021
3902 Clear 26 1012 26 10000 4.63 200 09:30 17.05.2021
3903 Clear 26 1012 26 10000 4.63 200 09:30 17.05.2021
3904 Clear 26 1012 26 10000 4.63 200 09:30 17.05.2021
3905 Clear 25 1007 28 10000 0.89 332 08:33 17.05.2021
3906 Clouds 24 1007 27 10000 0.45 322 07:53 17.05.2021
3907 Clear 23 1011 31 10000 6.17 210 07:23 17.05.2021
3908 Clear 24 1011 33 10000 6.17 200 06:20 17.05.2021
3909 Clear 20 1010 28 10000 7.2 200 03:40 17.05.2021
3910 Clear 20 1007 49 10000 2.64 195 01:58 17.05.2021
3911 Clear 20 1007 49 10000 2.49 198 00:45 17.05.2021
3912 Clear 20 1007 50 10000 2.4 202 23:48 16.05.2021
3913 Clear 20 1008 49 10000 2.6 190 23:23 16.05.2021
3914 Clear 20 1008 48 10000 2.58 189 22:44 16.05.2021
3915 Clear 20 1008 49 10000 2.6 190 22:44 16.05.2021
3916 Clear 20 1008 48 10000 2.58 189 22:44 16.05.2021
3917 Clear 20 1008 48 10000 2.55 172 22:25 16.05.2021
3918 Clear 20 1008 46 10000 2.54 170 21:44 16.05.2021
3919 Clear 20 1008 45 10000 2.5 155 21:25 16.05.2021
3920 Clear 20 1008 43 10000 2.37 160 20:48 16.05.2021
3921 Clouds 20 1008 42 10000 2.58 152 20:22 16.05.2021
3922 Clouds 20 1009 43 10000 2.58 152 20:22 16.05.2021
3923 Clouds 20 1009 41 10000 2.58 152 19:53 16.05.2021
3924 Clouds 21 1008 35 10000 2.32 145 19:23 16.05.2021
3925 Clouds 22 1009 31 10000 2.32 145 18:48 16.05.2021
3926 Clouds 23 1008 28 10000 1.63 129 18:28 16.05.2021
3927 Clear 21 1013 53 10000 4.12 40 17:59 16.05.2021
3928 Clear 21 1013 53 10000 4.12 40 17:40 16.05.2021
3929 Clear 22 1013 49 10000 4.63 40 17:21 16.05.2021
3930 Clear 22 1013 68 10000 4.12 30 16:51 16.05.2021
3931 Clear 23 1013 60 10000 4.12 30 16:25 16.05.2021
3932 Clear 23 1013 60 10000 4.12 30 16:25 16.05.2021
3933 Clear 22 1014 53 10000 4.12 30 15:52 16.05.2021
3934 Clear 22 1014 56 10000 4.12 30 15:27 16.05.2021
3935 Clouds 24 1010 28 10000 0.92 116 14:49 16.05.2021
3936 Clear 25 1014 29 10000 5.66 220 14:22 16.05.2021
3937 Clouds 25 1009 25 10000 0.45 241 13:58 16.05.2021
3938 Clouds 25 1010 28 10000 0.73 139 13:39 16.05.2021
3939 Clouds 25 1010 28 10000 0.65 137 13:18 16.05.2021
3940 Clouds 25 1010 28 10000 0.65 137 12:51 16.05.2021
3941 Clouds 25 1010 32 10000 0.58 166 12:29 16.05.2021
3942 Clouds 24 1010 31 10000 0.58 166 11:45 16.05.2021
3943 Clouds 24 1010 32 10000 0.28 242 11:23 16.05.2021
3944 Clouds 23 1010 33 10000 0.28 242 10:38 16.05.2021
3945 Clouds 22 1010 34 10000 0.87 219 10:20 16.05.2021
3946 Clouds 22 1010 37 10000 0.87 219 09:45 16.05.2021
3947 Clear 21 1010 39 10000 1.59 202 09:22 16.05.2021
3948 Clear 20 1010 45 10000 1.16 209 08:40 16.05.2021
3949 Clouds 19 1010 46 10000 1.73 196 08:22 16.05.2021
3950 Clouds 17 1010 55 10000 1.73 196 07:31 16.05.2021
3951 Clouds 16 1010 55 10000 2.23 204 05:50 16.05.2021
3952 Clouds 17 1013 50 10000 2.46 205 00:58 16.05.2021
3953 Clear 17 1017 67 10000 2.06 220 00:20 16.05.2021
3954 Clear 17 1017 72 10000 2.57 150 23:24 15.05.2021
3955 Clear 18 1017 72 10000 3.09 290 22:59 15.05.2021
3956 Clouds 17 1013 45 10000 2.47 225 22:31 15.05.2021
3957 Clouds 17 1013 42 10000 2.34 229 21:55 15.05.2021
3958 Clouds 17 1013 49 10000 1.97 231 21:26 15.05.2021
3959 Clouds 17 1013 49 10000 1.97 231 21:26 15.05.2021
3960 Clouds 17 1012 52 10000 2.02 232 20:55 15.05.2021
3961 Clouds 17 1013 53 10000 1.46 256 20:27 15.05.2021
3962 Clear 16 1016 72 10000 2.57 250 19:44 15.05.2021
3963 Clouds 18 1012 49 10000 2.15 286 19:21 15.05.2021
3964 Clouds 19 1012 51 10000 0.45 271 18:22 15.05.2021
3965 Clouds 16 1017 72 10000 5.66 290 17:46 15.05.2021
3966 Clouds 17 1017 68 10000 6.17 280 17:18 15.05.2021
3967 Clouds 17 1017 68 10000 6.69 280 16:38 15.05.2021
3968 Clouds 17 1017 72 10000 6.69 280 16:19 15.05.2021
3969 Clouds 16 1017 68 10000 6.69 280 15:36 15.05.2021
3970 Clouds 19 1017 63 10000 6.69 280 14:50 15.05.2021
3971 Clouds 20 1012 43 10000 0.45 9 14:28 15.05.2021
3972 Clouds 19 1012 51 10000 1.34 359 13:43 15.05.2021
3973 Clouds 19 1012 50 10000 0.45 320 13:18 15.05.2021
3974 Clouds 19 1012 55 10000 0.45 25 11:55 15.05.2021
3975 Clouds 19 1012 51 10000 1.79 355 11:29 15.05.2021
3976 Clouds 19 1012 56 10000 0.45 327 10:49 15.05.2021
3977 Clouds 18 1012 61 10000 0.45 353 09:46 15.05.2021
3978 Clouds 18 1011 63 10000 6.02 289 08:42 15.05.2021
3979 Clouds 18 1011 67 10000 1.34 2 07:56 15.05.2021
3980 Clouds 17 1011 72 10000 4.46 278 07:23 15.05.2021
3981 Clouds 16 1010 75 10000 4.46 278 06:52 15.05.2021
3982 Clouds 16 1010 78 10000 1.34 304 05:53 15.05.2021
3983 Clouds 17 1009 81 10000 6.42 290 04:19 15.05.2021
3984 Clouds 18 1012 72 10000 9.77 250 00:35 15.05.2021
3985 Clouds 20 1012 60 10000 8.23 200 23:45 14.05.2021
3986 Clear 20 1011 56 10000 8.75 200 22:43 14.05.2021
3987 Clouds 21 1010 49 10000 7.72 190 22:23 14.05.2021
3988 Clouds 21 1011 46 10000 7.72 200 21:31 14.05.2021
3989 Clouds 22 1011 46 10000 7.72 210 20:55 14.05.2021
3990 Clouds 22 1011 49 10000 7.2 210 20:28 14.05.2021
3991 Clouds 22 1011 46 10000 7.72 210 19:50 14.05.2021
3992 Clouds 22 1010 38 10000 6.17 200 19:28 14.05.2021
3993 Clouds 22 1010 33 10000 8.75 190 18:52 14.05.2021
3994 Clouds 22 1011 33 10000 6.69 200 18:26 14.05.2021
3995 Clouds 22 1011 35 10000 8.23 210 17:44 14.05.2021
3996 Clouds 22 1011 33 10000 7.72 210 17:24 14.05.2021
3997 Clouds 21 1012 35 10000 4.12 0 16:46 14.05.2021
3998 Clouds 20 1012 68 10000 3.6 340 16:28 14.05.2021
3999 Clouds 20 1012 68 10000 3.6 340 16:28 14.05.2021
4000 Clouds 19 1012 72 10000 5.66 350 15:36 14.05.2021
4001 Clouds 23 1008 55 10000 1.31 211 14:42 14.05.2021
4002 Clear 20 1013 68 10000 2.57 20 14:20 14.05.2021
4003 Clear 21 1013 60 10000 3.09 290 13:33 14.05.2021
4004 Clear 20 1013 60 10000 4.63 240 12:52 14.05.2021
4005 Clouds 20 1014 73 10000 4.12 260 12:30 14.05.2021
4006 Clear 21 1014 64 10000 4.63 230 11:50 14.05.2021
4007 Clear 20 1014 60 10000 5.14 220 11:23 14.05.2021
4008 Clouds 21 1010 47 10000 0.45 247 10:38 14.05.2021
4009 Clouds 21 1010 48 10000 3.29 243 10:38 14.05.2021
4010 Clouds 21 1010 52 10000 0.45 323 09:53 14.05.2021
4011 Clouds 20 1010 51 10000 3.24 235 09:31 14.05.2021
4012 Clouds 20 1009 59 10000 3.03 229 08:54 14.05.2021
4013 Clouds 19 1009 64 10000 3.12 223 08:19 14.05.2021
4014 Clouds 18 1009 70 10000 3.25 216 06:54 14.05.2021
4015 Clouds 17 1009 70 10000 3.25 216 06:36 14.05.2021
4016 Clear 18 1013 63 10000 7.72 190 02:32 14.05.2021
4017 Clear 19 1013 55 10000 7.2 200 00:38 14.05.2021
4018 Clear 20 1013 45 10000 4.63 190 23:50 13.05.2021
4019 Clear 20 1013 45 10000 4.12 190 23:22 13.05.2021
4020 Clear 19 1013 52 10000 4.12 210 22:49 13.05.2021
4021 Clear 19 1013 59 10000 3.6 210 22:30 13.05.2021
4022 Clear 19 1014 69 10000 3.47 222 21:54 13.05.2021
4023 Clear 19 1014 69 10000 3.45 222 21:36 13.05.2021
4024 Clear 19 1014 69 10000 3.37 235 21:18 13.05.2021
4025 Clear 20 1014 69 10000 3.37 235 20:39 13.05.2021
4026 Clouds 20 1013 65 10000 3.49 251 19:46 13.05.2021
4027 Clouds 20 1015 72 10000 4.53 263 19:23 13.05.2021
4028 Clouds 20 1015 69 10000 4.49 262 18:56 13.05.2021
4029 Clouds 20 1015 70 10000 4.49 262 18:37 13.05.2021
4030 Clouds 20 1015 72 10000 6.04 268 18:18 13.05.2021
4031 Clouds 21 1015 68 10000 6.04 268 17:40 13.05.2021
4032 Clouds 20 1015 67 10000 7.34 273 17:21 13.05.2021
4033 Clouds 21 1015 70 10000 7.34 273 16:37 13.05.2021
4034 Clouds 21 1015 71 10000 8.06 273 16:19 13.05.2021
4035 Clouds 21 1015 73 10000 8.06 273 15:46 13.05.2021
4036 Clouds 21 1015 73 10000 8.1 276 15:23 13.05.2021
4037 Clear 21 1014 68 10000 8.23 270 14:50 13.05.2021
4038 Clear 20 1014 72 10000 8.75 270 14:31 13.05.2021
4039 Clouds 22 1011 58 10000 0.45 323 13:48 13.05.2021
4040 Clouds 21 1011 56 10000 0.89 347 13:30 13.05.2021
4041 Clouds 21 1011 56 10000 0.89 347 13:30 13.05.2021
4042 Clouds 22 1011 56 10000 0.45 307 12:59 13.05.2021
4043 Clouds 21 1011 53 10000 0.45 109 12:40 13.05.2021
4044 Clouds 22 1011 49 10000 1.34 308 11:57 13.05.2021
4045 Clouds 21 1010 49 10000 1.34 260 11:35 13.05.2021
4046 Clouds 21 1010 52 10000 1.34 353 10:55 13.05.2021
4047 Clouds 21 1010 56 10000 0.89 239 10:33 13.05.2021
4048 Clear 20 1008 46 10000 1.34 187 09:47 13.05.2021
4049 Clear 20 1008 43 10000 1.34 321 09:27 13.05.2021
4050 Clear 19 1008 43 10000 0.45 287 08:31 13.05.2021
4051 Clear 19 1008 42 10000 0.89 318 07:58 13.05.2021
4052 Clouds 16 1009 67 10000 3.99 221 06:45 13.05.2021
4053 Clouds 15 1009 69 10000 4 216 05:50 13.05.2021
4054 Clear 15 1010 67 10000 3.27 236 02:38 13.05.2021
4055 Clear 16 1011 65 10000 3.05 235 00:38 13.05.2021
4056 Clear 17 1012 66 10000 0.89 307 23:40 12.05.2021
4057 Clear 17 1012 67 10000 3.33 251 22:56 12.05.2021
4058 Clear 17 1012 67 10000 2.89 253 22:19 12.05.2021
4059 Clear 17 1012 67 10000 2.88 253 21:50 12.05.2021
4060 Clear 17 1011 71 10000 0.89 356 20:58 12.05.2021
4061 Clear 17 1011 72 10000 0.89 356 20:58 12.05.2021
4062 Clear 17 1011 70 10000 0.89 304 20:33 12.05.2021
4063 Clear 18 1011 70 10000 1.34 285 19:50 12.05.2021
4064 Clear 19 1010 58 10000 0.45 301 18:51 12.05.2021
4065 Clear 20 1010 56 10000 0.89 323 18:25 12.05.2021
4066 Clear 19 1016 63 10000 3.9 310 17:53 12.05.2021
4067 Clear 18 1016 63 10000 3.9 310 17:34 12.05.2021
4068 Clear 19 1016 59 10000 4.48 306 16:45 12.05.2021
4069 Clear 19 1016 57 10000 4.8 299 16:25 12.05.2021
4070 Clear 19 1016 63 10000 4.12 270 15:42 12.05.2021
4071 Clouds 20 1016 72 10000 6.17 280 14:58 12.05.2021
4072 Clear 20 1011 58 10000 5.01 304 14:35 12.05.2021
4073 Clouds 20 1012 62 10000 0.89 336 13:49 12.05.2021
4074 Clouds 20 1011 63 10000 1.34 356 13:30 12.05.2021
4075 Clouds 19 1012 67 10000 1.34 345 12:37 12.05.2021
4076 Clouds 19 1012 67 10000 2.24 3 11:49 12.05.2021
4077 Clouds 19 1012 67 10000 0.45 11 11:31 12.05.2021
4078 Clouds 20 1012 66 10000 5.06 291 10:58 12.05.2021
4079 Clouds 20 1012 66 10000 5.06 291 10:58 12.05.2021
4080 Clouds 20 1011 68 10000 0.45 336 10:29 12.05.2021
4081 Clouds 20 1011 68 10000 0.89 4 10:29 12.05.2021
4082 Clouds 19 1011 70 10000 5.36 287 09:45 12.05.2021
4083 Clouds 19 1012 74 10000 4.97 279 09:26 12.05.2021
4084 Clouds 18 1011 76 10000 4.95 283 08:48 12.05.2021
4085 Clouds 18 1011 76 10000 0.89 301 08:28 12.05.2021
4086 Clouds 18 1011 76 10000 4.39 275 07:33 12.05.2021
4087 Clouds 17 1015 77 10000 6.17 260 06:22 12.05.2021
4088 Clouds 18 1011 80 10000 3.62 240 00:53 12.05.2021
4089 Clouds 18 1015 88 10000 7.72 270 00:29 12.05.2021
4090 Clouds 18 1016 82 10000 6.17 270 23:47 11.05.2021
4091 Clouds 19 1016 77 10000 6.17 270 23:28 11.05.2021
4092 Clouds 19 1016 77 10000 4.12 250 22:49 11.05.2021
4093 Clouds 19 1017 77 10000 3.09 230 22:21 11.05.2021
4094 Clouds 19 1016 72 10000 3.6 250 21:55 11.05.2021
4095 Clouds 19 1016 72 10000 3.6 250 21:36 11.05.2021
4096 Clouds 19 1016 72 10000 3.6 240 21:18 11.05.2021
4097 Clouds 19 1015 68 10000 4.63 260 20:43 11.05.2021
4098 Clouds 20 1015 77 10000 6.69 260 20:23 11.05.2021
4099 Clouds 19 1015 82 10000 8.75 270 19:43 11.05.2021
4100 Clouds 22 1010 74 10000 5.7 279 19:21 11.05.2021
4101 Clouds 21 1014 77 10000 11.83 270 18:46 11.05.2021
4102 Clouds 21 1013 77 10000 10.29 280 18:27 11.05.2021
4103 Clouds 21 1013 77 10000 10.29 280 18:27 11.05.2021
4104 Clouds 21 1013 83 10000 10.8 280 17:41 11.05.2021
4105 Clear 22 1013 64 10000 5.66 240 17:23 11.05.2021
4106 Clear 22 1013 60 10000 4.12 0 16:42 11.05.2021
4107 Clear 22 1013 68 10000 1.54 300 16:22 11.05.2021
4108 Clear 22 1013 68 10000 2.06 10 15:43 11.05.2021
4109 Clear 21 1014 78 10000 1.03 0 15:19 11.05.2021
4110 Clouds 23 1009 57 10000 1.34 4 14:44 11.05.2021
4111 Clouds 23 1009 57 10000 1.34 4 14:24 11.05.2021
4112 Clouds 24 1009 56 10000 0.89 356 13:47 11.05.2021
4113 Clouds 24 1009 57 10000 1.34 344 13:24 11.05.2021
4114 Clouds 24 1009 56 10000 4.05 311 12:54 11.05.2021
4115 Clouds 23 1009 59 10000 0.45 2 12:35 11.05.2021
4116 Clouds 23 1009 61 10000 3.09 297 11:49 11.05.2021
4117 Clouds 23 1009 62 10000 1.34 350 11:31 11.05.2021
4118 Clouds 23 1009 62 10000 0.45 1 10:55 11.05.2021
4119 Clouds 23 1009 62 10000 0.45 341 10:33 11.05.2021
4120 Clouds 23 1009 58 10000 1.47 252 09:59 11.05.2021
4121 Clouds 23 1009 55 10000 1.47 252 09:40 11.05.2021
4122 Clouds 23 1009 57 10000 0.65 229 09:22 11.05.2021
4123 Clouds 22 1009 56 10000 0.65 229 08:48 11.05.2021
4124 Clouds 22 1009 58 10000 0.65 229 08:30 11.05.2021
4125 Clouds 21 1008 59 10000 0.91 226 07:53 11.05.2021
4126 Clear 19 1012 72 10000 1.03 0 07:25 11.05.2021
4127 Clear 18 1012 72 10000 2.57 220 05:51 11.05.2021
4128 Clouds 20 1010 66 10000 1.66 149 00:55 11.05.2021
4129 Clouds 20 1011 65 10000 1.66 149 00:37 11.05.2021
4130 Clear 20 1015 72 10000 3.6 230 23:46 10.05.2021
4131 Clear 21 1015 77 10000 4.63 240 23:21 10.05.2021
4132 Clouds 21 1011 63 10000 2.01 158 22:45 10.05.2021
4133 Clouds 22 1011 62 10000 1.95 162 22:20 10.05.2021
4134 Clouds 22 1011 62 10000 1.95 162 21:48 10.05.2021
4135 Clear 21 1011 60 10000 2.07 163 21:27 10.05.2021
4136 Clear 20 1014 83 10000 4.12 240 20:45 10.05.2021
4137 Clear 22 1014 60 10000 2.57 80 20:21 10.05.2021
4138 Clear 22 1014 64 10000 3.09 40 19:48 10.05.2021
4139 Clear 22 1014 64 10000 4.12 50 19:24 10.05.2021
4140 Clear 22 1014 68 10000 5.14 50 18:57 10.05.2021
4141 Clear 22 1014 68 10000 5.66 40 18:28 10.05.2021
4142 Clear 22 1015 68 10000 5.14 40 17:49 10.05.2021
4143 Clear 22 1015 68 10000 5.14 40 17:31 10.05.2021
4144 Clear 22 1015 68 10000 4.63 40 16:55 10.05.2021
4145 Clear 22 1015 68 10000 4.63 40 16:27 10.05.2021
4146 Clear 23 1015 73 10000 5.14 30 15:45 10.05.2021
4147 Clear 24 1015 57 10000 5.14 40 15:26 10.05.2021
4148 Clear 26 1016 44 10000 5.66 40 14:54 10.05.2021
4149 Clear 25 1016 50 10000 5.14 40 14:28 10.05.2021
4150 Clear 25 1012 49 10000 1.77 98 13:50 10.05.2021
4151 Clear 25 1012 51 10000 2.2 103 12:55 10.05.2021
4152 Clear 25 1012 50 10000 2.06 94 12:31 10.05.2021
4153 Clear 25 1013 50 10000 2.06 94 11:55 10.05.2021
4154 Clear 24 1013 48 10000 2.06 94 11:37 10.05.2021
4155 Clear 24 1013 44 10000 2.07 100 11:18 10.05.2021
4156 Clear 24 1013 47 10000 2.07 100 10:44 10.05.2021
4157 Clear 23 1013 53 10000 1.9 115 09:54 10.05.2021
4158 Clear 22 1013 58 10000 1.92 114 09:35 10.05.2021
4159 Clear 20 1013 68 10000 1.34 128 08:42 10.05.2021
4160 Clouds 20 1013 74 10000 1.39 153 08:19 10.05.2021
4161 Clouds 18 1013 80 10000 1.39 153 07:48 10.05.2021
4162 Clouds 17 1013 82 10000 1.61 167 07:27 10.05.2021
4163 Clouds 17 1014 82 10000 1.61 167 06:47 10.05.2021
4164 Clear 17 1017 72 10000 0.51 0 03:54 10.05.2021
4165 Clear 18 1017 68 10000 2.57 300 00:37 10.05.2021
4166 Clear 19 1014 94 10000 2.83 154 22:55 09.05.2021
4167 Clear 19 1014 94 10000 2.83 154 22:37 09.05.2021
4168 Clear 19 1014 93 10000 2.96 150 22:18 09.05.2021
4169 Clear 19 1014 90 10000 2.96 150 21:41 09.05.2021
4170 Clear 19 1014 87 10000 2.91 143 20:55 09.05.2021
4171 Clear 20 1013 83 10000 2.91 143 20:35 09.05.2021
4172 Clouds 20 1013 76 10000 2.35 131 19:53 09.05.2021
4173 Clouds 21 1013 73 10000 2.12 103 19:28 09.05.2021
4174 Clouds 22 1013 64 10000 2.12 104 18:52 09.05.2021
4175 Clouds 22 1013 62 10000 2.19 91 18:29 09.05.2021
4176 Clear 22 1017 56 10000 5.66 60 17:51 09.05.2021
4177 Clear 22 1017 68 10000 5.66 50 16:45 09.05.2021
4178 Clear 22 1017 68 10000 5.66 50 16:24 09.05.2021
4179 Clear 21 1017 68 10000 6.17 40 15:49 09.05.2021
4180 Clear 21 1017 73 10000 6.17 40 15:18 09.05.2021
4181 Clear 21 1017 73 10000 6.17 40 15:18 09.05.2021
4182 Clouds 24 1014 51 10000 1 36 14:37 09.05.2021
4183 Clear 23 1014 57 10000 0.93 27 13:47 09.05.2021
4184 Clear 23 1014 59 10000 0.73 50 13:21 09.05.2021
4185 Clear 23 1014 59 10000 0.73 50 12:30 09.05.2021
4186 Clear 22 1015 60 10000 0.93 95 11:45 09.05.2021
4187 Clear 22 1015 61 10000 1.31 100 11:21 09.05.2021
4188 Clear 21 1014 63 10000 1.31 100 10:43 09.05.2021
4189 Clear 20 1015 66 10000 1.24 115 09:51 09.05.2021
4190 Clear 20 1015 67 10000 1.21 117 09:33 09.05.2021
4191 Clear 19 1014 73 10000 0.45 340 08:54 09.05.2021
4192 Clear 19 1014 77 10000 1.42 131 08:32 09.05.2021
4193 Clear 18 1014 83 10000 1.63 135 07:56 09.05.2021
4194 Clear 16 1014 86 10000 1.66 153 07:24 09.05.2021
4195 Clear 16 1014 88 10000 1.66 153 06:34 09.05.2021
4196 Clear 17 1019 77 10000 3.6 40 00:52 09.05.2021
4197 Clear 18 1019 82 10000 4.12 20 23:44 08.05.2021
4198 Clear 18 1019 82 10000 4.12 30 23:26 08.05.2021
4199 Clear 18 1019 82 10000 3.6 20 22:46 08.05.2021
4200 Clear 19 1019 77 10000 3.09 360 22:19 08.05.2021
4201 Clear 19 1018 77 10000 2.06 10 21:48 08.05.2021
4202 Clear 19 1018 72 10000 1.54 340 21:19 08.05.2021
4203 Clear 20 1014 73 10000 0.7 253 20:46 08.05.2021
4204 Clear 20 1014 73 10000 0.86 289 20:20 08.05.2021
4205 Clear 21 1014 65 10000 1.45 319 19:24 08.05.2021
4206 Clear 21 1013 62 10000 1.45 319 18:54 08.05.2021
4207 Clear 22 1013 60 10000 1.45 319 18:36 08.05.2021
4208 Clear 21 1018 56 10000 3.09 330 17:51 08.05.2021
4209 Clear 21 1018 52 10000 2.06 340 17:21 08.05.2021
4210 Clear 22 1018 49 10000 2.06 360 16:31 08.05.2021
4211 Clear 22 1018 46 10000 2.06 20 15:51 08.05.2021
4212 Clear 22 1018 46 10000 1.54 10 15:31 08.05.2021
4213 Clear 22 1018 46 10000 3.09 30 14:49 08.05.2021
4214 Clear 22 1018 52 10000 4.12 30 14:20 08.05.2021
4215 Clear 23 1014 43 10000 0.89 16 13:51 08.05.2021
4216 Clear 23 1014 43 10000 1.34 348 13:20 08.05.2021
4217 Clear 22 1014 47 10000 1.34 9 12:33 08.05.2021
4218 Clear 22 1014 51 10000 1.34 10 11:44 08.05.2021
4219 Clear 22 1014 53 10000 1.79 24 11:26 08.05.2021
4220 Clear 21 1014 60 10000 0.89 356 10:41 08.05.2021
4221 Clear 22 1014 63 10000 1.34 6 10:21 08.05.2021
4222 Clear 22 1013 65 10000 1.79 2 09:48 08.05.2021
4223 Clear 22 1013 62 10000 1.73 289 09:27 08.05.2021
4224 Clear 20 1013 66 10000 1.68 264 08:25 08.05.2021
4225 Clear 18 1012 69 10000 1.68 264 07:41 08.05.2021
4226 Clear 17 1012 69 10000 1.51 242 06:53 08.05.2021
4227 Clear 17 1012 69 10000 1.51 242 06:53 08.05.2021
4228 Clear 17 1011 70 10000 1.5 239 05:27 08.05.2021
4229 Clear 17 1012 83 10000 1.63 230 01:54 08.05.2021
4230 Clear 17 1012 83 10000 1.63 230 01:54 08.05.2021
4231 Clear 17 1013 80 10000 1.73 224 00:51 08.05.2021
4232 Clear 17 1013 79 10000 1.57 216 00:29 08.05.2021
4233 Clear 18 1013 77 10000 1.57 216 23:30 07.05.2021
4234 Clear 18 1013 76 10000 1.22 219 22:51 07.05.2021
4235 Clear 18 1013 76 10000 1.03 203 22:20 07.05.2021
4236 Clear 19 1016 82 10000 2.06 290 21:39 07.05.2021
4237 Clear 19 1016 82 10000 2.06 290 21:21 07.05.2021
4238 Clear 18 1016 82 10000 2.06 300 20:47 07.05.2021
4239 Clear 19 1016 88 10000 3.09 300 20:27 07.05.2021
4240 Clear 19 1016 82 10000 3.09 290 19:44 07.05.2021
4241 Clouds 21 1011 54 10000 1 13 19:26 07.05.2021
4242 Clear 20 1015 82 10000 2.57 320 18:43 07.05.2021
4243 Clear 20 1016 82 10000 3.09 320 18:25 07.05.2021
4244 Clear 21 1015 82 10000 2.06 320 17:25 07.05.2021
4245 Clear 21 1016 82 10000 3.6 320 17:00 07.05.2021
4246 Clear 21 1016 82 10000 4.12 310 16:40 07.05.2021
4247 Clear 21 1016 82 10000 4.12 310 16:21 07.05.2021
4248 Clear 20 1016 82 10000 4.12 310 15:41 07.05.2021
4249 Clouds 20 1016 82 10000 3.6 310 15:23 07.05.2021
4250 Clouds 22 1012 58 10000 2 13 14:33 07.05.2021
4251 Clouds 22 1012 56 10000 2.2 20 13:56 07.05.2021
4252 Clear 20 1017 77 10000 2.06 280 13:24 07.05.2021
4253 Clouds 22 1012 59 10000 2.4 19 12:49 07.05.2021
4254 Clouds 21 1012 63 10000 1.7 30 12:28 07.05.2021
4255 Clouds 21 1012 63 10000 1.7 30 12:28 07.05.2021
4256 Clouds 21 1013 65 10000 0.89 355 11:52 07.05.2021
4257 Clouds 20 1012 64 10000 1.34 359 11:27 07.05.2021
4258 Clouds 20 1012 64 10000 1.34 359 11:27 07.05.2021
4259 Clouds 21 1012 62 10000 1.68 36 10:44 07.05.2021
4260 Clouds 20 1012 64 10000 1.42 20 10:23 07.05.2021
4261 Clouds 20 1012 65 10000 0.45 344 09:55 07.05.2021
4262 Rain 20 1012 66 10000 1.44 42 08:57 07.05.2021
4263 Clouds 19 1012 73 10000 1.44 42 08:34 07.05.2021
4264 Clouds 17 1013 81 10000 0.78 232 07:20 07.05.2021
4265 Clouds 16 1012 82 10000 0.78 232 06:45 07.05.2021
4266 Clouds 17 1012 81 10000 2 132 04:28 07.05.2021
4267 Clouds 18 1013 82 10000 2.45 120 01:24 07.05.2021
4268 Clouds 19 1013 56 10000 2.41 117 22:52 06.05.2021
4269 Clouds 19 1013 52 10000 1.77 126 22:25 06.05.2021
4270 Clouds 19 1013 55 10000 1.72 126 21:43 06.05.2021
4271 Clouds 20 1013 58 10000 0.97 91 20:46 06.05.2021
4272 Clouds 18 1016 82 10000 2.57 180 20:25 06.05.2021
4273 Clouds 19 1016 77 10000 2.06 0 19:52 06.05.2021
4274 Clouds 20 1012 59 10000 2.25 110 19:25 06.05.2021
4275 Clouds 20 1012 62 10000 2.25 110 18:57 06.05.2021
4276 Clouds 20 1012 61 10000 2.25 110 18:34 06.05.2021
4277 Clouds 20 1013 62 10000 2.62 107 17:51 06.05.2021
4278 Clouds 20 1013 64 10000 2.39 78 17:28 06.05.2021
4279 Clouds 21 1013 57 10000 2.39 78 16:57 06.05.2021
4280 Rain 21 1013 56 10000 2.39 78 16:35 06.05.2021
4281 Rain 21 1013 56 10000 2.39 78 16:35 06.05.2021
4282 Clouds 21 1016 49 10000 3.09 0 15:59 06.05.2021
4283 Clouds 21 1016 49 10000 3.09 0 15:40 06.05.2021
4284 Clouds 21 1016 49 10000 3.09 0 15:40 06.05.2021
4285 Clouds 21 1016 49 10000 3.09 0 15:40 06.05.2021
4286 Clouds 21 1017 35 10000 5.66 60 15:18 06.05.2021
4287 Clouds 21 1014 60 10000 2.16 78 14:25 06.05.2021
4288 Clouds 23 1014 46 10000 2.16 78 13:53 06.05.2021
4289 Clear 19 1017 82 10000 2.57 20 13:23 06.05.2021
4290 Clear 19 1017 77 10000 2.57 20 12:46 06.05.2021
4291 Clear 20 1017 77 10000 2.06 340 12:23 06.05.2021
4292 Clear 19 1018 82 10000 2.06 300 11:48 06.05.2021
4293 Clear 19 1017 82 10000 2.06 260 11:21 06.05.2021
4294 Clear 18 1017 82 10000 2.06 270 10:47 06.05.2021
4295 Clear 18 1017 82 10000 2.06 260 10:27 06.05.2021
4296 Clouds 20 1014 54 10000 2.08 100 09:46 06.05.2021
4297 Clouds 19 1014 72 10000 2.22 110 09:27 06.05.2021
4298 Clouds 17 1014 84 10000 1.76 125 08:49 06.05.2021
4299 Clouds 16 1013 89 10000 2.16 131 08:23 06.05.2021
4300 Clouds 15 1013 96 10000 2.16 131 07:48 06.05.2021
4301 Clouds 15 1013 99 10000 1.63 124 07:19 06.05.2021
4302 Clouds 14 1013 99 10000 1.39 119 06:26 06.05.2021
4303 Clouds 14 1013 99 10000 1.39 119 05:49 06.05.2021
4304 Clouds 15 1013 99 10000 0.88 123 04:33 06.05.2021
4305 Clouds 16 1013 99 10000 0.27 142 02:35 06.05.2021
4306 Clouds 16 1013 99 10000 0.89 278 23:50 05.05.2021
4307 Clouds 16 1013 99 10000 0.66 188 22:40 05.05.2021
4308 Clouds 16 1013 99 10000 0.91 151 22:21 05.05.2021
4309 Clouds 16 1013 95 10000 0.91 151 21:40 05.05.2021
4310 Clouds 17 1012 94 10000 0.7 277 21:18 05.05.2021
4311 Clouds 17 1012 90 10000 0.7 277 20:35 05.05.2021
4312 Clouds 17 1012 90 10000 0.7 277 20:35 05.05.2021
4313 Clouds 18 1011 85 10000 0.97 250 19:44 05.05.2021
4314 Clouds 18 1011 86 10000 0.96 250 19:44 05.05.2021
4315 Clouds 18 1011 85 10000 0.97 249 19:44 05.05.2021
4316 Clouds 18 1011 85 10000 1.42 297 19:24 05.05.2021
4317 Clouds 19 1011 85 10000 1.42 297 18:44 05.05.2021
4318 Clouds 18 1011 86 10000 0.45 359 18:19 05.05.2021
4319 Clouds 19 1011 88 10000 0.75 323 17:49 05.05.2021
4320 Clouds 18 1011 88 10000 1.91 315 17:27 05.05.2021
4321 Clouds 18 1011 89 10000 0.45 321 16:50 05.05.2021
4322 Clouds 18 1011 96 10000 0.86 286 16:30 05.05.2021
4323 Clouds 18 1011 99 10000 0.86 286 15:51 05.05.2021
4324 Clouds 17 1011 99 10000 0.76 181 15:21 05.05.2021
4325 Clouds 17 1011 99 10000 0.97 214 14:43 05.05.2021
4326 Clouds 16 1012 99 10000 2.55 163 14:25 05.05.2021
4327 Clouds 17 1012 99 10000 2.55 163 13:42 05.05.2021
4328 Clouds 17 1012 99 10000 2.67 161 13:22 05.05.2021
4329 Clouds 17 1012 99 10000 2.16 177 12:28 05.05.2021
4330 Rain 17 1012 93 10000 0.45 351 11:51 05.05.2021
4331 Clouds 18 1012 87 10000 2.16 177 11:31 05.05.2021
4332 Clouds 19 1014 72 10000 1.03 0 10:57 05.05.2021
4333 Clouds 19 1014 72 10000 1.03 0 10:37 05.05.2021
4334 Clouds 19 1010 80 10000 1.5 216 09:53 05.05.2021
4335 Clouds 18 1010 81 10000 1.22 166 09:23 05.05.2021
4336 Clouds 18 1010 87 10000 1.27 137 08:42 05.05.2021
4337 Clouds 18 1010 87 10000 1.27 137 08:42 05.05.2021
4338 Clouds 18 1010 90 10000 1.65 126 08:22 05.05.2021
4339 Clouds 17 1010 94 10000 1.65 126 07:45 05.05.2021
4340 Clouds 17 1010 95 10000 1.32 141 07:21 05.05.2021
4341 Clouds 17 1009 97 10000 1.32 141 06:33 05.05.2021
4342 Clouds 17 1010 92 10000 2.02 203 01:49 05.05.2021
4343 Clouds 17 1010 92 10000 2.02 203 01:49 05.05.2021
4344 Clouds 17 1012 87 10000 1.92 174 00:21 05.05.2021
4345 Clouds 18 1012 83 10000 1.92 174 23:38 04.05.2021
4346 Clouds 18 1012 83 10000 2.2 152 22:52 04.05.2021
4347 Clouds 18 1012 81 10000 2.68 143 22:22 04.05.2021
4348 Clouds 19 1012 81 10000 2.68 143 21:57 04.05.2021
4349 Clouds 19 1012 80 10000 2.68 143 21:36 04.05.2021
4350 Clear 18 1015 82 10000 3.09 250 20:58 04.05.2021
4351 Clear 18 1015 82 10000 3.09 250 20:58 04.05.2021
4352 Clear 18 1015 82 10000 3.09 250 20:39 04.05.2021
4353 Clear 19 1015 88 10000 4.12 250 20:21 04.05.2021
4354 Clear 19 1015 88 10000 4.12 250 20:21 04.05.2021
4355 Clear 18 1015 88 10000 4.63 230 19:41 04.05.2021
4356 Clouds 20 1012 69 10000 1.07 106 19:21 04.05.2021
4357 Clear 19 1015 82 10000 2.06 230 18:51 04.05.2021
4358 Clear 19 1015 77 10000 1.03 0 18:22 04.05.2021
4359 Clear 19 1016 82 10000 2.57 30 17:48 04.05.2021
4360 Clear 21 1016 73 10000 3.6 40 17:22 04.05.2021
4361 Clouds 21 1013 70 10000 1.59 109 16:41 04.05.2021
4362 Clouds 20 1013 75 10000 1.91 119 16:22 04.05.2021
4363 Clouds 20 1013 73 10000 0.45 236 15:36 04.05.2021
4364 Clouds 20 1014 74 10000 1.28 111 14:50 04.05.2021
4365 Clouds 20 1015 76 10000 1.69 109 14:21 04.05.2021
4366 Clouds 21 1015 73 10000 1.61 109 13:41 04.05.2021
4367 Clouds 20 1015 73 10000 1.2 70 13:20 04.05.2021
4368 Clear 21 1019 72 10000 3.09 40 12:50 04.05.2021
4369 Clear 21 1019 72 10000 3.09 30 12:24 04.05.2021
4370 Clouds 19 1019 72 10000 2.57 30 11:42 04.05.2021
4371 Clouds 19 1019 77 10000 2.06 360 11:22 04.05.2021
4372 Clear 19 1019 77 10000 2.06 30 10:42 04.05.2021
4373 Clouds 19 1016 81 10000 0.75 105 10:21 04.05.2021
4374 Clouds 18 1016 84 10000 1.89 131 09:28 04.05.2021
4375 Clouds 17 1016 88 10000 1.89 131 08:58 04.05.2021
4376 Clouds 17 1016 92 10000 1.89 131 08:36 04.05.2021
4377 Clouds 16 1016 99 10000 2.43 140 07:59 04.05.2021
4378 Clouds 15 1016 99 10000 2.43 140 07:38 04.05.2021
4379 Clouds 14 1016 99 10000 2.8 122 06:32 04.05.2021
4380 Clouds 14 1015 99 10000 2.6 123 05:36 04.05.2021
4381 Clouds 14 1016 99 10000 2.59 114 03:55 04.05.2021
4382 Clouds 14 1016 99 10000 1.58 114 00:53 04.05.2021
4383 Clouds 14 1016 96 10000 1.67 134 23:44 03.05.2021
4384 Clouds 15 1016 95 10000 2.31 122 23:24 03.05.2021
4385 Clouds 14 1017 92 10000 2.26 123 22:33 03.05.2021
4386 Clouds 16 1016 90 10000 2.99 112 21:55 03.05.2021
4387 Clouds 16 1016 89 10000 2.99 112 21:37 03.05.2021
4388 Clouds 16 1016 88 10000 3.66 119 21:18 03.05.2021
4389 Clouds 16 1016 86 10000 3.88 114 20:42 03.05.2021
4390 Clouds 16 1016 84 10000 4.28 105 20:23 03.05.2021
4391 Clouds 16 1017 84 10000 4.41 105 19:43 03.05.2021
4392 Clouds 16 1017 83 10000 4.07 101 19:24 03.05.2021
4393 Clouds 17 1017 82 10000 4.07 101 18:30 03.05.2021
4394 Clouds 17 1017 82 10000 4.07 101 18:30 03.05.2021
4395 Clouds 17 1016 78 10000 3.78 89 17:52 03.05.2021
4396 Clouds 17 1016 80 10000 3.18 60 17:25 03.05.2021
4397 Clouds 17 1016 83 10000 3.18 60 16:51 03.05.2021
4398 Clouds 17 1016 82 10000 2.91 48 16:23 03.05.2021
4399 Clouds 16 1017 83 10000 2.99 49 15:47 03.05.2021
4400 Clouds 16 1017 86 10000 3.21 112 15:20 03.05.2021
4401 Clouds 16 1017 83 10000 2.51 117 14:21 03.05.2021
4402 Rain 17 1018 81 10000 2.51 117 13:51 03.05.2021
4403 Rain 16 1019 80 10000 2.71 118 13:29 03.05.2021
4404 Clouds 16 1019 80 10000 2.71 118 12:54 03.05.2021
4405 Rain 17 1019 79 10000 2.22 134 12:27 03.05.2021
4406 Clouds 17 1019 78 10000 2.22 134 11:47 03.05.2021
4407 Clouds 17 1019 77 10000 2.16 193 11:29 03.05.2021
4408 Clouds 18 1019 75 10000 2.16 193 10:49 03.05.2021
4409 Clouds 18 1018 75 10000 2.16 193 10:31 03.05.2021
4410 Clouds 18 1018 78 10000 2.67 156 09:53 03.05.2021
4411 Clouds 18 1018 78 10000 2.67 156 09:53 03.05.2021
4412 Clouds 18 1018 81 10000 2.21 145 09:21 03.05.2021
4413 Rain 18 1018 84 10000 2.18 150 08:42 03.05.2021
4414 Clouds 17 1018 86 10000 1.48 138 08:23 03.05.2021
4415 Clouds 17 1017 89 10000 1.47 138 07:36 03.05.2021
4416 Clouds 16 1016 88 10000 2.57 85 06:32 03.05.2021
4417 Clouds 16 1015 86 10000 2.56 84 05:54 03.05.2021
4418 Clouds 17 1015 87 10000 2.52 113 01:51 03.05.2021
4419 Clouds 17 1015 88 10000 1.44 112 00:19 03.05.2021
4420 Clear 17 1018 88 10000 1.03 0 23:25 02.05.2021
4421 Clear 18 1018 82 10000 3.09 60 22:49 02.05.2021
4422 Clear 18 1018 82 10000 3.09 60 22:49 02.05.2021
4423 Clear 18 1019 82 10000 3.6 80 22:30 02.05.2021
4424 Clouds 18 1015 86 10000 2.34 110 21:56 02.05.2021
4425 Clouds 18 1015 85 10000 2.34 110 21:33 02.05.2021
4426 Clouds 18 1015 81 10000 1.63 100 20:45 02.05.2021
4427 Clouds 18 1015 79 10000 1.48 86 20:22 02.05.2021
4428 Clouds 18 1015 75 10000 1.48 86 19:40 02.05.2021
4429 Clouds 19 1014 74 10000 1.87 68 19:21 02.05.2021
4430 Clouds 19 1014 71 10000 1.87 68 18:44 02.05.2021
4431 Clouds 19 1014 69 10000 1.93 34 18:26 02.05.2021
4432 Clear 20 1018 72 10000 5.14 30 17:48 02.05.2021
4433 Clear 19 1018 72 10000 4.63 20 17:28 02.05.2021
4434 Clear 19 1018 72 10000 4.12 10 16:58 02.05.2021
4435 Clear 18 1018 72 10000 4.12 10 16:39 02.05.2021
4436 Clear 18 1018 72 10000 3.6 10 16:18 02.05.2021
4437 Clear 19 1018 72 10000 3.6 340 15:41 02.05.2021
4438 Clear 20 1019 68 10000 3.09 340 15:22 02.05.2021
4439 Clouds 20 1014 63 10000 0.45 18 14:37 02.05.2021
4440 Clear 20 1019 72 10000 3.6 330 13:58 02.05.2021
4441 Clouds 21 1015 62 10000 1.79 358 13:40 02.05.2021
4442 Clouds 21 1014 63 10000 0.45 18 13:19 02.05.2021
4443 Clouds 21 1015 67 10000 0.45 346 12:42 02.05.2021
4444 Clouds 21 1014 66 10000 0.89 350 12:22 02.05.2021
4445 Clouds 21 1014 68 10000 3.82 309 11:48 02.05.2021
4446 Clouds 20 1014 68 10000 3.7 301 11:28 02.05.2021
4447 Clouds 21 1014 63 10000 3.7 301 10:36 02.05.2021
4448 Clouds 21 1014 61 10000 0.45 1 10:18 02.05.2021
4449 Clouds 20 1014 67 10000 0.89 355 09:42 02.05.2021
4450 Clouds 20 1014 66 10000 2.83 292 09:23 02.05.2021
4451 Clouds 19 1014 68 10000 2.82 292 08:52 02.05.2021
4452 Clouds 19 1014 71 10000 2.52 278 08:26 02.05.2021
4453 Clouds 18 1014 73 10000 2.67 270 07:29 02.05.2021
4454 Clouds 18 1014 69 10000 2.67 270 06:48 02.05.2021
4455 Clouds 18 1013 65 10000 3.28 257 04:49 02.05.2021
4456 Clouds 20 1013 63 10000 2.47 266 01:37 02.05.2021
4457 Clouds 20 1012 73 10000 2.74 262 23:48 01.05.2021
4458 Clouds 20 1012 74 10000 0.45 328 23:27 01.05.2021
4459 Clouds 20 1012 74 10000 0.45 328 23:27 01.05.2021
4460 Clouds 20 1012 75 10000 1.42 268 22:51 01.05.2021
4461 Clouds 20 1011 75 10000 2.17 318 22:24 01.05.2021
4462 Drizzle 19 1015 77 10000 1.54 0 21:47 01.05.2021
4463 Clouds 20 1014 77 10000 2.06 110 21:26 01.05.2021
4464 Clear 22 1013 60 10000 7.72 270 20:58 01.05.2021
4465 Clear 22 1013 60 10000 7.72 270 20:39 01.05.2021
4466 Clouds 22 1009 63 10000 2.52 341 20:21 01.05.2021
4467 Clouds 23 1009 62 10000 2.52 341 19:45 01.05.2021
4468 Clouds 23 1009 61 10000 1.69 321 19:23 01.05.2021
4469 Clouds 24 1009 55 10000 1.69 321 18:42 01.05.2021
4470 Clear 22 1013 60 10000 1.54 310 18:18 01.05.2021
4471 Clear 23 1013 56 10000 1.03 0 17:36 01.05.2021
4472 Clear 23 1013 64 10000 3.09 330 16:55 01.05.2021
4473 Clear 22 1013 64 10000 3.09 330 16:37 01.05.2021
4474 Clouds 24 1012 53 10000 2.06 0 15:57 01.05.2021
4475 Clouds 23 1012 73 9000 2.06 260 14:58 01.05.2021
4476 Clouds 23 1012 73 9000 2.06 320 13:58 01.05.2021
4477 Clouds 24 1012 57 9000 1.03 0 13:25 01.05.2021
4478 Clear 22 1012 64 10000 2.57 340 12:52 01.05.2021
4479 Clouds 25 1008 58 10000 4.67 347 12:25 01.05.2021
4480 Clouds 25 1007 62 10000 4.67 347 11:52 01.05.2021
4481 Clouds 25 1007 59 10000 4.73 347 11:34 01.05.2021
4482 Clouds 24 1007 60 10000 2.5 9 10:57 01.05.2021
4483 Clouds 24 1007 60 10000 2.5 9 10:30 01.05.2021
4484 Clouds 23 1008 63 10000 1.67 169 09:43 01.05.2021
4485 Rain 23 1008 63 10000 3.69 172 09:24 01.05.2021
4486 Clouds 22 1008 62 10000 2.22 195 08:26 01.05.2021
4487 Clouds 23 1007 61 10000 2.22 196 07:39 01.05.2021
4488 Clouds 22 1007 62 10000 2.96 143 06:18 01.05.2021
4489 Clouds 22 1007 62 10000 2.96 143 06:18 01.05.2021
4490 Clear 24 1010 32 10000 5.66 190 03:42 01.05.2021
4491 Clear 22 1010 77 10000 2.06 0 00:32 01.05.2021
4492 Clear 22 1009 82 10000 3.6 80 23:57 30.04.2021
4493 Clear 20 1009 72 10000 3.6 310 22:56 30.04.2021
4494 Clouds 21 1005 81 10000 1.48 190 22:37 30.04.2021
4495 Clouds 20 1005 81 10000 2.28 171 22:18 30.04.2021
4496 Clouds 20 1005 78 10000 2.28 171 21:43 30.04.2021
4497 Clouds 20 1005 79 10000 2.51 168 21:23 30.04.2021
4498 Clouds 21 1005 79 10000 2.51 168 20:41 30.04.2021
4499 Clouds 21 1005 77 10000 1.26 180 19:57 30.04.2021
4500 Clouds 21 1005 77 10000 1.26 180 19:57 30.04.2021
4501 Clear 21 1008 73 10000 1.03 0 19:19 30.04.2021
4502 Clouds 21 1004 67 10000 1.91 144 18:43 30.04.2021
4503 Clear 23 1008 73 10000 7.2 70 18:24 30.04.2021
4504 Clear 25 1009 68 10000 7.72 70 17:48 30.04.2021
4505 Clear 25 1009 64 10000 7.2 60 17:22 30.04.2021
4506 Clear 26 1009 64 10000 7.2 60 16:51 30.04.2021
4507 Clear 26 1010 60 10000 6.69 60 16:28 30.04.2021
4508 Clear 21 1010 60 10000 8.23 60 15:41 30.04.2021
4509 Clouds 21 1010 64 10000 6.69 50 15:20 30.04.2021
4510 Clouds 25 1010 73 10000 6.17 40 14:46 30.04.2021
4511 Clouds 25 1010 73 10000 5.66 40 14:27 30.04.2021
4512 Clear 24 1010 77 10000 6.17 40 13:50 30.04.2021
4513 Clouds 25 1011 49 10000 6.17 60 13:30 30.04.2021
4514 Clouds 24 1011 77 10000 4.63 30 12:43 30.04.2021
4515 Clouds 25 1008 43 10000 1.08 103 12:24 30.04.2021
4516 Clouds 24 1008 46 10000 2.05 79 11:25 30.04.2021
4517 Clouds 23 1008 48 10000 2.36 91 10:52 30.04.2021
4518 Clouds 23 1008 48 10000 2.36 91 10:34 30.04.2021
4519 Clouds 23 1008 48 10000 2.36 91 10:34 30.04.2021
4520 Clouds 23 1008 48 10000 1.09 76 09:57 30.04.2021
4521 Clear 21 1012 82 10000 1.54 360 09:28 30.04.2021
4522 Clouds 21 1008 65 10000 0.23 188 08:49 30.04.2021
4523 Clouds 18 1008 76 10000 0.2 157 07:45 30.04.2021
4524 Clouds 17 1008 78 10000 0.61 123 07:25 30.04.2021
4525 Clouds 17 1008 78 10000 0.61 123 06:51 30.04.2021
4526 Clouds 17 1007 78 10000 0.87 170 06:25 30.04.2021
4527 Clouds 17 1007 76 10000 0.87 170 05:35 30.04.2021
4528 Clear 18 1011 94 10000 3.09 270 02:56 30.04.2021
4529 Clouds 18 1008 79 10000 3.15 253 01:45 30.04.2021
4530 Clouds 19 1007 75 10000 1.45 203 23:56 29.04.2021
4531 Clear 19 1007 73 10000 1.65 163 23:25 29.04.2021
4532 Clear 20 1007 62 10000 1.65 163 22:43 29.04.2021
4533 Clear 20 1007 60 10000 2.35 156 22:22 29.04.2021
4534 Clear 21 1007 61 10000 2.35 156 21:44 29.04.2021
4535 Clear 21 1007 63 10000 2.16 167 21:25 29.04.2021
4536 Clear 19 1010 82 10000 2.06 30 20:48 29.04.2021
4537 Clear 19 1009 72 10000 3.09 50 20:29 29.04.2021
4538 Clear 19 1009 77 10000 2.06 10 19:59 29.04.2021
4539 Clear 19 1009 77 10000 2.06 10 19:41 29.04.2021
4540 Clear 19 1009 77 10000 2.06 10 19:41 29.04.2021
4541 Clear 21 1009 60 10000 3.6 250 19:20 29.04.2021
4542 Clear 21 1009 60 10000 3.6 250 19:20 29.04.2021
4543 Clear 23 1009 38 10000 4.63 70 18:42 29.04.2021
4544 Clear 23 1008 49 10000 8.75 80 17:57 29.04.2021
4545 Clear 23 1008 49 10000 8.75 80 17:38 29.04.2021
4546 Clear 23 1008 43 10000 8.75 60 17:18 29.04.2021
4547 Clear 23 1008 41 10000 9.26 60 16:43 29.04.2021
4548 Clear 23 1009 43 10000 8.75 60 16:21 29.04.2021
4549 Clear 23 1009 43 10000 7.72 50 15:43 29.04.2021
4550 Clear 23 1010 47 10000 8.75 70 15:23 29.04.2021
4551 Clear 23 1007 56 10000 2.94 96 14:45 29.04.2021
4552 Clear 23 1007 61 10000 3.19 103 14:22 29.04.2021
4553 Clear 22 1008 68 10000 3.19 103 13:40 29.04.2021
4554 Clear 22 1009 68 10000 3.32 104 13:20 29.04.2021
4555 Clear 22 1009 70 10000 3.32 104 12:43 29.04.2021
4556 Clear 21 1009 70 10000 0.45 265 12:20 29.04.2021
4557 Clear 22 1009 70 10000 3.25 88 11:47 29.04.2021
4558 Clear 22 1009 67 10000 2.79 75 11:22 29.04.2021
4559 Clear 23 1009 58 10000 2.79 75 10:45 29.04.2021
4560 Clear 22 1009 58 10000 1.39 39 10:26 29.04.2021
4561 Clear 21 1008 61 10000 1.39 39 09:42 29.04.2021
4562 Clear 20 1008 65 10000 0.82 71 09:22 29.04.2021
4563 Clear 21 1008 64 10000 0.82 71 09:22 29.04.2021
4564 Clear 19 1008 70 10000 0.82 71 08:45 29.04.2021
4565 Clouds 18 1007 73 10000 0.26 320 08:26 29.04.2021
4566 Clouds 17 1007 75 10000 0.26 320 07:44 29.04.2021
4567 Clouds 16 1006 77 10000 0.63 245 06:49 29.04.2021
4568 Clouds 16 1006 79 10000 2.61 147 05:27 29.04.2021
4569 Clear 18 1007 81 10000 2.61 127 00:49 29.04.2021
4570 Clear 18 1008 80 10000 2.8 146 23:24 28.04.2021
4571 Clear 18 1008 79 10000 2.85 146 22:59 28.04.2021
4572 Clear 18 1008 79 10000 2.56 148 22:28 28.04.2021
4573 Clear 19 1007 78 10000 2.56 148 21:55 28.04.2021
4574 Clear 19 1007 78 10000 2.56 148 21:37 28.04.2021
4575 Clear 19 1007 77 10000 2.4 152 21:18 28.04.2021
4576 Clear 19 1007 76 10000 2.71 144 20:39 28.04.2021
4577 Clouds 19 1007 74 10000 2.4 130 20:21 28.04.2021
4578 Clouds 20 1007 71 10000 2.4 130 19:42 28.04.2021
4579 Clouds 20 1006 69 10000 1.92 104 19:23 28.04.2021
4580 Clouds 21 1006 63 10000 1.92 104 18:46 28.04.2021
4581 Clouds 22 1006 60 10000 1.4 79 18:26 28.04.2021
4582 Clear 20 1010 77 10000 3.09 30 17:47 28.04.2021
4583 Clear 19 1010 82 10000 3.09 10 17:25 28.04.2021
4584 Clear 20 1010 77 10000 2.57 360 16:22 28.04.2021
4585 Clear 20 1010 77 10000 3.09 10 15:54 28.04.2021
4586 Clear 20 1010 77 10000 3.09 10 15:35 28.04.2021
4587 Clear 20 1010 77 10000 2.57 360 14:46 28.04.2021
4588 Clear 20 1010 77 10000 2.57 350 14:23 28.04.2021
4589 Clouds 23 1006 62 10000 2.36 346 13:59 28.04.2021
4590 Clouds 22 1006 63 10000 2.36 346 13:32 28.04.2021
4591 Clouds 22 1006 65 10000 2.29 326 12:56 28.04.2021
4592 Clouds 21 1006 66 10000 2.29 326 12:34 28.04.2021
4593 Clouds 21 1006 64 10000 1.98 311 11:50 28.04.2021
4594 Clouds 21 1006 64 10000 0.45 330 11:27 28.04.2021
4595 Clouds 20 1006 67 10000 2.07 305 10:43 28.04.2021
4596 Clouds 20 1006 66 10000 1.84 306 10:21 28.04.2021
4597 Clouds 20 1006 67 10000 1.84 307 09:57 28.04.2021
4598 Clouds 20 1006 67 10000 1.34 336 09:57 28.04.2021
4599 Clouds 19 1006 69 10000 0.89 354 09:34 28.04.2021
4600 Clouds 18 1005 74 10000 0.8 316 08:56 28.04.2021
4601 Clouds 17 1005 79 10000 0.21 149 07:58 28.04.2021
4602 Clouds 17 1005 79 10000 1.15 182 07:28 28.04.2021
4603 Clouds 17 1004 79 10000 1.94 257 06:24 28.04.2021
4604 Clouds 17 1003 71 10000 1.68 249 03:50 28.04.2021
4605 Clouds 17 1003 68 10000 1.37 223 02:35 28.04.2021
4606 Clouds 17 1004 72 10000 1.85 135 00:53 28.04.2021
4607 Clouds 17 1004 70 10000 2.29 136 23:57 27.04.2021
4608 Clouds 18 1004 71 10000 2.29 136 23:36 27.04.2021
4609 Clear 18 1008 72 10000 1.54 160 22:50 27.04.2021
4610 Clear 18 1008 82 10000 1.03 0 22:31 27.04.2021
4611 Clear 18 1008 82 10000 1.54 290 21:50 27.04.2021
4612 Clear 18 1007 77 10000 1.03 0 21:31 27.04.2021
4613 Clear 17 1007 77 10000 1.54 40 20:59 27.04.2021
4614 Clear 17 1007 77 10000 1.54 40 20:41 27.04.2021
4615 Clear 18 1007 72 10000 0.51 0 19:52 27.04.2021
4616 Clear 19 1007 77 10000 1.03 270 19:27 27.04.2021
4617 Clear 19 1007 77 10000 1.54 270 18:59 27.04.2021
4618 Clear 19 1007 77 10000 1.54 270 18:41 27.04.2021
4619 Clear 19 1007 77 10000 1.03 0 18:21 27.04.2021
4620 Clear 20 1007 77 10000 2.06 320 17:31 27.04.2021
4621 Clear 20 1007 68 10000 1.54 350 16:54 27.04.2021
4622 Clear 20 1007 73 10000 3.09 310 16:31 27.04.2021
4623 Clear 21 1007 73 10000 3.09 340 15:57 27.04.2021
4624 Clear 20 1007 73 10000 3.09 340 15:37 27.04.2021
4625 Clear 19 1007 77 10000 4.12 20 15:19 27.04.2021
4626 Clear 19 1007 77 10000 3.6 30 14:41 27.04.2021
4627 Clear 19 1007 77 10000 3.6 20 14:21 27.04.2021
4628 Clouds 21 1004 56 10000 1.59 336 13:49 27.04.2021
4629 Clouds 21 1004 56 10000 1.59 336 13:49 27.04.2021
4630 Clouds 21 1003 61 10000 1.65 353 13:25 27.04.2021
4631 Clouds 21 1004 48 10000 0.89 357 12:34 27.04.2021
4632 Clouds 22 1004 49 10000 0.89 4 11:57 27.04.2021
4633 Clouds 21 1004 49 10000 0.45 352 11:28 27.04.2021
4634 Clouds 22 1004 46 10000 1.65 358 10:51 27.04.2021
4635 Clouds 21 1003 48 10000 1.09 111 10:25 27.04.2021
4636 Clouds 21 1003 51 10000 1.06 115 09:54 27.04.2021
4637 Clouds 19 1003 63 10000 0.45 346 08:55 27.04.2021
4638 Clouds 18 1003 65 10000 0.7 195 08:28 27.04.2021
4639 Clouds 17 1003 64 10000 1.2 172 07:48 27.04.2021
4640 Clouds 17 1006 55 10000 0.51 0 06:58 27.04.2021
4641 Clouds 17 1006 55 10000 2.06 220 06:29 27.04.2021
4642 Clouds 17 1006 49 10000 4.63 230 05:32 27.04.2021
4643 Clouds 18 1007 52 10000 4.12 70 01:57 27.04.2021
4644 Clouds 19 1007 48 10000 2.06 60 00:28 27.04.2021
4645 Clouds 19 1007 48 10000 5.14 70 23:46 26.04.2021
4646 Clear 19 1007 48 10000 4.63 70 23:20 26.04.2021
4647 Clear 18 1006 55 10000 3.6 40 22:50 26.04.2021
4648 Clear 19 1006 52 10000 4.12 60 22:23 26.04.2021
4649 Clear 19 1006 55 10000 3.09 70 21:42 26.04.2021
4650 Clear 19 1006 55 10000 3.09 70 21:42 26.04.2021
4651 Clear 19 1005 52 10000 2.57 70 21:23 26.04.2021
4652 Clear 18 1005 63 10000 4.63 60 20:46 26.04.2021
4653 Clear 17 1005 82 10000 3.6 30 20:28 26.04.2021
4654 Clear 18 1005 72 10000 2.57 0 19:47 26.04.2021
4655 Clear 19 1006 72 10000 3.09 50 19:26 26.04.2021
4656 Clear 20 1007 63 10000 4.12 70 18:46 26.04.2021
4657 Clouds 20 1007 72 10000 6.17 50 18:28 26.04.2021
4658 Rain 21 1004 61 10000 4.8 132 17:50 26.04.2021
4659 Rain 21 1004 59 10000 5.3 122 17:22 26.04.2021
4660 Clouds 23 1006 56 10000 0.89 8 16:48 26.04.2021
4661 Clouds 23 1005 53 10000 1.34 6 16:26 26.04.2021
4662 Clear 21 1010 77 10000 6.17 40 15:48 26.04.2021
4663 Clouds 21 1010 68 10000 8.23 50 15:24 26.04.2021
4664 Clouds 22 1006 58 10000 4.95 99 14:59 26.04.2021
4665 Clouds 23 1007 55 10000 4.95 99 14:34 26.04.2021
4666 Clouds 22 1008 57 10000 1.78 94 13:53 26.04.2021
4667 Clouds 22 1009 56 10000 0.45 20 13:34 26.04.2021
4668 Clouds 22 1009 58 10000 0.45 357 12:58 26.04.2021
4669 Clouds 22 1009 53 10000 2.13 118 11:56 26.04.2021
4670 Clouds 21 1010 56 10000 2.13 118 11:38 26.04.2021
4671 Clouds 20 1011 61 10000 0.89 329 10:53 26.04.2021
4672 Clouds 20 1011 61 10000 2.62 247 10:32 26.04.2021
4673 Clouds 20 1011 61 10000 2.62 247 10:32 26.04.2021
4674 Clouds 19 1011 66 10000 0.89 353 09:57 26.04.2021
4675 Clouds 18 1011 65 10000 0.45 11 09:39 26.04.2021
4676 Clear 18 1011 65 10000 0.89 359 09:19 26.04.2021
4677 Clouds 16 1011 74 10000 2.95 126 08:22 26.04.2021
4678 Clouds 15 1011 77 10000 2.99 126 07:54 26.04.2021
4679 Clouds 14 1011 77 10000 2.39 134 07:28 26.04.2021
4680 Clouds 13 1011 75 10000 2.39 134 06:39 26.04.2021
4681 Clouds 14 1011 72 10000 2.13 157 05:38 26.04.2021
4682 Clouds 14 1012 69 10000 3.02 143 04:38 26.04.2021
4683 Clouds 14 1012 70 10000 2.81 134 03:23 26.04.2021
4684 Clouds 15 1013 64 10000 2.69 126 01:26 26.04.2021
4685 Clouds 15 1014 64 10000 2.69 126 00:46 26.04.2021
4686 Clear 15 1014 63 10000 2.3 142 23:48 25.04.2021
4687 Clear 16 1014 63 10000 2.61 144 23:27 25.04.2021
4688 Clear 15 1018 72 10000 3.09 210 22:58 25.04.2021
4689 Clear 16 1018 72 10000 3.09 210 22:37 25.04.2021
4690 Clear 16 1018 67 10000 4.12 210 22:18 25.04.2021
4691 Clear 17 1017 72 10000 3.6 220 21:41 25.04.2021
4692 Clear 17 1017 72 10000 4.12 220 21:23 25.04.2021
4693 Clear 16 1017 72 10000 4.12 210 20:48 25.04.2021
4694 Clear 17 1017 67 10000 4.63 220 20:26 25.04.2021
4695 Clear 18 1017 63 10000 3.6 270 19:48 25.04.2021
4696 Clear 18 1014 45 10000 1.8 87 19:28 25.04.2021
4697 Clear 19 1014 42 10000 1.8 87 18:54 25.04.2021
4698 Clear 19 1017 52 10000 6.17 60 18:30 25.04.2021
4699 Clear 19 1017 52 10000 6.17 60 18:30 25.04.2021
4700 Clear 19 1017 48 10000 6.17 50 17:57 25.04.2021
4701 Clear 19 1017 48 10000 6.17 50 17:39 25.04.2021
4702 Clear 19 1017 59 10000 6.69 50 17:21 25.04.2021
4703 Clear 19 1017 59 10000 7.2 40 16:41 25.04.2021
4704 Clouds 19 1017 59 10000 7.72 40 16:23 25.04.2021
4705 Clear 20 1018 48 10000 6.17 50 15:28 25.04.2021
4706 Clear 20 1018 52 10000 5.66 50 14:56 25.04.2021
4707 Clear 19 1018 48 10000 6.17 40 14:22 25.04.2021
4708 Clouds 21 1015 37 10000 2.33 32 13:52 25.04.2021
4709 Clouds 21 1015 38 10000 0.45 306 13:22 25.04.2021
4710 Clouds 20 1015 38 10000 1.51 44 12:49 25.04.2021
4711 Clouds 20 1015 39 10000 1.52 81 12:26 25.04.2021
4712 Clouds 20 1016 42 10000 1.52 81 11:53 25.04.2021
4713 Clouds 20 1016 42 10000 0.45 323 11:31 25.04.2021
4714 Clouds 19 1016 46 10000 0.45 355 10:48 25.04.2021
4715 Clear 19 1016 48 10000 2.35 84 10:21 25.04.2021
4716 Clear 18 1015 52 10000 2.35 84 09:47 25.04.2021
4717 Clear 18 1015 60 10000 1.59 91 09:25 25.04.2021
4718 Clouds 15 1015 81 10000 1.35 126 08:22 25.04.2021
4719 Clouds 13 1015 86 10000 1.34 129 07:46 25.04.2021
4720 Clouds 12 1015 85 10000 1.68 134 07:19 25.04.2021
4721 Clouds 12 1015 85 10000 1.68 134 07:19 25.04.2021
4722 Clear 12 1015 86 10000 1.5 132 06:32 25.04.2021
4723 Clear 12 1015 93 10000 1.58 134 04:57 25.04.2021
4724 Clear 12 1016 93 10000 1.58 134 04:39 25.04.2021
4725 Clear 13 1016 88 10000 1.21 164 01:45 25.04.2021
4726 Clear 14 1017 85 10000 1.8 128 00:59 25.04.2021
4727 Clouds 14 1017 83 10000 1.54 108 00:23 25.04.2021
4728 Clear 14 1019 82 10000 3.09 60 23:48 24.04.2021
4729 Clear 14 1019 88 10000 3.6 70 23:25 24.04.2021
4730 Clear 15 1019 82 10000 3.6 50 22:38 24.04.2021
4731 Clear 15 1019 82 10000 3.09 50 21:56 24.04.2021
4732 Clear 15 1019 82 10000 3.6 50 21:29 24.04.2021
4733 Clear 15 1018 82 10000 4.12 50 20:51 24.04.2021
4734 Clouds 16 1016 82 10000 1.98 52 20:32 24.04.2021
4735 Clear 16 1018 77 10000 5.14 50 19:57 24.04.2021
4736 Clouds 16 1015 77 10000 2.87 52 19:30 24.04.2021
4737 Clouds 17 1018 72 10000 5.66 40 18:59 24.04.2021
4738 Clouds 17 1018 72 10000 5.66 40 18:34 24.04.2021
4739 Clouds 17 1018 72 10000 6.17 30 17:58 24.04.2021
4740 Clouds 17 1018 67 10000 6.17 30 17:26 24.04.2021
4741 Clouds 17 1018 72 10000 6.17 30 16:52 24.04.2021
4742 Clouds 17 1018 72 10000 6.17 30 16:32 24.04.2021
4743 Clouds 18 1015 75 10000 1.34 352 15:39 24.04.2021
4744 Clouds 18 1014 74 10000 0.89 6 15:20 24.04.2021
4745 Clouds 17 1018 72 10000 6.17 20 14:33 24.04.2021
4746 Clouds 18 1015 76 10000 4.39 35 13:55 24.04.2021
4747 Clouds 18 1015 76 10000 1.34 343 13:37 24.04.2021
4748 Clouds 17 1015 78 10000 1.34 1 12:39 24.04.2021
4749 Clouds 17 1018 77 10000 5.66 30 12:18 24.04.2021
4750 Clouds 16 1018 77 10000 5.66 40 11:44 24.04.2021
4751 Clouds 17 1015 88 10000 4.79 32 10:57 24.04.2021
4752 Clouds 17 1014 90 10000 4.79 32 10:39 24.04.2021
4753 Clouds 16 1014 99 10000 1.34 6 09:57 24.04.2021
4754 Clouds 15 1014 99 10000 4.82 32 09:31 24.04.2021
4755 Clouds 14 1014 99 9878 5.24 27 07:55 24.04.2021
4756 Clouds 14 1014 99 10000 5.57 24 07:27 24.04.2021
4757 Clouds 14 1013 99 5932 4.45 32 05:21 24.04.2021
4758 Clouds 14 1014 99 6830 4.55 28 01:34 24.04.2021
4759 Clouds 14 1014 99 10000 2.81 17 23:43 23.04.2021
4760 Clouds 14 1014 99 10000 0.45 338 22:48 23.04.2021
4761 Clouds 14 1014 99 10000 2.04 58 22:21 23.04.2021
4762 Clouds 14 1014 99 10000 2.04 58 22:21 23.04.2021
4763 Clouds 14 1014 99 10000 0.45 352 21:49 23.04.2021
4764 Clouds 14 1013 99 10000 0.89 352 21:28 23.04.2021
4765 Clouds 15 1013 99 10000 2.28 67 20:43 23.04.2021
4766 Clouds 15 1013 99 10000 2.42 65 20:21 23.04.2021
4767 Clouds 14 1012 99 10000 2.42 65 19:54 23.04.2021
4768 Clouds 15 1012 99 10000 2.23 84 19:34 23.04.2021
4769 Clouds 15 1012 99 10000 3.09 92 18:58 23.04.2021
4770 Clouds 15 1012 99 10000 3.21 91 18:36 23.04.2021
4771 Clouds 15 1012 99 10000 3.21 91 17:59 23.04.2021
4772 Clouds 15 1012 99 10000 3.12 91 17:38 23.04.2021
4773 Clouds 15 1012 99 10000 2.85 102 17:20 23.04.2021
4774 Clouds 15 1012 99 10000 2.85 102 16:45 23.04.2021
4775 Clouds 15 1012 99 10000 2.64 97 16:24 23.04.2021
4776 Clouds 15 1012 99 10000 0.45 347 15:39 23.04.2021
4777 Clouds 16 1012 99 10000 2.93 85 14:44 23.04.2021
4778 Rain 16 1012 99 10000 3.83 74 13:41 23.04.2021
4779 Rain 15 1013 99 10000 3.54 62 13:21 23.04.2021
4780 Rain 16 1013 99 10000 3.54 62 12:34 23.04.2021
4781 Clouds 17 1012 99 10000 4.31 60 11:50 23.04.2021
4782 Clouds 17 1012 99 10000 4.09 70 11:30 23.04.2021
4783 Clouds 16 1012 99 10000 0.45 337 10:52 23.04.2021
4784 Clouds 16 1012 99 10000 4.37 74 10:27 23.04.2021
4785 Clouds 16 1012 99 10000 4.31 73 09:55 23.04.2021
4786 Clouds 15 1012 99 10000 4.05 75 08:55 23.04.2021
4787 Clouds 15 1013 99 10000 4 75 08:37 23.04.2021
4788 Clouds 15 1013 99 10000 3.92 74 07:47 23.04.2021
4789 Clouds 14 1013 99 10000 2.91 93 06:55 23.04.2021
4790 Clouds 14 1012 99 10000 2.63 93 05:30 23.04.2021
4791 Clouds 14 1011 99 10000 2.92 96 03:32 23.04.2021
4792 Clouds 14 1012 99 9556 3.32 120 02:39 23.04.2021
4793 Rain 15 1013 99 10000 1.25 80 23:58 22.04.2021
4794 Rain 15 1013 99 10000 0.9 62 22:57 22.04.2021
4795 Rain 15 1013 99 10000 0.82 66 22:38 22.04.2021
4796 Rain 15 1013 99 10000 1.05 140 22:18 22.04.2021
4797 Rain 15 1013 94 10000 1.05 140 21:41 22.04.2021
4798 Rain 16 1013 89 10000 1.9 125 21:18 22.04.2021
4799 Rain 16 1013 81 10000 1.9 125 20:45 22.04.2021
4800 Rain 17 1012 70 10000 1.83 178 20:26 22.04.2021
4801 Rain 17 1014 88 10000 4.12 20 19:50 22.04.2021
4802 Clear 18 1014 88 10000 4.63 30 19:31 22.04.2021
4803 Clear 18 1014 88 10000 5.14 40 18:44 22.04.2021
4804 Clear 17 1014 88 10000 5.14 40 18:44 22.04.2021
4805 Clear 18 1013 77 10000 5.14 30 18:21 22.04.2021
4806 Clear 18 1014 72 10000 5.14 40 17:41 22.04.2021
4807 Clear 19 1013 63 10000 5.14 50 17:20 22.04.2021
4808 Clouds 20 1010 67 10000 0.89 359 16:47 22.04.2021
4809 Clouds 20 1010 67 10000 0.45 9 16:27 22.04.2021
4810 Clouds 20 1011 65 10000 1.16 157 15:48 22.04.2021
4811 Rain 20 1011 65 10000 0.45 299 15:24 22.04.2021
4812 Clouds 20 1011 67 10000 1.74 110 14:50 22.04.2021
4813 Rain 20 1011 67 10000 1.56 171 14:29 22.04.2021
4814 Clouds 21 1010 60 10000 0.89 351 13:46 22.04.2021
4815 Clear 20 1014 77 10000 4.12 40 13:25 22.04.2021
4816 Clouds 19 1014 82 10000 3.6 20 12:56 22.04.2021
4817 Clouds 19 1014 82 10000 3.6 20 12:56 22.04.2021
4818 Clouds 19 1014 82 10000 3.6 20 12:37 22.04.2021
4819 Clouds 19 1014 77 10000 4.63 20 12:18 22.04.2021
4820 Clear 20 1013 72 10000 4.63 30 11:42 22.04.2021
4821 Clear 19 1013 68 10000 5.14 20 11:21 22.04.2021
4822 Clouds 20 1010 68 10000 6.01 105 10:42 22.04.2021
4823 Clouds 18 1010 75 10000 6.7 107 10:20 22.04.2021
4824 Clouds 17 1011 81 10000 6.52 108 09:39 22.04.2021
4825 Clouds 16 1011 98 10000 6.82 108 08:57 22.04.2021
4826 Clouds 15 1011 99 10000 6.72 109 08:38 22.04.2021
4827 Clouds 15 1012 99 10000 6.4 101 08:18 22.04.2021
4828 Clouds 15 1012 99 10000 6.62 101 07:37 22.04.2021
4829 Clouds 15 1013 98 10000 5.54 97 07:18 22.04.2021
4830 Clouds 15 1013 93 10000 4.91 87 06:22 22.04.2021
4831 Clouds 15 1012 90 10000 0.45 239 05:24 22.04.2021
4832 Clouds 15 1014 96 10000 3.28 124 02:49 22.04.2021
4833 Clouds 17 1014 77 10000 2.11 128 00:41 22.04.2021
4834 Clouds 17 1013 75 10000 2.75 173 23:42 21.04.2021
4835 Clouds 17 1012 77 10000 3.39 141 23:22 21.04.2021
4836 Clouds 17 1012 79 10000 3.39 141 22:41 21.04.2021
4837 Clouds 17 1012 78 10000 3.13 152 22:23 21.04.2021
4838 Clouds 17 1012 77 10000 3.16 152 21:42 21.04.2021
4839 Clouds 17 1013 77 10000 0.45 286 21:42 21.04.2021
4840 Clouds 17 1012 77 10000 3.5 138 21:23 21.04.2021
4841 Clouds 17 1012 75 10000 3.47 138 20:40 21.04.2021
4842 Clouds 17 1012 74 10000 2.91 162 20:18 21.04.2021
4843 Clouds 17 1012 73 10000 3.64 158 19:41 21.04.2021
4844 Clouds 17 1012 71 10000 4.05 142 19:23 21.04.2021
4845 Clear 18 1015 55 10000 3.6 60 18:45 21.04.2021
4846 Clear 18 1015 55 10000 3.6 60 18:24 21.04.2021
4847 Clear 18 1015 52 10000 3.6 60 17:46 21.04.2021
4848 Clouds 17 1015 55 10000 3.6 60 17:24 21.04.2021
4849 Clouds 18 1013 63 10000 1.8 130 16:42 21.04.2021
4850 Clouds 18 1013 64 10000 1.96 139 15:56 21.04.2021
4851 Clouds 18 1013 66 10000 1.96 139 15:37 21.04.2021
4852 Clouds 19 1014 61 10000 2.42 132 14:48 21.04.2021
4853 Clouds 19 1014 58 10000 3.22 115 14:30 21.04.2021
4854 Clouds 19 1014 62 10000 2.69 117 13:51 21.04.2021
4855 Clouds 19 1014 58 10000 3.31 103 13:24 21.04.2021
4856 Clouds 18 1014 55 10000 3.22 104 12:58 21.04.2021
4857 Clouds 18 1015 53 10000 3.33 102 12:29 21.04.2021
4858 Clouds 18 1015 56 10000 3.33 102 11:49 21.04.2021
4859 Clouds 17 1015 55 10000 0.45 318 11:29 21.04.2021
4860 Clouds 17 1015 55 10000 3.18 105 10:48 21.04.2021
4861 Clouds 17 1015 56 10000 0.45 262 10:18 21.04.2021
4862 Clouds 16 1015 61 10000 3.06 112 09:41 21.04.2021
4863 Clouds 15 1015 69 10000 3.06 121 08:56 21.04.2021
4864 Clouds 14 1015 76 10000 3.06 121 08:37 21.04.2021
4865 Clouds 14 1015 82 10000 3.01 130 08:18 21.04.2021
4866 Clouds 12 1015 86 10000 2.99 129 07:31 21.04.2021
4867 Clouds 11 1015 86 10000 2.94 134 06:28 21.04.2021
4868 Clouds 11 1014 89 10000 3.01 133 04:46 21.04.2021
4869 Clouds 12 1016 83 10000 2.6 152 00:53 21.04.2021
4870 Clouds 13 1016 81 10000 2.66 152 23:48 20.04.2021
4871 Clouds 13 1016 79 10000 2.7 148 23:21 20.04.2021
4872 Clouds 13 1015 76 10000 2.7 148 22:40 20.04.2021
4873 Clouds 14 1015 75 10000 2.53 137 22:18 20.04.2021
4874 Clouds 14 1015 74 10000 2.53 137 21:46 20.04.2021
4875 Clouds 14 1015 74 10000 2.03 116 21:24 20.04.2021
4876 Clouds 15 1015 73 10000 2.01 116 20:42 20.04.2021
4877 Clouds 15 1015 73 10000 1.36 84 20:23 20.04.2021
4878 Clear 15 1017 72 10000 3.09 40 19:54 20.04.2021
4879 Clear 14 1017 72 10000 3.09 40 19:36 20.04.2021
4880 Clouds 16 1014 66 10000 1.29 18 18:55 20.04.2021
4881 Clouds 16 1014 65 10000 1.29 18 18:35 20.04.2021
4882 Clouds 16 1017 63 10000 2.06 360 17:45 20.04.2021
4883 Clear 16 1017 63 10000 1.54 10 17:22 20.04.2021
4884 Clear 16 1017 59 10000 2.06 340 16:44 20.04.2021
4885 Clear 16 1018 67 10000 3.6 320 15:51 20.04.2021
4886 Clear 16 1018 72 10000 4.12 300 15:27 20.04.2021
4887 Clear 15 1018 67 10000 4.63 300 14:57 20.04.2021
4888 Clear 16 1018 67 10000 5.14 290 14:31 20.04.2021
4889 Clear 17 1014 57 10000 0.45 332 13:37 20.04.2021
4890 Clear 17 1014 56 10000 4.62 294 13:18 20.04.2021
4891 Clear 17 1015 52 10000 4.62 294 12:40 20.04.2021
4892 Clear 18 1015 51 10000 4.51 283 12:19 20.04.2021
4893 Clear 17 1015 52 10000 4.51 283 11:40 20.04.2021
4894 Clear 17 1015 52 10000 4.38 269 11:20 20.04.2021
4895 Clear 17 1015 54 10000 0.45 212 10:42 20.04.2021
4896 Clear 16 1015 53 10000 0.45 247 10:22 20.04.2021
4897 Clear 15 1015 63 10000 0.45 226 09:22 20.04.2021
4898 Clear 15 1015 68 10000 0.45 235 08:54 20.04.2021
4899 Clear 14 1015 74 10000 3.76 235 08:19 20.04.2021
4900 Clear 11 1015 79 10000 3.81 228 07:39 20.04.2021
4901 Clear 12 1014 80 10000 4.02 225 06:36 20.04.2021
4902 Clear 12 1014 80 10000 4.22 221 05:37 20.04.2021
4903 Clear 12 1014 79 10000 4.15 218 04:41 20.04.2021
4904 Clouds 11 1015 84 10000 4.42 232 00:53 20.04.2021
4905 Clouds 11 1015 80 10000 4.47 229 00:27 20.04.2021
4906 Clouds 12 1015 74 10000 4.47 229 23:34 19.04.2021
4907 Clouds 12 1015 72 10000 4.56 230 22:56 19.04.2021
4908 Clouds 12 1015 70 10000 4.56 230 22:30 19.04.2021
4909 Clouds 12 1015 70 10000 4.56 230 22:30 19.04.2021
4910 Clear 13 1018 72 10000 7.72 260 21:47 19.04.2021
4911 Clear 13 1018 67 10000 7.2 270 21:25 19.04.2021
4912 Clouds 13 1014 68 10000 4.39 244 20:43 19.04.2021
4913 Clear 13 1014 68 10000 0.45 332 20:22 19.04.2021
4914 Clear 13 1014 66 10000 0.45 209 19:54 19.04.2021
4915 Clouds 14 1014 65 10000 4.01 262 19:36 19.04.2021
4916 Clear 14 1014 67 10000 4.64 277 19:18 19.04.2021
4917 Clear 14 1014 68 10000 0.45 186 18:44 19.04.2021
4918 Clear 14 1014 65 10000 0.89 4 18:21 19.04.2021
4919 Clear 15 1017 58 10000 7.2 280 17:47 19.04.2021
4920 Clear 12 1017 67 10000 7.2 270 17:26 19.04.2021
4921 Clear 15 1017 63 10000 7.72 270 16:49 19.04.2021
4922 Clear 15 1017 63 10000 6.17 260 16:30 19.04.2021
4923 Clear 15 1017 62 10000 6.69 270 15:44 19.04.2021
4924 Clouds 15 1017 67 10000 6.69 270 15:24 19.04.2021
4925 Clear 16 1013 49 10000 7.85 294 14:52 19.04.2021
4926 Clouds 15 1017 62 10000 5.14 260 14:33 19.04.2021
4927 Clouds 15 1013 59 10000 1.34 122 13:53 19.04.2021
4928 Clouds 15 1014 61 10000 2.24 303 13:29 19.04.2021
4929 Clouds 14 1014 66 10000 0.45 277 12:49 19.04.2021
4930 Clouds 13 1014 71 10000 1.34 301 12:29 19.04.2021
4931 Clouds 13 1014 71 10000 7.36 293 11:59 19.04.2021
4932 Clouds 13 1014 72 10000 1.34 343 11:39 19.04.2021
4933 Clouds 13 1013 74 10000 0.45 82 11:19 19.04.2021
4934 Clouds 13 1013 75 10000 6.34 288 10:43 19.04.2021
4935 Clouds 13 1013 76 10000 0.45 324 10:19 19.04.2021
4936 Clouds 12 1013 80 10000 6.38 285 09:42 19.04.2021
4937 Clouds 12 1013 82 10000 6.37 285 09:23 19.04.2021
4938 Clouds 11 1012 88 10000 6.37 285 08:34 19.04.2021
4939 Clouds 11 1012 88 10000 0.45 320 07:50 19.04.2021
4940 Clouds 11 1012 90 10000 0.45 305 07:24 19.04.2021
4941 Clouds 10 1012 97 10000 1.34 324 06:47 19.04.2021
4942 Clouds 10 1011 93 10000 1.34 343 04:40 19.04.2021
4943 Clouds 11 1011 71 10000 2.24 326 01:49 19.04.2021
4944 Clouds 12 1012 72 10000 5.57 221 00:41 19.04.2021
4945 Clouds 12 1012 73 10000 0.45 290 23:21 18.04.2021
4946 Clouds 12 1012 72 10000 4.92 208 22:58 18.04.2021
4947 Clouds 12 1013 73 10000 0.45 225 22:33 18.04.2021
4948 Rain 12 1013 78 10000 4.7 214 21:53 18.04.2021
4949 Rain 12 1013 76 10000 4.58 213 21:28 18.04.2021
4950 Clouds 12 1012 78 10000 4.58 213 20:44 18.04.2021
4951 Rain 12 1012 78 10000 4.11 221 20:25 18.04.2021
4952 Clouds 12 1012 81 10000 0.45 337 19:59 18.04.2021
4953 Clouds 12 1012 81 10000 4.11 221 19:39 18.04.2021
4954 Clouds 12 1012 81 10000 4.19 244 19:18 18.04.2021
4955 Clouds 13 1012 85 10000 4.19 244 18:45 18.04.2021
4956 Clouds 13 1012 89 10000 4.58 257 18:25 18.04.2021
4957 Clouds 13 1012 92 10000 4.58 257 17:46 18.04.2021
4958 Clouds 12 1012 92 10000 5.52 270 17:27 18.04.2021
4959 Clouds 13 1012 81 10000 5.52 270 16:46 18.04.2021
4960 Clouds 13 1012 82 10000 1.34 278 16:46 18.04.2021
4961 Clouds 13 1012 79 10000 5.73 272 16:27 18.04.2021
4962 Clouds 15 1012 67 10000 0.89 15 15:46 18.04.2021
4963 Clouds 15 1012 64 10000 1.34 315 15:27 18.04.2021
4964 Clouds 15 1016 58 10000 8.23 280 14:52 18.04.2021
4965 Clouds 15 1012 66 10000 1.34 318 14:23 18.04.2021
4966 Clouds 14 1012 74 10000 5.77 278 13:56 18.04.2021
4967 Clouds 14 1012 82 10000 5.85 279 13:34 18.04.2021
4968 Clouds 13 1012 90 10000 4.87 272 12:51 18.04.2021
4969 Clouds 12 1012 87 10000 1.34 318 12:28 18.04.2021
4970 Clouds 15 1012 69 10000 0.45 14 11:43 18.04.2021
4971 Clear 15 1012 70 10000 3.03 261 11:21 18.04.2021
4972 Clear 15 1012 67 10000 3.03 261 10:48 18.04.2021
4973 Clear 15 1012 71 10000 0.45 9 10:23 18.04.2021
4974 Clear 15 1012 71 10000 2.26 236 09:53 18.04.2021
4975 Clear 14 1012 73 10000 2.26 236 09:34 18.04.2021
4976 Clear 14 1011 82 10000 2.22 226 08:57 18.04.2021
4977 Clear 13 1011 88 10000 2.22 226 08:35 18.04.2021
4978 Clouds 12 1011 91 10000 2.55 220 07:59 18.04.2021
4979 Clouds 12 1011 91 10000 2.55 220 07:38 18.04.2021
4980 Clouds 12 1010 82 10000 2.44 213 05:42 18.04.2021
4981 Clouds 12 1010 81 10000 2.15 212 05:24 18.04.2021
4982 Clouds 12 1011 80 10000 2.3 177 02:56 18.04.2021
4983 Clouds 12 1011 80 10000 1.1 205 02:22 18.04.2021
4984 Clouds 12 1011 79 10000 1.08 240 00:38 18.04.2021
4985 Clouds 13 1011 80 10000 1.74 269 23:38 17.04.2021
4986 Clouds 13 1011 79 10000 1.95 301 22:52 17.04.2021
4987 Clouds 13 1011 79 10000 1.95 301 22:31 17.04.2021
4988 Clouds 13 1011 81 10000 2.03 313 21:50 17.04.2021
4989 Clouds 13 1011 81 10000 2.03 313 21:50 17.04.2021
4990 Clouds 13 1010 81 10000 2.03 313 21:30 17.04.2021
4991 Clouds 13 1010 80 10000 2.35 316 20:51 17.04.2021
4992 Clouds 13 1009 80 10000 2.76 294 20:28 17.04.2021
4993 Clouds 13 1009 81 10000 2.76 294 19:45 17.04.2021
4994 Clouds 13 1009 81 10000 2.75 306 19:21 17.04.2021
4995 Clouds 13 1008 81 10000 2.75 306 18:56 17.04.2021
4996 Clouds 14 1008 83 10000 2.75 306 18:36 17.04.2021
4997 Clouds 13 1008 86 10000 2.86 313 17:57 17.04.2021
4998 Clouds 13 1008 89 10000 0.89 356 17:39 17.04.2021
4999 Clouds 13 1007 95 10000 3.19 320 16:53 17.04.2021
5000 Clouds 13 1007 94 10000 3.16 326 16:28 17.04.2021
5001 Clouds 13 1007 94 10000 3.16 326 16:28 17.04.2021
5002 Clouds 14 1007 94 10000 3.16 326 15:42 17.04.2021
5003 Clouds 13 1007 92 10000 2.98 330 14:50 17.04.2021
5004 Clouds 13 1007 90 10000 0.89 356 14:30 17.04.2021
5005 Clouds 14 1007 86 10000 2.86 335 13:47 17.04.2021
5006 Clouds 14 1007 82 10000 0.45 303 13:22 17.04.2021
5007 Clouds 15 1007 80 10000 0.45 357 12:41 17.04.2021
5008 Clouds 15 1007 77 10000 1.47 348 12:18 17.04.2021
5009 Clouds 15 1007 74 10000 1.47 348 11:39 17.04.2021
5010 Clouds 15 1007 74 10000 1.47 348 11:39 17.04.2021
5011 Clouds 15 1006 77 10000 0.89 353 11:21 17.04.2021
5012 Clouds 15 1007 79 10000 0.55 9 10:41 17.04.2021
5013 Clouds 15 1007 78 10000 0.45 9 10:23 17.04.2021
5014 Clouds 14 1006 80 10000 1.49 49 09:22 17.04.2021
5015 Clouds 14 1006 85 10000 0.45 334 08:34 17.04.2021
5016 Clouds 13 1006 87 10000 2.27 39 07:59 17.04.2021
5017 Clouds 12 1005 88 10000 2.85 30 06:43 17.04.2021
5018 Clouds 12 1005 90 10000 2.92 34 03:51 17.04.2021
5019 Clouds 12 1006 90 10000 2.56 30 02:40 17.04.2021
5020 Clouds 12 1006 84 10000 2.75 41 00:44 17.04.2021
5021 Clouds 12 1007 83 10000 2.88 48 00:23 17.04.2021
5022 Clouds 13 1007 81 10000 2.88 48 23:43 16.04.2021
5023 Clouds 13 1007 82 10000 2.96 55 23:23 16.04.2021
5024 Clouds 14 1007 81 10000 2.96 55 22:43 16.04.2021
5025 Clouds 14 1007 81 10000 3.78 61 22:20 16.04.2021
5026 Clouds 14 1007 81 10000 3.78 61 21:50 16.04.2021
5027 Clouds 14 1007 81 10000 0.45 343 21:29 16.04.2021
5028 Clouds 14 1007 83 10000 4.43 61 20:48 16.04.2021
5029 Clouds 14 1007 83 10000 3.94 64 20:24 16.04.2021
5030 Clouds 14 1006 82 10000 0.45 342 19:50 16.04.2021
5031 Clouds 14 1006 82 10000 4.23 71 19:27 16.04.2021
5032 Clouds 14 1006 83 10000 0.89 11 18:28 16.04.2021
5033 Clouds 14 1006 83 10000 4.95 70 17:55 16.04.2021
5034 Clouds 14 1006 84 10000 0.45 322 17:21 16.04.2021
5035 Clouds 14 1006 85 10000 0.45 344 16:58 16.04.2021
5036 Clouds 14 1006 84 10000 5.77 69 16:40 16.04.2021
5037 Clouds 14 1006 83 10000 5.87 73 16:21 16.04.2021
5038 Clouds 14 1006 82 10000 1.34 329 15:42 16.04.2021
5039 Clouds 15 1007 82 10000 5.83 78 14:59 16.04.2021
5040 Clouds 15 1007 82 10000 0.89 331 14:40 16.04.2021
5041 Clouds 14 1007 83 10000 0.45 351 13:59 16.04.2021
5042 Clouds 14 1007 85 10000 0.45 36 13:38 16.04.2021
5043 Clouds 15 1007 85 10000 0.45 348 13:18 16.04.2021
5044 Clouds 15 1007 86 10000 6.42 75 12:44 16.04.2021
5045 Clouds 16 1007 87 10000 0.89 344 12:25 16.04.2021
5046 Clouds 15 1008 97 10000 6.55 78 11:43 16.04.2021
5047 Clouds 15 1008 98 10000 5.88 81 11:24 16.04.2021
5048 Clouds 14 1008 99 10000 5.88 81 10:43 16.04.2021
5049 Clouds 14 1008 99 10000 5.13 88 10:24 16.04.2021
5050 Clouds 13 1008 99 10000 5.13 88 09:49 16.04.2021
5051 Clouds 13 1008 99 10000 3.97 92 09:23 16.04.2021
5052 Clouds 13 1009 99 10000 4.38 89 08:45 16.04.2021
5053 Clouds 12 1009 99 10000 3.44 100 08:27 16.04.2021
5054 Clouds 12 1009 99 10000 3.44 100 07:47 16.04.2021
5055 Clouds 12 1009 99 10000 3.3 104 07:27 16.04.2021
5056 Clouds 12 1008 99 10000 3.3 104 06:47 16.04.2021
5057 Clouds 12 1009 99 10000 3.64 113 05:33 16.04.2021
5058 Clouds 12 1009 99 10000 3.64 113 05:33 16.04.2021
5059 Rain 12 1010 99 3043 3.12 113 03:59 16.04.2021
5060 Clouds 13 1013 99 10000 1.56 77 00:49 16.04.2021
5061 Clouds 13 1013 99 10000 2.1 114 00:22 16.04.2021
5062 Clouds 13 1013 99 10000 2.1 114 23:58 15.04.2021
5063 Clouds 13 1013 99 10000 2.1 114 23:35 15.04.2021
5064 Clouds 13 1014 98 10000 1.49 144 22:52 15.04.2021
5065 Clouds 13 1014 95 10000 2.47 152 22:26 15.04.2021
5066 Clouds 13 1014 91 10000 2.47 152 21:56 15.04.2021
5067 Rain 14 1013 89 10000 2.47 152 21:37 15.04.2021
5068 Clouds 14 1013 88 10000 2.94 130 21:19 15.04.2021
5069 Clouds 14 1013 88 10000 2.94 130 20:38 15.04.2021
5070 Clouds 14 1013 88 10000 2.65 118 20:20 15.04.2021
5071 Clouds 14 1013 88 10000 2.65 118 19:42 15.04.2021
5072 Clouds 14 1013 87 10000 2.48 133 19:23 15.04.2021
5073 Clouds 14 1013 87 10000 2.48 133 18:41 15.04.2021
5074 Clouds 14 1013 86 10000 2.06 120 18:20 15.04.2021
5075 Clouds 14 1013 84 10000 2.06 120 17:54 15.04.2021
5076 Clouds 14 1014 84 10000 2.06 120 17:36 15.04.2021
5077 Clouds 14 1014 84 10000 2.06 120 17:36 15.04.2021
5078 Clouds 14 1014 89 10000 1.13 135 16:47 15.04.2021
5079 Clouds 14 1014 89 10000 1.06 113 16:26 15.04.2021
5080 Clouds 14 1015 85 10000 1.06 113 15:59 15.04.2021
5081 Clouds 15 1015 83 10000 1.06 113 15:40 15.04.2021
5082 Clouds 15 1015 82 10000 0.69 61 15:22 15.04.2021
5083 Clouds 15 1015 81 10000 0.69 61 14:38 15.04.2021
5084 Clouds 15 1015 80 10000 0.45 3 14:20 15.04.2021
5085 Clouds 15 1015 73 10000 0.29 10 13:41 15.04.2021
5086 Clouds 16 1015 68 10000 1.14 341 13:18 15.04.2021
5087 Clouds 16 1015 69 10000 1.14 341 12:39 15.04.2021
5088 Clouds 16 1016 69 10000 0.45 357 12:20 15.04.2021
5089 Clouds 16 1016 69 10000 0.45 348 11:44 15.04.2021
5090 Clouds 15 1016 70 10000 0.61 342 11:22 15.04.2021
5091 Clouds 16 1016 69 10000 0.61 342 10:48 15.04.2021
5092 Clouds 16 1016 69 10000 0.69 189 10:26 15.04.2021
5093 Clouds 16 1015 70 10000 0.69 189 09:45 15.04.2021
5094 Clouds 16 1015 71 10000 1.06 214 09:18 15.04.2021
5095 Clouds 15 1015 73 10000 1.06 214 08:41 15.04.2021
5096 Clouds 14 1015 76 10000 1.43 207 07:50 15.04.2021
5097 Clouds 13 1015 78 10000 1.22 193 07:22 15.04.2021
5098 Clouds 13 1015 78 10000 1.22 193 07:22 15.04.2021
5099 Clouds 13 1015 78 10000 1.21 193 06:38 15.04.2021
5100 Clouds 12 1015 78 10000 1.22 204 06:20 15.04.2021
5101 Clouds 13 1015 77 10000 1.74 198 04:51 15.04.2021
5102 Clouds 13 1016 72 10000 2.71 164 00:54 15.04.2021
5103 Clear 12 1019 67 10000 1.54 100 23:40 14.04.2021
5104 Clouds 12 1019 67 10000 1.54 110 23:19 14.04.2021
5105 Clouds 13 1019 62 10000 4.12 80 22:43 14.04.2021
5106 Clouds 14 1016 69 10000 2.97 117 22:25 14.04.2021
5107 Clouds 14 1016 69 10000 2.97 117 22:25 14.04.2021
5108 Clouds 14 1016 68 10000 2.97 117 21:47 14.04.2021
5109 Clouds 14 1018 62 10000 6.17 70 21:28 14.04.2021
5110 Clouds 13 1018 62 10000 6.17 70 20:56 14.04.2021
5111 Clouds 14 1018 62 10000 6.17 70 20:34 14.04.2021
5112 Clouds 15 1015 65 10000 2.81 97 19:53 14.04.2021
5113 Clouds 15 1015 62 10000 2.72 81 19:20 14.04.2021
5114 Clouds 16 1015 60 10000 0.45 270 18:57 14.04.2021
5115 Clouds 16 1015 57 10000 0.89 306 18:22 14.04.2021
5116 Clouds 17 1015 53 10000 2.86 72 17:59 14.04.2021
5117 Clouds 16 1018 55 10000 8.23 40 17:28 14.04.2021
5118 Clouds 17 1018 55 10000 7.72 40 16:54 14.04.2021
5119 Clouds 17 1018 55 10000 7.2 40 16:28 14.04.2021
5120 Clouds 17 1018 55 10000 7.2 40 15:47 14.04.2021
5121 Clear 17 1019 55 10000 7.2 40 15:27 14.04.2021
5122 Clear 17 1019 55 10000 6.69 40 14:56 14.04.2021
5123 Clear 17 1019 55 10000 6.69 40 14:37 14.04.2021
5124 Clear 17 1019 51 10000 6.69 40 14:18 14.04.2021
5125 Clouds 18 1016 49 10000 2.68 51 13:44 14.04.2021
5126 Clouds 17 1016 49 10000 0.45 272 12:41 14.04.2021
5127 Clouds 17 1016 49 10000 2.74 55 12:18 14.04.2021
5128 Clouds 17 1017 48 10000 2.74 55 11:39 14.04.2021
5129 Clouds 17 1017 48 10000 2.74 55 11:39 14.04.2021
5130 Clouds 16 1017 48 10000 2.1 63 11:19 14.04.2021
5131 Clouds 16 1017 51 10000 2.1 63 10:33 14.04.2021
5132 Clouds 15 1017 57 10000 1.59 81 09:43 14.04.2021
5133 Clouds 14 1016 60 10000 1.74 103 09:23 14.04.2021
5134 Clouds 13 1016 68 10000 1.74 103 08:48 14.04.2021
5135 Clouds 13 1017 69 10000 1.44 118 08:23 14.04.2021
5136 Clear 11 1019 66 10000 3.09 60 07:28 14.04.2021
5137 Clear 10 1018 66 10000 3.6 70 06:28 14.04.2021
5138 Clear 10 1019 66 10000 1.03 120 05:24 14.04.2021
5139 Clouds 11 1017 72 10000 1.29 180 02:24 14.04.2021
5140 Clouds 11 1017 70 10000 1.31 187 00:50 14.04.2021
5141 Clouds 11 1017 70 10000 1.31 187 00:50 14.04.2021
5142 Clouds 11 1017 70 10000 1.32 221 00:27 14.04.2021
5143 Clouds 12 1018 68 10000 1.32 221 23:32 13.04.2021
5144 Clouds 12 1017 66 10000 1.72 247 22:44 13.04.2021
5145 Clouds 13 1017 67 10000 2.07 263 22:21 13.04.2021
5146 Clouds 13 1017 67 10000 2.07 263 21:49 13.04.2021
5147 Clouds 13 1017 67 10000 2.07 263 21:30 13.04.2021
5148 Clouds 13 1017 67 10000 2.07 263 21:30 13.04.2021
5149 Clear 13 1017 66 10000 2.25 271 20:50 13.04.2021
5150 Clear 13 1016 66 10000 2.82 286 20:25 13.04.2021
5151 Clear 14 1016 65 10000 2.82 286 19:58 13.04.2021
5152 Clear 14 1016 64 10000 0.45 331 19:26 13.04.2021
5153 Clear 15 1016 62 10000 3.39 293 18:51 13.04.2021
5154 Clear 15 1016 60 10000 3.39 293 18:31 13.04.2021
5155 Clear 16 1019 63 10000 7.2 280 17:40 13.04.2021
5156 Clear 16 1019 63 10000 7.72 280 17:21 13.04.2021
5157 Clear 16 1019 63 10000 7.72 280 17:21 13.04.2021
5158 Clear 16 1019 63 10000 8.75 280 16:49 13.04.2021
5159 Clear 16 1020 63 10000 8.75 280 16:31 13.04.2021
5160 Clear 17 1020 63 10000 9.26 280 15:56 13.04.2021
5161 Clear 17 1020 63 10000 9.26 280 15:38 13.04.2021
5162 Clear 17 1020 63 10000 9.77 280 14:58 13.04.2021
5163 Clear 17 1020 63 10000 9.77 280 14:25 13.04.2021
5164 Clear 17 1020 63 10000 9.77 280 14:25 13.04.2021
5165 Clouds 17 1016 57 10000 6.15 283 13:57 13.04.2021
5166 Clouds 17 1016 56 10000 0.45 329 13:38 13.04.2021
5167 Clouds 17 1016 56 10000 1.79 356 13:20 13.04.2021
5168 Clouds 17 1016 56 10000 6.58 278 12:46 13.04.2021
5169 Clouds 17 1016 56 10000 6.45 273 12:22 13.04.2021
5170 Clouds 16 1017 55 10000 6.45 273 11:37 13.04.2021
5171 Clouds 16 1017 56 10000 1.79 277 10:58 13.04.2021
5172 Clouds 16 1017 56 10000 1.79 277 10:58 13.04.2021
5173 Clouds 15 1017 57 10000 1.34 270 10:40 13.04.2021
5174 Clouds 15 1017 60 10000 0.45 272 10:19 13.04.2021
5175 Clouds 15 1016 64 10000 0.45 345 09:49 13.04.2021
5176 Clouds 14 1016 66 10000 0.89 309 09:23 13.04.2021
5177 Clouds 14 1016 69 10000 1.34 340 08:44 13.04.2021
5178 Clouds 14 1016 72 10000 5.58 265 08:22 13.04.2021
5179 Clouds 14 1016 77 10000 0.45 317 07:43 13.04.2021
5180 Clouds 13 1016 80 10000 0.45 334 07:23 13.04.2021
5181 Clouds 15 1015 72 10000 0.45 294 06:22 13.04.2021
5182 Clouds 16 1015 80 10000 4.76 241 03:41 13.04.2021
5183 Clouds 16 1016 73 10000 3.9 193 01:31 13.04.2021
5184 Clear 15 1020 77 10000 3.09 210 23:51 12.04.2021
5185 Clear 16 1020 77 10000 3.09 210 23:32 12.04.2021
5186 Clear 16 1020 77 10000 2.57 220 22:50 12.04.2021
5187 Clouds 16 1017 70 10000 2.7 238 22:31 12.04.2021
5188 Clouds 16 1016 69 10000 2.22 226 21:48 12.04.2021
5189 Clear 17 1019 72 10000 1.54 90 21:25 12.04.2021
5190 Clear 17 1018 82 10000 3.09 70 20:58 12.04.2021
5191 Clear 16 1018 82 10000 3.09 70 20:36 12.04.2021
5192 Clear 17 1018 82 10000 3.09 70 20:18 12.04.2021
5193 Clear 17 1019 82 10000 2.57 50 19:39 12.04.2021
5194 Clouds 17 1016 61 10000 0.45 359 19:21 12.04.2021
5195 Clouds 18 1016 65 10000 1.08 324 18:48 12.04.2021
5196 Clouds 18 1016 65 10000 1.08 324 18:30 12.04.2021
5197 Clouds 19 1015 67 10000 1.17 338 17:55 12.04.2021
5198 Clouds 19 1015 67 10000 1.17 338 17:37 12.04.2021
5199 Clear 19 1018 63 10000 4.63 70 17:19 12.04.2021
5200 Clear 18 1019 77 10000 3.6 30 16:37 12.04.2021
5201 Clear 18 1019 77 10000 3.6 30 16:18 12.04.2021
5202 Clear 18 1019 77 10000 3.6 10 15:33 12.04.2021
5203 Clear 18 1019 82 10000 4.63 40 14:56 12.04.2021
5204 Clear 17 1019 82 10000 4.63 40 14:37 12.04.2021
5205 Clouds 19 1016 76 10000 0.42 133 14:19 12.04.2021
5206 Clouds 18 1016 77 10000 0.45 357 13:40 12.04.2021
5207 Clouds 18 1016 75 10000 0.45 353 13:19 12.04.2021
5208 Clouds 18 1016 79 10000 2.74 114 12:43 12.04.2021
5209 Clouds 17 1016 78 10000 0.89 351 12:22 12.04.2021
5210 Clouds 17 1017 80 10000 1.76 109 11:41 12.04.2021
5211 Clouds 17 1017 78 10000 0.69 106 10:51 12.04.2021
5212 Clouds 17 1017 80 10000 1.19 96 10:28 12.04.2021
5213 Clouds 17 1017 81 10000 1.19 96 09:53 12.04.2021
5214 Clouds 15 1016 82 10000 1.05 92 09:25 12.04.2021
5215 Clouds 15 1016 83 10000 1.04 92 08:51 12.04.2021
5216 Clouds 14 1016 82 10000 1.05 156 07:55 12.04.2021
5217 Rain 14 1016 81 10000 1.19 153 07:30 12.04.2021
5218 Clouds 13 1016 82 10000 1.19 153 06:40 12.04.2021
5219 Clouds 13 1016 80 10000 1.81 175 05:47 12.04.2021
5220 Clouds 13 1016 79 10000 1.92 199 03:19 12.04.2021
5221 Clouds 14 1017 80 10000 2.41 181 00:29 12.04.2021
5222 Clouds 14 1017 81 10000 2.41 181 23:56 11.04.2021
5223 Clouds 14 1017 81 10000 2.41 181 23:38 11.04.2021
5224 Clouds 14 1016 80 10000 2.62 157 23:19 11.04.2021
5225 Clouds 15 1017 79 10000 2.62 157 22:38 11.04.2021
5226 Clouds 15 1017 78 10000 3.32 139 22:19 11.04.2021
5227 Clouds 15 1017 78 10000 3.32 139 21:42 11.04.2021
5228 Clouds 15 1017 77 10000 2.88 138 21:24 11.04.2021
5229 Clouds 16 1017 78 10000 2.51 148 20:42 11.04.2021
5230 Clouds 16 1016 76 10000 2.77 131 20:23 11.04.2021
5231 Clouds 16 1016 75 10000 2.76 131 19:43 11.04.2021
5232 Clouds 16 1016 73 10000 3 118 19:20 11.04.2021
5233 Clouds 17 1016 67 10000 3 118 18:57 11.04.2021
5234 Clouds 18 1016 63 10000 3 118 18:39 11.04.2021
5235 Clouds 18 1016 59 10000 2.82 103 18:20 11.04.2021
5236 Clear 18 1019 55 10000 5.14 60 17:40 11.04.2021
5237 Clear 18 1019 55 10000 5.14 60 17:40 11.04.2021
5238 Clear 18 1019 67 10000 5.14 40 17:22 11.04.2021
5239 Clear 18 1019 67 10000 5.14 40 16:42 11.04.2021
5240 Clear 18 1019 72 10000 5.14 30 16:21 11.04.2021
5241 Clear 19 1019 67 10000 5.14 30 15:46 11.04.2021
5242 Clear 18 1019 67 10000 5.14 30 15:46 11.04.2021
5243 Clear 18 1019 63 10000 6.69 40 15:26 11.04.2021
5244 Clear 18 1020 63 10000 6.17 30 14:51 11.04.2021
5245 Clear 18 1020 63 10000 5.14 30 14:24 11.04.2021
5246 Clear 19 1020 63 10000 5.14 40 13:44 11.04.2021
5247 Clear 18 1020 63 10000 6.17 30 13:26 11.04.2021
5248 Clouds 19 1017 54 10000 1.27 45 12:41 11.04.2021
5249 Clouds 19 1017 56 10000 0.43 49 12:20 11.04.2021
5250 Clouds 19 1017 56 10000 0.89 4 11:48 11.04.2021
5251 Clouds 18 1017 57 10000 0.97 161 11:21 11.04.2021
5252 Clouds 17 1017 59 10000 0.97 161 10:47 11.04.2021
5253 Clouds 17 1018 59 10000 1.45 162 10:23 11.04.2021
5254 Clouds 16 1017 62 10000 1.45 162 09:51 11.04.2021
5255 Clouds 16 1017 65 10000 1.45 162 09:30 11.04.2021
5256 Clouds 15 1017 73 10000 2.14 157 08:40 11.04.2021
5257 Clouds 12 1017 77 10000 2.34 166 07:57 11.04.2021
5258 Clouds 11 1017 79 10000 2.63 182 07:21 11.04.2021
5259 Clouds 11 1017 76 10000 2.58 173 05:59 11.04.2021
5260 Clouds 11 1017 76 10000 2.59 173 05:37 11.04.2021
5261 Clouds 11 1017 77 10000 2.12 166 05:18 11.04.2021
5262 Clouds 11 1017 78 10000 2.33 179 04:33 11.04.2021
5263 Clear 13 1021 71 10000 2.57 110 01:31 11.04.2021
5264 Clear 13 1021 71 10000 2.57 140 00:32 11.04.2021
5265 Clear 13 1021 71 10000 1.54 140 23:47 10.04.2021
5266 Clear 14 1021 67 10000 2.06 180 22:58 10.04.2021
5267 Clear 14 1022 62 10000 1.03 0 22:31 10.04.2021
5268 Clear 15 1022 63 10000 3.09 250 21:55 10.04.2021
5269 Clear 15 1022 63 10000 3.09 250 21:33 10.04.2021
5270 Clear 14 1021 72 10000 3.09 80 20:58 10.04.2021
5271 Clear 14 1021 72 10000 3.09 80 20:40 10.04.2021
5272 Clear 15 1021 63 10000 3.6 80 20:21 10.04.2021
5273 Clear 15 1021 67 10000 5.14 70 19:43 10.04.2021
5274 Clouds 15 1018 68 10000 1.95 88 19:25 10.04.2021
5275 Clouds 16 1019 64 10000 1.9 88 18:44 10.04.2021
5276 Clouds 17 1019 62 10000 1.82 80 18:25 10.04.2021
5277 Clear 16 1022 63 10000 5.14 60 17:37 10.04.2021
5278 Clear 17 1022 55 10000 5.66 60 16:57 10.04.2021
5279 Clear 17 1022 55 10000 5.66 50 16:26 10.04.2021
5280 Clear 17 1022 51 10000 5.66 50 15:53 10.04.2021
5281 Clear 17 1023 48 10000 6.69 40 14:58 10.04.2021
5282 Clear 17 1023 48 10000 6.69 40 14:38 10.04.2021
5283 Clouds 18 1020 51 10000 0.89 358 13:59 10.04.2021
5284 Clouds 17 1020 51 10000 0.45 5 13:40 10.04.2021
5285 Clouds 17 1020 46 10000 0.89 6 12:49 10.04.2021
5286 Clouds 17 1020 49 10000 1.03 108 12:26 10.04.2021
5287 Clouds 16 1021 54 10000 1.01 110 11:47 10.04.2021
5288 Clouds 16 1021 56 10000 1.48 129 11:25 10.04.2021
5289 Clouds 16 1021 57 10000 1.79 1 10:52 10.04.2021
5290 Clouds 15 1021 57 10000 0.45 346 10:31 10.04.2021
5291 Clouds 14 1021 60 10000 1.68 142 09:45 10.04.2021
5292 Clouds 14 1021 64 10000 1.84 152 09:20 10.04.2021
5293 Clouds 12 1022 73 10000 1.84 152 08:47 10.04.2021
5294 Clouds 12 1022 77 10000 0.45 355 08:28 10.04.2021
5295 Clouds 9 1022 78 10000 2.57 156 07:38 10.04.2021
5296 Clouds 10 1022 79 10000 2.5 157 07:19 10.04.2021
5297 Clouds 9 1022 77 10000 2.31 165 06:24 10.04.2021
5298 Clouds 10 1022 74 10000 1.99 164 03:49 10.04.2021
5299 Clouds 10 1022 72 10000 1.62 183 02:50 10.04.2021
5300 Clouds 10 1023 70 10000 1.98 183 02:18 10.04.2021
5301 Clouds 11 1024 65 10000 2.2 183 00:41 10.04.2021
5302 Clouds 12 1024 64 10000 2.27 181 00:21 10.04.2021
5303 Clouds 12 1024 62 10000 2.27 181 23:40 09.04.2021
5304 Clouds 12 1024 61 10000 2.36 167 22:58 09.04.2021
5305 Clouds 12 1024 59 10000 2.36 167 22:38 09.04.2021
5306 Clouds 13 1024 57 10000 2.11 155 21:56 09.04.2021
5307 Clouds 13 1024 57 10000 2.04 158 21:38 09.04.2021
5308 Clouds 13 1024 55 10000 1.85 140 21:18 09.04.2021
5309 Clouds 13 1024 53 10000 1.84 140 20:42 09.04.2021
5310 Clouds 14 1023 53 10000 1.6 130 20:22 09.04.2021
5311 Clouds 14 1024 52 10000 1.67 129 19:44 09.04.2021
5312 Clouds 14 1024 51 10000 1.48 108 19:24 09.04.2021
5313 Clouds 15 1023 51 10000 1.43 108 18:54 09.04.2021
5314 Clouds 15 1023 50 10000 1.55 91 18:32 09.04.2021
5315 Clouds 16 1026 51 10000 7.2 70 17:54 09.04.2021
5316 Clouds 16 1026 51 10000 7.2 70 17:36 09.04.2021
5317 Clouds 15 1026 55 10000 7.72 70 16:56 09.04.2021
5318 Clouds 16 1026 55 10000 7.72 70 16:35 09.04.2021
5319 Clouds 16 1027 55 10000 7.2 60 15:52 09.04.2021
5320 Clouds 16 1027 55 10000 7.2 60 15:34 09.04.2021
5321 Clouds 16 1027 51 10000 7.72 70 14:58 09.04.2021
5322 Clouds 16 1027 51 10000 7.72 70 14:39 09.04.2021
5323 Clear 17 1025 51 10000 2.15 45 13:52 09.04.2021
5324 Clear 16 1025 51 10000 1.78 57 13:25 09.04.2021
5325 Clear 16 1026 53 10000 1.78 57 12:51 09.04.2021
5326 Clear 16 1026 54 10000 1.83 77 12:32 09.04.2021
5327 Clear 15 1026 55 10000 1.82 77 11:46 09.04.2021
5328 Clear 14 1026 55 10000 2.01 90 11:22 09.04.2021
5329 Clear 14 1026 56 10000 2.01 90 10:46 09.04.2021
5330 Clear 14 1026 55 10000 1.98 104 10:20 09.04.2021
5331 Clear 13 1026 56 10000 1.98 104 09:39 09.04.2021
5332 Clear 12 1026 58 10000 2.01 119 09:20 09.04.2021
5333 Clear 11 1026 61 10000 2.01 119 08:51 09.04.2021
5334 Clear 8 1026 71 10000 2.14 133 07:38 09.04.2021
5335 Clear 7 1025 71 10000 2.22 141 06:34 09.04.2021
5336 Clear 7 1025 71 10000 2.22 141 06:34 09.04.2021
5337 Clear 7 1025 69 10000 2.17 146 05:56 09.04.2021
5338 Clear 8 1025 65 10000 2.46 151 03:52 09.04.2021
5339 Clear 9 1027 57 10000 1.54 170 01:35 09.04.2021
5340 Clear 10 1027 53 10000 3.6 80 00:37 09.04.2021
5341 Clear 10 1027 46 10000 4.12 90 00:19 09.04.2021
5342 Clear 10 1027 50 10000 4.63 70 23:21 08.04.2021
5343 Clear 11 1027 46 10000 4.63 80 22:43 08.04.2021
5344 Clear 11 1027 46 10000 4.63 80 22:43 08.04.2021
5345 Clear 11 1027 46 10000 4.63 90 22:22 08.04.2021
5346 Clear 11 1027 46 10000 5.14 80 21:55 08.04.2021
5347 Clear 11 1027 46 10000 5.14 80 21:55 08.04.2021
5348 Clear 11 1027 46 10000 5.14 80 21:55 08.04.2021
5349 Clear 11 1027 46 10000 5.14 80 21:36 08.04.2021
5350 Clear 11 1027 46 10000 4.63 80 21:18 08.04.2021
5351 Clear 9 1026 46 10000 6.17 60 20:49 08.04.2021
5352 Clear 10 1026 43 10000 5.66 60 20:26 08.04.2021
5353 Clear 10 1026 40 10000 6.17 50 19:46 08.04.2021
5354 Clear 13 1026 47 10000 7.2 50 19:20 08.04.2021
5355 Clear 13 1026 41 10000 7.2 50 18:46 08.04.2021
5356 Clear 13 1026 47 10000 7.72 50 18:21 08.04.2021
5357 Clear 13 1025 44 10000 7.72 50 17:49 08.04.2021
5358 Clear 14 1025 44 10000 8.75 40 17:26 08.04.2021
5359 Clear 14 1025 47 10000 8.75 40 16:51 08.04.2021
5360 Clear 14 1025 47 10000 8.75 40 16:33 08.04.2021
5361 Clear 14 1025 41 10000 7.72 50 15:48 08.04.2021
5362 Clear 14 1026 44 10000 8.23 50 15:29 08.04.2021
5363 Clear 14 1025 44 10000 8.23 50 14:46 08.04.2021
5364 Clear 14 1025 44 10000 8.23 50 14:28 08.04.2021
5365 Clear 14 1023 47 10000 4.52 58 13:59 08.04.2021
5366 Clear 14 1023 46 10000 4.52 58 13:41 08.04.2021
5367 Clouds 14 1026 47 10000 7.72 40 13:22 08.04.2021
5368 Clouds 14 1026 47 10000 7.72 40 13:22 08.04.2021
5369 Clear 14 1023 44 10000 4.78 57 12:43 08.04.2021
5370 Clear 13 1023 44 10000 5.31 55 12:24 08.04.2021
5371 Clear 13 1023 50 10000 5.31 55 11:43 08.04.2021
5372 Clear 12 1023 53 10000 1.34 23 10:59 08.04.2021
5373 Clear 13 1023 53 10000 0.89 337 10:40 08.04.2021
5374 Clouds 12 1023 55 10000 1.34 7 10:18 08.04.2021
5375 Clouds 12 1022 52 10000 0.89 349 09:43 08.04.2021
5376 Clouds 12 1022 51 10000 0.45 358 08:47 08.04.2021
5377 Clouds 12 1022 51 10000 0.45 358 08:47 08.04.2021
5378 Clouds 11 1021 50 10000 0.45 348 08:28 08.04.2021
5379 Clouds 11 1021 52 10000 2.24 356 07:58 08.04.2021
5380 Clouds 10 1021 54 10000 0.89 354 07:35 08.04.2021
5381 Clouds 11 1019 63 10000 1.34 349 04:18 08.04.2021
5382 Clouds 12 1017 54 10000 0.45 357 01:21 08.04.2021
5383 Clouds 12 1016 59 10000 0.89 340 00:21 08.04.2021
5384 Clouds 12 1015 61 10000 2.68 3 23:42 07.04.2021
5385 Clouds 12 1015 63 10000 0.45 336 23:22 07.04.2021
5386 Clouds 12 1014 67 10000 0.89 13 22:54 07.04.2021
5387 Clouds 13 1014 68 10000 0.45 39 22:35 07.04.2021
5388 Clouds 13 1013 71 10000 6.4 309 21:48 07.04.2021
5389 Clouds 14 1013 59 10000 0.89 347 21:26 07.04.2021
5390 Clouds 14 1012 57 10000 2.24 327 20:47 07.04.2021
5391 Clouds 14 1012 57 10000 0.89 291 20:26 07.04.2021
5392 Clouds 14 1011 55 10000 6.94 271 19:46 07.04.2021
5393 Clouds 15 1011 53 10000 2.24 306 19:28 07.04.2021
5394 Clouds 15 1011 54 10000 2.24 349 18:53 07.04.2021
5395 Clouds 16 1010 51 10000 1.34 329 18:21 07.04.2021
5396 Clouds 16 1010 48 10000 0.45 316 17:57 07.04.2021
5397 Clouds 16 1014 58 10000 9.77 260 17:39 07.04.2021
5398 Clouds 16 1009 48 10000 2.24 270 16:58 07.04.2021
5399 Clouds 17 1009 48 10000 2.68 325 16:39 07.04.2021
5400 Clouds 17 1009 49 10000 0.89 342 16:20 07.04.2021
5401 Clouds 15 1013 58 10000 9.26 270 15:50 07.04.2021
5402 Clouds 15 1013 63 10000 9.77 270 15:25 07.04.2021
5403 Clouds 15 1014 58 10000 9.26 260 14:35 07.04.2021
5404 Clouds 17 1009 49 10000 1.34 238 13:53 07.04.2021
5405 Clear 17 1009 51 10000 1.79 318 13:28 07.04.2021
5406 Clear 17 1009 53 10000 1.34 344 12:58 07.04.2021
5407 Clear 17 1009 54 10000 0.89 342 12:26 07.04.2021
5408 Clear 17 1009 51 10000 1.34 329 11:59 07.04.2021
5409 Clear 16 1009 55 10000 1.79 315 11:29 07.04.2021
5410 Clear 16 1009 55 10000 1.79 315 11:29 07.04.2021
5411 Clear 16 1009 54 10000 1.79 345 10:59 07.04.2021
5412 Clear 16 1009 56 10000 1.34 349 10:33 07.04.2021
5413 Clouds 16 1008 55 10000 1.34 1 09:46 07.04.2021
5414 Clouds 15 1008 55 10000 0.89 53 09:28 07.04.2021
5415 Clear 15 1007 57 10000 1.34 255 08:48 07.04.2021
5416 Clouds 15 1008 61 10000 1.79 237 08:23 07.04.2021
5417 Clouds 14 1007 61 10000 1.79 340 07:46 07.04.2021
5418 Clouds 14 1007 61 10000 1.34 332 07:26 07.04.2021
5419 Clouds 14 1007 64 10000 6.58 259 06:36 07.04.2021
5420 Clouds 15 1006 66 10000 0.89 337 04:37 07.04.2021
5421 Clouds 16 1006 69 10000 0.45 228 01:21 07.04.2021
5422 Clouds 16 1006 71 10000 1.79 293 23:47 06.04.2021
5423 Clouds 16 1006 72 10000 1.34 335 23:22 06.04.2021
5424 Clouds 16 1005 70 10000 1.34 250 22:50 06.04.2021
5425 Clouds 16 1005 67 10000 6.83 234 22:21 06.04.2021
5426 Clouds 16 1005 64 10000 1.34 234 21:44 06.04.2021
5427 Clouds 16 1005 65 10000 1.34 320 21:24 06.04.2021
5428 Clouds 16 1005 65 10000 0.89 348 20:57 06.04.2021
5429 Clouds 14 1008 72 10000 8.75 220 20:39 06.04.2021
5430 Clear 17 1004 63 10000 0.89 231 20:19 06.04.2021
5431 Clear 17 1008 63 10000 9.26 230 19:42 06.04.2021
5432 Clear 17 1004 60 10000 1.34 255 19:24 06.04.2021
5433 Clear 17 1008 67 10000 9.77 240 18:43 06.04.2021
5434 Clear 18 1008 67 10000 9.26 240 18:20 06.04.2021
5435 Clear 19 1008 72 10000 7.2 240 17:45 06.04.2021
5436 Clear 17 1008 67 10000 9.26 240 17:20 06.04.2021
5437 Clear 17 1008 67 10000 9.77 240 16:49 06.04.2021
5438 Clouds 16 1008 67 10000 7.72 240 16:27 06.04.2021
5439 Clouds 15 1009 72 10000 8.75 250 15:27 06.04.2021
5440 Clouds 19 1009 67 10000 9.77 250 14:50 06.04.2021
5441 Clouds 16 1009 67 10000 9.77 250 14:31 06.04.2021
5442 Clouds 19 1004 56 10000 1.34 304 13:55 06.04.2021
5443 Clouds 18 1005 55 10000 0.89 227 13:37 06.04.2021
5444 Clouds 19 1005 56 10000 2.24 331 13:18 06.04.2021
5445 Clouds 18 1006 55 10000 1.79 18 12:38 06.04.2021
5446 Clouds 18 1006 55 10000 0.89 300 12:19 06.04.2021
5447 Clouds 17 1006 56 10000 1.34 343 11:45 06.04.2021
5448 Clouds 17 1006 58 10000 1.34 9 11:20 06.04.2021
5449 Clouds 17 1006 58 10000 0.45 169 10:45 06.04.2021
5450 Clouds 16 1006 61 10000 1.34 165 10:22 06.04.2021
5451 Clouds 16 1006 65 10000 1.34 348 09:47 06.04.2021
5452 Clouds 15 1006 67 10000 0.89 321 09:26 06.04.2021
5453 Clear 15 1006 72 10000 0.89 292 08:34 06.04.2021
5454 Clouds 13 1007 80 10000 0.45 279 07:33 06.04.2021
5455 Clouds 12 1007 79 10000 3.87 228 06:55 06.04.2021
5456 Clear 12 1007 78 10000 3.77 218 04:53 06.04.2021
5457 Clear 12 1009 77 10000 2.87 239 01:54 06.04.2021
5458 Clear 12 1009 74 10000 2.39 245 00:43 06.04.2021
5459 Clear 12 1010 74 10000 2.02 252 00:20 06.04.2021
5460 Clear 13 1010 73 10000 2.02 252 23:42 05.04.2021
5461 Clear 13 1010 73 10000 1.59 248 23:19 05.04.2021
5462 Clear 13 1010 73 10000 1.59 248 22:43 05.04.2021
5463 Clear 13 1010 73 10000 0.98 247 22:24 05.04.2021
5464 Clear 13 1010 71 10000 0.98 247 21:39 05.04.2021
5465 Clear 13 1010 69 10000 0.23 325 21:20 05.04.2021
5466 Clear 14 1010 66 10000 0.23 325 20:42 05.04.2021
5467 Clouds 14 1009 64 10000 1.15 348 20:23 05.04.2021
5468 Clouds 15 1009 59 10000 1.15 348 19:39 05.04.2021
5469 Clouds 16 1009 57 10000 1.87 4 19:19 05.04.2021
5470 Clouds 16 1009 57 10000 1.87 4 19:19 05.04.2021
5471 Clouds 16 1009 55 10000 1.87 4 18:42 05.04.2021
5472 Clouds 17 1009 52 10000 2.5 360 18:23 05.04.2021
5473 Clear 16 1012 63 10000 6.69 50 17:47 05.04.2021
5474 Clear 17 1012 55 10000 7.2 50 17:25 05.04.2021
5475 Clear 17 1012 59 10000 7.2 50 16:57 05.04.2021
5476 Clear 17 1012 59 10000 7.2 50 16:38 05.04.2021
5477 Clouds 17 1012 55 10000 7.2 50 16:18 05.04.2021
5478 Clouds 17 1013 59 10000 6.69 50 15:47 05.04.2021
5479 Clouds 16 1013 67 10000 7.2 50 15:22 05.04.2021
5480 Clouds 17 1013 67 10000 7.72 50 14:36 05.04.2021
5481 Clouds 17 1010 75 10000 3.04 342 13:56 05.04.2021
5482 Clouds 17 1010 79 10000 3.04 342 13:31 05.04.2021
5483 Clouds 16 1010 89 10000 2.82 344 12:47 05.04.2021
5484 Clouds 16 1011 93 10000 2.49 357 12:26 05.04.2021
5485 Clouds 16 1011 93 10000 2.49 357 12:26 05.04.2021
5486 Clouds 15 1011 96 10000 2.49 357 11:53 05.04.2021
5487 Clouds 15 1011 99 10000 0.45 266 11:31 05.04.2021
5488 Clouds 15 1011 99 10000 2.5 10 10:57 05.04.2021
5489 Clouds 15 1011 99 10000 2.5 10 10:36 05.04.2021
5490 Clouds 15 1010 99 10000 2.35 12 09:49 05.04.2021
5491 Clouds 14 1010 99 10000 2.28 16 09:26 05.04.2021
5492 Clouds 15 1010 99 10000 2.28 16 08:59 05.04.2021
5493 Clouds 14 1010 99 10000 1.83 31 08:37 05.04.2021
5494 Clouds 14 1010 99 10000 0.45 347 08:19 05.04.2021
5495 Clouds 14 1010 99 10000 1.7 42 07:33 05.04.2021
5496 Clouds 14 1009 92 10000 2.48 32 03:58 05.04.2021
5497 Clouds 15 1009 89 10000 0.78 183 01:34 05.04.2021
5498 Clouds 15 1009 88 10000 1.43 150 00:20 05.04.2021
5499 Clouds 15 1009 87 10000 1.43 150 23:37 04.04.2021
5500 Clouds 16 1009 87 10000 1.44 129 23:18 04.04.2021
5501 Clouds 16 1009 86 10000 1.44 129 22:45 04.04.2021
5502 Clouds 16 1009 86 10000 1.36 113 22:26 04.04.2021
5503 Clouds 16 1009 85 10000 1.17 104 21:23 04.04.2021
5504 Clouds 16 1008 83 10000 1.17 104 20:47 04.04.2021
5505 Clouds 16 1008 83 10000 1.96 89 20:23 04.04.2021
5506 Clouds 16 1007 80 10000 1.96 89 19:42 04.04.2021
5507 Clouds 16 1007 79 10000 1.96 73 19:20 04.04.2021
5508 Clouds 17 1007 79 10000 1.96 73 18:56 04.04.2021
5509 Clouds 17 1007 79 10000 1.96 73 18:37 04.04.2021
5510 Clouds 17 1007 79 10000 2.13 53 18:19 04.04.2021
5511 Clouds 17 1006 77 10000 2.13 53 17:37 04.04.2021
5512 Clouds 17 1006 77 10000 2.3 36 17:18 04.04.2021
5513 Clouds 17 1006 76 10000 2.3 36 16:41 04.04.2021
5514 Clouds 18 1006 77 10000 2.53 22 15:58 04.04.2021
5515 Clouds 18 1006 74 10000 0.89 348 15:33 04.04.2021
5516 Clouds 18 1006 72 10000 2.32 10 14:43 04.04.2021
5517 Clouds 19 1006 71 10000 1.34 351 14:25 04.04.2021
5518 Clouds 19 1006 74 10000 1.32 9 13:29 04.04.2021
5519 Clouds 18 1006 73 10000 1.34 5 12:53 04.04.2021
5520 Clouds 18 1006 73 10000 1.34 3 12:32 04.04.2021
5521 Clouds 18 1006 73 10000 0.71 32 11:52 04.04.2021
5522 Clouds 18 1006 75 10000 1.34 346 11:31 04.04.2021
5523 Clouds 18 1006 76 10000 0.89 335 10:56 04.04.2021
5524 Clouds 18 1006 76 10000 0.45 340 10:33 04.04.2021
5525 Clouds 17 1006 86 10000 0.93 52 09:52 04.04.2021
5526 Clouds 17 1006 90 10000 0.95 84 09:24 04.04.2021
5527 Clouds 16 1006 92 10000 0.95 84 08:51 04.04.2021
5528 Clouds 16 1006 93 10000 0.95 84 08:33 04.04.2021
5529 Clouds 15 1005 94 10000 1.35 142 07:24 04.04.2021
5530 Clouds 15 1005 94 10000 1.35 142 06:36 04.04.2021
5531 Clouds 15 1005 97 10000 1 118 04:56 04.04.2021
5532 Clear 15 1006 97 10000 0.99 211 01:28 04.04.2021
5533 Clear 16 1006 95 10000 1.5 187 00:19 04.04.2021
5534 Clear 16 1006 94 10000 1.5 187 23:47 03.04.2021
5535 Clear 16 1006 94 10000 1.65 173 23:23 03.04.2021
5536 Clouds 16 1009 88 10000 1.54 40 22:50 03.04.2021
5537 Clouds 17 1010 88 10000 1.54 30 22:21 03.04.2021
5538 Clouds 17 1010 88 10000 2.06 350 21:47 03.04.2021
5539 Clouds 17 1009 88 10000 3.09 340 21:24 03.04.2021
5540 Clouds 17 1009 88 10000 3.6 330 20:51 03.04.2021
5541 Clouds 17 1009 88 10000 4.63 320 20:28 03.04.2021
5542 Clouds 17 1009 88 10000 4.12 330 19:51 03.04.2021
5543 Clear 18 1005 76 10000 0.95 76 19:25 03.04.2021
5544 Clouds 17 1009 82 10000 1.54 30 18:52 03.04.2021
5545 Clouds 17 1009 82 10000 1.54 30 18:33 03.04.2021
5546 Clouds 17 1009 88 10000 2.57 350 17:55 03.04.2021
5547 Clouds 17 1009 88 10000 2.57 330 17:26 03.04.2021
5548 Clouds 17 1009 88 10000 3.09 310 16:54 03.04.2021
5549 Clouds 19 1009 88 10000 4.12 310 16:25 03.04.2021
5550 Clouds 19 1009 82 10000 4.12 310 15:51 03.04.2021
5551 Clouds 19 1009 82 10000 4.12 310 15:31 03.04.2021
5552 Clear 19 1010 72 10000 4.63 290 14:45 03.04.2021
5553 Clear 20 1010 68 10000 4.12 280 14:25 03.04.2021
5554 Clear 20 1010 72 10000 3.6 290 13:54 03.04.2021
5555 Clear 19 1010 72 10000 3.6 290 13:34 03.04.2021
5556 Clear 20 1010 68 10000 3.6 20 12:58 03.04.2021
5557 Clear 20 1010 68 10000 3.6 20 12:33 03.04.2021
5558 Clouds 20 1007 51 10000 1.99 167 11:41 03.04.2021
5559 Clouds 20 1007 53 10000 4.09 135 11:20 03.04.2021
5560 Clouds 19 1008 60 10000 4.09 135 10:45 03.04.2021
5561 Clouds 18 1008 63 10000 0.89 242 10:26 03.04.2021
5562 Clouds 17 1008 72 10000 4.28 134 09:36 03.04.2021
5563 Clouds 16 1008 72 10000 2.77 92 09:18 03.04.2021
5564 Clouds 15 1009 72 10000 2.77 92 08:35 03.04.2021
5565 Clouds 14 1008 74 10000 1.82 299 07:40 03.04.2021
5566 Clouds 14 1008 74 10000 2.63 293 07:22 03.04.2021
5567 Rain 15 1009 71 10000 1.58 153 03:54 03.04.2021
5568 Clouds 15 1010 70 10000 1.16 190 02:55 03.04.2021
5569 Clouds 15 1010 69 10000 1.87 156 02:30 03.04.2021
5570 Clear 14 1011 68 10000 1.93 152 00:32 03.04.2021
5571 Clear 15 1011 66 10000 2.18 158 23:59 02.04.2021
5572 Clear 16 1011 67 10000 2.19 157 23:38 02.04.2021
5573 Clear 16 1012 65 10000 2.64 137 23:18 02.04.2021
5574 Clear 16 1012 64 10000 2.64 137 22:43 02.04.2021
5575 Clear 16 1012 63 10000 2.77 136 22:24 02.04.2021
5576 Clear 16 1012 61 10000 2.78 136 21:41 02.04.2021
5577 Clear 17 1012 60 10000 2.42 139 21:19 02.04.2021
5578 Clear 16 1014 77 10000 3.6 210 20:42 02.04.2021
5579 Clouds 17 1012 55 10000 2.16 135 20:21 02.04.2021
5580 Clouds 17 1015 67 10000 3.09 220 19:42 02.04.2021
5581 Clouds 18 1012 46 10000 1.84 128 19:23 02.04.2021
5582 Clouds 18 1014 63 10000 2.06 0 18:48 02.04.2021
5583 Clouds 19 1014 52 10000 5.14 70 18:30 02.04.2021
5584 Clouds 18 1014 52 10000 5.66 60 17:56 02.04.2021
5585 Clouds 19 1015 56 10000 5.14 60 17:30 02.04.2021
5586 Clouds 19 1015 56 10000 5.66 60 16:37 02.04.2021
5587 Clouds 20 1015 59 10000 5.66 60 15:47 02.04.2021
5588 Clear 20 1016 68 10000 5.66 40 15:25 02.04.2021
5589 Clouds 21 1013 48 10000 0.45 309 14:33 02.04.2021
5590 Clear 20 1013 54 10000 1.43 67 13:50 02.04.2021
5591 Clear 20 1013 54 10000 0.94 53 13:28 02.04.2021
5592 Clear 20 1014 53 10000 0.94 53 12:59 02.04.2021
5593 Clear 20 1014 55 10000 0.94 53 12:38 02.04.2021
5594 Clear 20 1014 59 10000 0.86 60 12:19 02.04.2021
5595 Clear 20 1015 60 10000 0.86 60 11:48 02.04.2021
5596 Clear 19 1015 59 10000 0.63 101 11:19 02.04.2021
5597 Clear 19 1015 63 10000 0.63 101 10:43 02.04.2021
5598 Clear 18 1015 65 10000 0.91 128 10:23 02.04.2021
5599 Clear 17 1015 69 10000 0.45 331 09:46 02.04.2021
5600 Clear 17 1015 71 10000 1.04 144 09:24 02.04.2021
5601 Clear 16 1015 77 10000 1.04 144 08:46 02.04.2021
5602 Clear 16 1015 77 10000 1.04 144 08:46 02.04.2021
5603 Clear 15 1015 81 10000 1.28 154 08:26 02.04.2021
5604 Clear 12 1015 84 10000 1.23 169 07:22 02.04.2021
5605 Clear 12 1015 84 10000 1.23 169 06:34 02.04.2021
5606 Clear 13 1015 82 10000 1.5 197 03:40 02.04.2021
5607 Clear 14 1016 81 10000 1.92 168 01:49 02.04.2021
5608 Clear 13 1017 80 10000 2.09 165 00:43 02.04.2021
5609 Clear 14 1017 79 10000 1.95 166 23:47 01.04.2021
5610 Clear 15 1017 80 10000 1.68 172 23:27 01.04.2021
5611 Clear 15 1017 79 10000 1.68 172 22:50 01.04.2021
5612 Clear 15 1017 78 10000 1.57 164 22:18 01.04.2021
5613 Clear 15 1017 77 10000 1.57 164 21:44 01.04.2021
5614 Clear 16 1017 76 10000 0.99 158 21:23 01.04.2021
5615 Clear 16 1016 75 10000 0.99 158 20:41 01.04.2021
5616 Clear 16 1016 75 10000 0.99 158 20:41 01.04.2021
5617 Clear 16 1016 75 10000 0.74 124 20:22 01.04.2021
5618 Clear 17 1016 74 10000 0.74 124 19:43 01.04.2021
5619 Clear 17 1016 73 10000 0.8 59 19:24 01.04.2021
5620 Clear 17 1016 66 10000 0.8 59 18:45 01.04.2021
5621 Clear 19 1016 63 10000 1.15 46 18:18 01.04.2021
5622 Clear 17 1019 82 10000 1.54 20 17:45 01.04.2021
5623 Clear 18 1020 82 10000 1.54 20 17:24 01.04.2021
5624 Clear 19 1020 82 10000 1.03 320 16:50 01.04.2021
5625 Clear 19 1020 82 10000 1.03 320 16:50 01.04.2021
5626 Clear 19 1021 82 10000 3.09 300 16:24 01.04.2021
5627 Clear 18 1021 77 10000 3.6 310 15:43 01.04.2021
5628 Clear 18 1021 77 10000 3.6 310 15:19 01.04.2021
5629 Clear 17 1021 77 10000 2.57 320 14:42 01.04.2021
5630 Clouds 18 1021 68 10000 2.06 290 14:23 01.04.2021
5631 Clear 17 1022 72 10000 2.57 290 13:52 01.04.2021
5632 Clear 17 1022 72 10000 2.57 280 13:30 01.04.2021
5633 Clear 20 1022 72 10000 1.54 280 12:49 01.04.2021
5634 Clear 19 1022 72 10000 3.6 300 12:30 01.04.2021
5635 Clear 19 1022 67 10000 4.12 290 11:47 01.04.2021
5636 Clear 18 1022 67 10000 4.63 290 11:24 01.04.2021
5637 Clear 18 1022 55 10000 5.66 240 10:53 01.04.2021
5638 Clear 18 1019 57 10000 0.45 354 10:35 01.04.2021
5639 Clear 17 1019 59 10000 1.69 273 09:54 01.04.2021
5640 Clear 16 1019 58 10000 1.58 247 09:24 01.04.2021
5641 Clear 15 1019 67 10000 1.58 247 08:33 01.04.2021
5642 Clear 13 1018 73 10000 1.77 220 07:57 01.04.2021
5643 Clear 12 1018 73 10000 1.7 212 07:19 01.04.2021
5644 Clear 12 1018 72 10000 1.7 212 06:47 01.04.2021
5645 Clear 13 1019 66 10000 1.34 185 03:30 01.04.2021
5646 Clear 12 1020 72 10000 1.93 167 00:59 01.04.2021
5647 Clear 14 1020 75 10000 1.78 161 23:44 31.03.2021
5648 Clear 14 1020 74 10000 1.44 152 23:19 31.03.2021
5649 Clear 14 1020 77 10000 1.44 152 22:41 31.03.2021
5650 Clear 14 1020 77 10000 1.01 142 22:20 31.03.2021
5651 Clear 14 1020 79 10000 1.01 142 21:46 31.03.2021
5652 Clear 15 1020 78 10000 0.72 103 21:24 31.03.2021
5653 Clear 15 1020 77 10000 0.72 103 20:57 31.03.2021
5654 Clear 15 1019 76 10000 0.72 103 20:39 31.03.2021
5655 Clear 15 1019 73 10000 1.47 43 20:18 31.03.2021
5656 Clear 15 1022 88 10000 3.6 30 19:40 31.03.2021
5657 Clear 17 1019 61 10000 2.14 37 19:19 31.03.2021
5658 Clouds 16 1022 88 10000 3.6 30 18:49 31.03.2021
5659 Clouds 16 1022 88 10000 3.09 20 18:21 31.03.2021
5660 Clouds 16 1022 88 10000 3.09 360 17:37 31.03.2021
5661 Clouds 17 1022 82 10000 3.09 360 17:18 31.03.2021
5662 Clouds 17 1023 82 10000 3.09 350 16:48 31.03.2021
5663 Clear 17 1023 82 10000 3.09 350 16:25 31.03.2021
5664 Clear 17 1023 82 10000 3.09 340 15:50 31.03.2021
5665 Clouds 17 1023 82 10000 3.09 330 15:19 31.03.2021
5666 Clear 17 1024 77 10000 3.09 330 14:45 31.03.2021
5667 Clear 17 1024 77 10000 3.6 330 14:24 31.03.2021
5668 Clear 17 1024 77 10000 3.6 310 13:42 31.03.2021
5669 Clear 18 1021 58 10000 1.76 351 13:18 31.03.2021
5670 Clear 18 1021 63 10000 0.45 357 12:36 31.03.2021
5671 Clear 18 1021 57 10000 1.34 11 12:18 31.03.2021
5672 Clear 19 1022 60 10000 1.36 340 11:21 31.03.2021
5673 Clear 18 1022 55 10000 1.36 340 10:47 31.03.2021
5674 Clear 17 1022 57 10000 1.04 322 10:26 31.03.2021
5675 Clear 16 1022 57 10000 1.05 326 09:45 31.03.2021
5676 Clear 15 1022 58 10000 0.67 298 09:26 31.03.2021
5677 Clear 14 1022 61 10000 0.88 285 08:39 31.03.2021
5678 Clear 12 1022 66 10000 0.91 235 07:58 31.03.2021
5679 Clear 11 1022 68 10000 1.12 221 06:50 31.03.2021
5680 Clear 12 1023 74 10000 1.14 195 03:52 31.03.2021
5681 Clear 12 1023 77 10000 1.22 180 02:30 31.03.2021
5682 Clear 13 1024 86 10000 1.34 153 00:53 31.03.2021
5683 Clear 13 1024 86 10000 1.57 150 00:21 31.03.2021
5684 Clear 13 1024 86 10000 1.57 150 23:54 30.03.2021
5685 Clear 14 1024 86 10000 1.81 146 23:19 30.03.2021
5686 Clear 14 1024 85 10000 1.81 146 22:47 30.03.2021
5687 Clear 14 1024 85 10000 1.75 136 22:29 30.03.2021
5688 Clear 15 1024 84 10000 1.75 136 21:55 30.03.2021
5689 Clear 15 1024 83 10000 1.43 119 21:25 30.03.2021
5690 Clear 15 1024 83 10000 1.43 119 20:58 30.03.2021
5691 Clear 16 1023 82 10000 1.36 123 20:30 30.03.2021
5692 Clouds 15 1026 82 10000 6.17 50 19:55 30.03.2021
5693 Clouds 15 1026 82 10000 6.17 50 19:36 30.03.2021
5694 Clouds 16 1026 77 10000 7.72 40 18:47 30.03.2021
5695 Clear 16 1026 82 10000 6.69 50 18:24 30.03.2021
5696 Clear 16 1026 77 10000 7.2 40 17:45 30.03.2021
5697 Clear 16 1026 77 10000 6.69 40 17:26 30.03.2021
5698 Clear 17 1027 77 10000 6.69 40 16:46 30.03.2021
5699 Clear 17 1027 77 10000 6.17 30 16:25 30.03.2021
5700 Clear 17 1028 77 10000 5.66 30 15:36 30.03.2021
5701 Clear 17 1028 77 10000 5.66 30 15:18 30.03.2021
5702 Clear 16 1028 77 10000 5.66 40 14:43 30.03.2021
5703 Clouds 19 1025 61 10000 2.47 53 14:19 30.03.2021
5704 Clouds 19 1025 60 10000 2.47 53 13:44 30.03.2021
5705 Clouds 18 1026 58 10000 0.89 2 12:58 30.03.2021
5706 Clouds 18 1026 68 10000 2.41 51 12:39 30.03.2021
5707 Clouds 17 1026 69 10000 2.37 50 12:20 30.03.2021
5708 Clouds 16 1027 72 10000 2.37 50 11:41 30.03.2021
5709 Clouds 16 1027 72 10000 2.26 45 11:18 30.03.2021
5710 Clouds 15 1027 69 10000 2.26 45 10:40 30.03.2021
5711 Clear 15 1027 72 10000 1.74 40 10:19 30.03.2021
5712 Clear 14 1027 75 10000 1.74 40 09:40 30.03.2021
5713 Clear 14 1027 74 10000 1.16 51 09:20 30.03.2021
5714 Clear 13 1027 70 10000 1.16 51 08:41 30.03.2021
5715 Clear 11 1027 70 10000 0.71 99 07:55 30.03.2021
5716 Clear 10 1027 69 10000 0.86 97 07:28 30.03.2021
5717 Clear 10 1027 69 10000 0.45 345 06:23 30.03.2021
5718 Clear 11 1026 66 10000 0.87 116 05:24 30.03.2021
5719 Clouds 12 1028 82 10000 1.37 135 01:37 30.03.2021
5720 Clouds 12 1028 82 10000 1.73 138 23:53 29.03.2021
5721 Clouds 13 1029 82 10000 1.83 130 23:21 29.03.2021
5722 Clouds 13 1028 78 10000 1.82 132 22:37 29.03.2021
5723 Clouds 14 1028 75 10000 1.81 133 21:55 29.03.2021
5724 Clouds 14 1028 74 10000 1.81 133 21:33 29.03.2021
5725 Clear 14 1028 75 10000 1.8 127 20:51 29.03.2021
5726 Clear 15 1028 74 10000 1.8 108 20:29 29.03.2021
5727 Clear 15 1028 75 10000 1.8 108 19:53 29.03.2021
5728 Clear 15 1028 75 10000 1.95 83 19:27 29.03.2021
5729 Clear 15 1028 75 10000 1.95 83 19:27 29.03.2021
5730 Clear 16 1027 75 10000 1.95 83 18:54 29.03.2021
5731 Clear 17 1027 71 10000 1.95 83 18:30 29.03.2021
5732 Clouds 16 1030 82 10000 9.26 50 17:58 29.03.2021
5733 Clouds 16 1030 82 10000 9.26 50 17:35 29.03.2021
5734 Clear 17 1030 72 10000 8.75 50 16:53 29.03.2021
5735 Clear 17 1030 77 10000 7.72 60 16:27 29.03.2021
5736 Clear 18 1031 72 10000 7.2 50 15:43 29.03.2021
5737 Clouds 17 1031 77 10000 6.69 50 15:24 29.03.2021
5738 Clouds 18 1031 67 10000 6.17 50 14:48 29.03.2021
5739 Clear 19 1028 59 10000 2.2 39 14:21 29.03.2021
5740 Clear 19 1028 58 10000 2.26 42 13:40 29.03.2021
5741 Clear 19 1029 59 10000 2.16 43 13:18 29.03.2021
5742 Clear 18 1029 62 10000 2.19 45 12:49 29.03.2021
5743 Clear 18 1029 66 10000 1.94 62 11:48 29.03.2021
5744 Clear 17 1030 62 10000 1.84 89 11:28 29.03.2021
5745 Clear 17 1029 65 10000 1.84 88 10:49 29.03.2021
5746 Clear 17 1029 68 10000 2.12 94 10:23 29.03.2021
5747 Clear 16 1029 71 10000 2.12 94 09:33 29.03.2021
5748 Clear 14 1029 76 10000 2.2 91 08:43 29.03.2021
5749 Clear 13 1028 78 10000 1.99 115 08:25 29.03.2021
5750 Clear 11 1029 81 10000 2.36 126 07:21 29.03.2021
5751 Clear 11 1029 81 10000 2.1 125 06:25 29.03.2021
5752 Clear 12 1029 74 10000 1.69 128 03:25 29.03.2021
5753 Clear 13 1029 71 10000 2.02 121 00:46 29.03.2021
5754 Clear 13 1029 73 10000 2.18 127 00:18 29.03.2021
5755 Clear 13 1029 77 10000 2.18 127 23:30 28.03.2021
5756 Clear 13 1029 77 10000 2.18 127 23:30 28.03.2021
5757 Clear 14 1028 78 10000 2.41 126 22:53 28.03.2021
5758 Clear 14 1028 78 10000 2.41 126 22:35 28.03.2021
5759 Clear 14 1028 77 10000 2.59 122 21:57 28.03.2021
5760 Clear 14 1028 76 10000 2.59 122 21:38 28.03.2021
5761 Clear 15 1028 75 10000 2.77 117 21:18 28.03.2021
5762 Clear 15 1028 74 10000 2.77 117 20:42 28.03.2021
5763 Clear 15 1027 75 10000 2.79 107 20:24 28.03.2021
5764 Clear 16 1029 63 10000 7.2 70 19:42 28.03.2021
5765 Clear 16 1027 64 10000 2.58 93 19:22 28.03.2021
5766 Clear 16 1028 63 10000 8.75 60 18:53 28.03.2021
5767 Clear 18 1027 46 10000 2.64 87 18:25 28.03.2021
5768 Clear 17 1028 67 10000 7.72 60 17:46 28.03.2021
5769 Clear 17 1028 59 10000 7.2 60 17:23 28.03.2021
5770 Clear 18 1028 63 10000 7.72 60 16:45 28.03.2021
5771 Clear 17 1029 63 10000 8.23 60 16:23 28.03.2021
5772 Clear 18 1029 55 10000 5.14 60 15:25 28.03.2021
5773 Clear 17 1029 72 10000 6.17 40 14:50 28.03.2021
5774 Clear 17 1030 72 10000 6.17 50 14:30 28.03.2021
5775 Clear 18 1027 53 10000 2.53 77 13:39 28.03.2021
5776 Clear 19 1027 48 10000 2.63 78 13:19 28.03.2021
5777 Clear 18 1027 46 10000 2.63 78 12:43 28.03.2021
5778 Clear 18 1027 46 10000 2.63 78 12:43 28.03.2021
5779 Clear 18 1027 46 10000 2.71 78 12:25 28.03.2021
5780 Clear 18 1027 44 10000 2.71 78 11:40 28.03.2021
5781 Clear 18 1027 46 10000 2.63 82 11:21 28.03.2021
5782 Clear 17 1027 52 10000 2.69 82 10:43 28.03.2021
5783 Clear 17 1027 54 10000 2.27 102 10:23 28.03.2021
5784 Clear 15 1027 58 10000 2.22 103 09:44 28.03.2021
5785 Clear 15 1027 61 10000 2.25 124 09:24 28.03.2021
5786 Clear 13 1026 69 10000 2.25 124 08:45 28.03.2021
5787 Clear 12 1026 72 10000 0.45 223 07:46 28.03.2021
5788 Clear 12 1025 71 10000 2.23 136 06:23 28.03.2021
5789 Clear 12 1024 72 10000 2.09 161 03:51 28.03.2021
5790 Clear 13 1025 71 10000 1.93 154 00:52 28.03.2021
5791 Clear 13 1025 72 10000 1.95 166 00:19 28.03.2021
5792 Clear 13 1025 74 10000 1.95 166 23:40 27.03.2021
5793 Clear 13 1025 77 10000 2.24 161 22:54 27.03.2021
5794 Clear 13 1025 78 10000 2.24 161 22:36 27.03.2021
5795 Clear 13 1025 79 10000 2.7 145 21:48 27.03.2021
5796 Clear 14 1025 78 10000 3.19 141 21:22 27.03.2021
5797 Clear 14 1025 78 10000 3.19 141 20:59 27.03.2021
5798 Clear 14 1024 77 10000 3.19 141 20:38 27.03.2021
5799 Clear 14 1024 76 10000 3.28 143 20:19 27.03.2021
5800 Clear 14 1024 75 10000 3.28 143 19:42 27.03.2021
5801 Clouds 14 1024 75 10000 3.28 132 19:23 27.03.2021
5802 Clear 15 1026 63 10000 2.57 70 18:48 27.03.2021
5803 Clouds 15 1024 74 10000 2.74 117 18:27 27.03.2021
5804 Clouds 16 1023 69 10000 2.82 117 17:45 27.03.2021
5805 Clouds 17 1023 67 10000 2.8 115 17:23 27.03.2021
5806 Clear 17 1025 59 10000 5.14 50 16:48 27.03.2021
5807 Clear 17 1025 63 10000 4.63 40 16:28 27.03.2021
5808 Clear 17 1026 63 10000 4.63 40 15:46 27.03.2021
5809 Clouds 17 1026 55 10000 3.09 50 15:22 27.03.2021
5810 Clouds 17 1026 55 10000 5.66 50 14:45 27.03.2021
5811 Clouds 17 1027 55 10000 5.66 40 13:44 27.03.2021
5812 Clouds 18 1027 51 10000 4.12 50 13:24 27.03.2021
5813 Clouds 18 1025 47 10000 2 107 12:53 27.03.2021
5814 Clouds 18 1025 40 10000 1.33 112 11:59 27.03.2021
5815 Clouds 18 1025 41 10000 1.33 112 11:41 27.03.2021
5816 Clouds 17 1025 47 10000 1.66 131 11:19 27.03.2021
5817 Clouds 17 1025 50 10000 1.65 131 10:43 27.03.2021
5818 Clouds 16 1025 53 10000 2.03 136 10:22 27.03.2021
5819 Clouds 15 1025 61 10000 2.04 138 09:28 27.03.2021
5820 Clouds 14 1025 68 10000 2.04 138 08:43 27.03.2021
5821 Clouds 13 1025 70 10000 2 149 08:20 27.03.2021
5822 Clouds 11 1025 74 10000 1.95 153 07:34 27.03.2021
5823 Clouds 9 1025 76 10000 2.48 170 06:43 27.03.2021
5824 Clouds 9 1024 78 10000 2.17 168 04:57 27.03.2021
5825 Clouds 9 1024 77 10000 2.17 168 04:39 27.03.2021
5826 Clear 10 1025 85 10000 1.95 202 00:49 27.03.2021
5827 Clear 11 1025 86 10000 2.17 183 00:29 27.03.2021
5828 Clear 11 1025 86 10000 2.17 183 23:48 26.03.2021
5829 Clear 11 1025 84 10000 2.35 172 22:56 26.03.2021
5830 Clear 11 1025 83 10000 2.35 172 22:34 26.03.2021
5831 Clear 12 1025 81 10000 2.03 163 21:25 26.03.2021
5832 Clear 12 1025 80 10000 2.03 163 20:59 26.03.2021
5833 Clear 13 1025 79 10000 2.03 163 20:32 26.03.2021
5834 Clear 13 1025 77 10000 1.95 162 19:56 26.03.2021
5835 Clear 13 1024 76 10000 1.95 162 19:37 26.03.2021
5836 Clear 13 1024 75 10000 1.24 167 19:18 26.03.2021
5837 Clear 14 1024 73 10000 1.24 167 18:41 26.03.2021
5838 Clear 14 1024 71 10000 0.28 139 18:19 26.03.2021
5839 Clear 15 1024 68 10000 0.28 139 17:45 26.03.2021
5840 Clear 15 1027 72 10000 3.09 340 16:54 26.03.2021
5841 Clear 15 1027 72 10000 3.09 340 16:32 26.03.2021
5842 Clear 15 1027 72 10000 4.12 320 15:51 26.03.2021
5843 Clear 15 1027 77 10000 4.63 310 15:21 26.03.2021
5844 Clear 16 1027 77 10000 4.63 300 14:24 26.03.2021
5845 Clear 16 1027 77 10000 4.12 300 13:34 26.03.2021
5846 Clear 17 1024 49 10000 1.34 4 12:49 26.03.2021
5847 Clear 17 1025 45 10000 0.89 357 11:58 26.03.2021
5848 Clear 17 1025 43 10000 0.45 355 11:34 26.03.2021
5849 Clear 16 1025 43 10000 0.91 329 10:52 26.03.2021
5850 Clear 16 1025 45 10000 0.23 352 10:33 26.03.2021
5851 Clear 15 1024 48 10000 0.24 350 09:42 26.03.2021
5852 Clear 14 1024 54 10000 0.48 202 09:19 26.03.2021
5853 Clear 14 1024 62 10000 0.48 202 08:38 26.03.2021
5854 Clear 12 1024 68 10000 1.3 208 08:20 26.03.2021
5855 Clear 10 1023 73 10000 1.74 198 07:23 26.03.2021
5856 Clear 9 1023 72 10000 1.74 198 06:58 26.03.2021
5857 Clear 9 1023 73 10000 1.74 198 06:30 26.03.2021
5858 Clear 9 1023 77 10000 1.85 209 05:26 26.03.2021
5859 Clear 9 1023 78 10000 2.03 234 01:58 26.03.2021
5860 Clear 10 1023 78 10000 2.06 223 00:27 26.03.2021
5861 Clear 11 1023 81 10000 2.06 223 23:44 25.03.2021
5862 Clear 11 1022 83 10000 2.19 234 22:57 25.03.2021
5863 Clear 11 1022 82 10000 2.19 234 22:30 25.03.2021
5864 Clear 12 1022 81 10000 1.92 230 21:53 25.03.2021
5865 Clear 12 1022 80 10000 1.7 245 21:34 25.03.2021
5866 Clear 12 1022 79 10000 1.7 245 20:45 25.03.2021
5867 Clear 12 1022 77 10000 1.7 278 20:25 25.03.2021
5868 Clear 12 1022 76 10000 1.7 278 19:46 25.03.2021
5869 Clouds 13 1021 76 10000 1.82 301 19:27 25.03.2021
5870 Clouds 13 1021 75 10000 1.82 301 18:49 25.03.2021
5871 Clouds 13 1021 75 10000 2.56 320 18:27 25.03.2021
5872 Clouds 14 1021 74 10000 0.45 343 17:55 25.03.2021
5873 Clouds 14 1021 71 10000 2.56 320 17:36 25.03.2021
5874 Clouds 12 1023 67 10000 4.12 320 16:55 25.03.2021
5875 Clouds 12 1023 67 10000 4.12 320 16:32 25.03.2021
5876 Clouds 14 1023 67 10000 4.12 310 15:46 25.03.2021
5877 Clouds 14 1023 67 10000 4.12 310 15:23 25.03.2021
5878 Clouds 15 1024 67 10000 4.63 310 14:48 25.03.2021
5879 Clouds 15 1024 67 10000 4.63 310 14:29 25.03.2021
5880 Clouds 14 1021 76 10000 3.86 327 13:25 25.03.2021
5881 Clouds 14 1021 69 10000 0.45 274 12:46 25.03.2021
5882 Clouds 14 1021 69 10000 3.33 322 12:22 25.03.2021
5883 Clouds 14 1021 69 10000 0.45 326 11:53 25.03.2021
5884 Clouds 14 1021 69 10000 0.45 326 11:53 25.03.2021
5885 Clouds 14 1021 69 10000 3.33 322 11:33 25.03.2021
5886 Clouds 14 1021 67 10000 1.34 353 10:58 25.03.2021
5887 Clouds 14 1021 66 10000 0.45 17 10:39 25.03.2021
5888 Clouds 14 1021 64 10000 0.89 347 10:19 25.03.2021
5889 Clouds 14 1021 65 10000 0.45 309 09:43 25.03.2021
5890 Clear 13 1021 66 10000 2.34 320 09:21 25.03.2021
5891 Clear 13 1020 67 10000 0.45 324 08:30 25.03.2021
5892 Clear 10 1020 71 10000 1.38 292 07:29 25.03.2021
5893 Clear 9 1020 71 10000 1.38 292 06:43 25.03.2021
5894 Clear 9 1020 71 10000 0.45 341 06:22 25.03.2021
5895 Clear 8 1019 70 10000 1.21 298 04:51 25.03.2021
5896 Clear 9 1020 64 10000 1.05 300 01:25 25.03.2021
5897 Clear 9 1020 68 10000 0.94 295 00:19 25.03.2021
5898 Clear 9 1020 67 10000 0.94 295 23:40 24.03.2021
5899 Clear 10 1020 68 10000 0.66 293 23:19 24.03.2021
5900 Clear 9 1020 68 10000 0.66 293 22:39 24.03.2021
5901 Clear 9 1020 67 10000 0.61 309 21:51 24.03.2021
5902 Clear 9 1020 65 10000 0.61 309 21:32 24.03.2021
5903 Clear 9 1020 62 10000 0.83 352 20:59 24.03.2021
5904 Clear 10 1020 60 10000 0.83 352 20:41 24.03.2021
5905 Clear 10 1020 58 10000 1.33 12 20:18 24.03.2021
5906 Clear 10 1019 57 10000 1.33 12 19:33 24.03.2021
5907 Clear 10 1019 57 10000 1.33 12 19:33 24.03.2021
5908 Clear 11 1019 56 10000 1.49 23 18:53 24.03.2021
5909 Clear 11 1019 54 10000 2.09 29 18:24 24.03.2021
5910 Clear 12 1019 51 10000 0.45 345 17:53 24.03.2021
5911 Clear 12 1019 48 10000 2.09 29 17:32 24.03.2021
5912 Clouds 13 1022 47 10000 4.63 30 16:57 24.03.2021
5913 Clouds 13 1022 47 10000 4.63 30 16:39 24.03.2021
5914 Clouds 13 1022 47 10000 4.63 30 16:19 24.03.2021
5915 Clouds 13 1022 41 10000 4.63 40 15:37 24.03.2021
5916 Clouds 13 1022 50 10000 4.63 30 15:18 24.03.2021
5917 Clouds 13 1023 50 10000 4.63 20 14:30 24.03.2021
5918 Clouds 14 1019 45 10000 4.16 26 13:58 24.03.2021
5919 Clouds 14 1020 47 10000 4.59 23 13:28 24.03.2021
5920 Clouds 13 1020 48 10000 0.45 350 12:52 24.03.2021
5921 Clouds 12 1020 48 10000 4.59 27 12:32 24.03.2021
5922 Clouds 12 1020 47 10000 5.08 25 11:57 24.03.2021
5923 Clouds 13 1020 47 10000 0.45 346 11:39 24.03.2021
5924 Clouds 13 1020 43 10000 5.42 22 10:49 24.03.2021
5925 Clouds 13 1020 44 10000 0.89 349 10:31 24.03.2021
5926 Clouds 12 1020 47 10000 0.89 356 09:55 24.03.2021
5927 Clouds 12 1020 49 10000 0.89 350 09:31 24.03.2021
5928 Clouds 11 1020 49 10000 0.89 345 08:57 24.03.2021
5929 Clouds 11 1020 51 10000 5.1 11 08:38 24.03.2021
5930 Clear 9 1019 72 10000 4.55 3 07:49 24.03.2021
5931 Clouds 8 1019 73 10000 3.81 3 07:19 24.03.2021
5932 Clouds 8 1019 70 10000 3.81 3 06:43 24.03.2021
5933 Clouds 10 1021 43 10000 4.63 20 02:29 24.03.2021
5934 Clouds 9 1021 50 10000 5.66 30 00:42 24.03.2021
5935 Clouds 9 1019 51 10000 2.97 326 23:52 23.03.2021
5936 Clouds 9 1019 51 10000 3.69 339 23:19 23.03.2021
5937 Clouds 9 1018 52 10000 3.69 339 22:50 23.03.2021
5938 Clouds 10 1018 51 10000 4.73 353 22:24 23.03.2021
5939 Clouds 10 1018 50 10000 0.45 334 21:45 23.03.2021
5940 Clouds 10 1018 48 10000 5.98 357 21:26 23.03.2021
5941 Clouds 9 1018 47 10000 0.45 2 20:46 23.03.2021
5942 Clouds 9 1018 49 10000 7.14 357 20:25 23.03.2021
5943 Clouds 10 1017 49 10000 7.14 357 19:48 23.03.2021
5944 Clouds 10 1017 46 10000 1.34 12 19:26 23.03.2021
5945 Clouds 10 1016 48 10000 0.45 348 18:46 23.03.2021
5946 Clouds 10 1016 51 10000 2.24 3 18:22 23.03.2021
5947 Clouds 10 1016 52 10000 1.34 5 17:48 23.03.2021
5948 Clouds 10 1015 52 10000 2.24 6 17:23 23.03.2021
5949 Clouds 11 1017 54 10000 11.32 20 16:42 23.03.2021
5950 Clouds 9 1017 54 10000 11.32 20 16:24 23.03.2021
5951 Clouds 12 1014 46 10000 1.34 344 15:46 23.03.2021
5952 Clouds 12 1014 47 10000 1.34 4 14:57 23.03.2021
5953 Clouds 9 1016 54 10000 12.35 10 14:39 23.03.2021
5954 Clouds 11 1013 51 10000 1.79 26 14:18 23.03.2021
5955 Clouds 11 1013 49 10000 2.68 4 13:43 23.03.2021
5956 Clouds 11 1013 51 10000 1.34 339 13:21 23.03.2021
5957 Clouds 11 1013 49 10000 2.68 1 12:43 23.03.2021
5958 Clouds 10 1012 46 10000 2.24 357 12:21 23.03.2021
5959 Clouds 10 1012 46 10000 2.24 357 12:21 23.03.2021
5960 Clouds 10 1012 52 10000 2.68 349 11:47 23.03.2021
5961 Clouds 10 1012 53 10000 1.34 356 10:46 23.03.2021
5962 Clouds 10 1012 51 10000 2.68 3 10:26 23.03.2021
5963 Clouds 10 1012 47 10000 3.13 8 09:59 23.03.2021
5964 Clouds 9 1012 52 10000 3.13 357 09:39 23.03.2021
5965 Clouds 9 1011 61 10000 2.68 2 09:20 23.03.2021
5966 Clouds 9 1011 65 10000 0.89 347 08:40 23.03.2021
5967 Clouds 8 1010 71 10000 0.45 1 08:22 23.03.2021
5968 Clouds 7 1010 79 10000 7.65 1 07:48 23.03.2021
5969 Clouds 7 1010 85 10000 7.64 1 07:20 23.03.2021
5970 Clouds 8 1010 81 10000 2.24 16 06:33 23.03.2021
5971 Clouds 6 1011 71 10000 7.72 30 03:23 23.03.2021
5972 Clouds 7 1011 71 10000 13.38 350 02:20 23.03.2021
5973 Clouds 8 1008 84 10000 7.58 22 23:44 22.03.2021
5974 Clouds 9 1008 76 10000 6.52 16 22:56 22.03.2021
5975 Clouds 10 1008 72 10000 6.52 16 22:38 22.03.2021
5976 Clouds 10 1008 73 10000 5.25 19 22:20 22.03.2021
5977 Clouds 9 1008 76 10000 5.13 19 21:42 22.03.2021
5978 Clouds 9 1008 78 10000 3.12 8 21:23 22.03.2021
5979 Clouds 9 1007 82 10000 3.12 8 20:42 22.03.2021
5980 Clouds 9 1007 81 10000 2.9 5 20:22 22.03.2021
5981 Clouds 9 1007 81 10000 2.9 5 19:55 22.03.2021
5982 Clouds 7 1009 93 6000 2.57 180 19:37 22.03.2021
5983 Clouds 7 1009 87 10000 2.06 170 19:19 22.03.2021
5984 Clouds 7 1009 81 10000 3.09 200 18:40 22.03.2021
5985 Clouds 8 1009 81 10000 4.63 210 18:21 22.03.2021
5986 Clouds 8 1008 81 10000 4.63 210 17:44 22.03.2021
5987 Clouds 7 1008 87 10000 3.6 170 17:21 22.03.2021
5988 Clouds 7 1008 87 8000 4.12 160 16:45 22.03.2021
5989 Clouds 7 1008 76 6000 2.06 280 16:22 22.03.2021
5990 Clouds 8 1009 92 10000 4.47 225 15:39 22.03.2021
5991 Clouds 8 1009 91 10000 2.24 225 15:20 22.03.2021
5992 Clouds 8 1008 88 10000 3.58 225 14:57 22.03.2021
5993 Clouds 8 1008 85 10000 2.68 225 14:34 22.03.2021
5994 Clouds 8 1008 85 10000 2.24 225 13:49 22.03.2021
5995 Clouds 8 1008 86 10000 1.79 225 13:28 22.03.2021
5996 Clouds 8 1008 86 10000 2.24 225 12:56 22.03.2021
5997 Clouds 8 1008 87 10000 1.79 225 12:26 22.03.2021
5998 Clouds 7 1008 90 10000 0.89 225 11:50 22.03.2021
5999 Clouds 7 1008 93 10000 2.86 25 11:29 22.03.2021
6000 Clouds 7 1007 95 10000 0.89 225 10:46 22.03.2021
6001 Clouds 7 1007 94 10000 0.89 225 10:26 22.03.2021
6002 Clouds 8 1007 93 10000 0.89 225 09:53 22.03.2021
6003 Clouds 8 1006 92 10000 3.11 28 09:32 22.03.2021
6004 Clouds 8 1006 89 10000 3.58 225 08:47 22.03.2021
6005 Clouds 8 1006 94 6807 1.79 180 08:28 22.03.2021
6006 Clouds 7 1005 94 6807 2.88 356 07:54 22.03.2021
6007 Clouds 7 1005 93 5290 0.45 180 07:34 22.03.2021
6008 Clouds 7 1004 93 5292 1.79 225 06:51 22.03.2021
6009 Clouds 5 1002 93 3565 5.36 225 02:51 22.03.2021
6010 Clouds 7 1003 81 5000 7.2 330 00:49 22.03.2021
6011 Clouds 7 1003 87 4500 7.72 330 00:19 22.03.2021
6012 Clouds 7 1003 87 4900 6.17 300 23:40 21.03.2021
6013 Drizzle 8 1002 81 9000 5.66 340 23:18 21.03.2021
6014 Clouds 8 1003 87 10000 1.54 0 22:43 21.03.2021
6015 Clouds 8 1003 76 10000 2.57 170 21:43 21.03.2021
6016 Clouds 8 1003 71 10000 3.6 90 21:25 21.03.2021
6017 Clouds 8 1003 81 10000 3.6 90 20:57 21.03.2021
6018 Clouds 8 1003 81 10000 3.6 90 20:39 21.03.2021
6019 Clouds 8 1003 87 8000 4.12 80 20:21 21.03.2021
6020 Clouds 8 1003 93 10000 2.57 90 19:46 21.03.2021
6021 Clouds 8 1003 87 10000 5.14 30 19:20 21.03.2021
6022 Clouds 9 1002 87 8000 4.63 20 18:44 21.03.2021
6023 Clouds 9 1002 87 10000 1.54 180 18:25 21.03.2021
6024 Clouds 9 1002 82 10000 1.54 140 17:43 21.03.2021
6025 Clouds 9 1002 82 10000 2.06 350 17:18 21.03.2021
6026 Clouds 9 1003 82 7000 3.09 20 16:51 21.03.2021
6027 Clouds 9 1003 76 5000 5.66 350 16:26 21.03.2021
6028 Clouds 10 1002 76 10000 7.2 360 15:48 21.03.2021
6029 Clouds 10 1003 71 10000 5.14 20 15:22 21.03.2021
6030 Drizzle 10 1003 71 10000 5.14 20 14:56 21.03.2021
6031 Drizzle 10 1003 71 10000 5.14 20 14:38 21.03.2021
6032 Drizzle 10 1003 71 10000 5.14 30 14:19 21.03.2021
6033 Clouds 10 1003 76 9000 5.66 20 13:51 21.03.2021
6034 Clouds 10 1004 93 9000 3.6 70 12:45 21.03.2021
6035 Clouds 10 1003 87 9000 5.66 70 12:25 21.03.2021
6036 Clouds 10 1004 87 7000 5.66 50 11:44 21.03.2021
6037 Clouds 10 1004 93 6000 5.66 50 11:26 21.03.2021
6038 Clouds 10 1004 87 8000 4.63 60 10:50 21.03.2021
6039 Clouds 10 1004 87 8000 4.63 60 10:32 21.03.2021
6040 Clouds 10 1004 82 10000 6.69 70 09:55 21.03.2021
6041 Clouds 10 1004 82 10000 6.69 70 09:37 21.03.2021
6042 Clouds 10 1004 82 10000 7.72 70 09:18 21.03.2021
6043 Rain 9 1004 82 9000 8.23 70 08:38 21.03.2021
6044 Rain 9 1004 87 7000 9.26 70 08:19 21.03.2021
6045 Rain 10 1003 82 10000 9.77 50 07:30 21.03.2021
6046 Rain 10 1003 87 10000 9.26 50 06:21 21.03.2021
6047 Clouds 10 1003 94 10000 7.72 40 04:57 21.03.2021
6048 Clouds 10 1005 97 10000 0.89 315 00:58 21.03.2021
6049 Clouds 10 1005 99 10000 0.89 315 00:39 21.03.2021
6050 Clouds 10 1005 99 10000 3.75 95 00:20 21.03.2021
6051 Clouds 10 1006 99 10000 0.89 128 23:46 20.03.2021
6052 Clouds 10 1006 99 10000 1.34 315 23:20 20.03.2021
6053 Clouds 10 1007 97 10000 2.68 315 22:36 20.03.2021
6054 Clouds 10 1007 97 10000 2.68 135 22:18 20.03.2021
6055 Clouds 10 1007 99 10000 4.39 109 21:42 20.03.2021
6056 Clouds 10 1007 99 10000 0.89 135 21:24 20.03.2021
6057 Clouds 10 1008 99 10000 0.45 135 20:42 20.03.2021
6058 Clouds 10 1008 99 10000 5.5 109 20:21 20.03.2021
6059 Clouds 11 1008 99 10000 5.51 109 19:44 20.03.2021
6060 Clouds 11 1008 99 5710 5.44 92 19:25 20.03.2021
6061 Clouds 11 1008 99 4584 0.89 135 18:46 20.03.2021
6062 Clouds 11 1008 99 5728 1.34 135 18:24 20.03.2021
6063 Clouds 11 1008 99 5728 1.79 135 17:51 20.03.2021
6064 Clouds 11 1008 99 4441 2.24 135 17:27 20.03.2021
6065 Rain 11 1008 99 4431 3.58 135 16:44 20.03.2021
6066 Rain 11 1008 99 5299 2.68 112 16:20 20.03.2021
6067 Clouds 11 1008 99 5299 3.13 135 15:56 20.03.2021
6068 Rain 11 1008 99 5299 1.79 135 15:38 20.03.2021
6069 Rain 11 1009 99 10000 1.79 135 14:45 20.03.2021
6070 Clouds 11 1009 98 10000 1.34 135 14:23 20.03.2021
6071 Clouds 11 1009 98 10000 2.24 135 13:33 20.03.2021
6072 Drizzle 13 1008 76 10000 1.54 220 12:52 20.03.2021
6073 Clouds 13 1008 76 10000 3.6 100 12:26 20.03.2021
6074 Clouds 11 1011 96 10000 1.79 135 11:46 20.03.2021
6075 Clouds 11 1011 96 10000 1.79 135 11:28 20.03.2021
6076 Clouds 11 1011 96 10000 1.79 135 10:55 20.03.2021
6077 Clouds 11 1011 96 10000 1.79 135 10:28 20.03.2021
6078 Clouds 10 1011 96 10000 1.79 135 09:58 20.03.2021
6079 Clouds 10 1011 96 10000 1.79 315 09:27 20.03.2021
6080 Clouds 10 1010 95 10000 1.34 315 08:57 20.03.2021
6081 Clouds 10 1010 95 10000 1.34 315 08:30 20.03.2021
6082 Clouds 9 1010 94 10000 1.34 315 07:53 20.03.2021
6083 Clouds 9 1010 93 10000 0.89 315 07:32 20.03.2021
6084 Clouds 9 1010 93 10000 1.83 69 06:52 20.03.2021
6085 Clouds 9 1010 92 10000 0.92 45 06:19 20.03.2021
6086 Rain 9 1009 91 10000 0.14 91 04:00 20.03.2021
6087 Rain 9 1009 91 10000 0.14 91 03:41 20.03.2021
6088 Clouds 9 1010 89 10000 0.89 315 00:18 20.03.2021
6089 Clouds 9 1010 86 10000 1.27 154 23:31 19.03.2021
6090 Clouds 9 1011 81 10000 1.62 163 22:50 19.03.2021
6091 Clouds 9 1011 80 10000 1.56 190 22:29 19.03.2021
6092 Clouds 10 1011 78 10000 1.56 190 21:58 19.03.2021
6093 Clouds 10 1011 84 10000 2.24 292 21:22 19.03.2021
6094 Clouds 9 1011 91 10000 1.79 292 20:59 19.03.2021
6095 Clouds 9 1011 91 10000 1.34 315 20:40 19.03.2021
6096 Clouds 9 1011 89 10000 0.89 292 20:21 19.03.2021
6097 Clouds 9 1011 87 10000 1.42 219 19:46 19.03.2021
6098 Clouds 9 1011 86 10000 1.49 235 19:20 19.03.2021
6099 Clouds 9 1011 84 10000 4.47 315 18:40 19.03.2021
6100 Clouds 10 1011 83 10000 4.92 270 18:20 19.03.2021
6101 Clouds 9 1012 86 10000 2.68 270 17:55 19.03.2021
6102 Rain 10 1012 87 10000 3.13 248 17:31 19.03.2021
6103 Rain 10 1011 88 10000 3.58 180 16:55 19.03.2021
6104 Rain 10 1011 86 10000 3.13 180 16:29 19.03.2021
6105 Rain 10 1011 88 10000 2.24 180 15:55 19.03.2021
6106 Clouds 10 1011 88 10000 1.79 202 15:26 19.03.2021
6107 Clouds 11 1011 88 10000 2.24 180 14:47 19.03.2021
6108 Clouds 11 1011 87 10000 1.34 180 14:27 19.03.2021
6109 Clouds 11 1012 81 10000 3.13 225 13:40 19.03.2021
6110 Clouds 12 1012 72 10000 1.79 202 12:57 19.03.2021
6111 Clouds 12 1012 67 10000 3.58 225 12:37 19.03.2021
6112 Clouds 13 1012 63 10000 3.58 270 11:48 19.03.2021
6113 Clouds 12 1012 74 10000 4.47 22 10:54 19.03.2021
6114 Clouds 12 1012 75 10000 2.24 45 10:32 19.03.2021
6115 Clouds 11 1013 76 10000 1.9 184 09:58 19.03.2021
6116 Clouds 10 1013 73 10000 1.9 184 09:39 19.03.2021
6117 Clouds 10 1013 65 10000 1.79 90 09:19 19.03.2021
6118 Clouds 9 1013 69 10000 1.34 45 08:40 19.03.2021
6119 Clouds 9 1013 78 10000 0.45 45 08:21 19.03.2021
6120 Clouds 8 1013 87 10000 2.45 172 07:39 19.03.2021
6121 Clouds 7 1012 91 10000 0.89 45 06:56 19.03.2021
6122 Clouds 7 1009 91 10000 2.17 142 03:57 19.03.2021
6123 Clouds 9 1010 86 10000 1.62 109 00:58 19.03.2021
6124 Clouds 10 1010 86 10000 2.1 80 23:49 18.03.2021
6125 Clouds 9 1010 86 10000 2.24 69 23:26 18.03.2021
6126 Clouds 10 1010 85 10000 2.08 58 22:41 18.03.2021
6127 Clouds 10 1010 85 10000 2.08 58 22:22 18.03.2021
6128 Clouds 10 1010 85 10000 2.08 58 21:40 18.03.2021
6129 Clouds 10 1010 87 10000 2.21 63 20:54 18.03.2021
6130 Clouds 10 1010 86 10000 2.21 63 20:35 18.03.2021
6131 Clouds 11 1009 85 10000 2.85 64 19:59 18.03.2021
6132 Clouds 11 1009 85 10000 2.85 64 19:59 18.03.2021
6133 Clouds 11 1010 84 10000 2.85 64 19:41 18.03.2021
6134 Clouds 11 1009 83 10000 3.78 57 19:21 18.03.2021
6135 Clouds 11 1009 80 10000 3.78 57 18:39 18.03.2021
6136 Clouds 12 1009 79 9770 2.24 2 17:51 18.03.2021
6137 Clouds 12 1008 79 10000 4.29 49 17:26 18.03.2021
6138 Clouds 12 1008 75 10000 0.45 17 16:51 18.03.2021
6139 Clouds 13 1008 74 10000 1.79 346 16:32 18.03.2021
6140 Clouds 13 1008 72 10000 0.89 343 15:56 18.03.2021
6141 Clouds 13 1008 72 10000 4.23 40 15:37 18.03.2021
6142 Clouds 14 1007 65 10000 3.64 39 15:18 18.03.2021
6143 Clouds 13 1011 71 10000 1.54 300 14:41 18.03.2021
6144 Clouds 14 1007 66 10000 1.34 340 13:57 18.03.2021
6145 Clouds 14 1011 67 10000 4.63 290 13:27 18.03.2021
6146 Clouds 14 1011 67 10000 5.66 290 12:57 18.03.2021
6147 Clouds 14 1012 67 10000 5.14 290 12:37 18.03.2021
6148 Clouds 14 1012 67 10000 5.14 290 12:18 18.03.2021
6149 Clouds 14 1012 67 10000 5.14 290 12:18 18.03.2021
6150 Clouds 14 1011 62 10000 5.66 210 11:40 18.03.2021
6151 Clouds 14 1008 66 10000 1.53 316 10:58 18.03.2021
6152 Clouds 14 1008 69 10000 1.53 316 10:39 18.03.2021
6153 Clouds 13 1008 76 10000 1.34 317 10:20 18.03.2021
6154 Clouds 11 1009 83 10000 2.51 215 09:38 18.03.2021
6155 Clouds 12 1011 71 10000 7.2 190 09:20 18.03.2021
6156 Clouds 12 1009 87 9049 3.33 211 08:43 18.03.2021
6157 Clouds 11 1009 87 10000 4.17 220 08:23 18.03.2021
6158 Clouds 11 1008 86 10000 4.17 220 07:45 18.03.2021
6159 Clouds 10 1009 99 10000 3.75 208 06:43 18.03.2021
6160 Clouds 9 1009 99 10000 3.66 206 06:23 18.03.2021
6161 Clouds 9 1008 99 10000 3.64 203 05:25 18.03.2021
6162 Rain 10 1014 71 8000 3.09 0 00:44 18.03.2021
6163 Clouds 12 1014 50 10000 4.12 180 23:25 17.03.2021
6164 Clouds 12 1014 50 10000 2.57 170 22:39 17.03.2021
6165 Clouds 12 1014 50 10000 3.09 150 22:21 17.03.2021
6166 Clouds 12 1015 41 10000 3.6 160 21:51 17.03.2021
6167 Clouds 12 1015 41 10000 2.57 150 21:31 17.03.2021
6168 Clouds 12 1015 38 10000 2.57 170 20:49 17.03.2021
6169 Clouds 12 1015 38 10000 1.54 150 20:27 17.03.2021
6170 Clouds 13 1015 38 10000 1.54 260 19:59 17.03.2021
6171 Clouds 13 1015 38 10000 1.54 260 19:39 17.03.2021
6172 Clouds 11 1015 46 10000 2.06 90 19:19 17.03.2021
6173 Clouds 11 1015 38 10000 5.14 80 18:49 17.03.2021
6174 Clouds 12 1015 41 10000 3.6 70 18:31 17.03.2021
6175 Clouds 12 1015 35 10000 2.57 60 17:42 17.03.2021
6176 Clouds 14 1015 35 10000 2.06 30 17:22 17.03.2021
6177 Clouds 15 1015 33 10000 2.06 10 16:43 17.03.2021
6178 Clouds 15 1016 31 10000 1.54 350 16:20 17.03.2021
6179 Clouds 15 1016 38 10000 2.06 300 15:46 17.03.2021
6180 Clouds 15 1016 36 10000 2.57 300 15:28 17.03.2021
6181 Clouds 15 1016 38 10000 2.06 300 14:40 17.03.2021
6182 Clouds 15 1016 38 10000 2.06 310 14:20 17.03.2021
6183 Clouds 15 1017 41 10000 1.54 310 13:55 17.03.2021
6184 Clouds 15 1017 41 10000 1.54 280 13:25 17.03.2021
6185 Clouds 15 1017 44 10000 2.06 310 12:48 17.03.2021
6186 Clear 15 1014 41 10000 3.07 297 12:27 17.03.2021
6187 Clear 14 1014 44 10000 3.07 297 11:42 17.03.2021
6188 Clouds 15 1017 44 10000 2.06 310 11:23 17.03.2021
6189 Clear 14 1015 51 10000 2.45 307 10:53 17.03.2021
6190 Clouds 14 1017 47 10000 4.12 330 10:24 17.03.2021
6191 Clear 14 1015 56 10000 1.34 346 09:47 17.03.2021
6192 Clear 13 1015 57 10000 2.26 339 09:21 17.03.2021
6193 Clouds 13 1017 54 10000 2.57 330 08:55 17.03.2021
6194 Clear 12 1015 61 10000 2.26 339 08:35 17.03.2021
6195 Clear 11 1014 67 10000 2.7 345 07:48 17.03.2021
6196 Clear 10 1014 69 10000 3.41 349 07:19 17.03.2021
6197 Clear 9 1014 69 10000 0.45 337 06:36 17.03.2021
6198 Clear 9 1013 74 10000 4.74 339 04:19 17.03.2021
6199 Clear 10 1013 75 10000 0.89 352 02:49 17.03.2021
6200 Clear 8 1016 71 10000 2.57 120 00:40 17.03.2021
6201 Clear 10 1014 71 10000 2.24 10 23:28 16.03.2021
6202 Clear 11 1013 60 10000 0.45 340 22:48 16.03.2021
6203 Clear 11 1013 64 10000 0.45 275 22:29 16.03.2021
6204 Clear 11 1012 72 10000 4.98 300 21:47 16.03.2021
6205 Clear 11 1012 71 10000 4.26 291 21:29 16.03.2021
6206 Clear 11 1012 72 10000 4.26 291 20:58 16.03.2021
6207 Clear 11 1012 69 10000 3.25 281 20:20 16.03.2021
6208 Clear 11 1012 70 10000 3.25 281 19:58 16.03.2021
6209 Clear 12 1011 71 10000 3.25 281 19:40 16.03.2021
6210 Clouds 12 1011 69 10000 0.45 332 19:20 16.03.2021
6211 Clouds 13 1013 62 10000 4.63 320 18:40 16.03.2021
6212 Clouds 13 1013 62 10000 3.6 320 18:21 16.03.2021
6213 Clouds 14 1012 63 10000 3.09 290 17:47 16.03.2021
6214 Clouds 14 1012 63 10000 3.09 290 17:29 16.03.2021
6215 Clouds 15 1012 67 10000 2.57 290 16:52 16.03.2021
6216 Clouds 15 1012 63 10000 2.57 320 16:28 16.03.2021
6217 Clouds 15 1012 63 10000 3.09 320 15:47 16.03.2021
6218 Clouds 15 1012 63 10000 3.09 330 15:21 16.03.2021
6219 Clouds 15 1012 63 10000 3.6 360 14:58 16.03.2021
6220 Clouds 15 1012 63 10000 3.6 360 14:40 16.03.2021
6221 Clouds 15 1012 58 10000 3.6 340 14:20 16.03.2021
6222 Clouds 15 1012 63 10000 5.14 330 13:49 16.03.2021
6223 Clouds 15 1009 64 10000 0.45 346 13:26 16.03.2021
6224 Clouds 15 1009 55 10000 1.34 342 12:51 16.03.2021
6225 Clouds 15 1012 58 10000 5.66 360 12:33 16.03.2021
6226 Clouds 14 1009 59 10000 2.68 341 11:53 16.03.2021
6227 Clouds 12 1012 47 10000 4.63 350 11:24 16.03.2021
6228 Clouds 13 1012 51 10000 7.2 330 10:28 16.03.2021
6229 Clouds 14 1009 75 10000 0.89 356 09:59 16.03.2021
6230 Clouds 14 1009 71 10000 0.45 358 09:38 16.03.2021
6231 Clouds 13 1009 85 10000 0.45 55 09:18 16.03.2021
6232 Clouds 13 1009 95 10000 0.89 303 08:48 16.03.2021
6233 Clouds 12 1008 98 10000 0.89 343 08:30 16.03.2021
6234 Rain 10 1008 92 10000 3.96 283 07:36 16.03.2021
6235 Clouds 11 1008 92 10000 1.34 12 06:57 16.03.2021
6236 Clouds 11 1007 96 10000 4.61 296 06:35 16.03.2021
6237 Clouds 10 1007 99 9644 4.11 269 05:35 16.03.2021
6238 Clouds 10 1008 92 10000 1.34 357 02:46 16.03.2021
6239 Clouds 11 1008 80 10000 0.45 313 02:24 16.03.2021
6240 Clouds 12 1009 83 10000 0.45 300 00:25 16.03.2021
6241 Clouds 12 1009 83 10000 0.45 3 00:25 16.03.2021
6242 Clouds 12 1009 87 10000 5.51 271 23:29 15.03.2021
6243 Clouds 11 1010 93 10000 5.51 271 22:57 15.03.2021
6244 Clouds 11 1010 91 10000 5.51 271 22:38 15.03.2021
6245 Clouds 11 1010 88 10000 6.11 269 22:20 15.03.2021
6246 Clouds 12 1010 69 10000 6.12 269 21:44 15.03.2021
6247 Clouds 13 1014 62 10000 6.17 250 21:26 15.03.2021
6248 Clouds 13 1014 62 10000 6.69 250 20:45 15.03.2021
6249 Clouds 13 1014 62 10000 8.23 250 20:26 15.03.2021
6250 Clouds 13 1014 62 10000 7.2 250 19:57 15.03.2021
6251 Clouds 13 1014 62 10000 7.2 250 19:38 15.03.2021
6252 Clouds 13 1014 58 10000 7.72 250 19:19 15.03.2021
6253 Clouds 13 1014 58 10000 8.23 260 18:40 15.03.2021
6254 Clouds 13 1014 54 10000 8.75 260 18:22 15.03.2021
6255 Clouds 14 1014 62 10000 7.2 280 17:43 15.03.2021
6256 Clouds 14 1014 62 10000 7.2 290 17:22 15.03.2021
6257 Clouds 14 1014 58 10000 8.23 280 16:43 15.03.2021
6258 Clouds 15 1014 62 10000 8.23 290 15:56 15.03.2021
6259 Clouds 14 1014 62 10000 7.72 290 15:28 15.03.2021
6260 Clouds 15 1015 62 10000 8.23 300 14:55 15.03.2021
6261 Clouds 15 1015 62 10000 8.23 300 14:36 15.03.2021
6262 Clouds 15 1015 58 10000 8.75 290 14:18 15.03.2021
6263 Clouds 15 1015 58 10000 8.75 310 13:41 15.03.2021
6264 Clouds 16 1015 47 10000 7.72 310 13:23 15.03.2021
6265 Clouds 16 1015 55 10000 8.23 310 12:45 15.03.2021
6266 Clouds 15 1016 58 10000 8.23 300 12:18 15.03.2021
6267 Clouds 15 1016 58 10000 9.26 310 11:41 15.03.2021
6268 Clouds 15 1016 62 10000 8.23 310 11:21 15.03.2021
6269 Clouds 15 1015 62 10000 8.23 300 10:43 15.03.2021
6270 Clouds 14 1015 58 10000 8.23 310 10:24 15.03.2021
6271 Clear 13 1013 59 10000 8.75 303 09:44 15.03.2021
6272 Clear 13 1013 60 10000 0.89 355 09:22 15.03.2021
6273 Clear 13 1012 61 10000 0.89 359 08:45 15.03.2021
6274 Clouds 14 1014 58 10000 9.26 300 08:25 15.03.2021
6275 Clear 12 1011 66 10000 0.45 4 07:42 15.03.2021
6276 Clouds 12 1014 62 10000 9.77 300 07:22 15.03.2021
6277 Clouds 13 1014 62 10000 9.77 310 05:42 15.03.2021
6278 Clear 12 1011 65 10000 8.2 295 03:21 15.03.2021
6279 Clouds 12 1011 65 10000 1.34 310 00:42 15.03.2021
6280 Clouds 12 1011 80 10000 0.45 347 23:24 14.03.2021
6281 Clouds 11 1011 88 10000 8.38 299 22:57 14.03.2021
6282 Clouds 11 1011 99 10000 8.38 299 22:37 14.03.2021
6283 Clouds 10 1010 99 10000 6.37 302 22:18 14.03.2021
6284 Clouds 10 1010 99 10000 6.37 302 22:18 14.03.2021
6285 Clouds 11 1012 95 10000 1.34 35 21:38 14.03.2021
6286 Clouds 12 1012 88 10000 2.68 28 21:18 14.03.2021
6287 Clouds 15 1014 72 10000 11.83 270 20:41 14.03.2021
6288 Clouds 15 1014 77 10000 9.77 260 20:23 14.03.2021
6289 Clouds 15 1014 77 10000 10.29 260 19:42 14.03.2021
6290 Clouds 15 1014 77 10000 9.26 260 19:19 14.03.2021
6291 Clouds 15 1014 77 10000 8.75 270 18:41 14.03.2021
6292 Clouds 13 1015 72 10000 8.23 270 17:56 14.03.2021
6293 Clouds 13 1015 72 10000 8.23 270 17:37 14.03.2021
6294 Clouds 15 1015 67 10000 7.2 280 17:19 14.03.2021
6295 Clouds 15 1015 72 10000 6.69 280 16:41 14.03.2021
6296 Clouds 16 1016 72 10000 6.69 280 16:21 14.03.2021
6297 Clouds 16 1015 67 10000 6.17 280 15:48 14.03.2021
6298 Clear 15 1016 67 10000 6.69 270 14:59 14.03.2021
6299 Clear 15 1016 67 10000 6.69 270 14:40 14.03.2021
6300 Clear 17 1016 72 10000 6.69 270 14:20 14.03.2021
6301 Clear 15 1016 63 10000 6.17 270 13:43 14.03.2021
6302 Clear 17 1016 67 10000 7.2 270 13:24 14.03.2021
6303 Clear 17 1016 67 10000 8.23 270 12:42 14.03.2021
6304 Clouds 16 1016 67 10000 8.75 280 12:23 14.03.2021
6305 Clouds 16 1017 67 10000 6.17 270 11:41 14.03.2021
6306 Clear 14 1017 67 10000 4.63 230 11:22 14.03.2021
6307 Clear 16 1017 63 10000 5.14 220 10:38 14.03.2021
6308 Clear 16 1017 72 10000 4.12 230 10:20 14.03.2021
6309 Clear 13 1017 67 10000 3.6 210 09:59 14.03.2021
6310 Clear 13 1017 67 10000 3.6 210 09:40 14.03.2021
6311 Clear 15 1017 72 10000 3.6 210 09:20 14.03.2021
6312 Clear 15 1014 88 10000 2.96 249 08:39 14.03.2021
6313 Clear 13 1014 92 10000 2.66 234 07:58 14.03.2021
6314 Clear 12 1014 94 10000 2.43 229 07:28 14.03.2021
6315 Clear 11 1014 94 10000 2.09 226 05:38 14.03.2021
6316 Clouds 12 1015 91 10000 1.97 267 01:29 14.03.2021
6317 Clouds 13 1015 89 10000 1.46 264 00:42 14.03.2021
6318 Clouds 13 1015 88 10000 1.48 236 00:18 14.03.2021
6319 Clouds 13 1015 87 10000 1.48 236 23:42 13.03.2021
6320 Clouds 14 1016 87 10000 1.55 208 23:19 13.03.2021
6321 Clouds 14 1016 90 10000 1.55 208 22:47 13.03.2021
6322 Clouds 14 1016 90 10000 1.37 208 22:23 13.03.2021
6323 Clouds 14 1016 88 10000 1.37 208 21:36 13.03.2021
6324 Clouds 15 1016 89 10000 0.67 233 21:18 13.03.2021
6325 Clouds 14 1016 89 10000 0.67 233 20:46 13.03.2021
6326 Clear 14 1016 89 10000 0.48 195 20:25 13.03.2021
6327 Clear 15 1015 87 10000 0.48 195 19:45 13.03.2021
6328 Clouds 15 1015 87 10000 0.26 152 19:24 13.03.2021
6329 Clouds 15 1015 79 10000 0.48 102 18:43 13.03.2021
6330 Clouds 15 1015 77 10000 0.77 358 18:20 13.03.2021
6331 Clouds 16 1015 73 10000 0.77 358 17:51 13.03.2021
6332 Clouds 16 1018 82 10000 4.63 310 17:32 13.03.2021
6333 Clouds 17 1015 64 10000 1.57 332 16:57 13.03.2021
6334 Clouds 16 1018 82 10000 5.14 300 16:38 13.03.2021
6335 Clouds 17 1018 77 10000 5.14 290 15:57 13.03.2021
6336 Clouds 18 1018 67 10000 4.12 290 15:21 13.03.2021
6337 Clouds 18 1018 63 10000 3.09 310 14:42 13.03.2021
6338 Clear 16 1018 59 10000 2.57 250 14:23 13.03.2021
6339 Clear 16 1018 59 10000 2.57 250 14:23 13.03.2021
6340 Clear 17 1019 55 10000 3.09 250 13:30 13.03.2021
6341 Clear 16 1019 51 10000 3.09 220 12:56 13.03.2021
6342 Clouds 18 1016 52 10000 2.4 283 12:38 13.03.2021
6343 Clouds 18 1016 53 10000 0.89 346 11:58 13.03.2021
6344 Clouds 18 1016 47 10000 3.3 271 11:39 13.03.2021
6345 Clouds 18 1016 46 10000 3.44 269 11:21 13.03.2021
6346 Clouds 18 1016 47 10000 3.44 269 10:46 13.03.2021
6347 Clouds 18 1016 47 10000 2.8 249 10:24 13.03.2021
6348 Clouds 17 1016 51 10000 2.8 249 09:34 13.03.2021
6349 Clouds 16 1016 56 10000 2.66 211 08:58 13.03.2021
6350 Clouds 15 1016 58 10000 2.65 211 08:38 13.03.2021
6351 Clouds 15 1016 64 10000 3.14 206 08:18 13.03.2021
6352 Clouds 14 1015 69 10000 3.14 206 07:39 13.03.2021
6353 Clouds 13 1015 65 10000 3.51 210 05:31 13.03.2021
6354 Clouds 12 1014 62 10000 4.27 213 02:42 13.03.2021
6355 Clouds 13 1016 62 10000 3.73 207 00:44 13.03.2021
6356 Clouds 13 1016 63 10000 3.56 204 23:49 12.03.2021
6357 Clouds 13 1016 63 10000 3.56 204 23:30 12.03.2021
6358 Clouds 13 1016 60 10000 2.82 204 22:42 12.03.2021
6359 Clouds 13 1017 59 10000 2.71 196 22:22 12.03.2021
6360 Clouds 14 1017 58 10000 2.71 196 21:42 12.03.2021
6361 Clouds 13 1017 58 10000 2.77 193 21:21 12.03.2021
6362 Clear 14 1019 51 10000 4.12 180 20:55 12.03.2021
6363 Clear 14 1019 54 10000 4.63 180 20:32 12.03.2021
6364 Clear 14 1019 58 10000 5.14 180 19:55 12.03.2021
6365 Clear 11 1019 58 10000 5.14 180 19:35 12.03.2021
6366 Clear 14 1018 58 10000 7.2 200 18:55 12.03.2021
6367 Clear 14 1018 58 10000 7.2 200 18:34 12.03.2021
6368 Clouds 15 1019 55 10000 8.23 200 17:49 12.03.2021
6369 Clouds 14 1019 55 10000 8.23 210 17:30 12.03.2021
6370 Clouds 16 1019 51 10000 8.75 210 16:55 12.03.2021
6371 Clouds 16 1019 51 10000 8.75 210 16:34 12.03.2021
6372 Clear 17 1019 52 10000 8.75 210 15:51 12.03.2021
6373 Clear 18 1020 52 10000 8.75 210 15:25 12.03.2021
6374 Clouds 18 1020 48 10000 9.26 200 14:47 12.03.2021
6375 Clouds 18 1020 52 10000 8.75 220 14:20 12.03.2021
6376 Clouds 18 1021 55 10000 8.75 220 13:42 12.03.2021
6377 Clear 17 1018 56 10000 2.38 253 13:21 12.03.2021
6378 Clear 17 1021 52 10000 7.2 210 12:56 12.03.2021
6379 Clear 17 1018 57 10000 1.34 345 12:36 12.03.2021
6380 Clear 17 1018 57 10000 1.34 50 12:18 12.03.2021
6381 Clear 17 1018 56 10000 0.45 10 11:47 12.03.2021
6382 Clear 15 1022 59 10000 7.72 200 11:20 12.03.2021
6383 Clear 17 1019 58 10000 1.54 229 10:48 12.03.2021
6384 Clouds 16 1022 58 10000 6.17 200 10:23 12.03.2021
6385 Clear 15 1020 65 10000 1.42 220 09:49 12.03.2021
6386 Clear 15 1020 69 10000 1.64 203 09:19 12.03.2021
6387 Clear 13 1020 75 10000 1.64 203 08:43 12.03.2021
6388 Clear 11 1020 79 10000 2.04 203 07:54 12.03.2021
6389 Clear 11 1020 80 10000 2.04 203 07:31 12.03.2021
6390 Clear 10 1020 80 10000 2.15 210 06:45 12.03.2021
6391 Clear 9 1020 78 10000 2.33 216 05:56 12.03.2021
6392 Clear 9 1021 77 10000 2.97 219 01:42 12.03.2021
6393 Clear 10 1022 73 10000 2.59 203 23:59 11.03.2021
6394 Clear 10 1022 72 10000 1.98 202 23:19 11.03.2021
6395 Clear 10 1023 71 10000 1.98 202 22:41 11.03.2021
6396 Clear 10 1023 70 10000 1.25 213 22:21 11.03.2021
6397 Clear 11 1023 68 10000 1.25 213 21:46 11.03.2021
6398 Clear 11 1023 67 10000 1.06 243 21:26 11.03.2021
6399 Clear 11 1023 65 10000 1.06 243 20:49 11.03.2021
6400 Clear 11 1023 63 10000 1.25 269 20:23 11.03.2021
6401 Clear 9 1025 62 10000 2.06 160 19:57 11.03.2021
6402 Clear 9 1025 62 10000 2.06 160 19:38 11.03.2021
6403 Clear 10 1025 58 10000 1.03 0 18:55 11.03.2021
6404 Clear 12 1025 58 10000 1.03 0 18:35 11.03.2021
6405 Clear 13 1025 55 10000 0.51 0 17:57 11.03.2021
6406 Clear 13 1025 55 10000 0.51 0 17:39 11.03.2021
6407 Clouds 15 1025 55 10000 1.03 0 16:43 11.03.2021
6408 Clear 15 1025 55 10000 1.54 360 16:24 11.03.2021
6409 Clear 16 1025 51 10000 2.06 20 15:44 11.03.2021
6410 Clear 16 1025 55 10000 2.57 40 15:21 11.03.2021
6411 Clear 16 1025 63 10000 3.09 30 14:45 11.03.2021
6412 Clear 16 1025 63 10000 3.09 30 14:45 11.03.2021
6413 Clear 16 1025 63 10000 3.6 30 14:19 11.03.2021
6414 Clouds 16 1025 58 10000 3.09 30 13:46 11.03.2021
6415 Clouds 16 1025 58 10000 2.57 20 13:24 11.03.2021
6416 Clouds 16 1022 59 10000 3.39 342 12:57 11.03.2021
6417 Clouds 16 1022 60 10000 3.44 340 12:36 11.03.2021
6418 Clouds 16 1025 58 10000 2.57 360 12:18 11.03.2021
6419 Clouds 16 1025 58 10000 3.6 360 11:42 11.03.2021
6420 Clouds 15 1025 58 10000 4.63 340 11:20 11.03.2021
6421 Clouds 15 1025 58 10000 5.66 350 10:28 11.03.2021
6422 Clouds 14 1024 62 10000 5.66 340 09:54 11.03.2021
6423 Clouds 14 1024 62 10000 5.66 340 09:34 11.03.2021
6424 Clouds 14 1021 68 10000 3.25 337 08:59 11.03.2021
6425 Clouds 13 1021 68 10000 3.25 337 08:41 11.03.2021
6426 Clouds 13 1020 67 10000 0.45 334 08:18 11.03.2021
6427 Clouds 11 1020 70 10000 2.83 0 07:22 11.03.2021
6428 Clouds 11 1019 71 10000 2.83 0 06:49 11.03.2021
6429 Clouds 12 1019 73 10000 2.98 352 06:24 11.03.2021
6430 Clouds 12 1017 77 10000 4.08 332 02:49 11.03.2021
6431 Clouds 12 1017 74 10000 3.63 325 00:49 11.03.2021
6432 Clouds 11 1017 77 10000 4.3 306 23:27 10.03.2021
6433 Clouds 11 1016 76 10000 4.3 306 22:47 10.03.2021
6434 Clouds 11 1016 76 10000 4.16 306 22:28 10.03.2021
6435 Clouds 11 1016 76 10000 4.16 306 22:26 10.03.2021
6436 Clouds 11 1016 77 10000 4.16 306 21:45 10.03.2021
6437 Clouds 12 1018 62 10000 5.66 300 21:23 10.03.2021
6438 Clouds 13 1018 67 10000 6.17 320 20:46 10.03.2021
6439 Clouds 13 1018 62 10000 6.17 320 20:28 10.03.2021
6440 Clouds 13 1017 62 10000 6.17 330 19:50 10.03.2021
6441 Clouds 13 1017 62 10000 6.17 330 19:50 10.03.2021
6442 Clouds 13 1017 62 10000 5.66 330 19:28 10.03.2021
6443 Clouds 13 1017 62 10000 6.17 330 18:47 10.03.2021
6444 Clouds 13 1014 72 10000 0.45 316 18:24 10.03.2021
6445 Clouds 14 1016 67 10000 1.54 350 17:57 10.03.2021
6446 Clouds 13 1013 72 10000 3.29 314 17:37 10.03.2021
6447 Clouds 13 1013 70 10000 4.79 314 17:19 10.03.2021
6448 Clouds 14 1016 67 10000 1.54 80 16:44 10.03.2021
6449 Clouds 14 1016 72 10000 3.09 360 16:24 10.03.2021
6450 Clouds 14 1016 72 10000 5.66 350 15:47 10.03.2021
6451 Clouds 14 1015 72 10000 8.23 360 15:23 10.03.2021
6452 Clouds 14 1015 63 10000 5.66 320 14:56 10.03.2021
6453 Clouds 14 1015 67 10000 4.63 320 14:20 10.03.2021
6454 Clouds 14 1015 67 10000 4.63 320 14:20 10.03.2021
6455 Clouds 11 1015 77 10000 3.6 300 13:52 10.03.2021
6456 Clouds 12 1015 72 10000 2.57 240 13:30 10.03.2021
6457 Clouds 13 1012 81 10000 4.44 295 12:46 10.03.2021
6458 Clouds 13 1015 77 10000 5.14 290 12:21 10.03.2021
6459 Clouds 14 1015 77 10000 6.17 260 11:44 10.03.2021
6460 Clouds 15 1012 73 10000 3.92 280 11:21 10.03.2021
6461 Clouds 15 1012 76 10000 3.91 280 10:49 10.03.2021
6462 Clouds 15 1012 77 10000 3.91 280 10:30 10.03.2021
6463 Clouds 14 1012 82 10000 3.7 277 09:52 10.03.2021
6464 Clouds 14 1012 82 10000 3.7 277 09:32 10.03.2021
6465 Clouds 14 1011 83 10000 3.76 269 08:58 10.03.2021
6466 Clouds 13 1011 87 10000 3.77 269 08:40 10.03.2021
6467 Clouds 13 1011 88 10000 4 264 08:21 10.03.2021
6468 Clouds 13 1011 88 10000 4 264 07:41 10.03.2021
6469 Clouds 13 1010 88 10000 3.61 278 07:19 10.03.2021
6470 Clouds 13 1010 92 10000 3.61 278 06:46 10.03.2021
6471 Clouds 14 1009 80 10000 0.45 329 02:42 10.03.2021
6472 Clouds 14 1012 77 10000 7.2 200 23:59 09.03.2021
6473 Clouds 14 1012 82 10000 7.72 200 23:27 09.03.2021
6474 Clouds 14 1009 99 10000 0.89 288 22:49 09.03.2021
6475 Clouds 14 1009 99 10000 0.45 304 22:28 09.03.2021
6476 Clouds 14 1009 99 10000 4.47 206 21:57 09.03.2021
6477 Clouds 13 1009 99 10000 4.46 206 21:37 09.03.2021
6478 Clouds 14 1009 99 10000 3.94 208 21:18 09.03.2021
6479 Clouds 13 1009 99 10000 3.94 208 20:43 09.03.2021
6480 Clouds 13 1009 99 10000 3.94 208 20:43 09.03.2021
6481 Rain 13 1009 99 10000 3.58 195 20:22 09.03.2021
6482 Clouds 13 1009 99 10000 3.58 195 19:56 09.03.2021
6483 Rain 13 1010 99 10000 3.64 193 19:29 09.03.2021
6484 Clouds 14 1009 87 10000 0.45 357 18:54 09.03.2021
6485 Clouds 15 1011 77 10000 6.17 200 18:29 09.03.2021
6486 Clouds 14 1011 77 6000 6.17 200 17:57 09.03.2021
6487 Clouds 15 1011 77 6000 6.17 200 17:35 09.03.2021
6488 Clouds 16 1011 63 10000 8.23 210 16:57 09.03.2021
6489 Clouds 16 1011 63 10000 8.23 210 16:39 09.03.2021
6490 Clouds 17 1011 59 10000 6.69 200 16:19 09.03.2021
6491 Clouds 18 1011 52 10000 6.69 210 15:44 09.03.2021
6492 Clouds 16 1011 55 10000 7.2 210 15:23 09.03.2021
6493 Clouds 18 1011 59 10000 7.72 220 14:40 09.03.2021
6494 Clouds 18 1012 59 10000 7.72 220 14:22 09.03.2021
6495 Clouds 16 1012 59 10000 7.2 220 13:39 09.03.2021
6496 Clouds 17 1012 55 10000 6.69 210 13:20 09.03.2021
6497 Clouds 16 1012 55 10000 7.2 200 12:42 09.03.2021
6498 Clouds 16 1013 55 10000 7.2 210 12:22 09.03.2021
6499 Clouds 18 1013 55 10000 6.69 200 11:42 09.03.2021
6500 Clouds 18 1013 55 10000 6.69 200 11:42 09.03.2021
6501 Clouds 16 1013 59 10000 7.72 210 11:21 09.03.2021
6502 Clouds 16 1013 59 10000 7.72 210 11:21 09.03.2021
6503 Clouds 16 1013 59 10000 7.72 210 11:21 09.03.2021
6504 Clear 17 1013 55 10000 7.2 200 10:57 09.03.2021
6505 Clear 17 1013 55 10000 7.2 200 10:38 09.03.2021
6506 Clear 17 1013 55 10000 7.2 200 10:20 09.03.2021
6507 Clouds 16 1010 69 10000 2.45 221 09:44 09.03.2021
6508 Clear 16 1010 72 10000 2.58 215 09:26 09.03.2021
6509 Clear 15 1010 81 10000 2.58 215 08:48 09.03.2021
6510 Clear 14 1010 86 10000 2.3 194 08:28 09.03.2021
6511 Clear 12 1010 90 10000 2.3 194 07:40 09.03.2021
6512 Clear 12 1010 90 10000 2.47 187 07:21 09.03.2021
6513 Clear 11 1010 90 10000 2.16 183 06:18 09.03.2021
6514 Clear 11 1010 91 10000 2.15 183 05:46 09.03.2021
6515 Clouds 11 1011 87 10000 1.98 202 00:38 09.03.2021
6516 Clouds 12 1011 85 10000 1.93 205 23:45 08.03.2021
6517 Clouds 12 1011 85 10000 2.04 215 23:27 08.03.2021
6518 Clouds 12 1013 82 10000 3.6 210 22:55 08.03.2021
6519 Clouds 12 1013 82 10000 3.6 210 22:36 08.03.2021
6520 Clouds 12 1013 82 10000 4.12 210 22:18 08.03.2021
6521 Clouds 11 1013 76 10000 3.09 190 21:40 08.03.2021
6522 Clouds 11 1013 76 10000 2.57 190 21:20 08.03.2021
6523 Clouds 11 1013 77 10000 2.06 230 20:38 08.03.2021
6524 Clouds 11 1013 72 10000 1.54 130 20:18 08.03.2021
6525 Clouds 11 1013 72 10000 2.57 80 19:38 08.03.2021
6526 Clouds 14 1012 67 10000 4.63 70 18:48 08.03.2021
6527 Clouds 13 1012 67 10000 5.14 60 18:23 08.03.2021
6528 Clouds 15 1012 72 10000 5.14 40 17:57 08.03.2021
6529 Clouds 15 1012 72 10000 5.14 40 17:38 08.03.2021
6530 Clouds 14 1012 72 10000 6.17 60 16:58 08.03.2021
6531 Clouds 14 1012 72 10000 6.17 60 16:33 08.03.2021
6532 Clouds 14 1012 72 10000 6.17 40 15:59 08.03.2021
6533 Clouds 14 1012 72 10000 6.17 40 15:38 08.03.2021
6534 Clouds 14 1012 72 10000 5.14 40 15:18 08.03.2021
6535 Clear 15 1013 77 10000 4.63 30 14:21 08.03.2021
6536 Clear 14 1013 77 10000 4.12 30 13:48 08.03.2021
6537 Clear 14 1013 77 10000 3.09 360 13:23 08.03.2021
6538 Clear 15 1014 72 10000 1.54 360 12:56 08.03.2021
6539 Clouds 17 1010 63 10000 0.89 359 12:29 08.03.2021
6540 Clear 16 1014 72 10000 2.57 270 11:45 08.03.2021
6541 Clouds 17 1011 64 10000 0.45 353 11:22 08.03.2021
6542 Clear 16 1014 77 10000 4.12 240 10:55 08.03.2021
6543 Clear 16 1014 77 10000 4.12 240 10:37 08.03.2021
6544 Clouds 16 1011 66 10000 0.73 170 10:18 08.03.2021
6545 Clouds 15 1012 74 10000 1.82 174 09:26 08.03.2021
6546 Clouds 14 1012 85 10000 1.82 174 08:50 08.03.2021
6547 Clouds 14 1011 87 10000 1.28 164 08:23 08.03.2021
6548 Clouds 11 1012 91 10000 1.97 162 07:21 08.03.2021
6549 Clouds 10 1012 91 10000 1.04 161 05:23 08.03.2021
6550 Clouds 12 1013 89 10000 1.58 201 02:19 08.03.2021
6551 Clouds 12 1015 86 10000 2.19 187 00:42 08.03.2021
6552 Clouds 13 1015 85 10000 1.74 167 23:53 07.03.2021
6553 Clouds 13 1016 83 10000 1.82 146 23:21 07.03.2021
6554 Clouds 13 1016 81 10000 1.82 146 22:47 07.03.2021
6555 Clouds 14 1016 80 10000 1.88 130 22:27 07.03.2021
6556 Clouds 14 1016 79 10000 1.88 130 21:53 07.03.2021
6557 Clouds 14 1016 79 10000 1.88 130 21:33 07.03.2021
6558 Clouds 15 1016 79 10000 1.96 130 20:58 07.03.2021
6559 Clouds 15 1016 79 10000 1.96 130 20:58 07.03.2021
6560 Clouds 15 1016 79 10000 1.96 130 20:40 07.03.2021
6561 Clouds 15 1017 79 10000 2.15 119 20:18 07.03.2021
6562 Clouds 15 1017 78 10000 2.15 119 19:40 07.03.2021
6563 Clouds 15 1017 78 10000 2.28 114 19:22 07.03.2021
6564 Clouds 15 1017 77 10000 1.94 111 18:54 07.03.2021
6565 Clouds 15 1017 74 10000 1.98 98 18:21 07.03.2021
6566 Clouds 16 1017 72 10000 1.98 98 17:59 07.03.2021
6567 Clouds 16 1017 69 10000 1.98 98 17:39 07.03.2021
6568 Clouds 16 1017 66 10000 1.88 92 17:19 07.03.2021
6569 Clear 16 1019 67 10000 6.69 60 16:43 07.03.2021
6570 Clear 17 1019 72 10000 7.72 60 16:21 07.03.2021
6571 Clear 16 1019 67 10000 7.72 60 15:50 07.03.2021
6572 Clouds 17 1020 63 10000 7.72 60 15:31 07.03.2021
6573 Clouds 17 1020 59 10000 7.72 60 14:56 07.03.2021
6574 Clouds 18 1021 63 10000 6.69 60 14:29 07.03.2021
6575 Clouds 18 1021 63 10000 6.17 60 13:51 07.03.2021
6576 Clouds 17 1022 63 10000 5.66 60 13:29 07.03.2021
6577 Clouds 17 1022 63 10000 4.12 60 12:48 07.03.2021
6578 Clouds 17 1019 69 10000 1.34 8 12:30 07.03.2021
6579 Clouds 17 1023 72 10000 3.6 30 11:58 07.03.2021
6580 Clouds 16 1023 67 10000 2.06 30 11:23 07.03.2021
6581 Clear 17 1020 77 10000 0.45 356 10:54 07.03.2021
6582 Clear 16 1021 77 10000 0.45 2 10:36 07.03.2021
6583 Clear 16 1021 78 10000 1.34 351 09:53 07.03.2021
6584 Clear 16 1021 80 10000 0.99 153 09:27 07.03.2021
6585 Clear 15 1021 86 10000 0.99 153 08:57 07.03.2021
6586 Clear 14 1021 90 10000 0.99 153 08:38 07.03.2021
6587 Clear 13 1021 92 10000 1.52 186 08:20 07.03.2021
6588 Clear 11 1020 94 10000 0.89 178 05:26 07.03.2021
6589 Clear 11 1021 91 10000 1.06 175 02:33 07.03.2021
6590 Clear 11 1021 88 10000 1.64 178 00:34 07.03.2021
6591 Clear 12 1021 86 10000 2.05 160 23:40 06.03.2021
6592 Clear 12 1021 86 10000 2.63 145 23:20 06.03.2021
6593 Clear 13 1021 85 10000 2.63 145 22:45 06.03.2021
6594 Clear 12 1023 87 10000 1.03 0 22:21 06.03.2021
6595 Clear 13 1021 83 10000 3.12 135 21:46 06.03.2021
6596 Clear 11 1023 76 10000 1.03 190 21:20 06.03.2021
6597 Clear 11 1023 77 10000 1.03 0 20:42 06.03.2021
6598 Clear 12 1022 72 10000 2.06 270 19:59 06.03.2021
6599 Clear 12 1022 72 10000 2.06 270 19:37 06.03.2021
6600 Clear 12 1022 67 10000 1.54 100 19:18 06.03.2021
6601 Clear 13 1022 67 10000 5.14 60 18:41 06.03.2021
6602 Clear 13 1021 72 10000 6.17 60 18:20 06.03.2021
6603 Clear 16 1021 67 10000 7.72 60 17:49 06.03.2021
6604 Clear 14 1021 67 10000 7.2 60 17:30 06.03.2021
6605 Clouds 16 1021 67 10000 7.72 60 16:58 06.03.2021
6606 Clouds 16 1021 67 10000 7.72 60 16:33 06.03.2021
6607 Clouds 15 1022 67 10000 6.69 50 15:56 06.03.2021
6608 Clouds 17 1022 67 10000 6.69 50 15:38 06.03.2021
6609 Clouds 15 1021 59 10000 6.69 50 15:19 06.03.2021
6610 Clouds 17 1022 55 10000 5.66 60 14:31 06.03.2021
6611 Clouds 16 1022 59 10000 5.66 60 13:55 06.03.2021
6612 Clouds 16 1022 59 10000 5.66 60 13:37 06.03.2021
6613 Clouds 16 1022 63 10000 6.17 50 13:18 06.03.2021
6614 Clouds 15 1022 63 10000 6.17 40 12:42 06.03.2021
6615 Clouds 15 1022 72 10000 5.66 40 12:18 06.03.2021
6616 Clouds 15 1022 77 10000 5.14 30 11:38 06.03.2021
6617 Clear 15 1022 77 10000 2.57 20 11:19 06.03.2021
6618 Clouds 15 1022 72 10000 1.03 0 10:43 06.03.2021
6619 Clear 14 1022 77 10000 2.06 240 09:58 06.03.2021
6620 Clear 15 1020 79 10000 1.1 106 09:26 06.03.2021
6621 Clear 14 1020 85 10000 1.1 106 08:58 06.03.2021
6622 Clear 13 1019 89 10000 1.1 106 08:31 06.03.2021
6623 Clear 12 1019 93 10000 1.88 142 07:56 06.03.2021
6624 Clear 11 1018 94 10000 1.98 136 07:22 06.03.2021
6625 Clear 10 1018 94 10000 1.98 136 06:44 06.03.2021
6626 Clear 12 1019 82 10000 2.06 130 03:49 06.03.2021
6627 Clear 12 1019 82 10000 2.06 130 03:49 06.03.2021
6628 Clear 12 1020 71 10000 1.54 200 02:24 06.03.2021
6629 Clear 12 1020 82 10000 2.06 200 00:47 06.03.2021
6630 Clear 12 1019 76 10000 1.03 180 23:51 05.03.2021
6631